<?xml version="1.0" encoding="utf-8"?>
<gpx xmlns="http://www.topografix.com/GPX/1/1" xmlns:xsd="http://www.w3.org/2001/XMLSchema" xmlns:xsi="http://www.w3.org/2001/XMLSchema-instance" version="1.1" creator="Fugawi 4,1,10,1453 http://www.fugawi.com/" xsi:schemaLocation="http://www.topografix.com/GPX/1/1 http://www.topografix.com/GPX/1/1/gpx.xsd">
  <trk>
    <name>EmsRadweg ganz</name>
    <desc></desc>
    <trkseg>
      <trkpt lat="51.85635" lon="8.69868">
        <ele>120.00</ele>
        <time>2005-07-04T08:54:25.000Z</time>
      </trkpt>
      <trkpt lat="51.85624" lon="8.69877">
        <ele>119.00</ele>
        <time>2005-07-04T08:54:46.000Z</time>
      </trkpt>
      <trkpt lat="51.85635" lon="8.69885">
        <ele>106.00</ele>
        <time>2005-07-04T08:55:14.000Z</time>
      </trkpt>
      <trkpt lat="51.85639" lon="8.69890">
        <ele>107.00</ele>
        <time>2005-07-04T08:55:20.000Z</time>
      </trkpt>
      <trkpt lat="51.85648" lon="8.69918">
        <ele>106.00</ele>
        <time>2005-07-04T08:55:46.000Z</time>
      </trkpt>
      <trkpt lat="51.85654" lon="8.69920">
        <ele>106.00</ele>
        <time>2005-07-04T08:56:14.000Z</time>
      </trkpt>
      <trkpt lat="51.85654" lon="8.69928">
        <ele>108.00</ele>
        <time>2005-07-04T08:56:54.000Z</time>
      </trkpt>
      <trkpt lat="51.85682" lon="8.69924">
        <ele>108.00</ele>
        <time>2005-07-04T08:57:09.000Z</time>
      </trkpt>
      <trkpt lat="51.85721" lon="8.69875">
        <ele>109.00</ele>
        <time>2005-07-04T08:57:34.000Z</time>
      </trkpt>
      <trkpt lat="51.85600" lon="8.69327">
        <ele>105.00</ele>
        <time>2005-07-04T08:59:00.000Z</time>
      </trkpt>
      <trkpt lat="51.85549" lon="8.69190">
        <ele>107.00</ele>
        <time>2005-07-04T08:59:27.000Z</time>
      </trkpt>
      <trkpt lat="51.85532" lon="8.69158">
        <ele>106.00</ele>
        <time>2005-07-04T08:59:34.000Z</time>
      </trkpt>
      <trkpt lat="51.85500" lon="8.69109">
        <ele>106.00</ele>
        <time>2005-07-04T09:01:51.000Z</time>
      </trkpt>
      <trkpt lat="51.85446" lon="8.69010">
        <ele>106.00</ele>
        <time>2005-07-04T09:02:11.000Z</time>
      </trkpt>
      <trkpt lat="51.85448" lon="8.68999">
        <ele>107.00</ele>
        <time>2005-07-04T09:03:14.000Z</time>
      </trkpt>
      <trkpt lat="51.85382" lon="8.68847">
        <ele>106.00</ele>
        <time>2005-07-04T09:03:51.000Z</time>
      </trkpt>
      <trkpt lat="51.85369" lon="8.68810">
        <ele>105.00</ele>
        <time>2005-07-04T09:03:58.000Z</time>
      </trkpt>
      <trkpt lat="51.85358" lon="8.68810">
        <ele>104.00</ele>
        <time>2005-07-04T09:04:04.000Z</time>
      </trkpt>
      <trkpt lat="51.85277" lon="8.68840">
        <ele>103.00</ele>
        <time>2005-07-04T09:04:22.000Z</time>
      </trkpt>
      <trkpt lat="51.85249" lon="8.68832">
        <ele>104.00</ele>
        <time>2005-07-04T09:04:28.000Z</time>
      </trkpt>
      <trkpt lat="51.85111" lon="8.68701">
        <ele>143.85</ele>
        <time>2008-07-24T15:32:18.000Z</time>
      </trkpt>
      <trkpt lat="51.85092" lon="8.68677">
        <ele>150.58</ele>
        <time>2008-07-24T15:32:48.000Z</time>
      </trkpt>
      <trkpt lat="51.84980" lon="8.68510">
        <ele>145.78</ele>
        <time>2008-07-24T15:33:23.000Z</time>
      </trkpt>
      <trkpt lat="51.84783" lon="8.68330">
        <ele>143.37</ele>
        <time>2008-07-24T15:34:12.000Z</time>
      </trkpt>
      <trkpt lat="51.84656" lon="8.68222">
        <ele>141.45</ele>
        <time>2008-07-24T15:34:42.000Z</time>
      </trkpt>
      <trkpt lat="51.84583" lon="8.68177">
        <ele>137.13</ele>
        <time>2008-07-24T15:35:03.000Z</time>
      </trkpt>
      <trkpt lat="51.84564" lon="8.68186">
        <ele>137.61</ele>
        <time>2008-07-24T15:35:08.000Z</time>
      </trkpt>
      <trkpt lat="51.84450" lon="8.68289">
        <ele>133.28</ele>
        <time>2008-07-24T15:35:36.000Z</time>
      </trkpt>
      <trkpt lat="51.84283" lon="8.68424">
        <ele>126.55</ele>
        <time>2008-07-24T15:36:21.000Z</time>
      </trkpt>
      <trkpt lat="51.83852" lon="8.68744">
        <ele>127.03</ele>
        <time>2008-07-24T15:38:11.000Z</time>
      </trkpt>
      <trkpt lat="51.83785" lon="8.68817">
        <ele>126.55</ele>
        <time>2008-07-24T15:38:30.000Z</time>
      </trkpt>
      <trkpt lat="51.83717" lon="8.68931">
        <ele>124.63</ele>
        <time>2008-07-24T15:38:53.000Z</time>
      </trkpt>
      <trkpt lat="51.83656" lon="8.69046">
        <ele>123.19</ele>
        <time>2008-07-24T15:39:17.000Z</time>
      </trkpt>
      <trkpt lat="51.83517" lon="8.69394">
        <ele>123.19</ele>
        <time>2008-07-24T15:40:26.000Z</time>
      </trkpt>
      <trkpt lat="51.83393" lon="8.69664">
        <ele>124.15</ele>
        <time>2008-07-24T15:41:17.000Z</time>
      </trkpt>
      <trkpt lat="51.83330" lon="8.69757">
        <ele>124.63</ele>
        <time>2008-07-24T15:41:39.000Z</time>
      </trkpt>
      <trkpt lat="51.83320" lon="8.69763">
        <ele>124.15</ele>
        <time>2008-07-24T15:41:52.000Z</time>
      </trkpt>
      <trkpt lat="51.83176" lon="8.69450">
        <ele>131.84</ele>
        <time>2008-07-24T15:43:02.000Z</time>
      </trkpt>
      <trkpt lat="51.83135" lon="8.69336">
        <ele>131.84</ele>
        <time>2008-07-24T15:43:23.000Z</time>
      </trkpt>
      <trkpt lat="51.83101" lon="8.69192">
        <ele>130.88</ele>
        <time>2008-07-24T15:43:44.000Z</time>
      </trkpt>
      <trkpt lat="51.83056" lon="8.69021">
        <ele>126.55</ele>
        <time>2008-07-24T15:44:02.000Z</time>
      </trkpt>
      <trkpt lat="51.82914" lon="8.68624">
        <ele>124.63</ele>
        <time>2008-07-24T15:44:53.000Z</time>
      </trkpt>
      <trkpt lat="51.82820" lon="8.68321">
        <ele>124.15</ele>
        <time>2008-07-24T15:45:35.000Z</time>
      </trkpt>
      <trkpt lat="51.82755" lon="8.68160">
        <ele>122.22</ele>
        <time>2008-07-24T15:45:58.000Z</time>
      </trkpt>
      <trkpt lat="51.82693" lon="8.68019">
        <ele>120.30</ele>
        <time>2008-07-24T15:46:18.000Z</time>
      </trkpt>
      <trkpt lat="51.82534" lon="8.67695">
        <ele>117.90</ele>
        <time>2008-07-24T15:47:04.000Z</time>
      </trkpt>
      <trkpt lat="51.82463" lon="8.67564">
        <ele>115.50</ele>
        <time>2008-07-24T15:47:25.000Z</time>
      </trkpt>
      <trkpt lat="51.82397" lon="8.67454">
        <ele>115.50</ele>
        <time>2008-07-24T15:47:46.000Z</time>
      </trkpt>
      <trkpt lat="51.82345" lon="8.67326">
        <ele>113.09</ele>
        <time>2008-07-24T15:48:06.000Z</time>
      </trkpt>
      <trkpt lat="51.82300" lon="8.67186">
        <ele>114.05</ele>
        <time>2008-07-24T15:48:26.000Z</time>
      </trkpt>
      <trkpt lat="51.82272" lon="8.67049">
        <ele>112.61</ele>
        <time>2008-07-24T15:48:48.000Z</time>
      </trkpt>
      <trkpt lat="51.82287" lon="8.66847">
        <ele>112.13</ele>
        <time>2008-07-24T15:49:23.000Z</time>
      </trkpt>
      <trkpt lat="51.82296" lon="8.66802">
        <ele>111.17</ele>
        <time>2008-07-24T15:49:34.000Z</time>
      </trkpt>
      <trkpt lat="51.82270" lon="8.66484">
        <ele>108.77</ele>
        <time>2008-07-24T15:50:17.000Z</time>
      </trkpt>
      <trkpt lat="51.82251" lon="8.66345">
        <ele>109.25</ele>
        <time>2008-07-24T15:50:38.000Z</time>
      </trkpt>
      <trkpt lat="51.82214" lon="8.66233">
        <ele>110.69</ele>
        <time>2008-07-24T15:50:58.000Z</time>
      </trkpt>
      <trkpt lat="51.82167" lon="8.66113">
        <ele>109.73</ele>
        <time>2008-07-24T15:51:20.000Z</time>
      </trkpt>
      <trkpt lat="51.82103" lon="8.65965">
        <ele>109.73</ele>
        <time>2008-07-24T15:51:49.000Z</time>
      </trkpt>
      <trkpt lat="51.82094" lon="8.65950">
        <ele>109.25</ele>
        <time>2008-07-24T15:51:52.000Z</time>
      </trkpt>
      <trkpt lat="51.82073" lon="8.65869">
        <ele>107.81</ele>
        <time>2008-07-24T15:52:06.000Z</time>
      </trkpt>
      <trkpt lat="51.82118" lon="8.65824">
        <ele>108.29</ele>
        <time>2008-07-24T15:52:20.000Z</time>
      </trkpt>
      <trkpt lat="51.82142" lon="8.65796">
        <ele>108.77</ele>
        <time>2008-07-24T15:52:27.000Z</time>
      </trkpt>
      <trkpt lat="51.82165" lon="8.65778">
        <ele>108.77</ele>
        <time>2008-07-24T15:52:33.000Z</time>
      </trkpt>
      <trkpt lat="51.82255" lon="8.65665">
        <ele>108.29</ele>
        <time>2008-07-24T15:53:21.000Z</time>
      </trkpt>
      <trkpt lat="51.82257" lon="8.65665">
        <ele>107.32</ele>
        <time>2008-07-24T15:53:32.000Z</time>
      </trkpt>
      <trkpt lat="51.82253" lon="8.65643">
        <ele>109.25</ele>
        <time>2008-07-24T15:53:38.000Z</time>
      </trkpt>
      <trkpt lat="51.82270" lon="8.65624">
        <ele>109.73</ele>
        <time>2008-07-24T15:53:45.000Z</time>
      </trkpt>
      <trkpt lat="51.82272" lon="8.65605">
        <ele>109.73</ele>
        <time>2008-07-24T15:53:49.000Z</time>
      </trkpt>
      <trkpt lat="51.82249" lon="8.65476">
        <ele>108.77</ele>
        <time>2008-07-24T15:54:08.000Z</time>
      </trkpt>
      <trkpt lat="51.82249" lon="8.65326">
        <ele>107.81</ele>
        <time>2008-07-24T15:54:27.000Z</time>
      </trkpt>
      <trkpt lat="51.82262" lon="8.65053">
        <ele>107.81</ele>
        <time>2008-07-24T15:55:02.000Z</time>
      </trkpt>
      <trkpt lat="51.82281" lon="8.64942">
        <ele>106.36</ele>
        <time>2008-07-24T15:55:18.000Z</time>
      </trkpt>
      <trkpt lat="51.82352" lon="8.64706">
        <ele>105.40</ele>
        <time>2008-07-24T15:55:54.000Z</time>
      </trkpt>
      <trkpt lat="51.82408" lon="8.64577">
        <ele>104.44</ele>
        <time>2008-07-24T15:56:15.000Z</time>
      </trkpt>
      <trkpt lat="51.82438" lon="8.64495">
        <ele>103.96</ele>
        <time>2008-07-24T15:56:28.000Z</time>
      </trkpt>
      <trkpt lat="51.82491" lon="8.64386">
        <ele>103.48</ele>
        <time>2008-07-24T15:56:47.000Z</time>
      </trkpt>
      <trkpt lat="51.82523" lon="8.64311">
        <ele>103.48</ele>
        <time>2008-07-24T15:57:00.000Z</time>
      </trkpt>
      <trkpt lat="51.82541" lon="8.64225">
        <ele>103.96</ele>
        <time>2008-07-24T15:57:15.000Z</time>
      </trkpt>
      <trkpt lat="51.82588" lon="8.64146">
        <ele>103.96</ele>
        <time>2008-07-24T15:57:37.000Z</time>
      </trkpt>
      <trkpt lat="51.82734" lon="8.63927">
        <ele>105.40</ele>
        <time>2008-07-24T15:58:28.000Z</time>
      </trkpt>
      <trkpt lat="51.82760" lon="8.63929">
        <ele>105.40</ele>
        <time>2008-07-24T15:58:37.000Z</time>
      </trkpt>
      <trkpt lat="51.82766" lon="8.63899">
        <ele>106.36</ele>
        <time>2008-07-24T15:58:48.000Z</time>
      </trkpt>
      <trkpt lat="51.82910" lon="8.62671">
        <ele>95.00</ele>
        <time>2005-07-04T09:36:21.000Z</time>
      </trkpt>
      <trkpt lat="51.82963" lon="8.62420">
        <ele>94.00</ele>
        <time>2005-07-04T09:36:45.000Z</time>
      </trkpt>
      <trkpt lat="51.83092" lon="8.62045">
        <ele>93.00</ele>
        <time>2005-07-04T09:37:25.000Z</time>
      </trkpt>
      <trkpt lat="51.83161" lon="8.61938">
        <ele>93.00</ele>
        <time>2005-07-04T09:37:43.000Z</time>
      </trkpt>
      <trkpt lat="51.83229" lon="8.61858">
        <ele>93.00</ele>
        <time>2005-07-04T09:37:59.000Z</time>
      </trkpt>
      <trkpt lat="51.83229" lon="8.61832">
        <ele>92.00</ele>
        <time>2005-07-04T09:38:03.000Z</time>
      </trkpt>
      <trkpt lat="51.83193" lon="8.61717">
        <ele>92.00</ele>
        <time>2005-07-04T09:38:18.000Z</time>
      </trkpt>
      <trkpt lat="51.83195" lon="8.61573">
        <ele>92.00</ele>
        <time>2005-07-04T09:38:34.000Z</time>
      </trkpt>
      <trkpt lat="51.83219" lon="8.61519">
        <ele>92.00</ele>
        <time>2005-07-04T09:38:41.000Z</time>
      </trkpt>
      <trkpt lat="51.83290" lon="8.61438">
        <ele>92.00</ele>
        <time>2005-07-04T09:38:56.000Z</time>
      </trkpt>
      <trkpt lat="51.83360" lon="8.61401">
        <ele>92.00</ele>
        <time>2005-07-04T09:39:09.000Z</time>
      </trkpt>
      <trkpt lat="51.83465" lon="8.61307">
        <ele>92.00</ele>
        <time>2005-07-04T09:39:28.000Z</time>
      </trkpt>
      <trkpt lat="51.83674" lon="8.61036">
        <ele>92.00</ele>
        <time>2005-07-04T09:40:10.000Z</time>
      </trkpt>
      <trkpt lat="51.83772" lon="8.60835">
        <ele>93.00</ele>
        <time>2005-07-04T09:40:35.000Z</time>
      </trkpt>
      <trkpt lat="51.83768" lon="8.60809">
        <ele>93.00</ele>
        <time>2005-07-04T09:40:39.000Z</time>
      </trkpt>
      <trkpt lat="51.83206" lon="8.60077">
        <ele>90.00</ele>
        <time>2005-07-04T09:42:29.000Z</time>
      </trkpt>
      <trkpt lat="51.83197" lon="8.60047">
        <ele>90.00</ele>
        <time>2005-07-04T09:42:32.000Z</time>
      </trkpt>
      <trkpt lat="51.83103" lon="8.59813">
        <ele>90.00</ele>
        <time>2005-07-04T09:42:58.000Z</time>
      </trkpt>
      <trkpt lat="51.83011" lon="8.59654">
        <ele>90.00</ele>
        <time>2005-07-04T09:43:19.000Z</time>
      </trkpt>
      <trkpt lat="51.83002" lon="8.59646">
        <ele>90.00</ele>
        <time>2005-07-04T09:43:21.000Z</time>
      </trkpt>
      <trkpt lat="51.83008" lon="8.59620">
        <ele>89.00</ele>
        <time>2005-07-04T09:43:26.000Z</time>
      </trkpt>
      <trkpt lat="51.83184" lon="8.59406">
        <ele>90.00</ele>
        <time>2005-07-04T09:44:05.000Z</time>
      </trkpt>
      <trkpt lat="51.83272" lon="8.58959">
        <ele>89.00</ele>
        <time>2005-07-04T09:44:54.000Z</time>
      </trkpt>
      <trkpt lat="51.83294" lon="8.58760">
        <ele>89.00</ele>
        <time>2005-07-04T09:45:15.000Z</time>
      </trkpt>
      <trkpt lat="51.83296" lon="8.58644">
        <ele>89.00</ele>
        <time>2005-07-04T09:45:28.000Z</time>
      </trkpt>
      <trkpt lat="51.83292" lon="8.58607">
        <ele>88.00</ele>
        <time>2005-07-04T09:45:35.000Z</time>
      </trkpt>
      <trkpt lat="51.83275" lon="8.58562">
        <ele>88.00</ele>
        <time>2005-07-04T09:45:45.000Z</time>
      </trkpt>
      <trkpt lat="51.83272" lon="8.58545">
        <ele>88.00</ele>
        <time>2005-07-04T09:45:47.000Z</time>
      </trkpt>
      <trkpt lat="51.83283" lon="8.58451">
        <ele>88.00</ele>
        <time>2005-07-04T09:46:00.000Z</time>
      </trkpt>
      <trkpt lat="51.83279" lon="8.58358">
        <ele>88.00</ele>
        <time>2005-07-04T09:46:12.000Z</time>
      </trkpt>
      <trkpt lat="51.83320" lon="8.57760">
        <ele>87.00</ele>
        <time>2005-07-04T09:47:12.000Z</time>
      </trkpt>
      <trkpt lat="51.83287" lon="8.57393">
        <ele>86.00</ele>
        <time>2005-07-04T09:47:50.000Z</time>
      </trkpt>
      <trkpt lat="51.83298" lon="8.57384">
        <ele>86.00</ele>
        <time>2005-07-04T09:47:54.000Z</time>
      </trkpt>
      <trkpt lat="51.83393" lon="8.57395">
        <ele>87.00</ele>
        <time>2005-07-04T09:48:12.000Z</time>
      </trkpt>
      <trkpt lat="51.83515" lon="8.57391">
        <ele>88.00</ele>
        <time>2005-07-04T09:48:32.000Z</time>
      </trkpt>
      <trkpt lat="51.83873" lon="8.57455">
        <ele>90.00</ele>
        <time>2005-07-04T09:49:36.000Z</time>
      </trkpt>
      <trkpt lat="51.83895" lon="8.57281">
        <ele>90.00</ele>
        <time>2005-07-04T09:50:00.000Z</time>
      </trkpt>
      <trkpt lat="51.83877" lon="8.56798">
        <ele>90.00</ele>
        <time>2005-07-04T09:51:07.000Z</time>
      </trkpt>
      <trkpt lat="51.83841" lon="8.56683">
        <ele>90.00</ele>
        <time>2005-07-04T09:51:24.000Z</time>
      </trkpt>
      <trkpt lat="51.83826" lon="8.56558">
        <ele>88.00</ele>
        <time>2005-07-04T09:51:47.000Z</time>
      </trkpt>
      <trkpt lat="51.83822" lon="8.56528">
        <ele>89.00</ele>
        <time>2005-07-04T09:56:51.000Z</time>
      </trkpt>
      <trkpt lat="51.83751" lon="8.56307">
        <ele>90.00</ele>
        <time>2005-07-04T09:57:48.000Z</time>
      </trkpt>
      <trkpt lat="51.83714" lon="8.56208">
        <ele>90.00</ele>
        <time>2005-07-04T09:58:03.000Z</time>
      </trkpt>
      <trkpt lat="51.83695" lon="8.56041">
        <ele>90.00</ele>
        <time>2005-07-04T09:58:22.000Z</time>
      </trkpt>
      <trkpt lat="51.83704" lon="8.55893">
        <ele>90.00</ele>
        <time>2005-07-04T09:58:38.000Z</time>
      </trkpt>
      <trkpt lat="51.83747" lon="8.55788">
        <ele>89.00</ele>
        <time>2005-07-04T09:58:51.000Z</time>
      </trkpt>
      <trkpt lat="51.83768" lon="8.55646">
        <ele>89.00</ele>
        <time>2005-07-04T09:59:06.000Z</time>
      </trkpt>
      <trkpt lat="51.83759" lon="8.55530">
        <ele>89.00</ele>
        <time>2005-07-04T09:59:18.000Z</time>
      </trkpt>
      <trkpt lat="51.83738" lon="8.55462">
        <ele>89.00</ele>
        <time>2005-07-04T09:59:26.000Z</time>
      </trkpt>
      <trkpt lat="51.83744" lon="8.55384">
        <ele>89.00</ele>
        <time>2005-07-04T09:59:34.000Z</time>
      </trkpt>
      <trkpt lat="51.83742" lon="8.55356">
        <ele>89.00</ele>
        <time>2005-07-04T09:59:37.000Z</time>
      </trkpt>
      <trkpt lat="51.83734" lon="8.55309">
        <ele>89.00</ele>
        <time>2005-07-04T09:59:42.000Z</time>
      </trkpt>
      <trkpt lat="51.83712" lon="8.55292">
        <ele>88.00</ele>
        <time>2005-07-04T09:59:48.000Z</time>
      </trkpt>
      <trkpt lat="51.82734" lon="8.55560">
        <ele>88.00</ele>
        <time>2005-07-04T10:02:21.000Z</time>
      </trkpt>
      <trkpt lat="51.82459" lon="8.55584">
        <ele>88.00</ele>
        <time>2005-07-04T10:03:11.000Z</time>
      </trkpt>
      <trkpt lat="51.82425" lon="8.55537">
        <ele>88.00</ele>
        <time>2005-07-04T10:03:18.000Z</time>
      </trkpt>
      <trkpt lat="51.82403" lon="8.55457">
        <ele>88.00</ele>
        <time>2005-07-04T10:03:27.000Z</time>
      </trkpt>
      <trkpt lat="51.82408" lon="8.55176">
        <ele>87.00</ele>
        <time>2005-07-04T10:03:58.000Z</time>
      </trkpt>
      <trkpt lat="51.82425" lon="8.55095">
        <ele>87.00</ele>
        <time>2005-07-04T10:04:08.000Z</time>
      </trkpt>
      <trkpt lat="51.82414" lon="8.54921">
        <ele>87.00</ele>
        <time>2005-07-04T10:04:28.000Z</time>
      </trkpt>
      <trkpt lat="51.82408" lon="8.54889">
        <ele>87.00</ele>
        <time>2005-07-04T10:04:32.000Z</time>
      </trkpt>
      <trkpt lat="51.82418" lon="8.54766">
        <ele>87.00</ele>
        <time>2005-07-04T10:04:46.000Z</time>
      </trkpt>
      <trkpt lat="51.82436" lon="8.54728">
        <ele>87.00</ele>
        <time>2005-07-04T10:04:51.000Z</time>
      </trkpt>
      <trkpt lat="51.82521" lon="8.54605">
        <ele>86.00</ele>
        <time>2005-07-04T10:05:09.000Z</time>
      </trkpt>
      <trkpt lat="51.82569" lon="8.54449">
        <ele>86.00</ele>
        <time>2005-07-04T10:05:27.000Z</time>
      </trkpt>
      <trkpt lat="51.82594" lon="8.54389">
        <ele>86.00</ele>
        <time>2005-07-04T10:05:36.000Z</time>
      </trkpt>
      <trkpt lat="51.82768" lon="8.54239">
        <ele>87.00</ele>
        <time>2005-07-04T10:06:14.000Z</time>
      </trkpt>
      <trkpt lat="51.83041" lon="8.53820">
        <ele>85.00</ele>
        <time>2005-07-04T10:07:15.000Z</time>
      </trkpt>
      <trkpt lat="51.83045" lon="8.53816">
        <ele>87.00</ele>
        <time>2005-07-04T10:07:21.000Z</time>
      </trkpt>
      <trkpt lat="51.83056" lon="8.53794">
        <ele>87.00</ele>
        <time>2005-07-04T10:16:17.000Z</time>
      </trkpt>
      <trkpt lat="51.83126" lon="8.53670">
        <ele>86.00</ele>
        <time>2005-07-04T10:17:00.000Z</time>
      </trkpt>
      <trkpt lat="51.83206" lon="8.53550">
        <ele>88.00</ele>
        <time>2005-07-04T10:17:34.000Z</time>
      </trkpt>
      <trkpt lat="51.83210" lon="8.53524">
        <ele>88.00</ele>
        <time>2005-07-04T10:17:43.000Z</time>
      </trkpt>
      <trkpt lat="51.83172" lon="8.53417">
        <ele>89.00</ele>
        <time>2005-07-04T10:18:09.000Z</time>
      </trkpt>
      <trkpt lat="51.83146" lon="8.53391">
        <ele>88.00</ele>
        <time>2005-07-04T10:18:24.000Z</time>
      </trkpt>
      <trkpt lat="51.82983" lon="8.53288">
        <ele>89.00</ele>
        <time>2005-07-04T10:21:04.000Z</time>
      </trkpt>
      <trkpt lat="51.82770" lon="8.53232">
        <ele>88.00</ele>
        <time>2005-07-04T10:22:18.000Z</time>
      </trkpt>
      <trkpt lat="51.82751" lon="8.53226">
        <ele>89.00</ele>
        <time>2005-07-04T10:26:20.000Z</time>
      </trkpt>
      <trkpt lat="51.82575" lon="8.53125">
        <ele>90.00</ele>
        <time>2005-07-04T10:27:30.000Z</time>
      </trkpt>
      <trkpt lat="51.82560" lon="8.53123">
        <ele>88.00</ele>
        <time>2005-07-04T10:35:20.000Z</time>
      </trkpt>
      <trkpt lat="51.82403" lon="8.53103">
        <ele>88.00</ele>
        <time>2005-07-04T10:36:22.000Z</time>
      </trkpt>
      <trkpt lat="51.82255" lon="8.53037">
        <ele>90.00</ele>
        <time>2005-07-04T10:37:09.000Z</time>
      </trkpt>
      <trkpt lat="51.82021" lon="8.53069">
        <ele>89.00</ele>
        <time>2005-07-04T10:41:14.000Z</time>
      </trkpt>
      <trkpt lat="51.81914" lon="8.53054">
        <ele>89.00</ele>
        <time>2005-07-04T10:41:46.000Z</time>
      </trkpt>
      <trkpt lat="51.81906" lon="8.53071">
        <ele>89.00</ele>
        <time>2005-07-04T10:41:54.000Z</time>
      </trkpt>
      <trkpt lat="51.81899" lon="8.53065">
        <ele>89.00</ele>
        <time>2005-07-04T10:42:00.000Z</time>
      </trkpt>
      <trkpt lat="51.81886" lon="8.53065">
        <ele>87.00</ele>
        <time>2005-07-04T10:42:04.000Z</time>
      </trkpt>
      <trkpt lat="51.81880" lon="8.53091">
        <ele>88.00</ele>
        <time>2005-07-04T10:42:10.000Z</time>
      </trkpt>
      <trkpt lat="51.81865" lon="8.53194">
        <ele>87.00</ele>
        <time>2005-07-04T10:42:26.000Z</time>
      </trkpt>
      <trkpt lat="51.81818" lon="8.53415">
        <ele>87.00</ele>
        <time>2005-07-04T10:43:00.000Z</time>
      </trkpt>
      <trkpt lat="51.81803" lon="8.53543">
        <ele>87.00</ele>
        <time>2005-07-04T10:43:18.000Z</time>
      </trkpt>
      <trkpt lat="51.81803" lon="8.53636">
        <ele>88.00</ele>
        <time>2005-07-04T10:43:31.000Z</time>
      </trkpt>
      <trkpt lat="51.81798" lon="8.53663">
        <ele>88.00</ele>
        <time>2005-07-04T10:43:35.000Z</time>
      </trkpt>
      <trkpt lat="51.81764" lon="8.53751">
        <ele>86.00</ele>
        <time>2005-07-04T10:43:51.000Z</time>
      </trkpt>
      <trkpt lat="51.81749" lon="8.53764">
        <ele>87.00</ele>
        <time>2005-07-04T10:44:03.000Z</time>
      </trkpt>
      <trkpt lat="51.81742" lon="8.53756">
        <ele>87.00</ele>
        <time>2005-07-04T10:44:50.000Z</time>
      </trkpt>
      <trkpt lat="51.81732" lon="8.53771">
        <ele>86.00</ele>
        <time>2005-07-04T10:47:13.000Z</time>
      </trkpt>
      <trkpt lat="51.81663" lon="8.53902">
        <ele>86.00</ele>
        <time>2005-07-04T10:47:42.000Z</time>
      </trkpt>
      <trkpt lat="51.81605" lon="8.53938">
        <ele>86.00</ele>
        <time>2005-07-04T10:47:58.000Z</time>
      </trkpt>
      <trkpt lat="51.81551" lon="8.53940">
        <ele>87.00</ele>
        <time>2005-07-04T10:48:09.000Z</time>
      </trkpt>
      <trkpt lat="51.81524" lon="8.53893">
        <ele>86.00</ele>
        <time>2005-07-04T10:48:16.000Z</time>
      </trkpt>
      <trkpt lat="51.81391" lon="8.53569">
        <ele>85.00</ele>
        <time>2005-07-04T10:48:55.000Z</time>
      </trkpt>
      <trkpt lat="51.81079" lon="8.53194">
        <ele>85.00</ele>
        <time>2005-07-04T10:49:58.000Z</time>
      </trkpt>
      <trkpt lat="51.80989" lon="8.53357">
        <ele>84.00</ele>
        <time>2005-07-04T10:50:21.000Z</time>
      </trkpt>
      <trkpt lat="51.80826" lon="8.53528">
        <ele>84.00</ele>
        <time>2005-07-04T10:50:52.000Z</time>
      </trkpt>
      <trkpt lat="51.80803" lon="8.53526">
        <ele>84.00</ele>
        <time>2005-07-04T10:50:56.000Z</time>
      </trkpt>
      <trkpt lat="51.80575" lon="8.53400">
        <ele>85.00</ele>
        <time>2005-07-04T10:51:34.000Z</time>
      </trkpt>
      <trkpt lat="51.80442" lon="8.53219">
        <ele>85.00</ele>
        <time>2005-07-04T10:52:04.000Z</time>
      </trkpt>
      <trkpt lat="51.80412" lon="8.53095">
        <ele>85.00</ele>
        <time>2005-07-04T10:52:17.000Z</time>
      </trkpt>
      <trkpt lat="51.80423" lon="8.52912">
        <ele>85.00</ele>
        <time>2005-07-04T10:52:33.000Z</time>
      </trkpt>
      <trkpt lat="51.80399" lon="8.52846">
        <ele>84.00</ele>
        <time>2005-07-04T10:52:41.000Z</time>
      </trkpt>
      <trkpt lat="51.80398" lon="8.52833">
        <ele>83.00</ele>
        <time>2005-07-04T10:52:47.000Z</time>
      </trkpt>
      <trkpt lat="51.80470" lon="8.52580">
        <ele>84.00</ele>
        <time>2005-07-04T10:55:24.000Z</time>
      </trkpt>
      <trkpt lat="51.80459" lon="8.52541">
        <ele>84.00</ele>
        <time>2005-07-04T10:55:30.000Z</time>
      </trkpt>
      <trkpt lat="51.80245" lon="8.52164">
        <ele>82.00</ele>
        <time>2005-07-04T10:56:28.000Z</time>
      </trkpt>
      <trkpt lat="51.80150" lon="8.52058">
        <ele>82.00</ele>
        <time>2005-07-04T10:56:47.000Z</time>
      </trkpt>
      <trkpt lat="51.80090" lon="8.52048">
        <ele>81.00</ele>
        <time>2005-07-04T10:56:57.000Z</time>
      </trkpt>
      <trkpt lat="51.80069" lon="8.52033">
        <ele>81.00</ele>
        <time>2005-07-04T10:57:01.000Z</time>
      </trkpt>
      <trkpt lat="51.80054" lon="8.52005">
        <ele>82.00</ele>
        <time>2005-07-04T10:57:05.000Z</time>
      </trkpt>
      <trkpt lat="51.80105" lon="8.51807">
        <ele>81.00</ele>
        <time>2005-07-04T10:57:26.000Z</time>
      </trkpt>
      <trkpt lat="51.80240" lon="8.51548">
        <ele>81.00</ele>
        <time>2005-07-04T10:57:59.000Z</time>
      </trkpt>
      <trkpt lat="51.80288" lon="8.50908">
        <ele>81.00</ele>
        <time>2005-07-04T10:59:03.000Z</time>
      </trkpt>
      <trkpt lat="51.80277" lon="8.50868">
        <ele>81.00</ele>
        <time>2005-07-04T10:59:08.000Z</time>
      </trkpt>
      <trkpt lat="51.80176" lon="8.50722">
        <ele>81.00</ele>
        <time>2005-07-04T10:59:30.000Z</time>
      </trkpt>
      <trkpt lat="51.79996" lon="8.50516">
        <ele>81.00</ele>
        <time>2005-07-04T11:00:05.000Z</time>
      </trkpt>
      <trkpt lat="51.79818" lon="8.50069">
        <ele>81.00</ele>
        <time>2005-07-04T11:00:57.000Z</time>
      </trkpt>
      <trkpt lat="51.79758" lon="8.49981">
        <ele>81.00</ele>
        <time>2005-07-04T11:01:09.000Z</time>
      </trkpt>
      <trkpt lat="51.79743" lon="8.49971">
        <ele>81.00</ele>
        <time>2005-07-04T11:02:01.000Z</time>
      </trkpt>
      <trkpt lat="51.79734" lon="8.49943">
        <ele>83.00</ele>
        <time>2005-07-04T11:07:20.000Z</time>
      </trkpt>
      <trkpt lat="51.79580" lon="8.50183">
        <ele>82.00</ele>
        <time>2005-07-04T11:08:12.000Z</time>
      </trkpt>
      <trkpt lat="51.79577" lon="8.50189">
        <ele>84.00</ele>
        <time>2005-07-04T11:11:24.000Z</time>
      </trkpt>
      <trkpt lat="51.79571" lon="8.50174">
        <ele>83.00</ele>
        <time>2005-07-04T11:11:29.000Z</time>
      </trkpt>
      <trkpt lat="51.79494" lon="8.49788">
        <ele>83.00</ele>
        <time>2005-07-04T11:12:20.000Z</time>
      </trkpt>
      <trkpt lat="51.79481" lon="8.49777">
        <ele>82.00</ele>
        <time>2005-07-04T11:12:24.000Z</time>
      </trkpt>
      <trkpt lat="51.79298" lon="8.49898">
        <ele>82.00</ele>
        <time>2005-07-04T11:13:02.000Z</time>
      </trkpt>
      <trkpt lat="51.79258" lon="8.49941">
        <ele>82.00</ele>
        <time>2005-07-04T11:13:11.000Z</time>
      </trkpt>
      <trkpt lat="51.79240" lon="8.49919">
        <ele>82.00</ele>
        <time>2005-07-04T11:13:16.000Z</time>
      </trkpt>
      <trkpt lat="51.79056" lon="8.48861">
        <ele>81.00</ele>
        <time>2005-07-04T11:15:13.000Z</time>
      </trkpt>
      <trkpt lat="51.79065" lon="8.48844">
        <ele>81.00</ele>
        <time>2005-07-04T11:15:17.000Z</time>
      </trkpt>
      <trkpt lat="51.79301" lon="8.48863">
        <ele>82.00</ele>
        <time>2005-07-04T11:15:59.000Z</time>
      </trkpt>
      <trkpt lat="51.79324" lon="8.48831">
        <ele>81.00</ele>
        <time>2005-07-04T11:16:05.000Z</time>
      </trkpt>
      <trkpt lat="51.79395" lon="8.48507">
        <ele>82.00</ele>
        <time>2005-07-04T11:16:41.000Z</time>
      </trkpt>
      <trkpt lat="51.79386" lon="8.48370">
        <ele>82.00</ele>
        <time>2005-07-04T11:16:55.000Z</time>
      </trkpt>
      <trkpt lat="51.79343" lon="8.48087">
        <ele>82.00</ele>
        <time>2005-07-04T11:17:26.000Z</time>
      </trkpt>
      <trkpt lat="51.79451" lon="8.47703">
        <ele>81.00</ele>
        <time>2005-07-04T11:18:08.000Z</time>
      </trkpt>
      <trkpt lat="51.79528" lon="8.47522">
        <ele>82.00</ele>
        <time>2005-07-04T11:18:30.000Z</time>
      </trkpt>
      <trkpt lat="51.79528" lon="8.47497">
        <ele>82.00</ele>
        <time>2005-07-04T11:18:34.000Z</time>
      </trkpt>
      <trkpt lat="51.79511" lon="8.47456">
        <ele>81.00</ele>
        <time>2005-07-04T11:18:40.000Z</time>
      </trkpt>
      <trkpt lat="51.79515" lon="8.47417">
        <ele>81.00</ele>
        <time>2005-07-04T11:18:44.000Z</time>
      </trkpt>
      <trkpt lat="51.79552" lon="8.47241">
        <ele>80.00</ele>
        <time>2005-07-04T11:19:03.000Z</time>
      </trkpt>
      <trkpt lat="51.79584" lon="8.46825">
        <ele>80.00</ele>
        <time>2005-07-04T11:19:44.000Z</time>
      </trkpt>
      <trkpt lat="51.79545" lon="8.46625">
        <ele>80.00</ele>
        <time>2005-07-04T11:20:05.000Z</time>
      </trkpt>
      <trkpt lat="51.79526" lon="8.46587">
        <ele>80.00</ele>
        <time>2005-07-04T11:20:10.000Z</time>
      </trkpt>
      <trkpt lat="51.79301" lon="8.46316">
        <ele>80.00</ele>
        <time>2005-07-04T11:20:58.000Z</time>
      </trkpt>
      <trkpt lat="51.79206" lon="8.45971">
        <ele>79.00</ele>
        <time>2005-07-04T11:21:39.000Z</time>
      </trkpt>
      <trkpt lat="51.79161" lon="8.45557">
        <ele>79.00</ele>
        <time>2005-07-04T11:22:21.000Z</time>
      </trkpt>
      <trkpt lat="51.79168" lon="8.45171">
        <ele>79.00</ele>
        <time>2005-07-04T11:23:01.000Z</time>
      </trkpt>
      <trkpt lat="51.79172" lon="8.45153">
        <ele>78.00</ele>
        <time>2005-07-04T11:24:53.000Z</time>
      </trkpt>
      <trkpt lat="51.79170" lon="8.44969">
        <ele>78.00</ele>
        <time>2005-07-04T11:25:22.000Z</time>
      </trkpt>
      <trkpt lat="51.79183" lon="8.44889">
        <ele>79.00</ele>
        <time>2005-07-04T11:25:37.000Z</time>
      </trkpt>
      <trkpt lat="51.79187" lon="8.44881">
        <ele>79.00</ele>
        <time>2005-07-04T11:25:48.000Z</time>
      </trkpt>
      <trkpt lat="51.79219" lon="8.44840">
        <ele>78.00</ele>
        <time>2005-07-04T11:26:43.000Z</time>
      </trkpt>
      <trkpt lat="51.79213" lon="8.44782">
        <ele>77.00</ele>
        <time>2005-07-04T11:32:53.000Z</time>
      </trkpt>
      <trkpt lat="51.79204" lon="8.44619">
        <ele>77.00</ele>
        <time>2005-07-04T11:33:19.000Z</time>
      </trkpt>
      <trkpt lat="51.79198" lon="8.44583">
        <ele>78.00</ele>
        <time>2005-07-04T11:33:24.000Z</time>
      </trkpt>
      <trkpt lat="51.79142" lon="8.44475">
        <ele>78.00</ele>
        <time>2005-07-04T11:33:43.000Z</time>
      </trkpt>
      <trkpt lat="51.79116" lon="8.44349">
        <ele>77.00</ele>
        <time>2005-07-04T11:34:00.000Z</time>
      </trkpt>
      <trkpt lat="51.79105" lon="8.44194">
        <ele>76.00</ele>
        <time>2005-07-04T11:34:22.000Z</time>
      </trkpt>
      <trkpt lat="51.79110" lon="8.44098">
        <ele>76.00</ele>
        <time>2005-07-04T11:34:40.000Z</time>
      </trkpt>
      <trkpt lat="51.79090" lon="8.43977">
        <ele>76.00</ele>
        <time>2005-07-04T11:35:01.000Z</time>
      </trkpt>
      <trkpt lat="51.78989" lon="8.43653">
        <ele>77.00</ele>
        <time>2005-07-04T11:35:50.000Z</time>
      </trkpt>
      <trkpt lat="51.78987" lon="8.43518">
        <ele>77.00</ele>
        <time>2005-07-04T11:36:04.000Z</time>
      </trkpt>
      <trkpt lat="51.78957" lon="8.43379">
        <ele>77.00</ele>
        <time>2005-07-04T11:36:19.000Z</time>
      </trkpt>
      <trkpt lat="51.78957" lon="8.43362">
        <ele>77.00</ele>
        <time>2005-07-04T11:36:21.000Z</time>
      </trkpt>
      <trkpt lat="51.79000" lon="8.43141">
        <ele>77.00</ele>
        <time>2005-07-04T11:36:45.000Z</time>
      </trkpt>
      <trkpt lat="51.79039" lon="8.43074">
        <ele>77.00</ele>
        <time>2005-07-04T11:36:56.000Z</time>
      </trkpt>
      <trkpt lat="51.79037" lon="8.43050">
        <ele>77.00</ele>
        <time>2005-07-04T11:37:00.000Z</time>
      </trkpt>
      <trkpt lat="51.79052" lon="8.43033">
        <ele>76.00</ele>
        <time>2005-07-04T11:37:04.000Z</time>
      </trkpt>
      <trkpt lat="51.79073" lon="8.43020">
        <ele>76.00</ele>
        <time>2005-07-04T11:37:08.000Z</time>
      </trkpt>
      <trkpt lat="51.79187" lon="8.42915">
        <ele>76.00</ele>
        <time>2005-07-04T11:37:32.000Z</time>
      </trkpt>
      <trkpt lat="51.79964" lon="8.42724">
        <ele>78.00</ele>
        <time>2005-07-04T11:49:44.000Z</time>
      </trkpt>
      <trkpt lat="51.79966" lon="8.42744">
        <ele>77.00</ele>
        <time>2005-07-04T11:49:56.000Z</time>
      </trkpt>
      <trkpt lat="51.79974" lon="8.42782">
        <ele>77.00</ele>
        <time>2005-07-04T11:50:22.000Z</time>
      </trkpt>
      <trkpt lat="51.79991" lon="8.42947">
        <ele>76.00</ele>
        <time>2005-07-04T11:50:49.000Z</time>
      </trkpt>
      <trkpt lat="51.80011" lon="8.43012">
        <ele>76.00</ele>
        <time>2005-07-04T11:50:59.000Z</time>
      </trkpt>
      <trkpt lat="51.80028" lon="8.43194">
        <ele>78.00</ele>
        <time>2005-07-04T11:51:25.000Z</time>
      </trkpt>
      <trkpt lat="51.80202" lon="8.43218">
        <ele>78.00</ele>
        <time>2005-07-04T11:52:02.000Z</time>
      </trkpt>
      <trkpt lat="51.80335" lon="8.43141">
        <ele>76.00</ele>
        <time>2005-07-04T11:52:32.000Z</time>
      </trkpt>
      <trkpt lat="51.80461" lon="8.43132">
        <ele>76.00</ele>
        <time>2005-07-04T11:53:01.000Z</time>
      </trkpt>
      <trkpt lat="51.80479" lon="8.43141">
        <ele>77.00</ele>
        <time>2005-07-04T11:53:07.000Z</time>
      </trkpt>
      <trkpt lat="51.80485" lon="8.43166">
        <ele>76.00</ele>
        <time>2005-07-04T11:53:12.000Z</time>
      </trkpt>
      <trkpt lat="51.80517" lon="8.43207">
        <ele>76.00</ele>
        <time>2005-07-04T11:53:23.000Z</time>
      </trkpt>
      <trkpt lat="51.80524" lon="8.43231">
        <ele>76.00</ele>
        <time>2005-07-04T11:53:27.000Z</time>
      </trkpt>
      <trkpt lat="51.80519" lon="8.43254">
        <ele>76.00</ele>
        <time>2005-07-04T11:53:30.000Z</time>
      </trkpt>
      <trkpt lat="51.80532" lon="8.43291">
        <ele>75.00</ele>
        <time>2005-07-04T11:53:36.000Z</time>
      </trkpt>
      <trkpt lat="51.80582" lon="8.43357">
        <ele>76.00</ele>
        <time>2005-07-04T11:53:52.000Z</time>
      </trkpt>
      <trkpt lat="51.80633" lon="8.43398">
        <ele>75.00</ele>
        <time>2005-07-04T11:54:07.000Z</time>
      </trkpt>
      <trkpt lat="51.80678" lon="8.43484">
        <ele>77.00</ele>
        <time>2005-07-04T11:54:26.000Z</time>
      </trkpt>
      <trkpt lat="51.80758" lon="8.43409">
        <ele>75.00</ele>
        <time>2005-07-04T11:54:52.000Z</time>
      </trkpt>
      <trkpt lat="51.80755" lon="8.43392">
        <ele>75.00</ele>
        <time>2005-07-04T11:54:56.000Z</time>
      </trkpt>
      <trkpt lat="51.80655" lon="8.43143">
        <ele>77.00</ele>
        <time>2005-07-04T11:55:52.000Z</time>
      </trkpt>
      <trkpt lat="51.80661" lon="8.43128">
        <ele>77.00</ele>
        <time>2005-07-04T11:55:55.000Z</time>
      </trkpt>
      <trkpt lat="51.80732" lon="8.43010">
        <ele>76.00</ele>
        <time>2005-07-04T11:56:17.000Z</time>
      </trkpt>
      <trkpt lat="51.80824" lon="8.42793">
        <ele>76.00</ele>
        <time>2005-07-04T11:57:11.000Z</time>
      </trkpt>
      <trkpt lat="51.80828" lon="8.42767">
        <ele>76.00</ele>
        <time>2005-07-04T11:57:39.000Z</time>
      </trkpt>
      <trkpt lat="51.80826" lon="8.42681">
        <ele>78.00</ele>
        <time>2005-07-04T12:47:35.000Z</time>
      </trkpt>
      <trkpt lat="51.80824" lon="8.42664">
        <ele>76.00</ele>
        <time>2005-07-04T12:47:38.000Z</time>
      </trkpt>
      <trkpt lat="51.80820" lon="8.42469">
        <ele>61.00</ele>
        <time>2005-07-04T12:48:11.000Z</time>
      </trkpt>
      <trkpt lat="51.80839" lon="8.42471">
        <ele>61.00</ele>
        <time>2005-07-04T12:48:17.000Z</time>
      </trkpt>
      <trkpt lat="51.80893" lon="8.42490">
        <ele>62.00</ele>
        <time>2005-07-04T12:48:28.000Z</time>
      </trkpt>
      <trkpt lat="51.80979" lon="8.42568">
        <ele>61.00</ele>
        <time>2005-07-04T12:48:47.000Z</time>
      </trkpt>
      <trkpt lat="51.80998" lon="8.42596">
        <ele>61.00</ele>
        <time>2005-07-04T12:48:52.000Z</time>
      </trkpt>
      <trkpt lat="51.81017" lon="8.42591">
        <ele>60.00</ele>
        <time>2005-07-04T12:48:59.000Z</time>
      </trkpt>
      <trkpt lat="51.81028" lon="8.42591">
        <ele>60.00</ele>
        <time>2005-07-04T12:49:04.000Z</time>
      </trkpt>
      <trkpt lat="51.81043" lon="8.42553">
        <ele>60.00</ele>
        <time>2005-07-04T12:49:13.000Z</time>
      </trkpt>
      <trkpt lat="51.81021" lon="8.42460">
        <ele>61.00</ele>
        <time>2005-07-04T12:49:26.000Z</time>
      </trkpt>
      <trkpt lat="51.81028" lon="8.42433">
        <ele>63.00</ele>
        <time>2005-07-04T12:53:42.000Z</time>
      </trkpt>
      <trkpt lat="51.81034" lon="8.42349">
        <ele>65.00</ele>
        <time>2005-07-04T12:55:56.000Z</time>
      </trkpt>
      <trkpt lat="51.81034" lon="8.42231">
        <ele>65.00</ele>
        <time>2005-07-04T12:56:15.000Z</time>
      </trkpt>
      <trkpt lat="51.81047" lon="8.42227">
        <ele>65.00</ele>
        <time>2005-07-04T12:56:19.000Z</time>
      </trkpt>
      <trkpt lat="51.81056" lon="8.42227">
        <ele>65.00</ele>
        <time>2005-07-04T12:56:21.000Z</time>
      </trkpt>
      <trkpt lat="51.81103" lon="8.42156">
        <ele>65.00</ele>
        <time>2005-07-04T12:56:37.000Z</time>
      </trkpt>
      <trkpt lat="51.81161" lon="8.42063">
        <ele>64.00</ele>
        <time>2005-07-04T12:56:53.000Z</time>
      </trkpt>
      <trkpt lat="51.81170" lon="8.42042">
        <ele>64.00</ele>
        <time>2005-07-04T12:56:56.000Z</time>
      </trkpt>
      <trkpt lat="51.81200" lon="8.41885">
        <ele>65.00</ele>
        <time>2005-07-04T12:57:17.000Z</time>
      </trkpt>
      <trkpt lat="51.81197" lon="8.41746">
        <ele>66.00</ele>
        <time>2005-07-04T12:57:36.000Z</time>
      </trkpt>
      <trkpt lat="51.81157" lon="8.41576">
        <ele>65.00</ele>
        <time>2005-07-04T12:57:59.000Z</time>
      </trkpt>
      <trkpt lat="51.81135" lon="8.41362">
        <ele>65.00</ele>
        <time>2005-07-04T12:58:27.000Z</time>
      </trkpt>
      <trkpt lat="51.81137" lon="8.41345">
        <ele>66.00</ele>
        <time>2005-07-04T12:58:29.000Z</time>
      </trkpt>
      <trkpt lat="51.81191" lon="8.41104">
        <ele>66.00</ele>
        <time>2005-07-04T12:58:58.000Z</time>
      </trkpt>
      <trkpt lat="51.81195" lon="8.40885">
        <ele>66.00</ele>
        <time>2005-07-04T12:59:27.000Z</time>
      </trkpt>
      <trkpt lat="51.81146" lon="8.40549">
        <ele>67.00</ele>
        <time>2005-07-04T13:00:09.000Z</time>
      </trkpt>
      <trkpt lat="51.81144" lon="8.40368">
        <ele>68.00</ele>
        <time>2005-07-04T13:00:30.000Z</time>
      </trkpt>
      <trkpt lat="51.81122" lon="8.40209">
        <ele>68.00</ele>
        <time>2005-07-04T13:00:48.000Z</time>
      </trkpt>
      <trkpt lat="51.81043" lon="8.39924">
        <ele>67.00</ele>
        <time>2005-07-04T13:01:25.000Z</time>
      </trkpt>
      <trkpt lat="51.81039" lon="8.39896">
        <ele>67.00</ele>
        <time>2005-07-04T13:01:28.000Z</time>
      </trkpt>
      <trkpt lat="51.81043" lon="8.39725">
        <ele>67.00</ele>
        <time>2005-07-04T13:01:48.000Z</time>
      </trkpt>
      <trkpt lat="51.81060" lon="8.39643">
        <ele>67.00</ele>
        <time>2005-07-04T13:01:58.000Z</time>
      </trkpt>
      <trkpt lat="51.81079" lon="8.39594">
        <ele>67.00</ele>
        <time>2005-07-04T13:02:05.000Z</time>
      </trkpt>
      <trkpt lat="51.81116" lon="8.39353">
        <ele>68.00</ele>
        <time>2005-07-04T13:02:35.000Z</time>
      </trkpt>
      <trkpt lat="51.81107" lon="8.39182">
        <ele>68.00</ele>
        <time>2005-07-04T13:02:59.000Z</time>
      </trkpt>
      <trkpt lat="51.81069" lon="8.39010">
        <ele>68.00</ele>
        <time>2005-07-04T13:03:22.000Z</time>
      </trkpt>
      <trkpt lat="51.81058" lon="8.38877">
        <ele>68.00</ele>
        <time>2005-07-04T13:03:40.000Z</time>
      </trkpt>
      <trkpt lat="51.81088" lon="8.38808">
        <ele>69.00</ele>
        <time>2005-07-04T13:03:51.000Z</time>
      </trkpt>
      <trkpt lat="51.81092" lon="8.38802">
        <ele>69.00</ele>
        <time>2005-07-04T13:03:52.000Z</time>
      </trkpt>
      <trkpt lat="51.81099" lon="8.38789">
        <ele>69.00</ele>
        <time>2005-07-04T13:03:54.000Z</time>
      </trkpt>
      <trkpt lat="51.81174" lon="8.38686">
        <ele>69.00</ele>
        <time>2005-07-04T13:04:11.000Z</time>
      </trkpt>
      <trkpt lat="51.81264" lon="8.38467">
        <ele>67.00</ele>
        <time>2005-07-04T13:04:43.000Z</time>
      </trkpt>
      <trkpt lat="51.81260" lon="8.38474">
        <ele>70.00</ele>
        <time>2005-07-04T13:05:58.000Z</time>
      </trkpt>
      <trkpt lat="51.81393" lon="8.38109">
        <ele>70.00</ele>
        <time>2005-07-04T13:07:46.000Z</time>
      </trkpt>
      <trkpt lat="51.81616" lon="8.37926">
        <ele>70.00</ele>
        <time>2005-07-04T13:08:36.000Z</time>
      </trkpt>
      <trkpt lat="51.81644" lon="8.37918">
        <ele>69.00</ele>
        <time>2005-07-04T13:08:42.000Z</time>
      </trkpt>
      <trkpt lat="51.81951" lon="8.37645">
        <ele>69.00</ele>
        <time>2005-07-04T13:09:44.000Z</time>
      </trkpt>
      <trkpt lat="51.82079" lon="8.37596">
        <ele>70.00</ele>
        <time>2005-07-04T13:10:05.000Z</time>
      </trkpt>
      <trkpt lat="51.82081" lon="8.37306">
        <ele>70.00</ele>
        <time>2005-07-04T13:10:38.000Z</time>
      </trkpt>
      <trkpt lat="51.82178" lon="8.36772">
        <ele>72.00</ele>
        <time>2005-07-04T13:11:30.000Z</time>
      </trkpt>
      <trkpt lat="51.82169" lon="8.36660">
        <ele>71.00</ele>
        <time>2005-07-04T13:11:40.000Z</time>
      </trkpt>
      <trkpt lat="51.82199" lon="8.36555">
        <ele>71.00</ele>
        <time>2005-07-04T13:11:51.000Z</time>
      </trkpt>
      <trkpt lat="51.82223" lon="8.36521">
        <ele>70.00</ele>
        <time>2005-07-04T13:11:56.000Z</time>
      </trkpt>
      <trkpt lat="51.82272" lon="8.36405">
        <ele>70.00</ele>
        <time>2005-07-04T13:12:11.000Z</time>
      </trkpt>
      <trkpt lat="51.82290" lon="8.36394">
        <ele>70.00</ele>
        <time>2005-07-04T13:12:14.000Z</time>
      </trkpt>
      <trkpt lat="51.82485" lon="8.36384">
        <ele>71.00</ele>
        <time>2005-07-04T13:12:46.000Z</time>
      </trkpt>
      <trkpt lat="51.82657" lon="8.36523">
        <ele>69.00</ele>
        <time>2005-07-04T13:13:17.000Z</time>
      </trkpt>
      <trkpt lat="51.82678" lon="8.36504">
        <ele>70.00</ele>
        <time>2005-07-04T13:13:23.000Z</time>
      </trkpt>
      <trkpt lat="51.82869" lon="8.35871">
        <ele>70.00</ele>
        <time>2005-07-04T13:14:34.000Z</time>
      </trkpt>
      <trkpt lat="51.82867" lon="8.35830">
        <ele>70.00</ele>
        <time>2005-07-04T13:14:38.000Z</time>
      </trkpt>
      <trkpt lat="51.82875" lon="8.35796">
        <ele>71.00</ele>
        <time>2005-07-04T13:14:42.000Z</time>
      </trkpt>
      <trkpt lat="51.82923" lon="8.35731">
        <ele>71.00</ele>
        <time>2005-07-04T13:14:52.000Z</time>
      </trkpt>
      <trkpt lat="51.82976" lon="8.35740">
        <ele>70.00</ele>
        <time>2005-07-04T13:15:01.000Z</time>
      </trkpt>
      <trkpt lat="51.83004" lon="8.35768">
        <ele>70.00</ele>
        <time>2005-07-04T13:15:06.000Z</time>
      </trkpt>
      <trkpt lat="51.83034" lon="8.35742">
        <ele>71.00</ele>
        <time>2005-07-04T13:15:13.000Z</time>
      </trkpt>
      <trkpt lat="51.83090" lon="8.35637">
        <ele>70.00</ele>
        <time>2005-07-04T13:15:26.000Z</time>
      </trkpt>
      <trkpt lat="51.83178" lon="8.35324">
        <ele>70.00</ele>
        <time>2005-07-04T13:15:58.000Z</time>
      </trkpt>
      <trkpt lat="51.83199" lon="8.34948">
        <ele>71.00</ele>
        <time>2005-07-04T13:16:33.000Z</time>
      </trkpt>
      <trkpt lat="51.83210" lon="8.34929">
        <ele>71.00</ele>
        <time>2005-07-04T13:16:37.000Z</time>
      </trkpt>
      <trkpt lat="51.83262" lon="8.33757">
        <ele>70.00</ele>
        <time>2005-07-04T13:18:47.000Z</time>
      </trkpt>
      <trkpt lat="51.83253" lon="8.33616">
        <ele>70.00</ele>
        <time>2005-07-04T13:19:03.000Z</time>
      </trkpt>
      <trkpt lat="51.83232" lon="8.33575">
        <ele>70.00</ele>
        <time>2005-07-04T13:19:11.000Z</time>
      </trkpt>
      <trkpt lat="51.82996" lon="8.33277">
        <ele>70.00</ele>
        <time>2005-07-04T13:20:04.000Z</time>
      </trkpt>
      <trkpt lat="51.82966" lon="8.33191">
        <ele>70.00</ele>
        <time>2005-07-04T13:20:15.000Z</time>
      </trkpt>
      <trkpt lat="51.82957" lon="8.33062">
        <ele>70.00</ele>
        <time>2005-07-04T13:20:29.000Z</time>
      </trkpt>
      <trkpt lat="51.82951" lon="8.33021">
        <ele>70.00</ele>
        <time>2005-07-04T13:20:35.000Z</time>
      </trkpt>
      <trkpt lat="51.82841" lon="8.32976">
        <ele>69.00</ele>
        <time>2005-07-04T13:20:57.000Z</time>
      </trkpt>
      <trkpt lat="51.82845" lon="8.32946">
        <ele>69.00</ele>
        <time>2005-07-04T13:21:12.000Z</time>
      </trkpt>
      <trkpt lat="51.82848" lon="8.32933">
        <ele>70.00</ele>
        <time>2005-07-04T13:21:14.000Z</time>
      </trkpt>
      <trkpt lat="51.82863" lon="8.32895">
        <ele>69.00</ele>
        <time>2005-07-04T13:21:20.000Z</time>
      </trkpt>
      <trkpt lat="51.83013" lon="8.32382">
        <ele>70.00</ele>
        <time>2005-07-04T13:22:24.000Z</time>
      </trkpt>
      <trkpt lat="51.83150" lon="8.32079">
        <ele>69.00</ele>
        <time>2005-07-04T13:23:13.000Z</time>
      </trkpt>
      <trkpt lat="51.83165" lon="8.32011">
        <ele>69.00</ele>
        <time>2005-07-04T13:23:23.000Z</time>
      </trkpt>
      <trkpt lat="51.83358" lon="8.31880">
        <ele>71.00</ele>
        <time>2005-07-04T13:24:26.000Z</time>
      </trkpt>
      <trkpt lat="51.83629" lon="8.31706">
        <ele>69.00</ele>
        <time>2005-07-04T13:25:37.000Z</time>
      </trkpt>
      <trkpt lat="51.83706" lon="8.31624">
        <ele>70.00</ele>
        <time>2005-07-04T13:25:56.000Z</time>
      </trkpt>
      <trkpt lat="51.83777" lon="8.31517">
        <ele>70.00</ele>
        <time>2005-07-04T13:26:16.000Z</time>
      </trkpt>
      <trkpt lat="51.83805" lon="8.31440">
        <ele>71.00</ele>
        <time>2005-07-04T13:26:31.000Z</time>
      </trkpt>
      <trkpt lat="51.83802" lon="8.31427">
        <ele>72.00</ele>
        <time>2005-07-04T13:27:44.000Z</time>
      </trkpt>
      <trkpt lat="51.83817" lon="8.31382">
        <ele>71.00</ele>
        <time>2005-07-04T13:27:57.000Z</time>
      </trkpt>
      <trkpt lat="51.83824" lon="8.31341">
        <ele>71.00</ele>
        <time>2005-07-04T13:28:12.000Z</time>
      </trkpt>
      <trkpt lat="51.83820" lon="8.31330">
        <ele>70.00</ele>
        <time>2005-07-04T13:28:26.000Z</time>
      </trkpt>
      <trkpt lat="51.83815" lon="8.31244">
        <ele>70.00</ele>
        <time>2005-07-04T13:28:44.000Z</time>
      </trkpt>
      <trkpt lat="51.83766" lon="8.31103">
        <ele>70.00</ele>
        <time>2005-07-04T13:29:06.000Z</time>
      </trkpt>
      <trkpt lat="51.83710" lon="8.31034">
        <ele>70.00</ele>
        <time>2005-07-04T13:29:21.000Z</time>
      </trkpt>
      <trkpt lat="51.83669" lon="8.31017">
        <ele>70.00</ele>
        <time>2005-07-04T13:29:33.000Z</time>
      </trkpt>
      <trkpt lat="51.83648" lon="8.31043">
        <ele>70.00</ele>
        <time>2005-07-04T13:29:45.000Z</time>
      </trkpt>
      <trkpt lat="51.83644" lon="8.31034">
        <ele>70.00</ele>
        <time>2005-07-04T13:29:51.000Z</time>
      </trkpt>
      <trkpt lat="51.83644" lon="8.31002">
        <ele>70.00</ele>
        <time>2005-07-04T13:29:57.000Z</time>
      </trkpt>
      <trkpt lat="51.83626" lon="8.30963">
        <ele>70.00</ele>
        <time>2005-07-04T13:30:07.000Z</time>
      </trkpt>
      <trkpt lat="51.83575" lon="8.30948">
        <ele>71.00</ele>
        <time>2005-07-04T13:30:24.000Z</time>
      </trkpt>
      <trkpt lat="51.83517" lon="8.30925">
        <ele>74.00</ele>
        <time>2005-07-04T13:41:21.000Z</time>
      </trkpt>
      <trkpt lat="51.83521" lon="8.30903">
        <ele>75.00</ele>
        <time>2005-07-04T13:41:29.000Z</time>
      </trkpt>
      <trkpt lat="51.83543" lon="8.30832">
        <ele>73.00</ele>
        <time>2005-07-04T13:42:02.000Z</time>
      </trkpt>
      <trkpt lat="51.83564" lon="8.30809">
        <ele>73.00</ele>
        <time>2005-07-04T13:42:51.000Z</time>
      </trkpt>
      <trkpt lat="51.83588" lon="8.30725">
        <ele>72.00</ele>
        <time>2005-07-04T13:43:14.000Z</time>
      </trkpt>
      <trkpt lat="51.83631" lon="8.30689">
        <ele>72.00</ele>
        <time>2005-07-04T13:43:31.000Z</time>
      </trkpt>
      <trkpt lat="51.83693" lon="8.30605">
        <ele>72.00</ele>
        <time>2005-07-04T13:43:52.000Z</time>
      </trkpt>
      <trkpt lat="51.83699" lon="8.30575">
        <ele>72.00</ele>
        <time>2005-07-04T13:43:57.000Z</time>
      </trkpt>
      <trkpt lat="51.83753" lon="8.30504">
        <ele>72.00</ele>
        <time>2005-07-04T13:44:14.000Z</time>
      </trkpt>
      <trkpt lat="51.83789" lon="8.30489">
        <ele>74.00</ele>
        <time>2005-07-04T13:44:27.000Z</time>
      </trkpt>
      <trkpt lat="51.83826" lon="8.30541">
        <ele>77.00</ele>
        <time>2005-07-04T13:45:14.000Z</time>
      </trkpt>
      <trkpt lat="51.83839" lon="8.30543">
        <ele>78.00</ele>
        <time>2005-07-04T13:45:23.000Z</time>
      </trkpt>
      <trkpt lat="51.83882" lon="8.30515">
        <ele>76.00</ele>
        <time>2005-07-04T13:45:39.000Z</time>
      </trkpt>
      <trkpt lat="51.83895" lon="8.30517">
        <ele>74.00</ele>
        <time>2005-07-04T13:45:47.000Z</time>
      </trkpt>
      <trkpt lat="51.83929" lon="8.30487">
        <ele>73.00</ele>
        <time>2005-07-04T13:45:59.000Z</time>
      </trkpt>
      <trkpt lat="51.83931" lon="8.30455">
        <ele>73.00</ele>
        <time>2005-07-04T13:46:07.000Z</time>
      </trkpt>
      <trkpt lat="51.83940" lon="8.30433">
        <ele>73.00</ele>
        <time>2005-07-04T13:46:17.000Z</time>
      </trkpt>
      <trkpt lat="51.83944" lon="8.30420">
        <ele>73.00</ele>
        <time>2005-07-04T13:47:23.000Z</time>
      </trkpt>
      <trkpt lat="51.83942" lon="8.30352">
        <ele>71.00</ele>
        <time>2005-07-04T13:47:35.000Z</time>
      </trkpt>
      <trkpt lat="51.83950" lon="8.30315">
        <ele>72.00</ele>
        <time>2005-07-04T13:47:40.000Z</time>
      </trkpt>
      <trkpt lat="51.83978" lon="8.30283">
        <ele>72.00</ele>
        <time>2005-07-04T13:47:49.000Z</time>
      </trkpt>
      <trkpt lat="51.84021" lon="8.30270">
        <ele>71.00</ele>
        <time>2005-07-04T13:47:59.000Z</time>
      </trkpt>
      <trkpt lat="51.84041" lon="8.30251">
        <ele>72.00</ele>
        <time>2005-07-04T13:48:04.000Z</time>
      </trkpt>
      <trkpt lat="51.84068" lon="8.30202">
        <ele>72.00</ele>
        <time>2005-07-04T13:48:12.000Z</time>
      </trkpt>
      <trkpt lat="51.84090" lon="8.30178">
        <ele>72.00</ele>
        <time>2005-07-04T13:48:17.000Z</time>
      </trkpt>
      <trkpt lat="51.84169" lon="8.30154">
        <ele>73.00</ele>
        <time>2005-07-04T13:48:33.000Z</time>
      </trkpt>
      <trkpt lat="51.84236" lon="8.30077">
        <ele>71.00</ele>
        <time>2005-07-04T13:48:59.000Z</time>
      </trkpt>
      <trkpt lat="51.84249" lon="8.30077">
        <ele>72.00</ele>
        <time>2005-07-04T13:49:02.000Z</time>
      </trkpt>
      <trkpt lat="51.84262" lon="8.30094">
        <ele>71.00</ele>
        <time>2005-07-04T13:49:06.000Z</time>
      </trkpt>
      <trkpt lat="51.84277" lon="8.30129">
        <ele>72.00</ele>
        <time>2005-07-04T13:49:11.000Z</time>
      </trkpt>
      <trkpt lat="51.84298" lon="8.30135">
        <ele>71.00</ele>
        <time>2005-07-04T13:49:17.000Z</time>
      </trkpt>
      <trkpt lat="51.84320" lon="8.30090">
        <ele>72.00</ele>
        <time>2005-07-04T13:49:28.000Z</time>
      </trkpt>
      <trkpt lat="51.84362" lon="8.30062">
        <ele>71.00</ele>
        <time>2005-07-04T13:49:41.000Z</time>
      </trkpt>
      <trkpt lat="51.84543" lon="8.30084">
        <ele>74.00</ele>
        <time>2005-07-04T13:50:22.000Z</time>
      </trkpt>
      <trkpt lat="51.84605" lon="8.30041">
        <ele>73.00</ele>
        <time>2005-07-04T13:50:41.000Z</time>
      </trkpt>
      <trkpt lat="51.84678" lon="8.30066">
        <ele>71.00</ele>
        <time>2005-07-04T13:51:10.000Z</time>
      </trkpt>
      <trkpt lat="51.84706" lon="8.30051">
        <ele>71.00</ele>
        <time>2005-07-04T13:51:16.000Z</time>
      </trkpt>
      <trkpt lat="51.84781" lon="8.30032">
        <ele>70.00</ele>
        <time>2005-07-04T13:51:32.000Z</time>
      </trkpt>
      <trkpt lat="51.84847" lon="8.29966">
        <ele>70.00</ele>
        <time>2005-07-04T13:51:53.000Z</time>
      </trkpt>
      <trkpt lat="51.84897" lon="8.29837">
        <ele>70.00</ele>
        <time>2005-07-04T13:52:11.000Z</time>
      </trkpt>
      <trkpt lat="51.84901" lon="8.29511">
        <ele>70.00</ele>
        <time>2005-07-04T13:52:49.000Z</time>
      </trkpt>
      <trkpt lat="51.84959" lon="8.29343">
        <ele>70.00</ele>
        <time>2005-07-04T13:53:11.000Z</time>
      </trkpt>
      <trkpt lat="51.84970" lon="8.29326">
        <ele>70.00</ele>
        <time>2005-07-04T13:53:14.000Z</time>
      </trkpt>
      <trkpt lat="51.84983" lon="8.29292">
        <ele>70.00</ele>
        <time>2005-07-04T13:53:19.000Z</time>
      </trkpt>
      <trkpt lat="51.85023" lon="8.29253">
        <ele>70.00</ele>
        <time>2005-07-04T13:53:33.000Z</time>
      </trkpt>
      <trkpt lat="51.85081" lon="8.29264">
        <ele>70.00</ele>
        <time>2005-07-04T13:53:52.000Z</time>
      </trkpt>
      <trkpt lat="51.85150" lon="8.29311">
        <ele>71.00</ele>
        <time>2005-07-04T13:54:11.000Z</time>
      </trkpt>
      <trkpt lat="51.85156" lon="8.29324">
        <ele>72.00</ele>
        <time>2005-07-04T13:54:34.000Z</time>
      </trkpt>
      <trkpt lat="51.85169" lon="8.29285">
        <ele>71.00</ele>
        <time>2005-07-04T13:54:59.000Z</time>
      </trkpt>
      <trkpt lat="51.85176" lon="8.29290">
        <ele>70.00</ele>
        <time>2005-07-04T13:55:35.000Z</time>
      </trkpt>
      <trkpt lat="51.85186" lon="8.29253">
        <ele>75.00</ele>
        <time>2005-07-04T14:13:33.000Z</time>
      </trkpt>
      <trkpt lat="51.85223" lon="8.29270">
        <ele>75.00</ele>
        <time>2005-07-04T14:13:47.000Z</time>
      </trkpt>
      <trkpt lat="51.85371" lon="8.29433">
        <ele>73.00</ele>
        <time>2005-07-04T14:14:24.000Z</time>
      </trkpt>
      <trkpt lat="51.85478" lon="8.29502">
        <ele>74.00</ele>
        <time>2005-07-04T14:14:56.000Z</time>
      </trkpt>
      <trkpt lat="51.85470" lon="8.29571">
        <ele>73.00</ele>
        <time>2005-07-04T14:22:32.000Z</time>
      </trkpt>
      <trkpt lat="51.85455" lon="8.29633">
        <ele>73.00</ele>
        <time>2005-07-04T14:22:45.000Z</time>
      </trkpt>
      <trkpt lat="51.85706" lon="8.29989">
        <ele>72.00</ele>
        <time>2005-07-04T14:24:23.000Z</time>
      </trkpt>
      <trkpt lat="51.85811" lon="8.30075">
        <ele>71.00</ele>
        <time>2005-07-04T14:24:48.000Z</time>
      </trkpt>
      <trkpt lat="51.85897" lon="8.30111">
        <ele>72.00</ele>
        <time>2005-07-04T14:25:03.000Z</time>
      </trkpt>
      <trkpt lat="51.85982" lon="8.30103">
        <ele>72.00</ele>
        <time>2005-07-04T14:25:22.000Z</time>
      </trkpt>
      <trkpt lat="51.85993" lon="8.30114">
        <ele>72.00</ele>
        <time>2005-07-04T14:25:26.000Z</time>
      </trkpt>
      <trkpt lat="51.86107" lon="8.30624">
        <ele>74.00</ele>
        <time>2005-07-04T14:26:49.000Z</time>
      </trkpt>
      <trkpt lat="51.86124" lon="8.30633">
        <ele>74.00</ele>
        <time>2005-07-04T14:26:54.000Z</time>
      </trkpt>
      <trkpt lat="51.86206" lon="8.30609">
        <ele>73.00</ele>
        <time>2005-07-04T14:27:10.000Z</time>
      </trkpt>
      <trkpt lat="51.86236" lon="8.30631">
        <ele>73.00</ele>
        <time>2005-07-04T14:27:16.000Z</time>
      </trkpt>
      <trkpt lat="51.86244" lon="8.30642">
        <ele>73.00</ele>
        <time>2005-07-04T14:27:18.000Z</time>
      </trkpt>
      <trkpt lat="51.86867" lon="8.31547">
        <ele>74.00</ele>
        <time>2005-07-04T14:29:49.000Z</time>
      </trkpt>
      <trkpt lat="51.87242" lon="8.31442">
        <ele>75.00</ele>
        <time>2005-07-04T14:30:52.000Z</time>
      </trkpt>
      <trkpt lat="51.87375" lon="8.31444">
        <ele>74.00</ele>
        <time>2005-07-04T14:31:14.000Z</time>
      </trkpt>
      <trkpt lat="51.87641" lon="8.31560">
        <ele>74.00</ele>
        <time>2005-07-04T14:32:03.000Z</time>
      </trkpt>
      <trkpt lat="51.87952" lon="8.31489">
        <ele>73.00</ele>
        <time>2005-07-04T14:32:58.000Z</time>
      </trkpt>
      <trkpt lat="51.88145" lon="8.31667">
        <ele>71.00</ele>
        <time>2005-07-04T14:33:28.000Z</time>
      </trkpt>
      <trkpt lat="51.89092" lon="8.32051">
        <ele>72.00</ele>
        <time>2005-07-04T14:36:25.000Z</time>
      </trkpt>
      <trkpt lat="51.89075" lon="8.32081">
        <ele>73.00</ele>
        <time>2005-07-04T14:36:32.000Z</time>
      </trkpt>
      <trkpt lat="51.89090" lon="8.32096">
        <ele>73.00</ele>
        <time>2005-07-04T14:36:35.000Z</time>
      </trkpt>
      <trkpt lat="51.89317" lon="8.32201">
        <ele>72.00</ele>
        <time>2005-07-04T14:37:20.000Z</time>
      </trkpt>
      <trkpt lat="51.89366" lon="8.32191">
        <ele>71.00</ele>
        <time>2005-07-04T14:39:18.000Z</time>
      </trkpt>
      <trkpt lat="51.89401" lon="8.32126">
        <ele>74.00</ele>
        <time>2005-07-04T14:40:56.000Z</time>
      </trkpt>
      <trkpt lat="51.89463" lon="8.31963">
        <ele>75.00</ele>
        <time>2005-07-04T14:41:19.000Z</time>
      </trkpt>
      <trkpt lat="51.89562" lon="8.31794">
        <ele>73.00</ele>
        <time>2005-07-04T14:41:45.000Z</time>
      </trkpt>
      <trkpt lat="51.89776" lon="8.31629">
        <ele>73.00</ele>
        <time>2005-07-04T14:42:15.000Z</time>
      </trkpt>
      <trkpt lat="51.89954" lon="8.31590">
        <ele>73.00</ele>
        <time>2005-07-04T14:42:45.000Z</time>
      </trkpt>
      <trkpt lat="51.90008" lon="8.31549">
        <ele>71.00</ele>
        <time>2005-07-04T15:25:09.000Z</time>
      </trkpt>
      <trkpt lat="51.89941" lon="8.31423">
        <ele>69.00</ele>
        <time>2005-07-04T15:25:26.000Z</time>
      </trkpt>
      <trkpt lat="51.89920" lon="8.31275">
        <ele>72.00</ele>
        <time>2005-07-04T15:25:41.000Z</time>
      </trkpt>
      <trkpt lat="51.89920" lon="8.31266">
        <ele>72.00</ele>
        <time>2005-07-04T15:25:42.000Z</time>
      </trkpt>
      <trkpt lat="51.89886" lon="8.31088">
        <ele>71.00</ele>
        <time>2005-07-04T15:26:02.000Z</time>
      </trkpt>
      <trkpt lat="51.89883" lon="8.31060">
        <ele>72.00</ele>
        <time>2005-07-04T15:26:05.000Z</time>
      </trkpt>
      <trkpt lat="51.89725" lon="8.31011">
        <ele>72.00</ele>
        <time>2005-07-04T15:26:33.000Z</time>
      </trkpt>
      <trkpt lat="51.89495" lon="8.31000">
        <ele>72.00</ele>
        <time>2005-07-04T15:27:12.000Z</time>
      </trkpt>
      <trkpt lat="51.89227" lon="8.30867">
        <ele>73.00</ele>
        <time>2005-07-04T15:27:55.000Z</time>
      </trkpt>
      <trkpt lat="51.89012" lon="8.30663">
        <ele>74.00</ele>
        <time>2005-07-04T15:28:33.000Z</time>
      </trkpt>
      <trkpt lat="51.88961" lon="8.30584">
        <ele>73.00</ele>
        <time>2005-07-04T15:28:44.000Z</time>
      </trkpt>
      <trkpt lat="51.88950" lon="8.30534">
        <ele>74.00</ele>
        <time>2005-07-04T15:28:49.000Z</time>
      </trkpt>
      <trkpt lat="51.88922" lon="8.29895">
        <ele>73.00</ele>
        <time>2005-07-04T15:30:48.000Z</time>
      </trkpt>
      <trkpt lat="51.89864" lon="8.29972">
        <ele>72.00</ele>
        <time>2005-07-04T15:34:04.000Z</time>
      </trkpt>
      <trkpt lat="51.90362" lon="8.30084">
        <ele>72.00</ele>
        <time>2005-07-04T15:35:30.000Z</time>
      </trkpt>
      <trkpt lat="51.90476" lon="8.30019">
        <ele>72.00</ele>
        <time>2005-07-04T15:35:52.000Z</time>
      </trkpt>
      <trkpt lat="51.90628" lon="8.29863">
        <ele>71.00</ele>
        <time>2005-07-04T15:36:22.000Z</time>
      </trkpt>
      <trkpt lat="51.90823" lon="8.29575">
        <ele>71.00</ele>
        <time>2005-07-04T15:37:03.000Z</time>
      </trkpt>
      <trkpt lat="51.90959" lon="8.29433">
        <ele>72.00</ele>
        <time>2005-07-04T15:37:30.000Z</time>
      </trkpt>
      <trkpt lat="51.91609" lon="8.28303">
        <ele>71.00</ele>
        <time>2005-07-04T15:40:10.000Z</time>
      </trkpt>
      <trkpt lat="51.91716" lon="8.28112">
        <ele>69.00</ele>
        <time>2005-07-04T15:40:36.000Z</time>
      </trkpt>
      <trkpt lat="51.91806" lon="8.27934">
        <ele>69.00</ele>
        <time>2005-07-04T15:41:01.000Z</time>
      </trkpt>
      <trkpt lat="51.91943" lon="8.27556">
        <ele>68.00</ele>
        <time>2005-07-04T15:41:52.000Z</time>
      </trkpt>
      <trkpt lat="51.91963" lon="8.27558">
        <ele>68.00</ele>
        <time>2005-07-04T15:41:57.000Z</time>
      </trkpt>
      <trkpt lat="51.92491" lon="8.27904">
        <ele>67.00</ele>
        <time>2005-07-04T15:43:40.000Z</time>
      </trkpt>
      <trkpt lat="51.92594" lon="8.28002">
        <ele>66.00</ele>
        <time>2005-07-04T15:44:01.000Z</time>
      </trkpt>
      <trkpt lat="51.92654" lon="8.28112">
        <ele>66.00</ele>
        <time>2005-07-04T15:44:19.000Z</time>
      </trkpt>
      <trkpt lat="51.92791" lon="8.28300">
        <ele>67.00</ele>
        <time>2005-07-04T15:44:54.000Z</time>
      </trkpt>
      <trkpt lat="51.92812" lon="8.28337">
        <ele>67.00</ele>
        <time>2005-07-04T15:45:00.000Z</time>
      </trkpt>
      <trkpt lat="51.93147" lon="8.28577">
        <ele>68.00</ele>
        <time>2005-07-04T15:46:06.000Z</time>
      </trkpt>
      <trkpt lat="51.93372" lon="8.28908">
        <ele>70.00</ele>
        <time>2005-07-04T15:47:04.000Z</time>
      </trkpt>
      <trkpt lat="51.93460" lon="8.28989">
        <ele>70.00</ele>
        <time>2005-07-04T15:47:26.000Z</time>
      </trkpt>
      <trkpt lat="51.93875" lon="8.29127">
        <ele>68.00</ele>
        <time>2005-07-04T15:48:50.000Z</time>
      </trkpt>
      <trkpt lat="51.93868" lon="8.29137">
        <ele>68.00</ele>
        <time>2005-07-04T15:49:12.000Z</time>
      </trkpt>
      <trkpt lat="51.94027" lon="8.29185">
        <ele>68.00</ele>
        <time>2005-07-04T15:49:51.000Z</time>
      </trkpt>
      <trkpt lat="51.94106" lon="8.29176">
        <ele>68.00</ele>
        <time>2005-07-04T15:50:21.000Z</time>
      </trkpt>
      <trkpt lat="51.94334" lon="8.28884">
        <ele>67.00</ele>
        <time>2005-07-04T15:51:40.000Z</time>
      </trkpt>
      <trkpt lat="51.94349" lon="8.28856">
        <ele>67.00</ele>
        <time>2005-07-04T15:51:45.000Z</time>
      </trkpt>
      <trkpt lat="51.94362" lon="8.28841">
        <ele>67.00</ele>
        <time>2005-07-04T15:51:48.000Z</time>
      </trkpt>
      <trkpt lat="51.94430" lon="8.28543">
        <ele>67.00</ele>
        <time>2005-07-04T15:52:26.000Z</time>
      </trkpt>
      <trkpt lat="51.94499" lon="8.28481">
        <ele>68.00</ele>
        <time>2005-07-04T15:52:42.000Z</time>
      </trkpt>
      <trkpt lat="51.94651" lon="8.28457">
        <ele>67.00</ele>
        <time>2005-07-04T15:53:15.000Z</time>
      </trkpt>
      <trkpt lat="51.94718" lon="8.28466">
        <ele>67.00</ele>
        <time>2005-07-04T15:53:29.000Z</time>
      </trkpt>
      <trkpt lat="51.94767" lon="8.28431">
        <ele>69.00</ele>
        <time>2005-07-04T15:53:46.000Z</time>
      </trkpt>
      <trkpt lat="51.94784" lon="8.28367">
        <ele>68.00</ele>
        <time>2005-07-04T15:53:58.000Z</time>
      </trkpt>
      <trkpt lat="51.94791" lon="8.28264">
        <ele>67.00</ele>
        <time>2005-07-04T15:54:14.000Z</time>
      </trkpt>
      <trkpt lat="51.94780" lon="8.28103">
        <ele>67.00</ele>
        <time>2005-07-04T15:54:37.000Z</time>
      </trkpt>
      <trkpt lat="51.94762" lon="8.28016">
        <ele>68.00</ele>
        <time>2005-07-04T16:10:28.000Z</time>
      </trkpt>
      <trkpt lat="51.94814" lon="8.27895">
        <ele>68.00</ele>
        <time>2005-07-04T16:11:03.000Z</time>
      </trkpt>
      <trkpt lat="51.94896" lon="8.27869">
        <ele>69.00</ele>
        <time>2005-07-04T16:11:26.000Z</time>
      </trkpt>
      <trkpt lat="51.94937" lon="8.27866">
        <ele>69.00</ele>
        <time>2005-07-04T16:13:18.000Z</time>
      </trkpt>
      <trkpt lat="51.94937" lon="8.27849">
        <ele>70.00</ele>
        <time>2005-07-04T16:14:29.000Z</time>
      </trkpt>
      <trkpt lat="51.94797" lon="8.27869">
        <ele>69.00</ele>
        <time>2005-07-04T16:15:17.000Z</time>
      </trkpt>
      <trkpt lat="51.94780" lon="8.27801">
        <ele>69.00</ele>
        <time>2005-07-04T16:15:29.000Z</time>
      </trkpt>
      <trkpt lat="51.94776" lon="8.27670">
        <ele>70.00</ele>
        <time>2005-07-04T16:15:46.000Z</time>
      </trkpt>
      <trkpt lat="51.94754" lon="8.27620">
        <ele>69.00</ele>
        <time>2005-07-04T16:15:54.000Z</time>
      </trkpt>
      <trkpt lat="51.94467" lon="8.27305">
        <ele>69.00</ele>
        <time>2005-07-04T16:17:07.000Z</time>
      </trkpt>
      <trkpt lat="51.94460" lon="8.27294">
        <ele>69.00</ele>
        <time>2005-07-04T16:17:09.000Z</time>
      </trkpt>
      <trkpt lat="51.94415" lon="8.27243">
        <ele>70.00</ele>
        <time>2005-07-04T16:17:24.000Z</time>
      </trkpt>
      <trkpt lat="51.94417" lon="8.27236">
        <ele>70.00</ele>
        <time>2005-07-04T16:18:42.000Z</time>
      </trkpt>
      <trkpt lat="51.94334" lon="8.27159">
        <ele>71.00</ele>
        <time>2005-07-04T16:19:05.000Z</time>
      </trkpt>
      <trkpt lat="51.94291" lon="8.27067">
        <ele>70.00</ele>
        <time>2005-07-04T16:19:19.000Z</time>
      </trkpt>
      <trkpt lat="51.94143" lon="8.26558">
        <ele>70.00</ele>
        <time>2005-07-04T16:20:22.000Z</time>
      </trkpt>
      <trkpt lat="51.94119" lon="8.26404">
        <ele>69.00</ele>
        <time>2005-07-04T16:20:39.000Z</time>
      </trkpt>
      <trkpt lat="51.94117" lon="8.26395">
        <ele>69.00</ele>
        <time>2005-07-04T16:20:40.000Z</time>
      </trkpt>
      <trkpt lat="51.94115" lon="8.26354">
        <ele>69.00</ele>
        <time>2005-07-04T16:20:45.000Z</time>
      </trkpt>
      <trkpt lat="51.94057" lon="8.26011">
        <ele>69.00</ele>
        <time>2005-07-04T16:21:26.000Z</time>
      </trkpt>
      <trkpt lat="51.94046" lon="8.25723">
        <ele>69.00</ele>
        <time>2005-07-04T16:21:59.000Z</time>
      </trkpt>
      <trkpt lat="51.94089" lon="8.25105">
        <ele>69.00</ele>
        <time>2005-07-04T16:23:08.000Z</time>
      </trkpt>
      <trkpt lat="51.94098" lon="8.25073">
        <ele>69.00</ele>
        <time>2005-07-04T16:23:12.000Z</time>
      </trkpt>
      <trkpt lat="51.94621" lon="8.23837">
        <ele>68.00</ele>
        <time>2005-07-04T16:26:04.000Z</time>
      </trkpt>
      <trkpt lat="51.94707" lon="8.23715">
        <ele>68.00</ele>
        <time>2005-07-04T16:26:24.000Z</time>
      </trkpt>
      <trkpt lat="51.94969" lon="8.23541">
        <ele>67.00</ele>
        <time>2005-07-04T16:27:13.000Z</time>
      </trkpt>
      <trkpt lat="51.95102" lon="8.23404">
        <ele>68.00</ele>
        <time>2005-07-04T16:27:44.000Z</time>
      </trkpt>
      <trkpt lat="51.95134" lon="8.23354">
        <ele>67.00</ele>
        <time>2005-07-04T16:27:53.000Z</time>
      </trkpt>
      <trkpt lat="51.95156" lon="8.23273">
        <ele>66.00</ele>
        <time>2005-07-04T16:28:02.000Z</time>
      </trkpt>
      <trkpt lat="51.95209" lon="8.22672">
        <ele>66.00</ele>
        <time>2005-07-04T16:29:10.000Z</time>
      </trkpt>
      <trkpt lat="51.95222" lon="8.22646">
        <ele>66.00</ele>
        <time>2005-07-04T16:29:14.000Z</time>
      </trkpt>
      <trkpt lat="51.95269" lon="8.22606">
        <ele>67.00</ele>
        <time>2005-07-04T16:29:25.000Z</time>
      </trkpt>
      <trkpt lat="51.95312" lon="8.22548">
        <ele>66.00</ele>
        <time>2005-07-04T16:29:37.000Z</time>
      </trkpt>
      <trkpt lat="51.95329" lon="8.22535">
        <ele>66.00</ele>
        <time>2005-07-04T16:29:41.000Z</time>
      </trkpt>
      <trkpt lat="51.95349" lon="8.22528">
        <ele>67.00</ele>
        <time>2005-07-04T16:29:45.000Z</time>
      </trkpt>
      <trkpt lat="51.95430" lon="8.22531">
        <ele>67.00</ele>
        <time>2005-07-04T16:30:02.000Z</time>
      </trkpt>
      <trkpt lat="51.95445" lon="8.22541">
        <ele>67.00</ele>
        <time>2005-07-04T16:30:06.000Z</time>
      </trkpt>
      <trkpt lat="51.95467" lon="8.22543">
        <ele>67.00</ele>
        <time>2005-07-04T16:30:20.000Z</time>
      </trkpt>
      <trkpt lat="51.95475" lon="8.22548">
        <ele>66.00</ele>
        <time>2005-07-04T16:30:33.000Z</time>
      </trkpt>
      <trkpt lat="51.95508" lon="8.22531">
        <ele>67.00</ele>
        <time>2005-07-04T16:31:24.000Z</time>
      </trkpt>
      <trkpt lat="51.95767" lon="8.22440">
        <ele>66.00</ele>
        <time>2005-07-04T16:32:21.000Z</time>
      </trkpt>
      <trkpt lat="51.95853" lon="8.22372">
        <ele>67.00</ele>
        <time>2005-07-04T16:32:43.000Z</time>
      </trkpt>
      <trkpt lat="51.95881" lon="8.22335">
        <ele>66.00</ele>
        <time>2005-07-04T16:32:54.000Z</time>
      </trkpt>
      <trkpt lat="51.95894" lon="8.22333">
        <ele>66.00</ele>
        <time>2005-07-04T16:32:58.000Z</time>
      </trkpt>
      <trkpt lat="51.96035" lon="8.22112">
        <ele>67.00</ele>
        <time>2005-07-04T16:43:17.000Z</time>
      </trkpt>
      <trkpt lat="51.96035" lon="8.22097">
        <ele>66.00</ele>
        <time>2005-07-04T16:43:25.000Z</time>
      </trkpt>
      <trkpt lat="51.96048" lon="8.22067">
        <ele>66.00</ele>
        <time>2005-07-04T16:43:35.000Z</time>
      </trkpt>
      <trkpt lat="51.96044" lon="8.22063">
        <ele>66.00</ele>
        <time>2005-07-04T16:43:51.000Z</time>
      </trkpt>
      <trkpt lat="51.96029" lon="8.22052">
        <ele>66.00</ele>
        <time>2005-07-04T16:44:05.000Z</time>
      </trkpt>
      <trkpt lat="51.96010" lon="8.22046">
        <ele>66.00</ele>
        <time>2005-07-04T16:44:11.000Z</time>
      </trkpt>
      <trkpt lat="51.95969" lon="8.21960">
        <ele>66.00</ele>
        <time>2005-07-04T16:44:27.000Z</time>
      </trkpt>
      <trkpt lat="51.95926" lon="8.21786">
        <ele>66.00</ele>
        <time>2005-07-04T16:44:54.000Z</time>
      </trkpt>
      <trkpt lat="51.95866" lon="8.21601">
        <ele>65.00</ele>
        <time>2005-07-04T16:45:21.000Z</time>
      </trkpt>
      <trkpt lat="51.95812" lon="8.21402">
        <ele>65.00</ele>
        <time>2005-07-04T16:45:45.000Z</time>
      </trkpt>
      <trkpt lat="51.95806" lon="8.21303">
        <ele>65.00</ele>
        <time>2005-07-04T16:45:57.000Z</time>
      </trkpt>
      <trkpt lat="51.95943" lon="8.20704">
        <ele>65.00</ele>
        <time>2005-07-04T16:47:18.000Z</time>
      </trkpt>
      <trkpt lat="51.95947" lon="8.20668">
        <ele>65.00</ele>
        <time>2005-07-04T16:47:24.000Z</time>
      </trkpt>
      <trkpt lat="51.95937" lon="8.20655">
        <ele>65.00</ele>
        <time>2005-07-04T16:47:28.000Z</time>
      </trkpt>
      <trkpt lat="51.95789" lon="8.20552">
        <ele>65.00</ele>
        <time>2005-07-04T16:48:00.000Z</time>
      </trkpt>
      <trkpt lat="51.95662" lon="8.20563">
        <ele>64.00</ele>
        <time>2005-07-04T16:48:24.000Z</time>
      </trkpt>
      <trkpt lat="51.95516" lon="8.20376">
        <ele>64.00</ele>
        <time>2005-07-04T16:48:57.000Z</time>
      </trkpt>
      <trkpt lat="51.95467" lon="8.20370">
        <ele>64.00</ele>
        <time>2005-07-04T16:49:06.000Z</time>
      </trkpt>
      <trkpt lat="51.95147" lon="8.20125">
        <ele>64.00</ele>
        <time>2005-07-04T16:50:07.000Z</time>
      </trkpt>
      <trkpt lat="51.94984" lon="8.20099">
        <ele>62.00</ele>
        <time>2005-07-04T16:50:38.000Z</time>
      </trkpt>
      <trkpt lat="51.94967" lon="8.20054">
        <ele>62.00</ele>
        <time>2005-07-04T16:50:46.000Z</time>
      </trkpt>
      <trkpt lat="51.94950" lon="8.19587">
        <ele>62.00</ele>
        <time>2005-07-04T16:51:41.000Z</time>
      </trkpt>
      <trkpt lat="51.94963" lon="8.19492">
        <ele>62.00</ele>
        <time>2005-07-04T16:51:52.000Z</time>
      </trkpt>
      <trkpt lat="51.94952" lon="8.19451">
        <ele>62.00</ele>
        <time>2005-07-04T16:51:57.000Z</time>
      </trkpt>
      <trkpt lat="51.94879" lon="8.19310">
        <ele>63.00</ele>
        <time>2005-07-04T16:52:18.000Z</time>
      </trkpt>
      <trkpt lat="51.94842" lon="8.19153">
        <ele>63.00</ele>
        <time>2005-07-04T16:52:38.000Z</time>
      </trkpt>
      <trkpt lat="51.94804" lon="8.19102">
        <ele>64.00</ele>
        <time>2005-07-04T16:52:48.000Z</time>
      </trkpt>
      <trkpt lat="51.94757" lon="8.19063">
        <ele>65.00</ele>
        <time>2005-07-04T16:52:59.000Z</time>
      </trkpt>
      <trkpt lat="51.94649" lon="8.19065">
        <ele>65.00</ele>
        <time>2005-07-04T16:53:25.000Z</time>
      </trkpt>
      <trkpt lat="51.94632" lon="8.18943">
        <ele>67.00</ele>
        <time>2005-07-04T16:53:46.000Z</time>
      </trkpt>
      <trkpt lat="51.94630" lon="8.18851">
        <ele>66.00</ele>
        <time>2005-07-04T16:53:59.000Z</time>
      </trkpt>
      <trkpt lat="51.94638" lon="8.18743">
        <ele>66.00</ele>
        <time>2005-07-04T16:54:14.000Z</time>
      </trkpt>
      <trkpt lat="51.94619" lon="8.18692">
        <ele>67.00</ele>
        <time>2005-07-04T16:54:21.000Z</time>
      </trkpt>
      <trkpt lat="51.94501" lon="8.18589">
        <ele>67.00</ele>
        <time>2005-07-04T16:54:46.000Z</time>
      </trkpt>
      <trkpt lat="51.94480" lon="8.18552">
        <ele>67.00</ele>
        <time>2005-07-04T16:54:52.000Z</time>
      </trkpt>
      <trkpt lat="51.94473" lon="8.18522">
        <ele>67.00</ele>
        <time>2005-07-04T16:54:56.000Z</time>
      </trkpt>
      <trkpt lat="51.94827" lon="8.17299">
        <ele>66.00</ele>
        <time>2005-07-04T16:57:33.000Z</time>
      </trkpt>
      <trkpt lat="51.94823" lon="8.17269">
        <ele>65.00</ele>
        <time>2005-07-04T16:57:43.000Z</time>
      </trkpt>
      <trkpt lat="51.94802" lon="8.17224">
        <ele>66.00</ele>
        <time>2005-07-04T16:57:58.000Z</time>
      </trkpt>
      <trkpt lat="51.94799" lon="8.17215">
        <ele>65.00</ele>
        <time>2005-07-04T16:58:01.000Z</time>
      </trkpt>
      <trkpt lat="51.94806" lon="8.17207">
        <ele>66.00</ele>
        <time>2005-07-04T16:58:05.000Z</time>
      </trkpt>
      <trkpt lat="51.94840" lon="8.17183">
        <ele>66.00</ele>
        <time>2005-07-04T16:58:18.000Z</time>
      </trkpt>
      <trkpt lat="51.94881" lon="8.17074">
        <ele>66.00</ele>
        <time>2005-07-04T16:58:35.000Z</time>
      </trkpt>
      <trkpt lat="51.94941" lon="8.16821">
        <ele>66.00</ele>
        <time>2005-07-04T16:59:05.000Z</time>
      </trkpt>
      <trkpt lat="51.95158" lon="8.15274">
        <ele>65.00</ele>
        <time>2005-07-04T17:02:10.000Z</time>
      </trkpt>
      <trkpt lat="51.95297" lon="8.14488">
        <ele>64.00</ele>
        <time>2005-07-04T17:03:36.000Z</time>
      </trkpt>
      <trkpt lat="51.95340" lon="8.14289">
        <ele>64.00</ele>
        <time>2005-07-04T17:04:03.000Z</time>
      </trkpt>
      <trkpt lat="51.95426" lon="8.13962">
        <ele>64.00</ele>
        <time>2005-07-04T17:04:43.000Z</time>
      </trkpt>
      <trkpt lat="51.95896" lon="8.13849">
        <ele>63.00</ele>
        <time>2005-07-04T17:06:15.000Z</time>
      </trkpt>
      <trkpt lat="51.95920" lon="8.13851">
        <ele>64.00</ele>
        <time>2005-07-04T17:08:30.000Z</time>
      </trkpt>
      <trkpt lat="51.96121" lon="8.13799">
        <ele>61.00</ele>
        <time>2005-06-08T14:17:04.000Z</time>
      </trkpt>
      <trkpt lat="51.96126" lon="8.13804">
        <ele>61.00</ele>
        <time>2005-06-08T14:16:57.000Z</time>
      </trkpt>
      <trkpt lat="51.96147" lon="8.13840">
        <ele>61.00</ele>
        <time>2005-06-08T14:14:23.000Z</time>
      </trkpt>
      <trkpt lat="51.96467" lon="8.14276">
        <ele>61.00</ele>
        <time>2005-06-08T14:13:05.000Z</time>
      </trkpt>
      <trkpt lat="51.96561" lon="8.14353">
        <ele>62.00</ele>
        <time>2005-06-08T14:12:47.000Z</time>
      </trkpt>
      <trkpt lat="51.96658" lon="8.14389">
        <ele>62.00</ele>
        <time>2005-06-08T14:12:28.000Z</time>
      </trkpt>
      <trkpt lat="51.96864" lon="8.14357">
        <ele>62.00</ele>
        <time>2005-06-08T14:11:47.000Z</time>
      </trkpt>
      <trkpt lat="51.97076" lon="8.14301">
        <ele>60.00</ele>
        <time>2005-06-08T14:11:04.000Z</time>
      </trkpt>
      <trkpt lat="51.97123" lon="8.14301">
        <ele>60.00</ele>
        <time>2005-06-08T14:10:52.000Z</time>
      </trkpt>
      <trkpt lat="51.97130" lon="8.14293">
        <ele>60.00</ele>
        <time>2005-06-08T14:10:48.000Z</time>
      </trkpt>
      <trkpt lat="51.97136" lon="8.14280">
        <ele>59.00</ele>
        <time>2005-06-08T14:08:53.000Z</time>
      </trkpt>
      <trkpt lat="51.97140" lon="8.14276">
        <ele>60.00</ele>
        <time>2005-06-08T14:08:30.000Z</time>
      </trkpt>
      <trkpt lat="51.97177" lon="8.14136">
        <ele>61.00</ele>
        <time>2005-06-08T14:08:10.000Z</time>
      </trkpt>
      <trkpt lat="51.97136" lon="8.13098">
        <ele>60.00</ele>
        <time>2005-06-08T14:06:17.000Z</time>
      </trkpt>
      <trkpt lat="51.96945" lon="8.11473">
        <ele>59.00</ele>
        <time>2005-06-08T14:03:10.000Z</time>
      </trkpt>
      <trkpt lat="51.96967" lon="8.11261">
        <ele>59.00</ele>
        <time>2005-06-08T14:02:46.000Z</time>
      </trkpt>
      <trkpt lat="51.97003" lon="8.10956">
        <ele>58.00</ele>
        <time>2005-06-08T14:02:08.000Z</time>
      </trkpt>
      <trkpt lat="51.97005" lon="8.10540">
        <ele>57.00</ele>
        <time>2005-06-08T14:01:18.000Z</time>
      </trkpt>
      <trkpt lat="51.96945" lon="8.10023">
        <ele>56.00</ele>
        <time>2005-06-08T14:00:18.000Z</time>
      </trkpt>
      <trkpt lat="51.96965" lon="8.09821">
        <ele>57.00</ele>
        <time>2005-06-08T13:59:56.000Z</time>
      </trkpt>
      <trkpt lat="51.96924" lon="8.09001">
        <ele>58.00</ele>
        <time>2005-06-08T13:58:23.000Z</time>
      </trkpt>
      <trkpt lat="51.96885" lon="8.08862">
        <ele>57.00</ele>
        <time>2005-06-08T13:58:04.000Z</time>
      </trkpt>
      <trkpt lat="51.96737" lon="8.08536">
        <ele>57.00</ele>
        <time>2005-06-08T13:57:17.000Z</time>
      </trkpt>
      <trkpt lat="51.96705" lon="8.08375">
        <ele>57.00</ele>
        <time>2005-06-08T13:56:59.000Z</time>
      </trkpt>
      <trkpt lat="51.96696" lon="8.08008">
        <ele>56.00</ele>
        <time>2005-06-08T13:56:18.000Z</time>
      </trkpt>
      <trkpt lat="51.96752" lon="8.07399">
        <ele>56.00</ele>
        <time>2005-06-08T13:55:05.000Z</time>
      </trkpt>
      <trkpt lat="51.96718" lon="8.07143">
        <ele>56.00</ele>
        <time>2005-06-08T13:54:36.000Z</time>
      </trkpt>
      <trkpt lat="51.96668" lon="8.06931">
        <ele>57.00</ele>
        <time>2005-06-08T13:54:04.000Z</time>
      </trkpt>
      <trkpt lat="51.96673" lon="8.06924">
        <ele>55.00</ele>
        <time>2005-06-08T13:48:42.000Z</time>
      </trkpt>
      <trkpt lat="51.96671" lon="8.06916">
        <ele>56.00</ele>
        <time>2005-06-08T13:48:05.000Z</time>
      </trkpt>
      <trkpt lat="51.96660" lon="8.06918">
        <ele>56.00</ele>
        <time>2005-06-08T13:47:59.000Z</time>
      </trkpt>
      <trkpt lat="51.96574" lon="8.06980">
        <ele>56.00</ele>
        <time>2005-06-08T13:47:40.000Z</time>
      </trkpt>
      <trkpt lat="51.96475" lon="8.07017">
        <ele>56.00</ele>
        <time>2005-06-08T13:47:21.000Z</time>
      </trkpt>
      <trkpt lat="51.96325" lon="8.07006">
        <ele>57.00</ele>
        <time>2005-06-08T13:46:15.000Z</time>
      </trkpt>
      <trkpt lat="51.96173" lon="8.06978">
        <ele>55.00</ele>
        <time>2005-06-08T13:42:06.000Z</time>
      </trkpt>
      <trkpt lat="51.96029" lon="8.06967">
        <ele>57.00</ele>
        <time>2005-06-08T13:41:42.000Z</time>
      </trkpt>
      <trkpt lat="51.95645" lon="8.07075">
        <ele>58.00</ele>
        <time>2005-06-08T13:40:36.000Z</time>
      </trkpt>
      <trkpt lat="51.95497" lon="8.07062">
        <ele>57.00</ele>
        <time>2005-06-08T13:40:10.000Z</time>
      </trkpt>
      <trkpt lat="51.95396" lon="8.07017">
        <ele>57.00</ele>
        <time>2005-06-08T13:39:50.000Z</time>
      </trkpt>
      <trkpt lat="51.95325" lon="8.06954">
        <ele>58.00</ele>
        <time>2005-06-08T13:39:32.000Z</time>
      </trkpt>
      <trkpt lat="51.95314" lon="8.06939">
        <ele>58.00</ele>
        <time>2005-06-08T13:39:27.000Z</time>
      </trkpt>
      <trkpt lat="51.95334" lon="8.06903">
        <ele>58.00</ele>
        <time>2005-06-08T13:39:17.000Z</time>
      </trkpt>
      <trkpt lat="51.95460" lon="8.06545">
        <ele>58.00</ele>
        <time>2005-06-08T13:38:35.000Z</time>
      </trkpt>
      <trkpt lat="51.95445" lon="8.05890">
        <ele>57.00</ele>
        <time>2005-06-08T13:37:17.000Z</time>
      </trkpt>
      <trkpt lat="51.95417" lon="8.05723">
        <ele>57.00</ele>
        <time>2005-06-08T13:36:58.000Z</time>
      </trkpt>
      <trkpt lat="51.95415" lon="8.05643">
        <ele>57.00</ele>
        <time>2005-06-08T13:36:50.000Z</time>
      </trkpt>
      <trkpt lat="51.95387" lon="8.05493">
        <ele>58.00</ele>
        <time>2005-06-08T13:36:32.000Z</time>
      </trkpt>
      <trkpt lat="51.95351" lon="8.05399">
        <ele>58.00</ele>
        <time>2005-06-08T13:36:19.000Z</time>
      </trkpt>
      <trkpt lat="51.95338" lon="8.05382">
        <ele>58.00</ele>
        <time>2005-06-08T13:36:16.000Z</time>
      </trkpt>
      <trkpt lat="51.95321" lon="8.05367">
        <ele>58.00</ele>
        <time>2005-06-08T13:36:12.000Z</time>
      </trkpt>
      <trkpt lat="51.95302" lon="8.05330">
        <ele>58.00</ele>
        <time>2005-06-08T13:36:05.000Z</time>
      </trkpt>
      <trkpt lat="51.95248" lon="8.05176">
        <ele>57.00</ele>
        <time>2005-06-08T13:35:39.000Z</time>
      </trkpt>
      <trkpt lat="51.95224" lon="8.05130">
        <ele>56.00</ele>
        <time>2005-06-08T13:35:29.000Z</time>
      </trkpt>
      <trkpt lat="51.95216" lon="8.05105">
        <ele>54.00</ele>
        <time>2005-06-08T13:31:25.000Z</time>
      </trkpt>
      <trkpt lat="51.95205" lon="8.05111">
        <ele>54.00</ele>
        <time>2005-06-08T13:31:15.000Z</time>
      </trkpt>
      <trkpt lat="51.94632" lon="8.05077">
        <ele>56.00</ele>
        <time>2005-06-08T13:29:19.000Z</time>
      </trkpt>
      <trkpt lat="51.94615" lon="8.05045">
        <ele>55.00</ele>
        <time>2005-06-08T13:29:13.000Z</time>
      </trkpt>
      <trkpt lat="51.94750" lon="8.04013">
        <ele>57.00</ele>
        <time>2005-06-08T13:27:21.000Z</time>
      </trkpt>
      <trkpt lat="51.94857" lon="8.03697">
        <ele>56.00</ele>
        <time>2005-06-08T13:26:40.000Z</time>
      </trkpt>
      <trkpt lat="51.94875" lon="8.03581">
        <ele>56.00</ele>
        <time>2005-06-08T13:26:23.000Z</time>
      </trkpt>
      <trkpt lat="51.94960" lon="8.02789">
        <ele>56.00</ele>
        <time>2005-06-08T13:25:00.000Z</time>
      </trkpt>
      <trkpt lat="51.94982" lon="8.02757">
        <ele>56.00</ele>
        <time>2005-06-08T13:24:54.000Z</time>
      </trkpt>
      <trkpt lat="51.95068" lon="8.02770">
        <ele>55.00</ele>
        <time>2005-06-08T13:24:38.000Z</time>
      </trkpt>
      <trkpt lat="51.95096" lon="8.02736">
        <ele>55.00</ele>
        <time>2005-06-08T13:24:31.000Z</time>
      </trkpt>
      <trkpt lat="51.95089" lon="8.02159">
        <ele>54.00</ele>
        <time>2005-06-08T13:23:20.000Z</time>
      </trkpt>
      <trkpt lat="51.95126" lon="8.02148">
        <ele>53.00</ele>
        <time>2005-06-08T13:23:03.000Z</time>
      </trkpt>
      <trkpt lat="51.95222" lon="8.02066">
        <ele>53.00</ele>
        <time>2005-06-08T13:22:30.000Z</time>
      </trkpt>
      <trkpt lat="51.95319" lon="8.02028">
        <ele>53.00</ele>
        <time>2005-06-08T13:22:12.000Z</time>
      </trkpt>
      <trkpt lat="51.95355" lon="8.02043">
        <ele>53.00</ele>
        <time>2005-06-08T13:22:05.000Z</time>
      </trkpt>
      <trkpt lat="51.95400" lon="8.02079">
        <ele>54.00</ele>
        <time>2005-06-08T13:21:40.000Z</time>
      </trkpt>
      <trkpt lat="51.95409" lon="8.02081">
        <ele>53.00</ele>
        <time>2005-06-08T13:21:35.000Z</time>
      </trkpt>
      <trkpt lat="51.95443" lon="8.01895">
        <ele>53.00</ele>
        <time>2005-06-08T13:21:08.000Z</time>
      </trkpt>
      <trkpt lat="51.95482" lon="8.01723">
        <ele>53.00</ele>
        <time>2005-06-08T13:20:43.000Z</time>
      </trkpt>
      <trkpt lat="51.95525" lon="8.01511">
        <ele>53.00</ele>
        <time>2005-06-08T13:20:10.000Z</time>
      </trkpt>
      <trkpt lat="51.95535" lon="8.01347">
        <ele>53.00</ele>
        <time>2005-06-08T13:19:52.000Z</time>
      </trkpt>
      <trkpt lat="51.95514" lon="8.01099">
        <ele>53.00</ele>
        <time>2005-06-08T13:19:23.000Z</time>
      </trkpt>
      <trkpt lat="51.95516" lon="8.01071">
        <ele>53.00</ele>
        <time>2005-06-08T13:19:19.000Z</time>
      </trkpt>
      <trkpt lat="51.95514" lon="8.01021">
        <ele>53.00</ele>
        <time>2005-06-08T13:19:09.000Z</time>
      </trkpt>
      <trkpt lat="51.95510" lon="8.00996">
        <ele>53.00</ele>
        <time>2005-06-08T13:17:55.000Z</time>
      </trkpt>
      <trkpt lat="51.95482" lon="8.00835">
        <ele>53.00</ele>
        <time>2005-06-08T13:17:39.000Z</time>
      </trkpt>
      <trkpt lat="51.95471" lon="8.00802">
        <ele>53.00</ele>
        <time>2005-06-08T13:17:35.000Z</time>
      </trkpt>
      <trkpt lat="51.95402" lon="8.00672">
        <ele>54.00</ele>
        <time>2005-06-08T13:17:16.000Z</time>
      </trkpt>
      <trkpt lat="51.95321" lon="8.00590">
        <ele>53.00</ele>
        <time>2005-06-08T13:16:56.000Z</time>
      </trkpt>
      <trkpt lat="51.95235" lon="8.00551">
        <ele>53.00</ele>
        <time>2005-06-08T13:16:40.000Z</time>
      </trkpt>
      <trkpt lat="51.95134" lon="8.00474">
        <ele>53.00</ele>
        <time>2005-06-08T13:16:21.000Z</time>
      </trkpt>
      <trkpt lat="51.95072" lon="8.00356">
        <ele>53.00</ele>
        <time>2005-06-08T13:16:05.000Z</time>
      </trkpt>
      <trkpt lat="51.95063" lon="8.00281">
        <ele>52.00</ele>
        <time>2005-06-08T13:15:57.000Z</time>
      </trkpt>
      <trkpt lat="51.95063" lon="8.00234">
        <ele>52.00</ele>
        <time>2005-06-08T13:15:52.000Z</time>
      </trkpt>
      <trkpt lat="51.95098" lon="8.00105">
        <ele>53.00</ele>
        <time>2005-06-08T13:15:36.000Z</time>
      </trkpt>
      <trkpt lat="51.95113" lon="8.00081">
        <ele>53.00</ele>
        <time>2005-06-08T13:15:32.000Z</time>
      </trkpt>
      <trkpt lat="51.95233" lon="8.00131">
        <ele>52.00</ele>
        <time>2005-06-08T13:15:06.000Z</time>
      </trkpt>
      <trkpt lat="51.95241" lon="8.00124">
        <ele>52.00</ele>
        <time>2005-06-08T13:15:04.000Z</time>
      </trkpt>
      <trkpt lat="51.95250" lon="8.00088">
        <ele>52.00</ele>
        <time>2005-06-08T13:14:58.000Z</time>
      </trkpt>
      <trkpt lat="51.95274" lon="8.00049">
        <ele>52.00</ele>
        <time>2005-06-08T13:13:16.000Z</time>
      </trkpt>
      <trkpt lat="51.95355" lon="7.99775">
        <ele>51.00</ele>
        <time>2005-06-08T13:12:47.000Z</time>
      </trkpt>
      <trkpt lat="51.95383" lon="7.99567">
        <ele>51.00</ele>
        <time>2005-06-08T13:12:20.000Z</time>
      </trkpt>
      <trkpt lat="51.95402" lon="7.99496">
        <ele>51.00</ele>
        <time>2005-06-08T13:12:12.000Z</time>
      </trkpt>
      <trkpt lat="51.95432" lon="7.99451">
        <ele>51.00</ele>
        <time>2005-06-08T13:12:05.000Z</time>
      </trkpt>
      <trkpt lat="51.95469" lon="7.99268">
        <ele>51.00</ele>
        <time>2005-06-08T13:11:43.000Z</time>
      </trkpt>
      <trkpt lat="51.95458" lon="7.99240">
        <ele>52.00</ele>
        <time>2005-06-08T13:11:34.000Z</time>
      </trkpt>
      <trkpt lat="51.95379" lon="7.99161">
        <ele>53.00</ele>
        <time>2005-06-08T13:11:01.000Z</time>
      </trkpt>
      <trkpt lat="51.95372" lon="7.99146">
        <ele>52.00</ele>
        <time>2005-06-08T13:10:55.000Z</time>
      </trkpt>
      <trkpt lat="51.95370" lon="7.99137">
        <ele>52.00</ele>
        <time>2005-06-08T13:10:20.000Z</time>
      </trkpt>
      <trkpt lat="51.95357" lon="7.99140">
        <ele>52.00</ele>
        <time>2005-06-08T13:10:10.000Z</time>
      </trkpt>
      <trkpt lat="51.95338" lon="7.99112">
        <ele>51.00</ele>
        <time>2005-06-08T13:10:04.000Z</time>
      </trkpt>
      <trkpt lat="51.95312" lon="7.99090">
        <ele>51.00</ele>
        <time>2005-06-08T13:09:58.000Z</time>
      </trkpt>
      <trkpt lat="51.95295" lon="7.99082">
        <ele>51.00</ele>
        <time>2005-06-08T13:09:54.000Z</time>
      </trkpt>
      <trkpt lat="51.95267" lon="7.99077">
        <ele>54.00</ele>
        <time>2005-06-08T12:04:13.000Z</time>
      </trkpt>
      <trkpt lat="51.95245" lon="7.99045">
        <ele>53.00</ele>
        <time>2005-06-08T12:01:21.000Z</time>
      </trkpt>
      <trkpt lat="51.95321" lon="7.98839">
        <ele>53.00</ele>
        <time>2005-06-08T11:58:25.000Z</time>
      </trkpt>
      <trkpt lat="51.95334" lon="7.98843">
        <ele>53.00</ele>
        <time>2005-06-08T11:58:21.000Z</time>
      </trkpt>
      <trkpt lat="51.95411" lon="7.98897">
        <ele>53.00</ele>
        <time>2005-06-08T11:57:59.000Z</time>
      </trkpt>
      <trkpt lat="51.95467" lon="7.98959">
        <ele>51.00</ele>
        <time>2005-06-08T11:57:38.000Z</time>
      </trkpt>
      <trkpt lat="51.95473" lon="7.98959">
        <ele>51.00</ele>
        <time>2005-06-08T11:57:34.000Z</time>
      </trkpt>
      <trkpt lat="51.95480" lon="7.98949">
        <ele>51.00</ele>
        <time>2005-06-08T11:56:24.000Z</time>
      </trkpt>
      <trkpt lat="51.95495" lon="7.98940">
        <ele>50.00</ele>
        <time>2005-06-08T11:56:08.000Z</time>
      </trkpt>
      <trkpt lat="51.95516" lon="7.98906">
        <ele>51.00</ele>
        <time>2005-06-08T11:55:56.000Z</time>
      </trkpt>
      <trkpt lat="51.95520" lon="7.98899">
        <ele>50.00</ele>
        <time>2005-06-08T11:54:36.000Z</time>
      </trkpt>
      <trkpt lat="51.95666" lon="7.98631">
        <ele>50.00</ele>
        <time>2005-06-08T11:52:57.000Z</time>
      </trkpt>
      <trkpt lat="51.95666" lon="7.98642">
        <ele>50.00</ele>
        <time>2005-06-08T11:51:09.000Z</time>
      </trkpt>
      <trkpt lat="51.95675" lon="7.98633">
        <ele>49.00</ele>
        <time>2005-06-08T11:51:01.000Z</time>
      </trkpt>
      <trkpt lat="51.95904" lon="7.98204">
        <ele>48.00</ele>
        <time>2005-06-08T11:50:01.000Z</time>
      </trkpt>
      <trkpt lat="51.95950" lon="7.98064">
        <ele>48.00</ele>
        <time>2005-06-08T11:49:44.000Z</time>
      </trkpt>
      <trkpt lat="51.96168" lon="7.97019">
        <ele>49.00</ele>
        <time>2005-06-08T11:47:37.000Z</time>
      </trkpt>
      <trkpt lat="51.96458" lon="7.96099">
        <ele>48.00</ele>
        <time>2005-06-08T11:45:42.000Z</time>
      </trkpt>
      <trkpt lat="51.96458" lon="7.95944">
        <ele>48.00</ele>
        <time>2005-06-08T11:43:41.000Z</time>
      </trkpt>
      <trkpt lat="51.96424" lon="7.95906">
        <ele>51.00</ele>
        <time>2005-06-08T11:43:27.000Z</time>
      </trkpt>
      <trkpt lat="51.96248" lon="7.95869">
        <ele>52.00</ele>
        <time>2005-06-08T11:42:49.000Z</time>
      </trkpt>
      <trkpt lat="51.96241" lon="7.95852">
        <ele>52.00</ele>
        <time>2005-06-08T11:42:44.000Z</time>
      </trkpt>
      <trkpt lat="51.96252" lon="7.95809">
        <ele>53.00</ele>
        <time>2005-06-08T11:42:39.000Z</time>
      </trkpt>
      <trkpt lat="51.96256" lon="7.95773">
        <ele>52.00</ele>
        <time>2005-06-08T11:42:35.000Z</time>
      </trkpt>
      <trkpt lat="51.96256" lon="7.95631">
        <ele>53.00</ele>
        <time>2005-06-08T11:42:20.000Z</time>
      </trkpt>
      <trkpt lat="51.96244" lon="7.95618">
        <ele>52.00</ele>
        <time>2005-06-08T11:42:16.000Z</time>
      </trkpt>
      <trkpt lat="51.96168" lon="7.95625">
        <ele>52.00</ele>
        <time>2005-06-08T11:42:01.000Z</time>
      </trkpt>
      <trkpt lat="51.96143" lon="7.95563">
        <ele>53.00</ele>
        <time>2005-06-08T11:41:52.000Z</time>
      </trkpt>
      <trkpt lat="51.95954" lon="7.95539">
        <ele>53.00</ele>
        <time>2005-06-08T11:41:15.000Z</time>
      </trkpt>
      <trkpt lat="51.95941" lon="7.95537">
        <ele>52.00</ele>
        <time>2005-06-08T11:39:10.000Z</time>
      </trkpt>
      <trkpt lat="51.95939" lon="7.95496">
        <ele>52.00</ele>
        <time>2005-06-08T11:39:00.000Z</time>
      </trkpt>
      <trkpt lat="51.95954" lon="7.95369">
        <ele>52.00</ele>
        <time>2005-06-08T11:38:44.000Z</time>
      </trkpt>
      <trkpt lat="51.95956" lon="7.95363">
        <ele>52.00</ele>
        <time>2005-06-08T11:38:43.000Z</time>
      </trkpt>
      <trkpt lat="51.95965" lon="7.95316">
        <ele>53.00</ele>
        <time>2005-06-08T11:29:04.000Z</time>
      </trkpt>
      <trkpt lat="51.96020" lon="7.94829">
        <ele>53.00</ele>
        <time>2005-06-08T11:28:05.000Z</time>
      </trkpt>
      <trkpt lat="51.95975" lon="7.94423">
        <ele>52.00</ele>
        <time>2005-06-08T11:27:19.000Z</time>
      </trkpt>
      <trkpt lat="51.95943" lon="7.94256">
        <ele>53.00</ele>
        <time>2005-06-08T11:26:57.000Z</time>
      </trkpt>
      <trkpt lat="51.95941" lon="7.94170">
        <ele>52.00</ele>
        <time>2005-06-08T11:26:47.000Z</time>
      </trkpt>
      <trkpt lat="51.96065" lon="7.93548">
        <ele>52.00</ele>
        <time>2005-06-08T11:25:39.000Z</time>
      </trkpt>
      <trkpt lat="51.96080" lon="7.93376">
        <ele>51.00</ele>
        <time>2005-06-08T11:25:22.000Z</time>
      </trkpt>
      <trkpt lat="51.96072" lon="7.93279">
        <ele>51.00</ele>
        <time>2005-06-08T11:25:13.000Z</time>
      </trkpt>
      <trkpt lat="51.96143" lon="7.92985">
        <ele>50.00</ele>
        <time>2005-06-08T11:24:38.000Z</time>
      </trkpt>
      <trkpt lat="51.96171" lon="7.92857">
        <ele>49.00</ele>
        <time>2005-06-08T11:24:24.000Z</time>
      </trkpt>
      <trkpt lat="51.96265" lon="7.92460">
        <ele>53.00</ele>
        <time>2005-06-08T11:23:42.000Z</time>
      </trkpt>
      <trkpt lat="51.96308" lon="7.92121">
        <ele>53.00</ele>
        <time>2005-06-08T11:23:06.000Z</time>
      </trkpt>
      <trkpt lat="51.96351" lon="7.91915">
        <ele>54.00</ele>
        <time>2005-06-08T11:22:42.000Z</time>
      </trkpt>
      <trkpt lat="51.96379" lon="7.91226">
        <ele>53.00</ele>
        <time>2005-06-08T11:21:23.000Z</time>
      </trkpt>
      <trkpt lat="51.96374" lon="7.90863">
        <ele>54.00</ele>
        <time>2005-06-08T11:20:41.000Z</time>
      </trkpt>
      <trkpt lat="51.96387" lon="7.90735">
        <ele>53.00</ele>
        <time>2005-06-08T11:20:24.000Z</time>
      </trkpt>
      <trkpt lat="51.96344" lon="7.90290">
        <ele>54.00</ele>
        <time>2005-06-08T11:19:32.000Z</time>
      </trkpt>
      <trkpt lat="51.96224" lon="7.89634">
        <ele>51.00</ele>
        <time>2005-06-08T11:18:03.000Z</time>
      </trkpt>
      <trkpt lat="51.96226" lon="7.89599">
        <ele>51.00</ele>
        <time>2005-06-08T11:17:57.000Z</time>
      </trkpt>
      <trkpt lat="51.96237" lon="7.89589">
        <ele>51.00</ele>
        <time>2005-06-08T11:17:54.000Z</time>
      </trkpt>
      <trkpt lat="51.96293" lon="7.89621">
        <ele>51.00</ele>
        <time>2005-06-08T11:17:41.000Z</time>
      </trkpt>
      <trkpt lat="51.96531" lon="7.89850">
        <ele>51.00</ele>
        <time>2005-06-08T11:16:50.000Z</time>
      </trkpt>
      <trkpt lat="51.96656" lon="7.89889">
        <ele>50.00</ele>
        <time>2005-06-08T11:16:28.000Z</time>
      </trkpt>
      <trkpt lat="51.97424" lon="7.89833">
        <ele>51.00</ele>
        <time>2005-06-08T11:14:05.000Z</time>
      </trkpt>
      <trkpt lat="51.97456" lon="7.89812">
        <ele>50.00</ele>
        <time>2005-06-08T11:13:55.000Z</time>
      </trkpt>
      <trkpt lat="51.97464" lon="7.89799">
        <ele>51.00</ele>
        <time>2005-06-08T11:13:44.000Z</time>
      </trkpt>
      <trkpt lat="51.97411" lon="7.89406">
        <ele>52.00</ele>
        <time>2005-06-08T11:09:39.000Z</time>
      </trkpt>
      <trkpt lat="51.97409" lon="7.89314">
        <ele>53.00</ele>
        <time>2005-06-08T11:09:14.000Z</time>
      </trkpt>
      <trkpt lat="51.97389" lon="7.89104">
        <ele>54.00</ele>
        <time>2005-06-08T11:08:51.000Z</time>
      </trkpt>
      <trkpt lat="51.97355" lon="7.88945">
        <ele>53.00</ele>
        <time>2005-06-08T11:08:32.000Z</time>
      </trkpt>
      <trkpt lat="51.97344" lon="7.88784">
        <ele>53.00</ele>
        <time>2005-06-08T11:08:14.000Z</time>
      </trkpt>
      <trkpt lat="51.97357" lon="7.88595">
        <ele>54.00</ele>
        <time>2005-06-08T11:07:54.000Z</time>
      </trkpt>
      <trkpt lat="51.97398" lon="7.88271">
        <ele>53.00</ele>
        <time>2005-06-08T11:07:15.000Z</time>
      </trkpt>
      <trkpt lat="51.97419" lon="7.88253">
        <ele>52.00</ele>
        <time>2005-06-08T11:07:06.000Z</time>
      </trkpt>
      <trkpt lat="51.97497" lon="7.88241">
        <ele>54.00</ele>
        <time>2005-06-08T11:06:39.000Z</time>
      </trkpt>
      <trkpt lat="51.97589" lon="7.88273">
        <ele>55.00</ele>
        <time>2005-06-08T11:06:23.000Z</time>
      </trkpt>
      <trkpt lat="51.97660" lon="7.88357">
        <ele>56.00</ele>
        <time>2005-06-08T11:06:08.000Z</time>
      </trkpt>
      <trkpt lat="51.97780" lon="7.88372">
        <ele>56.00</ele>
        <time>2005-06-08T11:05:48.000Z</time>
      </trkpt>
      <trkpt lat="51.98009" lon="7.88291">
        <ele>55.00</ele>
        <time>2005-06-08T11:05:07.000Z</time>
      </trkpt>
      <trkpt lat="51.98029" lon="7.88278">
        <ele>55.00</ele>
        <time>2005-06-08T11:05:02.000Z</time>
      </trkpt>
      <trkpt lat="51.98052" lon="7.87997">
        <ele>55.00</ele>
        <time>2005-06-08T11:04:33.000Z</time>
      </trkpt>
      <trkpt lat="51.98050" lon="7.87795">
        <ele>56.00</ele>
        <time>2005-06-08T11:04:13.000Z</time>
      </trkpt>
      <trkpt lat="51.97964" lon="7.87376">
        <ele>56.00</ele>
        <time>2005-06-08T11:03:30.000Z</time>
      </trkpt>
      <trkpt lat="51.97973" lon="7.86962">
        <ele>57.00</ele>
        <time>2005-06-08T11:02:49.000Z</time>
      </trkpt>
      <trkpt lat="51.98052" lon="7.85728">
        <ele>55.00</ele>
        <time>2005-06-08T11:00:36.000Z</time>
      </trkpt>
      <trkpt lat="51.98037" lon="7.84937">
        <ele>53.00</ele>
        <time>2005-06-08T10:59:08.000Z</time>
      </trkpt>
      <trkpt lat="51.97943" lon="7.83917">
        <ele>48.00</ele>
        <time>2005-06-08T10:57:08.000Z</time>
      </trkpt>
      <trkpt lat="51.97943" lon="7.83885">
        <ele>49.00</ele>
        <time>2005-06-08T10:55:36.000Z</time>
      </trkpt>
      <trkpt lat="51.97939" lon="7.83840">
        <ele>49.00</ele>
        <time>2005-06-08T10:54:31.000Z</time>
      </trkpt>
      <trkpt lat="51.98033" lon="7.83282">
        <ele>47.00</ele>
        <time>2005-06-08T10:53:30.000Z</time>
      </trkpt>
      <trkpt lat="51.98074" lon="7.83145">
        <ele>47.00</ele>
        <time>2005-06-08T10:53:15.000Z</time>
      </trkpt>
      <trkpt lat="51.98149" lon="7.83010">
        <ele>48.00</ele>
        <time>2005-06-08T10:52:56.000Z</time>
      </trkpt>
      <trkpt lat="51.98256" lon="7.82926">
        <ele>49.00</ele>
        <time>2005-06-08T10:52:38.000Z</time>
      </trkpt>
      <trkpt lat="51.98381" lon="7.82872">
        <ele>50.00</ele>
        <time>2005-06-08T10:52:19.000Z</time>
      </trkpt>
      <trkpt lat="51.98467" lon="7.82806">
        <ele>52.00</ele>
        <time>2005-06-08T10:52:03.000Z</time>
      </trkpt>
      <trkpt lat="51.98482" lon="7.82774">
        <ele>52.00</ele>
        <time>2005-06-08T10:51:58.000Z</time>
      </trkpt>
      <trkpt lat="51.98479" lon="7.82430">
        <ele>52.00</ele>
        <time>2005-06-08T10:51:19.000Z</time>
      </trkpt>
      <trkpt lat="51.98456" lon="7.82321">
        <ele>52.00</ele>
        <time>2005-06-08T10:51:06.000Z</time>
      </trkpt>
      <trkpt lat="51.98370" lon="7.82076">
        <ele>50.00</ele>
        <time>2005-06-08T10:50:34.000Z</time>
      </trkpt>
      <trkpt lat="51.98314" lon="7.81778">
        <ele>51.00</ele>
        <time>2005-06-08T10:49:56.000Z</time>
      </trkpt>
      <trkpt lat="51.98311" lon="7.81745">
        <ele>51.00</ele>
        <time>2005-06-08T10:49:45.000Z</time>
      </trkpt>
      <trkpt lat="51.98119" lon="7.81795">
        <ele>52.00</ele>
        <time>2005-06-08T10:37:47.000Z</time>
      </trkpt>
      <trkpt lat="51.98102" lon="7.81789">
        <ele>52.00</ele>
        <time>2005-06-08T10:37:43.000Z</time>
      </trkpt>
      <trkpt lat="51.98016" lon="7.81576">
        <ele>53.00</ele>
        <time>2005-06-08T10:37:11.000Z</time>
      </trkpt>
      <trkpt lat="51.97763" lon="7.81179">
        <ele>46.00</ele>
        <time>2005-06-08T10:35:43.000Z</time>
      </trkpt>
      <trkpt lat="51.97765" lon="7.81137">
        <ele>45.00</ele>
        <time>2005-06-08T10:35:36.000Z</time>
      </trkpt>
      <trkpt lat="51.97739" lon="7.81049">
        <ele>45.00</ele>
        <time>2005-06-08T10:35:18.000Z</time>
      </trkpt>
      <trkpt lat="51.97795" lon="7.81012">
        <ele>45.00</ele>
        <time>2005-06-08T10:32:17.000Z</time>
      </trkpt>
      <trkpt lat="51.97994" lon="7.80954">
        <ele>45.00</ele>
        <time>2005-06-08T10:31:37.000Z</time>
      </trkpt>
      <trkpt lat="51.98022" lon="7.80935">
        <ele>46.00</ele>
        <time>2005-06-08T10:31:31.000Z</time>
      </trkpt>
      <trkpt lat="51.98048" lon="7.80885">
        <ele>45.00</ele>
        <time>2005-06-08T10:31:23.000Z</time>
      </trkpt>
      <trkpt lat="51.98052" lon="7.80864">
        <ele>45.00</ele>
        <time>2005-06-08T10:31:20.000Z</time>
      </trkpt>
      <trkpt lat="51.98057" lon="7.80808">
        <ele>45.00</ele>
        <time>2005-06-08T10:31:13.000Z</time>
      </trkpt>
      <trkpt lat="51.98078" lon="7.80725">
        <ele>45.00</ele>
        <time>2005-06-08T10:31:02.000Z</time>
      </trkpt>
      <trkpt lat="51.98080" lon="7.80652">
        <ele>45.00</ele>
        <time>2005-06-08T10:29:08.000Z</time>
      </trkpt>
      <trkpt lat="51.98106" lon="7.80512">
        <ele>45.00</ele>
        <time>2005-06-08T10:28:37.000Z</time>
      </trkpt>
      <trkpt lat="51.98143" lon="7.80422">
        <ele>45.00</ele>
        <time>2005-06-08T10:28:23.000Z</time>
      </trkpt>
      <trkpt lat="51.98149" lon="7.80411">
        <ele>45.00</ele>
        <time>2005-06-08T10:28:21.000Z</time>
      </trkpt>
      <trkpt lat="51.98203" lon="7.80353">
        <ele>46.00</ele>
        <time>2005-06-08T10:28:07.000Z</time>
      </trkpt>
      <trkpt lat="51.98211" lon="7.80336">
        <ele>46.00</ele>
        <time>2005-06-08T10:28:04.000Z</time>
      </trkpt>
      <trkpt lat="51.98282" lon="7.80237">
        <ele>46.00</ele>
        <time>2005-06-08T10:27:43.000Z</time>
      </trkpt>
      <trkpt lat="51.98308" lon="7.80177">
        <ele>45.00</ele>
        <time>2005-06-08T10:27:30.000Z</time>
      </trkpt>
      <trkpt lat="51.98314" lon="7.80177">
        <ele>46.00</ele>
        <time>2005-06-08T10:25:52.000Z</time>
      </trkpt>
      <trkpt lat="51.98282" lon="7.80141">
        <ele>46.00</ele>
        <time>2005-06-08T10:25:30.000Z</time>
      </trkpt>
      <trkpt lat="51.98284" lon="7.80128">
        <ele>46.00</ele>
        <time>2005-06-08T10:24:40.000Z</time>
      </trkpt>
      <trkpt lat="51.98331" lon="7.80006">
        <ele>46.00</ele>
        <time>2005-06-08T10:24:15.000Z</time>
      </trkpt>
      <trkpt lat="51.98424" lon="7.79585">
        <ele>46.00</ele>
        <time>2005-06-08T10:23:19.000Z</time>
      </trkpt>
      <trkpt lat="51.98432" lon="7.79435">
        <ele>45.00</ele>
        <time>2005-06-08T10:22:58.000Z</time>
      </trkpt>
      <trkpt lat="51.98421" lon="7.79394">
        <ele>45.00</ele>
        <time>2005-06-08T10:22:48.000Z</time>
      </trkpt>
      <trkpt lat="51.98376" lon="7.79413">
        <ele>45.00</ele>
        <time>2005-06-08T10:22:25.000Z</time>
      </trkpt>
      <trkpt lat="51.98372" lon="7.79420">
        <ele>45.00</ele>
        <time>2005-06-08T10:21:54.000Z</time>
      </trkpt>
      <trkpt lat="51.98366" lon="7.79313">
        <ele>45.00</ele>
        <time>2005-06-08T10:20:23.000Z</time>
      </trkpt>
      <trkpt lat="51.98370" lon="7.79270">
        <ele>44.00</ele>
        <time>2005-06-08T10:20:17.000Z</time>
      </trkpt>
      <trkpt lat="51.98376" lon="7.79261">
        <ele>44.00</ele>
        <time>2005-06-08T10:20:15.000Z</time>
      </trkpt>
      <trkpt lat="51.98374" lon="7.79235">
        <ele>44.00</ele>
        <time>2005-06-08T10:20:11.000Z</time>
      </trkpt>
      <trkpt lat="51.98349" lon="7.79167">
        <ele>45.00</ele>
        <time>2005-06-08T10:20:01.000Z</time>
      </trkpt>
      <trkpt lat="51.98291" lon="7.79087">
        <ele>44.00</ele>
        <time>2005-06-08T10:19:46.000Z</time>
      </trkpt>
      <trkpt lat="51.98280" lon="7.79064">
        <ele>44.00</ele>
        <time>2005-06-08T10:19:42.000Z</time>
      </trkpt>
      <trkpt lat="51.98288" lon="7.78931">
        <ele>45.00</ele>
        <time>2005-06-08T10:19:26.000Z</time>
      </trkpt>
      <trkpt lat="51.98295" lon="7.78898">
        <ele>45.00</ele>
        <time>2005-06-08T10:19:22.000Z</time>
      </trkpt>
      <trkpt lat="51.98303" lon="7.78883">
        <ele>45.00</ele>
        <time>2005-06-08T10:19:19.000Z</time>
      </trkpt>
      <trkpt lat="51.98353" lon="7.78826">
        <ele>47.00</ele>
        <time>2005-06-08T10:18:56.000Z</time>
      </trkpt>
      <trkpt lat="51.98366" lon="7.78847">
        <ele>47.00</ele>
        <time>2005-06-08T10:18:33.000Z</time>
      </trkpt>
      <trkpt lat="51.98376" lon="7.78868">
        <ele>46.00</ele>
        <time>2005-06-08T10:18:22.000Z</time>
      </trkpt>
      <trkpt lat="51.98387" lon="7.78868">
        <ele>46.00</ele>
        <time>2005-06-08T10:17:13.000Z</time>
      </trkpt>
      <trkpt lat="51.98391" lon="7.78862">
        <ele>47.00</ele>
        <time>2005-06-08T10:16:49.000Z</time>
      </trkpt>
      <trkpt lat="51.98557" lon="7.78718">
        <ele>45.00</ele>
        <time>2005-06-08T10:16:00.000Z</time>
      </trkpt>
      <trkpt lat="51.98570" lon="7.78703">
        <ele>46.00</ele>
        <time>2005-06-08T10:15:00.000Z</time>
      </trkpt>
      <trkpt lat="51.98576" lon="7.78688">
        <ele>47.00</ele>
        <time>2005-06-08T10:14:46.000Z</time>
      </trkpt>
      <trkpt lat="51.98567" lon="7.78632">
        <ele>48.00</ele>
        <time>2005-06-08T10:14:30.000Z</time>
      </trkpt>
      <trkpt lat="51.98574" lon="7.78617">
        <ele>47.00</ele>
        <time>2005-06-08T10:14:14.000Z</time>
      </trkpt>
      <trkpt lat="51.98776" lon="7.78465">
        <ele>46.00</ele>
        <time>2005-06-08T10:13:25.000Z</time>
      </trkpt>
      <trkpt lat="51.98857" lon="7.78439">
        <ele>46.00</ele>
        <time>2005-06-08T10:13:09.000Z</time>
      </trkpt>
      <trkpt lat="51.98864" lon="7.78431">
        <ele>45.00</ele>
        <time>2005-06-08T10:13:07.000Z</time>
      </trkpt>
      <trkpt lat="51.98887" lon="7.78375">
        <ele>45.00</ele>
        <time>2005-06-08T10:12:56.000Z</time>
      </trkpt>
      <trkpt lat="51.98889" lon="7.78351">
        <ele>45.00</ele>
        <time>2005-06-08T10:11:38.000Z</time>
      </trkpt>
      <trkpt lat="51.98911" lon="7.78212">
        <ele>45.00</ele>
        <time>2005-06-08T10:11:09.000Z</time>
      </trkpt>
      <trkpt lat="51.98924" lon="7.78017">
        <ele>45.00</ele>
        <time>2005-06-08T10:10:45.000Z</time>
      </trkpt>
      <trkpt lat="51.98915" lon="7.77982">
        <ele>46.00</ele>
        <time>2005-06-08T10:10:40.000Z</time>
      </trkpt>
      <trkpt lat="51.98915" lon="7.77948">
        <ele>46.00</ele>
        <time>2005-06-08T10:10:34.000Z</time>
      </trkpt>
      <trkpt lat="51.98939" lon="7.77903">
        <ele>47.00</ele>
        <time>2005-06-08T10:10:27.000Z</time>
      </trkpt>
      <trkpt lat="51.98975" lon="7.77802">
        <ele>50.00</ele>
        <time>2005-06-08T10:10:14.000Z</time>
      </trkpt>
      <trkpt lat="51.99108" lon="7.77555">
        <ele>48.00</ele>
        <time>2005-06-08T10:09:34.000Z</time>
      </trkpt>
      <trkpt lat="51.99117" lon="7.77532">
        <ele>48.00</ele>
        <time>2005-06-08T10:09:31.000Z</time>
      </trkpt>
      <trkpt lat="51.99140" lon="7.77433">
        <ele>48.00</ele>
        <time>2005-06-08T10:09:19.000Z</time>
      </trkpt>
      <trkpt lat="51.99190" lon="7.77300">
        <ele>48.00</ele>
        <time>2005-06-08T10:09:01.000Z</time>
      </trkpt>
      <trkpt lat="51.99192" lon="7.77287">
        <ele>49.00</ele>
        <time>2005-06-08T10:08:59.000Z</time>
      </trkpt>
      <trkpt lat="51.99426" lon="7.76736">
        <ele>49.00</ele>
        <time>2005-06-08T10:07:31.000Z</time>
      </trkpt>
      <trkpt lat="51.99726" lon="7.76324">
        <ele>50.00</ele>
        <time>2005-06-08T10:06:14.000Z</time>
      </trkpt>
      <trkpt lat="51.99758" lon="7.76261">
        <ele>50.00</ele>
        <time>2005-06-08T10:06:01.000Z</time>
      </trkpt>
      <trkpt lat="51.99769" lon="7.76229">
        <ele>50.00</ele>
        <time>2005-06-08T10:02:34.000Z</time>
      </trkpt>
      <trkpt lat="51.99784" lon="7.76214">
        <ele>50.00</ele>
        <time>2005-06-08T10:02:29.000Z</time>
      </trkpt>
      <trkpt lat="52.00344" lon="7.76618">
        <ele>50.00</ele>
        <time>2005-06-08T10:00:35.000Z</time>
      </trkpt>
      <trkpt lat="52.00359" lon="7.76635">
        <ele>49.00</ele>
        <time>2005-06-08T10:00:31.000Z</time>
      </trkpt>
      <trkpt lat="52.00404" lon="7.76847">
        <ele>48.00</ele>
        <time>2005-06-08T10:00:01.000Z</time>
      </trkpt>
      <trkpt lat="52.00428" lon="7.76877">
        <ele>46.00</ele>
        <time>2005-06-08T09:59:54.000Z</time>
      </trkpt>
      <trkpt lat="52.00451" lon="7.76866">
        <ele>47.00</ele>
        <time>2005-06-08T09:59:49.000Z</time>
      </trkpt>
      <trkpt lat="52.00945" lon="7.76785">
        <ele>45.00</ele>
        <time>2005-06-08T09:58:05.000Z</time>
      </trkpt>
      <trkpt lat="52.00953" lon="7.76778">
        <ele>45.00</ele>
        <time>2005-06-08T09:58:03.000Z</time>
      </trkpt>
      <trkpt lat="52.00966" lon="7.76759">
        <ele>45.00</ele>
        <time>2005-06-08T09:57:57.000Z</time>
      </trkpt>
      <trkpt lat="52.00973" lon="7.76744">
        <ele>45.00</ele>
        <time>2005-06-08T09:57:49.000Z</time>
      </trkpt>
      <trkpt lat="52.01003" lon="7.76708">
        <ele>46.00</ele>
        <time>2005-06-08T09:57:38.000Z</time>
      </trkpt>
      <trkpt lat="52.01018" lon="7.76695">
        <ele>46.00</ele>
        <time>2005-06-08T09:57:34.000Z</time>
      </trkpt>
      <trkpt lat="52.01087" lon="7.76690">
        <ele>45.00</ele>
        <time>2005-06-08T09:57:21.000Z</time>
      </trkpt>
      <trkpt lat="52.01125" lon="7.76669">
        <ele>45.00</ele>
        <time>2005-06-08T09:57:13.000Z</time>
      </trkpt>
      <trkpt lat="52.01222" lon="7.76652">
        <ele>47.00</ele>
        <time>2005-06-08T09:56:54.000Z</time>
      </trkpt>
      <trkpt lat="52.01277" lon="7.76669">
        <ele>46.00</ele>
        <time>2005-06-08T09:27:29.000Z</time>
      </trkpt>
      <trkpt lat="52.01273" lon="7.76650">
        <ele>46.00</ele>
        <time>2005-06-08T09:27:19.000Z</time>
      </trkpt>
      <trkpt lat="52.01256" lon="7.76480">
        <ele>46.00</ele>
        <time>2005-06-08T09:26:58.000Z</time>
      </trkpt>
      <trkpt lat="52.01250" lon="7.76450">
        <ele>46.00</ele>
        <time>2005-06-08T09:26:54.000Z</time>
      </trkpt>
      <trkpt lat="52.01252" lon="7.76433">
        <ele>46.00</ele>
        <time>2005-06-08T09:26:51.000Z</time>
      </trkpt>
      <trkpt lat="52.01550" lon="7.76317">
        <ele>44.00</ele>
        <time>2005-06-08T09:25:54.000Z</time>
      </trkpt>
      <trkpt lat="52.01606" lon="7.76216">
        <ele>46.00</ele>
        <time>2005-06-08T09:25:32.000Z</time>
      </trkpt>
      <trkpt lat="52.01677" lon="7.76152">
        <ele>48.00</ele>
        <time>2005-06-08T09:17:21.000Z</time>
      </trkpt>
      <trkpt lat="52.01696" lon="7.76124">
        <ele>46.00</ele>
        <time>2005-06-08T09:16:32.000Z</time>
      </trkpt>
      <trkpt lat="52.01709" lon="7.76130">
        <ele>45.00</ele>
        <time>2005-06-08T09:13:46.000Z</time>
      </trkpt>
      <trkpt lat="52.01720" lon="7.76130">
        <ele>44.00</ele>
        <time>2005-06-08T09:09:34.000Z</time>
      </trkpt>
      <trkpt lat="52.01732" lon="7.76137">
        <ele>45.00</ele>
        <time>2005-06-08T09:07:43.000Z</time>
      </trkpt>
      <trkpt lat="52.01810" lon="7.76137">
        <ele>45.00</ele>
        <time>2005-06-08T09:06:11.000Z</time>
      </trkpt>
      <trkpt lat="52.01889" lon="7.76073">
        <ele>45.00</ele>
        <time>2005-06-08T09:05:56.000Z</time>
      </trkpt>
      <trkpt lat="52.01913" lon="7.76006">
        <ele>45.00</ele>
        <time>2005-06-08T09:05:47.000Z</time>
      </trkpt>
      <trkpt lat="52.01930" lon="7.75830">
        <ele>46.00</ele>
        <time>2005-06-08T09:05:28.000Z</time>
      </trkpt>
      <trkpt lat="52.01958" lon="7.75695">
        <ele>46.00</ele>
        <time>2005-06-08T09:05:13.000Z</time>
      </trkpt>
      <trkpt lat="52.02200" lon="7.75364">
        <ele>49.00</ele>
        <time>2005-06-08T09:04:19.000Z</time>
      </trkpt>
      <trkpt lat="52.02219" lon="7.75347">
        <ele>49.00</ele>
        <time>2005-06-08T09:04:15.000Z</time>
      </trkpt>
      <trkpt lat="52.02290" lon="7.75240">
        <ele>49.00</ele>
        <time>2005-06-08T09:03:54.000Z</time>
      </trkpt>
      <trkpt lat="52.02284" lon="7.75053">
        <ele>49.00</ele>
        <time>2005-06-08T09:03:32.000Z</time>
      </trkpt>
      <trkpt lat="52.02277" lon="7.75019">
        <ele>48.00</ele>
        <time>2005-06-08T09:03:28.000Z</time>
      </trkpt>
      <trkpt lat="52.02260" lon="7.74980">
        <ele>49.00</ele>
        <time>2005-06-08T09:03:22.000Z</time>
      </trkpt>
      <trkpt lat="52.02101" lon="7.74965">
        <ele>49.00</ele>
        <time>2005-06-08T09:02:46.000Z</time>
      </trkpt>
      <trkpt lat="52.02086" lon="7.74957">
        <ele>50.00</ele>
        <time>2005-06-08T08:59:33.000Z</time>
      </trkpt>
      <trkpt lat="52.02050" lon="7.74916">
        <ele>50.00</ele>
        <time>2005-06-08T08:59:21.000Z</time>
      </trkpt>
      <trkpt lat="52.01666" lon="7.74669">
        <ele>49.00</ele>
        <time>2005-06-08T08:58:00.000Z</time>
      </trkpt>
      <trkpt lat="52.01578" lon="7.74671">
        <ele>48.00</ele>
        <time>2005-06-08T08:57:41.000Z</time>
      </trkpt>
      <trkpt lat="52.01295" lon="7.74555">
        <ele>43.00</ele>
        <time>2005-06-08T08:56:37.000Z</time>
      </trkpt>
      <trkpt lat="52.01286" lon="7.74540">
        <ele>42.00</ele>
        <time>2005-06-08T08:56:33.000Z</time>
      </trkpt>
      <trkpt lat="52.01460" lon="7.74128">
        <ele>44.00</ele>
        <time>2005-06-08T08:55:23.000Z</time>
      </trkpt>
      <trkpt lat="52.01460" lon="7.74103">
        <ele>42.00</ele>
        <time>2005-06-08T08:49:00.000Z</time>
      </trkpt>
      <trkpt lat="52.01466" lon="7.74094">
        <ele>42.00</ele>
        <time>2005-06-08T08:44:34.000Z</time>
      </trkpt>
      <trkpt lat="52.01640" lon="7.73641">
        <ele>43.00</ele>
        <time>2005-06-08T08:43:33.000Z</time>
      </trkpt>
      <trkpt lat="52.01657" lon="7.73616">
        <ele>42.00</ele>
        <time>2005-06-08T08:43:29.000Z</time>
      </trkpt>
      <trkpt lat="52.01958" lon="7.73315">
        <ele>41.00</ele>
        <time>2005-06-08T08:42:26.000Z</time>
      </trkpt>
      <trkpt lat="52.01975" lon="7.73285">
        <ele>41.00</ele>
        <time>2005-06-08T08:42:16.000Z</time>
      </trkpt>
      <trkpt lat="52.02192" lon="7.73109">
        <ele>41.00</ele>
        <time>2005-06-08T08:41:38.000Z</time>
      </trkpt>
      <trkpt lat="52.02204" lon="7.73113">
        <ele>41.00</ele>
        <time>2005-06-08T08:41:35.000Z</time>
      </trkpt>
      <trkpt lat="52.02235" lon="7.73184">
        <ele>41.00</ele>
        <time>2005-06-08T08:41:26.000Z</time>
      </trkpt>
      <trkpt lat="52.02432" lon="7.73804">
        <ele>46.00</ele>
        <time>2005-06-08T08:40:16.000Z</time>
      </trkpt>
      <trkpt lat="52.02479" lon="7.73912">
        <ele>46.00</ele>
        <time>2005-06-08T08:40:03.000Z</time>
      </trkpt>
      <trkpt lat="52.02511" lon="7.73944">
        <ele>46.00</ele>
        <time>2005-06-08T08:39:57.000Z</time>
      </trkpt>
      <trkpt lat="52.02552" lon="7.73968">
        <ele>47.00</ele>
        <time>2005-06-08T08:39:50.000Z</time>
      </trkpt>
      <trkpt lat="52.02580" lon="7.73948">
        <ele>47.00</ele>
        <time>2005-06-08T08:39:44.000Z</time>
      </trkpt>
      <trkpt lat="52.02636" lon="7.73813">
        <ele>47.00</ele>
        <time>2005-06-08T08:39:27.000Z</time>
      </trkpt>
      <trkpt lat="52.02674" lon="7.73779">
        <ele>47.00</ele>
        <time>2005-06-08T08:39:19.000Z</time>
      </trkpt>
      <trkpt lat="52.02747" lon="7.73813">
        <ele>47.00</ele>
        <time>2005-06-08T08:39:06.000Z</time>
      </trkpt>
      <trkpt lat="52.02762" lon="7.73826">
        <ele>46.00</ele>
        <time>2005-06-08T08:39:03.000Z</time>
      </trkpt>
      <trkpt lat="52.02848" lon="7.73965">
        <ele>47.00</ele>
        <time>2005-06-08T08:38:42.000Z</time>
      </trkpt>
      <trkpt lat="52.02852" lon="7.73970">
        <ele>47.00</ele>
        <time>2005-06-08T08:38:41.000Z</time>
      </trkpt>
      <trkpt lat="52.02861" lon="7.74013">
        <ele>48.00</ele>
        <time>2005-06-08T08:38:34.000Z</time>
      </trkpt>
      <trkpt lat="52.02788" lon="7.74124">
        <ele>51.00</ele>
        <time>2005-06-08T08:38:14.000Z</time>
      </trkpt>
      <trkpt lat="52.02786" lon="7.74135">
        <ele>52.00</ele>
        <time>2005-06-08T08:38:09.000Z</time>
      </trkpt>
      <trkpt lat="52.02831" lon="7.74077">
        <ele>55.00</ele>
        <time>2005-06-08T08:37:57.000Z</time>
      </trkpt>
      <trkpt lat="52.02855" lon="7.74053">
        <ele>56.00</ele>
        <time>2005-06-08T08:37:49.000Z</time>
      </trkpt>
      <trkpt lat="52.02887" lon="7.74023">
        <ele>56.00</ele>
        <time>2005-06-08T08:37:32.000Z</time>
      </trkpt>
      <trkpt lat="52.02906" lon="7.73995">
        <ele>57.00</ele>
        <time>2005-06-08T08:37:20.000Z</time>
      </trkpt>
      <trkpt lat="52.03129" lon="7.73736">
        <ele>44.00</ele>
        <time>2005-06-08T08:36:19.000Z</time>
      </trkpt>
      <trkpt lat="52.03136" lon="7.73723">
        <ele>44.00</ele>
        <time>2005-06-08T08:36:15.000Z</time>
      </trkpt>
      <trkpt lat="52.03121" lon="7.73671">
        <ele>49.00</ele>
        <time>2005-07-04T17:15:27.000Z</time>
      </trkpt>
      <trkpt lat="52.03181" lon="7.73214">
        <ele>48.00</ele>
        <time>2005-07-04T17:14:24.000Z</time>
      </trkpt>
      <trkpt lat="52.03204" lon="7.73129">
        <ele>48.00</ele>
        <time>2005-07-04T17:14:10.000Z</time>
      </trkpt>
      <trkpt lat="52.03316" lon="7.72980">
        <ele>46.00</ele>
        <time>2005-07-04T17:13:35.000Z</time>
      </trkpt>
      <trkpt lat="52.03318" lon="7.72974">
        <ele>46.00</ele>
        <time>2005-07-04T17:13:31.000Z</time>
      </trkpt>
      <trkpt lat="52.03325" lon="7.72978">
        <ele>46.00</ele>
        <time>2005-07-04T17:11:52.000Z</time>
      </trkpt>
      <trkpt lat="52.03325" lon="7.72970">
        <ele>46.00</ele>
        <time>2005-07-04T17:11:45.000Z</time>
      </trkpt>
      <trkpt lat="52.03524" lon="7.72328">
        <ele>50.00</ele>
        <time>2005-07-04T17:10:23.000Z</time>
      </trkpt>
      <trkpt lat="52.03554" lon="7.72154">
        <ele>48.00</ele>
        <time>2005-07-04T17:10:01.000Z</time>
      </trkpt>
      <trkpt lat="52.03554" lon="7.72118">
        <ele>47.00</ele>
        <time>2005-07-04T17:09:56.000Z</time>
      </trkpt>
      <trkpt lat="52.03535" lon="7.72094">
        <ele>47.00</ele>
        <time>2005-07-04T17:09:51.000Z</time>
      </trkpt>
      <trkpt lat="52.03526" lon="7.72092">
        <ele>47.00</ele>
        <time>2005-07-04T17:09:49.000Z</time>
      </trkpt>
      <trkpt lat="52.03492" lon="7.72096">
        <ele>48.00</ele>
        <time>2005-07-04T17:09:42.000Z</time>
      </trkpt>
      <trkpt lat="52.03462" lon="7.72086">
        <ele>48.00</ele>
        <time>2005-07-04T17:09:36.000Z</time>
      </trkpt>
      <trkpt lat="52.03449" lon="7.72056">
        <ele>49.00</ele>
        <time>2005-07-04T17:09:30.000Z</time>
      </trkpt>
      <trkpt lat="52.03449" lon="7.72043">
        <ele>48.00</ele>
        <time>2005-07-04T17:09:28.000Z</time>
      </trkpt>
      <trkpt lat="52.03473" lon="7.71944">
        <ele>49.00</ele>
        <time>2005-07-04T17:09:12.000Z</time>
      </trkpt>
      <trkpt lat="52.03475" lon="7.71927">
        <ele>49.00</ele>
        <time>2005-07-04T17:07:30.000Z</time>
      </trkpt>
      <trkpt lat="52.03470" lon="7.71933">
        <ele>47.00</ele>
        <time>2005-07-04T17:05:21.000Z</time>
      </trkpt>
      <trkpt lat="52.03477" lon="7.71886">
        <ele>47.00</ele>
        <time>2005-07-04T17:05:09.000Z</time>
      </trkpt>
      <trkpt lat="52.03490" lon="7.71592">
        <ele>44.00</ele>
        <time>2005-07-04T17:04:30.000Z</time>
      </trkpt>
      <trkpt lat="52.03524" lon="7.71367">
        <ele>46.00</ele>
        <time>2005-07-04T17:04:03.000Z</time>
      </trkpt>
      <trkpt lat="52.03666" lon="7.70993">
        <ele>48.00</ele>
        <time>2005-07-04T17:03:12.000Z</time>
      </trkpt>
      <trkpt lat="52.03670" lon="7.70978">
        <ele>48.00</ele>
        <time>2005-07-04T17:03:10.000Z</time>
      </trkpt>
      <trkpt lat="52.03674" lon="7.70938">
        <ele>48.00</ele>
        <time>2005-07-04T17:03:05.000Z</time>
      </trkpt>
      <trkpt lat="52.03674" lon="7.70923">
        <ele>49.00</ele>
        <time>2005-07-04T17:03:03.000Z</time>
      </trkpt>
      <trkpt lat="52.03661" lon="7.70779">
        <ele>47.00</ele>
        <time>2005-07-04T17:02:44.000Z</time>
      </trkpt>
      <trkpt lat="52.03623" lon="7.70663">
        <ele>48.00</ele>
        <time>2005-07-04T17:02:29.000Z</time>
      </trkpt>
      <trkpt lat="52.03621" lon="7.70517">
        <ele>48.00</ele>
        <time>2005-07-04T17:02:13.000Z</time>
      </trkpt>
      <trkpt lat="52.03638" lon="7.70457">
        <ele>49.00</ele>
        <time>2005-07-04T17:02:06.000Z</time>
      </trkpt>
      <trkpt lat="52.03782" lon="7.70343">
        <ele>48.00</ele>
        <time>2005-07-04T17:01:37.000Z</time>
      </trkpt>
      <trkpt lat="52.03913" lon="7.69983">
        <ele>49.00</ele>
        <time>2005-07-04T17:00:49.000Z</time>
      </trkpt>
      <trkpt lat="52.03930" lon="7.69521">
        <ele>48.00</ele>
        <time>2005-07-04T16:59:56.000Z</time>
      </trkpt>
      <trkpt lat="52.03945" lon="7.69461">
        <ele>47.00</ele>
        <time>2005-07-04T16:59:49.000Z</time>
      </trkpt>
      <trkpt lat="52.04020" lon="7.69339">
        <ele>47.00</ele>
        <time>2005-07-04T16:59:28.000Z</time>
      </trkpt>
      <trkpt lat="52.04028" lon="7.69315">
        <ele>47.00</ele>
        <time>2005-07-04T16:59:24.000Z</time>
      </trkpt>
      <trkpt lat="52.03996" lon="7.69176">
        <ele>47.00</ele>
        <time>2005-07-04T16:59:04.000Z</time>
      </trkpt>
      <trkpt lat="52.03996" lon="7.68888">
        <ele>46.00</ele>
        <time>2005-07-04T16:58:22.000Z</time>
      </trkpt>
      <trkpt lat="52.03981" lon="7.68826">
        <ele>45.00</ele>
        <time>2005-07-04T16:57:39.000Z</time>
      </trkpt>
      <trkpt lat="52.03919" lon="7.68637">
        <ele>42.00</ele>
        <time>2005-07-04T16:57:05.000Z</time>
      </trkpt>
      <trkpt lat="52.03951" lon="7.68584">
        <ele>40.00</ele>
        <time>2005-07-04T16:56:54.000Z</time>
      </trkpt>
      <trkpt lat="52.04172" lon="7.68470">
        <ele>50.00</ele>
        <time>2005-07-04T16:56:25.000Z</time>
      </trkpt>
      <trkpt lat="52.04301" lon="7.68367">
        <ele>50.00</ele>
        <time>2005-07-04T16:55:55.000Z</time>
      </trkpt>
      <trkpt lat="52.04339" lon="7.68348">
        <ele>50.00</ele>
        <time>2005-07-04T16:55:41.000Z</time>
      </trkpt>
      <trkpt lat="52.04312" lon="7.68365">
        <ele>48.00</ele>
        <time>2005-07-04T16:55:28.000Z</time>
      </trkpt>
      <trkpt lat="52.04243" lon="7.68346">
        <ele>46.00</ele>
        <time>2005-07-04T16:55:11.000Z</time>
      </trkpt>
      <trkpt lat="52.04211" lon="7.68309">
        <ele>45.00</ele>
        <time>2005-07-04T16:55:02.000Z</time>
      </trkpt>
      <trkpt lat="52.04088" lon="7.68110">
        <ele>46.00</ele>
        <time>2005-07-04T16:54:11.000Z</time>
      </trkpt>
      <trkpt lat="52.04043" lon="7.68062">
        <ele>46.00</ele>
        <time>2005-07-04T16:53:54.000Z</time>
      </trkpt>
      <trkpt lat="52.03994" lon="7.67977">
        <ele>46.00</ele>
        <time>2005-07-04T16:53:19.000Z</time>
      </trkpt>
      <trkpt lat="52.03994" lon="7.67966">
        <ele>45.00</ele>
        <time>2005-07-04T16:53:02.000Z</time>
      </trkpt>
      <trkpt lat="52.03973" lon="7.67925">
        <ele>46.00</ele>
        <time>2005-07-04T16:51:10.000Z</time>
      </trkpt>
      <trkpt lat="52.03606" lon="7.67311">
        <ele>47.00</ele>
        <time>2005-07-04T16:49:17.000Z</time>
      </trkpt>
      <trkpt lat="52.03597" lon="7.67277">
        <ele>48.00</ele>
        <time>2005-07-04T16:49:11.000Z</time>
      </trkpt>
      <trkpt lat="52.03513" lon="7.67170">
        <ele>52.00</ele>
        <time>2005-07-04T16:48:48.000Z</time>
      </trkpt>
      <trkpt lat="52.03509" lon="7.67155">
        <ele>53.00</ele>
        <time>2005-07-04T16:48:44.000Z</time>
      </trkpt>
      <trkpt lat="52.03715" lon="7.66751">
        <ele>45.00</ele>
        <time>2005-07-04T16:46:46.000Z</time>
      </trkpt>
      <trkpt lat="52.03739" lon="7.66689">
        <ele>42.00</ele>
        <time>2005-07-04T16:41:41.000Z</time>
      </trkpt>
      <trkpt lat="52.03940" lon="7.66979">
        <ele>41.00</ele>
        <time>2005-07-04T16:40:42.000Z</time>
      </trkpt>
      <trkpt lat="52.03970" lon="7.67002">
        <ele>41.00</ele>
        <time>2005-07-04T16:40:34.000Z</time>
      </trkpt>
      <trkpt lat="52.04078" lon="7.66738">
        <ele>42.00</ele>
        <time>2005-07-04T16:39:52.000Z</time>
      </trkpt>
      <trkpt lat="52.04086" lon="7.66711">
        <ele>42.00</ele>
        <time>2005-07-04T16:39:46.000Z</time>
      </trkpt>
      <trkpt lat="52.04397" lon="7.66028">
        <ele>40.00</ele>
        <time>2005-07-04T16:37:45.000Z</time>
      </trkpt>
      <trkpt lat="52.04404" lon="7.66037">
        <ele>40.00</ele>
        <time>2005-07-04T16:36:21.000Z</time>
      </trkpt>
      <trkpt lat="52.04400" lon="7.66030">
        <ele>40.00</ele>
        <time>2005-07-04T16:34:29.000Z</time>
      </trkpt>
      <trkpt lat="52.04404" lon="7.66037">
        <ele>40.00</ele>
        <time>2005-07-04T16:34:18.000Z</time>
      </trkpt>
      <trkpt lat="52.04627" lon="7.66245">
        <ele>39.00</ele>
        <time>2005-07-04T16:33:26.000Z</time>
      </trkpt>
      <trkpt lat="52.04646" lon="7.66238">
        <ele>39.00</ele>
        <time>2005-07-04T16:33:22.000Z</time>
      </trkpt>
      <trkpt lat="52.04721" lon="7.66159">
        <ele>39.00</ele>
        <time>2005-07-04T16:33:04.000Z</time>
      </trkpt>
      <trkpt lat="52.04805" lon="7.66176">
        <ele>38.00</ele>
        <time>2005-07-04T16:32:47.000Z</time>
      </trkpt>
      <trkpt lat="52.04867" lon="7.66284">
        <ele>36.00</ele>
        <time>2005-07-04T16:32:30.000Z</time>
      </trkpt>
      <trkpt lat="52.04973" lon="7.66384">
        <ele>37.00</ele>
        <time>2005-07-04T16:32:07.000Z</time>
      </trkpt>
      <trkpt lat="52.05003" lon="7.66387">
        <ele>36.00</ele>
        <time>2005-07-04T16:32:02.000Z</time>
      </trkpt>
      <trkpt lat="52.05030" lon="7.66354">
        <ele>37.00</ele>
        <time>2005-07-04T16:31:56.000Z</time>
      </trkpt>
      <trkpt lat="52.05376" lon="7.66168">
        <ele>38.00</ele>
        <time>2005-07-04T16:30:56.000Z</time>
      </trkpt>
      <trkpt lat="52.05423" lon="7.66159">
        <ele>39.00</ele>
        <time>2005-07-04T16:30:21.000Z</time>
      </trkpt>
      <trkpt lat="52.05505" lon="7.65867">
        <ele>40.00</ele>
        <time>2005-07-04T16:29:31.000Z</time>
      </trkpt>
      <trkpt lat="52.05552" lon="7.65700">
        <ele>39.00</ele>
        <time>2005-07-04T16:29:10.000Z</time>
      </trkpt>
      <trkpt lat="52.05563" lon="7.65687">
        <ele>40.00</ele>
        <time>2005-07-04T16:29:06.000Z</time>
      </trkpt>
      <trkpt lat="52.05862" lon="7.65954">
        <ele>39.00</ele>
        <time>2005-07-04T16:27:58.000Z</time>
      </trkpt>
      <trkpt lat="52.05865" lon="7.65925">
        <ele>39.00</ele>
        <time>2005-07-04T16:26:01.000Z</time>
      </trkpt>
      <trkpt lat="52.05889" lon="7.65095">
        <ele>39.00</ele>
        <time>2005-07-04T16:24:19.000Z</time>
      </trkpt>
      <trkpt lat="52.05902" lon="7.65065">
        <ele>37.00</ele>
        <time>2005-07-04T16:24:15.000Z</time>
      </trkpt>
      <trkpt lat="52.05972" lon="7.64947">
        <ele>37.00</ele>
        <time>2005-07-04T16:23:56.000Z</time>
      </trkpt>
      <trkpt lat="52.06026" lon="7.64801">
        <ele>37.00</ele>
        <time>2005-07-04T16:23:37.000Z</time>
      </trkpt>
      <trkpt lat="52.06026" lon="7.64354">
        <ele>40.00</ele>
        <time>2005-07-04T16:22:47.000Z</time>
      </trkpt>
      <trkpt lat="52.06050" lon="7.64232">
        <ele>41.00</ele>
        <time>2005-07-04T16:22:30.000Z</time>
      </trkpt>
      <trkpt lat="52.06058" lon="7.64228">
        <ele>41.00</ele>
        <time>2005-07-04T16:22:28.000Z</time>
      </trkpt>
      <trkpt lat="52.06142" lon="7.64249">
        <ele>41.00</ele>
        <time>2005-07-04T16:22:09.000Z</time>
      </trkpt>
      <trkpt lat="52.06254" lon="7.64312">
        <ele>38.00</ele>
        <time>2005-07-04T16:21:45.000Z</time>
      </trkpt>
      <trkpt lat="52.06369" lon="7.64342">
        <ele>37.00</ele>
        <time>2005-07-04T16:21:23.000Z</time>
      </trkpt>
      <trkpt lat="52.06389" lon="7.64363">
        <ele>38.00</ele>
        <time>2005-07-04T16:21:18.000Z</time>
      </trkpt>
      <trkpt lat="52.06447" lon="7.64597">
        <ele>38.00</ele>
        <time>2005-07-04T16:20:48.000Z</time>
      </trkpt>
      <trkpt lat="52.06457" lon="7.64790">
        <ele>39.00</ele>
        <time>2005-07-04T16:20:26.000Z</time>
      </trkpt>
      <trkpt lat="52.06507" lon="7.64908">
        <ele>38.00</ele>
        <time>2005-07-04T16:20:10.000Z</time>
      </trkpt>
      <trkpt lat="52.06590" lon="7.65026">
        <ele>38.00</ele>
        <time>2005-07-04T16:19:50.000Z</time>
      </trkpt>
      <trkpt lat="52.06689" lon="7.65108">
        <ele>37.00</ele>
        <time>2005-07-04T16:19:30.000Z</time>
      </trkpt>
      <trkpt lat="52.06713" lon="7.65116">
        <ele>37.00</ele>
        <time>2005-07-04T16:19:26.000Z</time>
      </trkpt>
      <trkpt lat="52.06880" lon="7.65099">
        <ele>37.00</ele>
        <time>2005-07-04T16:18:56.000Z</time>
      </trkpt>
      <trkpt lat="52.06934" lon="7.64977">
        <ele>38.00</ele>
        <time>2005-07-04T16:18:39.000Z</time>
      </trkpt>
      <trkpt lat="52.06972" lon="7.64923">
        <ele>39.00</ele>
        <time>2005-07-04T16:18:30.000Z</time>
      </trkpt>
      <trkpt lat="52.07062" lon="7.64925">
        <ele>38.00</ele>
        <time>2005-07-04T16:18:14.000Z</time>
      </trkpt>
      <trkpt lat="52.07150" lon="7.64915">
        <ele>37.00</ele>
        <time>2005-07-04T16:17:58.000Z</time>
      </trkpt>
      <trkpt lat="52.07243" lon="7.64766">
        <ele>37.00</ele>
        <time>2005-07-04T16:17:31.000Z</time>
      </trkpt>
      <trkpt lat="52.07380" lon="7.64601">
        <ele>37.00</ele>
        <time>2005-07-04T16:16:58.000Z</time>
      </trkpt>
      <trkpt lat="52.07389" lon="7.64586">
        <ele>37.00</ele>
        <time>2005-07-04T16:16:55.000Z</time>
      </trkpt>
      <trkpt lat="52.07402" lon="7.64586">
        <ele>36.00</ele>
        <time>2005-07-04T16:16:52.000Z</time>
      </trkpt>
      <trkpt lat="52.07470" lon="7.64606">
        <ele>36.00</ele>
        <time>2005-07-04T16:16:37.000Z</time>
      </trkpt>
      <trkpt lat="52.07494" lon="7.64593">
        <ele>36.00</ele>
        <time>2005-07-04T16:16:31.000Z</time>
      </trkpt>
      <trkpt lat="52.07509" lon="7.64503">
        <ele>35.00</ele>
        <time>2005-07-04T16:16:19.000Z</time>
      </trkpt>
      <trkpt lat="52.07558" lon="7.64442">
        <ele>35.00</ele>
        <time>2005-07-04T16:16:07.000Z</time>
      </trkpt>
      <trkpt lat="52.07670" lon="7.64056">
        <ele>35.00</ele>
        <time>2005-07-04T16:15:12.000Z</time>
      </trkpt>
      <trkpt lat="52.07678" lon="7.63985">
        <ele>35.00</ele>
        <time>2005-07-04T16:15:02.000Z</time>
      </trkpt>
      <trkpt lat="52.07581" lon="7.63895">
        <ele>35.00</ele>
        <time>2005-07-04T16:14:41.000Z</time>
      </trkpt>
      <trkpt lat="52.07588" lon="7.63865">
        <ele>39.00</ele>
        <time>2005-07-04T16:08:31.000Z</time>
      </trkpt>
      <trkpt lat="52.07691" lon="7.63586">
        <ele>38.00</ele>
        <time>2005-07-04T16:07:55.000Z</time>
      </trkpt>
      <trkpt lat="52.07698" lon="7.63548">
        <ele>38.00</ele>
        <time>2005-07-04T16:07:50.000Z</time>
      </trkpt>
      <trkpt lat="52.07689" lon="7.63498">
        <ele>38.00</ele>
        <time>2005-07-04T16:07:43.000Z</time>
      </trkpt>
      <trkpt lat="52.07670" lon="7.63481">
        <ele>38.00</ele>
        <time>2005-07-04T16:07:39.000Z</time>
      </trkpt>
      <trkpt lat="52.07659" lon="7.63445">
        <ele>38.00</ele>
        <time>2005-07-04T16:07:34.000Z</time>
      </trkpt>
      <trkpt lat="52.07726" lon="7.63136">
        <ele>39.00</ele>
        <time>2005-07-04T16:06:56.000Z</time>
      </trkpt>
      <trkpt lat="52.07706" lon="7.63125">
        <ele>39.00</ele>
        <time>2005-07-04T16:06:52.000Z</time>
      </trkpt>
      <trkpt lat="52.07648" lon="7.63149">
        <ele>40.00</ele>
        <time>2005-07-04T16:06:43.000Z</time>
      </trkpt>
      <trkpt lat="52.07644" lon="7.63131">
        <ele>40.00</ele>
        <time>2005-07-04T16:06:41.000Z</time>
      </trkpt>
      <trkpt lat="52.07642" lon="7.62964">
        <ele>39.00</ele>
        <time>2005-07-04T16:06:25.000Z</time>
      </trkpt>
      <trkpt lat="52.07655" lon="7.62831">
        <ele>42.00</ele>
        <time>2005-07-04T16:06:13.000Z</time>
      </trkpt>
      <trkpt lat="52.07653" lon="7.62794">
        <ele>42.00</ele>
        <time>2005-07-04T16:06:09.000Z</time>
      </trkpt>
      <trkpt lat="52.07625" lon="7.62715">
        <ele>43.00</ele>
        <time>2005-07-04T16:05:58.000Z</time>
      </trkpt>
      <trkpt lat="52.07539" lon="7.62634">
        <ele>43.00</ele>
        <time>2005-07-04T16:05:40.000Z</time>
      </trkpt>
      <trkpt lat="52.07477" lon="7.62543">
        <ele>43.00</ele>
        <time>2005-07-04T16:05:25.000Z</time>
      </trkpt>
      <trkpt lat="52.07474" lon="7.62518">
        <ele>43.00</ele>
        <time>2005-07-04T16:05:21.000Z</time>
      </trkpt>
      <trkpt lat="52.07680" lon="7.62024">
        <ele>41.00</ele>
        <time>2005-07-04T16:04:04.000Z</time>
      </trkpt>
      <trkpt lat="52.07741" lon="7.61902">
        <ele>40.00</ele>
        <time>2005-07-04T16:03:42.000Z</time>
      </trkpt>
      <trkpt lat="52.07777" lon="7.61810">
        <ele>40.00</ele>
        <time>2005-07-04T16:03:26.000Z</time>
      </trkpt>
      <trkpt lat="52.07809" lon="7.61685">
        <ele>40.00</ele>
        <time>2005-07-04T16:03:06.000Z</time>
      </trkpt>
      <trkpt lat="52.07850" lon="7.61578">
        <ele>39.00</ele>
        <time>2005-07-04T16:02:47.000Z</time>
      </trkpt>
      <trkpt lat="52.07854" lon="7.61548">
        <ele>39.00</ele>
        <time>2005-07-04T16:02:43.000Z</time>
      </trkpt>
      <trkpt lat="52.07863" lon="7.61511">
        <ele>39.00</ele>
        <time>2005-07-04T16:02:38.000Z</time>
      </trkpt>
      <trkpt lat="52.07889" lon="7.61488">
        <ele>39.00</ele>
        <time>2005-07-04T16:02:31.000Z</time>
      </trkpt>
      <trkpt lat="52.08322" lon="7.61640">
        <ele>40.00</ele>
        <time>2005-07-04T16:00:53.000Z</time>
      </trkpt>
      <trkpt lat="52.08326" lon="7.61653">
        <ele>40.00</ele>
        <time>2005-07-04T16:00:49.000Z</time>
      </trkpt>
      <trkpt lat="52.08318" lon="7.61655">
        <ele>40.00</ele>
        <time>2005-07-04T16:00:47.000Z</time>
      </trkpt>
      <trkpt lat="52.08271" lon="7.61683">
        <ele>41.00</ele>
        <time>2005-07-04T16:00:35.000Z</time>
      </trkpt>
      <trkpt lat="52.08266" lon="7.61719">
        <ele>41.00</ele>
        <time>2005-07-04T16:00:29.000Z</time>
      </trkpt>
      <trkpt lat="52.08247" lon="7.61786">
        <ele>40.00</ele>
        <time>2005-07-04T16:00:14.000Z</time>
      </trkpt>
      <trkpt lat="52.08241" lon="7.61792">
        <ele>39.00</ele>
        <time>2005-07-04T16:00:11.000Z</time>
      </trkpt>
      <trkpt lat="52.08236" lon="7.61801">
        <ele>38.00</ele>
        <time>2005-07-04T16:00:07.000Z</time>
      </trkpt>
      <trkpt lat="52.08236" lon="7.61790">
        <ele>37.00</ele>
        <time>2005-07-04T16:00:03.000Z</time>
      </trkpt>
      <trkpt lat="52.08247" lon="7.61752">
        <ele>37.00</ele>
        <time>2005-07-04T15:59:57.000Z</time>
      </trkpt>
      <trkpt lat="52.08283" lon="7.61531">
        <ele>41.00</ele>
        <time>2005-07-04T15:56:22.000Z</time>
      </trkpt>
      <trkpt lat="52.08303" lon="7.61466">
        <ele>41.00</ele>
        <time>2005-07-04T15:55:29.000Z</time>
      </trkpt>
      <trkpt lat="52.08386" lon="7.61327">
        <ele>40.00</ele>
        <time>2005-07-04T15:55:09.000Z</time>
      </trkpt>
      <trkpt lat="52.08584" lon="7.61119">
        <ele>42.00</ele>
        <time>2005-07-04T15:54:30.000Z</time>
      </trkpt>
      <trkpt lat="52.08612" lon="7.61065">
        <ele>41.00</ele>
        <time>2005-07-04T15:54:23.000Z</time>
      </trkpt>
      <trkpt lat="52.08687" lon="7.60732">
        <ele>42.00</ele>
        <time>2005-07-04T15:53:47.000Z</time>
      </trkpt>
      <trkpt lat="52.08764" lon="7.60595">
        <ele>41.00</ele>
        <time>2005-07-04T15:53:29.000Z</time>
      </trkpt>
      <trkpt lat="52.09095" lon="7.60451">
        <ele>43.00</ele>
        <time>2005-07-04T15:52:31.000Z</time>
      </trkpt>
      <trkpt lat="52.09221" lon="7.60372">
        <ele>41.00</ele>
        <time>2005-07-04T15:49:06.000Z</time>
      </trkpt>
      <trkpt lat="52.09343" lon="7.60368">
        <ele>40.00</ele>
        <time>2005-07-04T15:48:44.000Z</time>
      </trkpt>
      <trkpt lat="52.09391" lon="7.60346">
        <ele>46.00</ele>
        <time>2005-07-04T15:25:57.000Z</time>
      </trkpt>
      <trkpt lat="52.09391" lon="7.60370">
        <ele>45.00</ele>
        <time>2005-07-04T15:24:52.000Z</time>
      </trkpt>
      <trkpt lat="52.09388" lon="7.60376">
        <ele>46.00</ele>
        <time>2005-07-04T15:23:51.000Z</time>
      </trkpt>
      <trkpt lat="52.09393" lon="7.60428">
        <ele>44.00</ele>
        <time>2005-07-04T15:23:08.000Z</time>
      </trkpt>
      <trkpt lat="52.09406" lon="7.60471">
        <ele>44.00</ele>
        <time>2005-07-04T15:22:27.000Z</time>
      </trkpt>
      <trkpt lat="52.09425" lon="7.60460">
        <ele>44.00</ele>
        <time>2005-07-04T15:22:16.000Z</time>
      </trkpt>
      <trkpt lat="52.09434" lon="7.60522">
        <ele>44.00</ele>
        <time>2005-07-04T15:21:43.000Z</time>
      </trkpt>
      <trkpt lat="52.09423" lon="7.60647">
        <ele>44.00</ele>
        <time>2005-07-04T15:21:26.000Z</time>
      </trkpt>
      <trkpt lat="52.09431" lon="7.60692">
        <ele>44.00</ele>
        <time>2005-07-04T15:21:18.000Z</time>
      </trkpt>
      <trkpt lat="52.09470" lon="7.60687">
        <ele>44.00</ele>
        <time>2005-07-04T15:21:06.000Z</time>
      </trkpt>
      <trkpt lat="52.09564" lon="7.60692">
        <ele>45.00</ele>
        <time>2005-07-04T15:20:49.000Z</time>
      </trkpt>
      <trkpt lat="52.09594" lon="7.60707">
        <ele>46.00</ele>
        <time>2005-07-04T15:20:44.000Z</time>
      </trkpt>
      <trkpt lat="52.09708" lon="7.60801">
        <ele>51.00</ele>
        <time>2005-07-04T15:20:23.000Z</time>
      </trkpt>
      <trkpt lat="52.09734" lon="7.60855">
        <ele>51.00</ele>
        <time>2005-07-04T15:20:14.000Z</time>
      </trkpt>
      <trkpt lat="52.09773" lon="7.60968">
        <ele>51.00</ele>
        <time>2005-07-04T15:19:58.000Z</time>
      </trkpt>
      <trkpt lat="52.09777" lon="7.60977">
        <ele>51.00</ele>
        <time>2005-07-04T15:19:56.000Z</time>
      </trkpt>
      <trkpt lat="52.09850" lon="7.60953">
        <ele>51.00</ele>
        <time>2005-07-04T15:19:37.000Z</time>
      </trkpt>
      <trkpt lat="52.09925" lon="7.60900">
        <ele>51.00</ele>
        <time>2005-07-04T15:19:19.000Z</time>
      </trkpt>
      <trkpt lat="52.09942" lon="7.60898">
        <ele>52.00</ele>
        <time>2005-07-04T15:19:15.000Z</time>
      </trkpt>
      <trkpt lat="52.09966" lon="7.60904">
        <ele>52.00</ele>
        <time>2005-07-04T15:19:10.000Z</time>
      </trkpt>
      <trkpt lat="52.09981" lon="7.60917">
        <ele>51.00</ele>
        <time>2005-07-04T15:19:06.000Z</time>
      </trkpt>
      <trkpt lat="52.10062" lon="7.60947">
        <ele>52.00</ele>
        <time>2005-07-04T15:18:49.000Z</time>
      </trkpt>
      <trkpt lat="52.10114" lon="7.60911">
        <ele>51.00</ele>
        <time>2005-07-04T15:18:37.000Z</time>
      </trkpt>
      <trkpt lat="52.10159" lon="7.60853">
        <ele>52.00</ele>
        <time>2005-07-04T15:18:25.000Z</time>
      </trkpt>
      <trkpt lat="52.10172" lon="7.60829">
        <ele>52.00</ele>
        <time>2005-07-04T15:18:20.000Z</time>
      </trkpt>
      <trkpt lat="52.10348" lon="7.60795">
        <ele>53.00</ele>
        <time>2005-07-04T15:17:42.000Z</time>
      </trkpt>
      <trkpt lat="52.10547" lon="7.60784">
        <ele>53.00</ele>
        <time>2005-07-04T15:16:59.000Z</time>
      </trkpt>
      <trkpt lat="52.10573" lon="7.60533">
        <ele>52.00</ele>
        <time>2005-07-04T15:16:24.000Z</time>
      </trkpt>
      <trkpt lat="52.10541" lon="7.60295">
        <ele>50.00</ele>
        <time>2005-07-04T15:15:49.000Z</time>
      </trkpt>
      <trkpt lat="52.10534" lon="7.60132">
        <ele>47.00</ele>
        <time>2005-07-04T15:15:23.000Z</time>
      </trkpt>
      <trkpt lat="52.10545" lon="7.60102">
        <ele>47.00</ele>
        <time>2005-07-04T15:15:16.000Z</time>
      </trkpt>
      <trkpt lat="52.10637" lon="7.60095">
        <ele>52.00</ele>
        <time>2005-07-04T15:15:01.000Z</time>
      </trkpt>
      <trkpt lat="52.10721" lon="7.60102">
        <ele>55.00</ele>
        <time>2005-07-04T15:14:42.000Z</time>
      </trkpt>
      <trkpt lat="52.10785" lon="7.60099">
        <ele>54.00</ele>
        <time>2005-07-04T15:14:24.000Z</time>
      </trkpt>
      <trkpt lat="52.10914" lon="7.60069">
        <ele>53.00</ele>
        <time>2005-07-04T15:13:39.000Z</time>
      </trkpt>
      <trkpt lat="52.10925" lon="7.60059">
        <ele>53.00</ele>
        <time>2005-07-04T15:13:35.000Z</time>
      </trkpt>
      <trkpt lat="52.10931" lon="7.60059">
        <ele>52.00</ele>
        <time>2005-07-04T15:13:33.000Z</time>
      </trkpt>
      <trkpt lat="52.10972" lon="7.60054">
        <ele>52.00</ele>
        <time>2005-07-04T15:13:19.000Z</time>
      </trkpt>
      <trkpt lat="52.11000" lon="7.60170">
        <ele>52.00</ele>
        <time>2005-07-04T15:12:42.000Z</time>
      </trkpt>
      <trkpt lat="52.11051" lon="7.60316">
        <ele>56.00</ele>
        <time>2005-07-04T15:12:36.000Z</time>
      </trkpt>
      <trkpt lat="52.11058" lon="7.60314">
        <ele>56.00</ele>
        <time>2005-07-04T15:12:34.000Z</time>
      </trkpt>
      <trkpt lat="52.11313" lon="7.59557">
        <ele>43.00</ele>
        <time>2005-07-04T15:10:20.000Z</time>
      </trkpt>
      <trkpt lat="52.11313" lon="7.59544">
        <ele>42.00</ele>
        <time>2005-07-04T15:07:50.000Z</time>
      </trkpt>
      <trkpt lat="52.11476" lon="7.59348">
        <ele>41.00</ele>
        <time>2005-07-04T15:06:54.000Z</time>
      </trkpt>
      <trkpt lat="52.11470" lon="7.59351">
        <ele>38.00</ele>
        <time>2005-07-04T15:03:46.000Z</time>
      </trkpt>
      <trkpt lat="52.11534" lon="7.59383">
        <ele>38.00</ele>
        <time>2005-07-04T15:03:21.000Z</time>
      </trkpt>
      <trkpt lat="52.11646" lon="7.59803">
        <ele>39.00</ele>
        <time>2005-07-04T15:02:41.000Z</time>
      </trkpt>
      <trkpt lat="52.11871" lon="7.60359">
        <ele>44.00</ele>
        <time>2005-07-04T15:01:17.000Z</time>
      </trkpt>
      <trkpt lat="52.11959" lon="7.60649">
        <ele>43.00</ele>
        <time>2005-07-04T15:00:34.000Z</time>
      </trkpt>
      <trkpt lat="52.11981" lon="7.60670">
        <ele>42.00</ele>
        <time>2005-07-04T15:00:28.000Z</time>
      </trkpt>
      <trkpt lat="52.11989" lon="7.60666">
        <ele>43.00</ele>
        <time>2005-07-04T15:00:26.000Z</time>
      </trkpt>
      <trkpt lat="52.12056" lon="7.60659">
        <ele>42.00</ele>
        <time>2005-07-04T15:00:10.000Z</time>
      </trkpt>
      <trkpt lat="52.12079" lon="7.60677">
        <ele>43.00</ele>
        <time>2005-07-04T15:00:05.000Z</time>
      </trkpt>
      <trkpt lat="52.12090" lon="7.60694">
        <ele>43.00</ele>
        <time>2005-07-04T15:00:02.000Z</time>
      </trkpt>
      <trkpt lat="52.12157" lon="7.60850">
        <ele>41.00</ele>
        <time>2005-07-04T14:59:37.000Z</time>
      </trkpt>
      <trkpt lat="52.12202" lon="7.61044">
        <ele>40.00</ele>
        <time>2005-07-04T14:59:08.000Z</time>
      </trkpt>
      <trkpt lat="52.12219" lon="7.61082">
        <ele>39.00</ele>
        <time>2005-07-04T14:59:03.000Z</time>
      </trkpt>
      <trkpt lat="52.12247" lon="7.61196">
        <ele>41.00</ele>
        <time>2005-07-04T14:58:56.000Z</time>
      </trkpt>
      <trkpt lat="52.12204" lon="7.61344">
        <ele>45.00</ele>
        <time>2005-07-04T14:58:40.000Z</time>
      </trkpt>
      <trkpt lat="52.12187" lon="7.61378">
        <ele>46.00</ele>
        <time>2005-07-04T14:58:36.000Z</time>
      </trkpt>
      <trkpt lat="52.12184" lon="7.61410">
        <ele>47.00</ele>
        <time>2005-07-04T14:58:32.000Z</time>
      </trkpt>
      <trkpt lat="52.12247" lon="7.61580">
        <ele>47.00</ele>
        <time>2005-07-04T14:58:10.000Z</time>
      </trkpt>
      <trkpt lat="52.12264" lon="7.61610">
        <ele>48.00</ele>
        <time>2005-07-04T14:58:05.000Z</time>
      </trkpt>
      <trkpt lat="52.12348" lon="7.61657">
        <ele>48.00</ele>
        <time>2005-07-04T14:57:48.000Z</time>
      </trkpt>
      <trkpt lat="52.12478" lon="7.61700">
        <ele>48.00</ele>
        <time>2005-07-04T14:57:19.000Z</time>
      </trkpt>
      <trkpt lat="52.12515" lon="7.61702">
        <ele>48.00</ele>
        <time>2005-07-04T14:57:04.000Z</time>
      </trkpt>
      <trkpt lat="52.12519" lon="7.61711">
        <ele>48.00</ele>
        <time>2005-07-04T14:56:48.000Z</time>
      </trkpt>
      <trkpt lat="52.12523" lon="7.61717">
        <ele>47.00</ele>
        <time>2005-07-04T14:53:59.000Z</time>
      </trkpt>
      <trkpt lat="52.12536" lon="7.61711">
        <ele>48.00</ele>
        <time>2005-07-04T14:53:50.000Z</time>
      </trkpt>
      <trkpt lat="52.12626" lon="7.61711">
        <ele>47.00</ele>
        <time>2005-07-04T14:53:28.000Z</time>
      </trkpt>
      <trkpt lat="52.12684" lon="7.61702">
        <ele>45.00</ele>
        <time>2005-07-04T14:44:04.000Z</time>
      </trkpt>
      <trkpt lat="52.12697" lon="7.61702">
        <ele>46.00</ele>
        <time>2005-07-04T14:43:57.000Z</time>
      </trkpt>
      <trkpt lat="52.12706" lon="7.61698">
        <ele>46.00</ele>
        <time>2005-07-04T14:43:52.000Z</time>
      </trkpt>
      <trkpt lat="52.12798" lon="7.61668">
        <ele>47.00</ele>
        <time>2005-07-04T14:38:26.000Z</time>
      </trkpt>
      <trkpt lat="52.13011" lon="7.61565">
        <ele>46.00</ele>
        <time>2005-07-04T14:37:46.000Z</time>
      </trkpt>
      <trkpt lat="52.13079" lon="7.61518">
        <ele>45.00</ele>
        <time>2005-07-04T14:37:28.000Z</time>
      </trkpt>
      <trkpt lat="52.13131" lon="7.61505">
        <ele>44.00</ele>
        <time>2005-07-04T14:37:17.000Z</time>
      </trkpt>
      <trkpt lat="52.13154" lon="7.61505">
        <ele>44.00</ele>
        <time>2005-07-04T14:37:13.000Z</time>
      </trkpt>
      <trkpt lat="52.13234" lon="7.61533">
        <ele>45.00</ele>
        <time>2005-07-04T14:37:00.000Z</time>
      </trkpt>
      <trkpt lat="52.13350" lon="7.61762">
        <ele>46.00</ele>
        <time>2005-07-04T14:36:27.000Z</time>
      </trkpt>
      <trkpt lat="52.13367" lon="7.61782">
        <ele>46.00</ele>
        <time>2005-07-04T14:36:23.000Z</time>
      </trkpt>
      <trkpt lat="52.13448" lon="7.61835">
        <ele>46.00</ele>
        <time>2005-07-04T14:36:06.000Z</time>
      </trkpt>
      <trkpt lat="52.13656" lon="7.61818">
        <ele>45.00</ele>
        <time>2005-07-04T14:35:28.000Z</time>
      </trkpt>
      <trkpt lat="52.13727" lon="7.61765">
        <ele>45.00</ele>
        <time>2005-07-04T14:35:12.000Z</time>
      </trkpt>
      <trkpt lat="52.13828" lon="7.61546">
        <ele>42.00</ele>
        <time>2005-07-04T14:34:29.000Z</time>
      </trkpt>
      <trkpt lat="52.13884" lon="7.61490">
        <ele>41.00</ele>
        <time>2005-07-04T14:34:12.000Z</time>
      </trkpt>
      <trkpt lat="52.13897" lon="7.61438">
        <ele>40.00</ele>
        <time>2005-07-04T14:34:03.000Z</time>
      </trkpt>
      <trkpt lat="52.13895" lon="7.61432">
        <ele>40.00</ele>
        <time>2005-07-04T14:34:02.000Z</time>
      </trkpt>
      <trkpt lat="52.13867" lon="7.61269">
        <ele>40.00</ele>
        <time>2005-07-04T14:33:41.000Z</time>
      </trkpt>
      <trkpt lat="52.13865" lon="7.61235">
        <ele>40.00</ele>
        <time>2005-07-04T14:33:37.000Z</time>
      </trkpt>
      <trkpt lat="52.13923" lon="7.60750">
        <ele>38.00</ele>
        <time>2005-07-04T14:32:37.000Z</time>
      </trkpt>
      <trkpt lat="52.13944" lon="7.60715">
        <ele>38.00</ele>
        <time>2005-07-04T14:32:31.000Z</time>
      </trkpt>
      <trkpt lat="52.14118" lon="7.60610">
        <ele>38.00</ele>
        <time>2005-07-04T14:31:57.000Z</time>
      </trkpt>
      <trkpt lat="52.14238" lon="7.60608">
        <ele>38.00</ele>
        <time>2005-07-04T14:31:35.000Z</time>
      </trkpt>
      <trkpt lat="52.14367" lon="7.60679">
        <ele>38.00</ele>
        <time>2005-07-04T14:31:10.000Z</time>
      </trkpt>
      <trkpt lat="52.14590" lon="7.60900">
        <ele>38.00</ele>
        <time>2005-07-04T14:30:19.000Z</time>
      </trkpt>
      <trkpt lat="52.14817" lon="7.60938">
        <ele>38.00</ele>
        <time>2005-07-04T14:29:37.000Z</time>
      </trkpt>
      <trkpt lat="52.14867" lon="7.60960">
        <ele>40.00</ele>
        <time>2005-07-04T14:29:28.000Z</time>
      </trkpt>
      <trkpt lat="52.14927" lon="7.60951">
        <ele>40.00</ele>
        <time>2005-07-04T14:29:09.000Z</time>
      </trkpt>
      <trkpt lat="52.14933" lon="7.60947">
        <ele>39.00</ele>
        <time>2005-07-04T14:26:04.000Z</time>
      </trkpt>
      <trkpt lat="52.14985" lon="7.60938">
        <ele>39.00</ele>
        <time>2005-07-04T14:25:51.000Z</time>
      </trkpt>
      <trkpt lat="52.15002" lon="7.60930">
        <ele>41.00</ele>
        <time>2005-07-04T14:25:47.000Z</time>
      </trkpt>
      <trkpt lat="52.15040" lon="7.60921">
        <ele>42.00</ele>
        <time>2005-07-04T14:25:34.000Z</time>
      </trkpt>
      <trkpt lat="52.15043" lon="7.60915">
        <ele>40.00</ele>
        <time>2005-07-04T14:23:12.000Z</time>
      </trkpt>
      <trkpt lat="52.15036" lon="7.60921">
        <ele>40.00</ele>
        <time>2005-07-04T14:22:48.000Z</time>
      </trkpt>
      <trkpt lat="52.15047" lon="7.60915">
        <ele>40.00</ele>
        <time>2005-07-04T14:22:03.000Z</time>
      </trkpt>
      <trkpt lat="52.15053" lon="7.60908">
        <ele>40.00</ele>
        <time>2005-07-04T14:21:51.000Z</time>
      </trkpt>
      <trkpt lat="52.15064" lon="7.60906">
        <ele>40.00</ele>
        <time>2005-07-04T14:21:46.000Z</time>
      </trkpt>
      <trkpt lat="52.15086" lon="7.60979">
        <ele>41.00</ele>
        <time>2005-07-04T14:21:34.000Z</time>
      </trkpt>
      <trkpt lat="52.15098" lon="7.61001">
        <ele>40.00</ele>
        <time>2005-07-04T14:21:30.000Z</time>
      </trkpt>
      <trkpt lat="52.15341" lon="7.61142">
        <ele>41.00</ele>
        <time>2005-07-04T14:20:38.000Z</time>
      </trkpt>
      <trkpt lat="52.15349" lon="7.61151">
        <ele>41.00</ele>
        <time>2005-07-04T14:20:36.000Z</time>
      </trkpt>
      <trkpt lat="52.15367" lon="7.61181">
        <ele>40.00</ele>
        <time>2005-07-04T14:20:30.000Z</time>
      </trkpt>
      <trkpt lat="52.15375" lon="7.61213">
        <ele>40.00</ele>
        <time>2005-07-04T14:20:25.000Z</time>
      </trkpt>
      <trkpt lat="52.15410" lon="7.61511">
        <ele>38.00</ele>
        <time>2005-07-04T14:19:44.000Z</time>
      </trkpt>
      <trkpt lat="52.15440" lon="7.61642">
        <ele>37.00</ele>
        <time>2005-07-04T14:19:26.000Z</time>
      </trkpt>
      <trkpt lat="52.15489" lon="7.61765">
        <ele>36.00</ele>
        <time>2005-07-04T14:19:10.000Z</time>
      </trkpt>
      <trkpt lat="52.15517" lon="7.61780">
        <ele>36.00</ele>
        <time>2005-07-04T14:19:05.000Z</time>
      </trkpt>
      <trkpt lat="52.15551" lon="7.61777">
        <ele>36.00</ele>
        <time>2005-07-04T14:18:59.000Z</time>
      </trkpt>
      <trkpt lat="52.16238" lon="7.61237">
        <ele>34.00</ele>
        <time>2005-07-04T14:16:47.000Z</time>
      </trkpt>
      <trkpt lat="52.16276" lon="7.60943">
        <ele>35.00</ele>
        <time>2005-07-04T14:16:09.000Z</time>
      </trkpt>
      <trkpt lat="52.16266" lon="7.60782">
        <ele>34.00</ele>
        <time>2005-07-04T14:15:51.000Z</time>
      </trkpt>
      <trkpt lat="52.16279" lon="7.60709">
        <ele>34.00</ele>
        <time>2005-07-04T14:15:42.000Z</time>
      </trkpt>
      <trkpt lat="52.16375" lon="7.60580">
        <ele>34.00</ele>
        <time>2005-07-04T14:15:19.000Z</time>
      </trkpt>
      <trkpt lat="52.16448" lon="7.60516">
        <ele>34.00</ele>
        <time>2005-07-04T14:15:04.000Z</time>
      </trkpt>
      <trkpt lat="52.16459" lon="7.60494">
        <ele>34.00</ele>
        <time>2005-07-04T14:15:01.000Z</time>
      </trkpt>
      <trkpt lat="52.16508" lon="7.60318">
        <ele>34.00</ele>
        <time>2005-07-04T14:14:39.000Z</time>
      </trkpt>
      <trkpt lat="52.16506" lon="7.60252">
        <ele>34.00</ele>
        <time>2005-07-04T14:14:31.000Z</time>
      </trkpt>
      <trkpt lat="52.16497" lon="7.60228">
        <ele>35.00</ele>
        <time>2005-07-04T14:14:27.000Z</time>
      </trkpt>
      <trkpt lat="52.16375" lon="7.60134">
        <ele>38.00</ele>
        <time>2005-07-04T14:13:57.000Z</time>
      </trkpt>
      <trkpt lat="52.16373" lon="7.60123">
        <ele>38.00</ele>
        <time>2005-07-04T14:13:48.000Z</time>
      </trkpt>
      <trkpt lat="52.16384" lon="7.60084">
        <ele>36.00</ele>
        <time>2005-07-04T14:11:54.000Z</time>
      </trkpt>
      <trkpt lat="52.16388" lon="7.60078">
        <ele>38.00</ele>
        <time>2005-07-04T14:11:41.000Z</time>
      </trkpt>
      <trkpt lat="52.16403" lon="7.59926">
        <ele>39.00</ele>
        <time>2005-07-04T14:11:18.000Z</time>
      </trkpt>
      <trkpt lat="52.16392" lon="7.59906">
        <ele>38.00</ele>
        <time>2005-07-04T14:11:12.000Z</time>
      </trkpt>
      <trkpt lat="52.16384" lon="7.59876">
        <ele>38.00</ele>
        <time>2005-07-04T14:11:07.000Z</time>
      </trkpt>
      <trkpt lat="52.16283" lon="7.59786">
        <ele>37.00</ele>
        <time>2005-07-04T14:10:43.000Z</time>
      </trkpt>
      <trkpt lat="52.16259" lon="7.59739">
        <ele>36.00</ele>
        <time>2005-07-04T14:10:36.000Z</time>
      </trkpt>
      <trkpt lat="52.16251" lon="7.59569">
        <ele>36.00</ele>
        <time>2005-07-04T14:10:17.000Z</time>
      </trkpt>
      <trkpt lat="52.16255" lon="7.59544">
        <ele>36.00</ele>
        <time>2005-07-04T14:10:13.000Z</time>
      </trkpt>
      <trkpt lat="52.16386" lon="7.59432">
        <ele>36.00</ele>
        <time>2005-07-04T14:09:46.000Z</time>
      </trkpt>
      <trkpt lat="52.16442" lon="7.59400">
        <ele>35.00</ele>
        <time>2005-07-04T14:09:36.000Z</time>
      </trkpt>
      <trkpt lat="52.16461" lon="7.59355">
        <ele>36.00</ele>
        <time>2005-07-04T14:09:30.000Z</time>
      </trkpt>
      <trkpt lat="52.16467" lon="7.59325">
        <ele>35.00</ele>
        <time>2005-07-04T14:09:26.000Z</time>
      </trkpt>
      <trkpt lat="52.16478" lon="7.59187">
        <ele>35.00</ele>
        <time>2005-07-04T14:09:04.000Z</time>
      </trkpt>
      <trkpt lat="52.16311" lon="7.59076">
        <ele>36.00</ele>
        <time>2005-07-04T14:08:21.000Z</time>
      </trkpt>
      <trkpt lat="52.16244" lon="7.59014">
        <ele>37.00</ele>
        <time>2005-07-04T14:08:03.000Z</time>
      </trkpt>
      <trkpt lat="52.16236" lon="7.58958">
        <ele>36.00</ele>
        <time>2005-07-04T14:07:51.000Z</time>
      </trkpt>
      <trkpt lat="52.16246" lon="7.58939">
        <ele>37.00</ele>
        <time>2005-07-04T14:07:43.000Z</time>
      </trkpt>
      <trkpt lat="52.16251" lon="7.58943">
        <ele>36.00</ele>
        <time>2005-07-04T14:03:32.000Z</time>
      </trkpt>
      <trkpt lat="52.16253" lon="7.58936">
        <ele>36.00</ele>
        <time>2005-07-04T14:03:22.000Z</time>
      </trkpt>
      <trkpt lat="52.16427" lon="7.59072">
        <ele>35.00</ele>
        <time>2005-07-04T14:02:40.000Z</time>
      </trkpt>
      <trkpt lat="52.16448" lon="7.59078">
        <ele>35.00</ele>
        <time>2005-07-04T14:02:36.000Z</time>
      </trkpt>
      <trkpt lat="52.16566" lon="7.59065">
        <ele>33.00</ele>
        <time>2005-07-04T14:02:12.000Z</time>
      </trkpt>
      <trkpt lat="52.16628" lon="7.59115">
        <ele>33.00</ele>
        <time>2005-07-04T14:01:57.000Z</time>
      </trkpt>
      <trkpt lat="52.16673" lon="7.58992">
        <ele>35.00</ele>
        <time>2005-07-04T14:01:37.000Z</time>
      </trkpt>
      <trkpt lat="52.16688" lon="7.58881">
        <ele>35.00</ele>
        <time>2005-07-04T14:01:19.000Z</time>
      </trkpt>
      <trkpt lat="52.16680" lon="7.58842">
        <ele>35.00</ele>
        <time>2005-07-04T14:00:49.000Z</time>
      </trkpt>
      <trkpt lat="52.16678" lon="7.58836">
        <ele>35.00</ele>
        <time>2005-07-04T14:00:36.000Z</time>
      </trkpt>
      <trkpt lat="52.16641" lon="7.58548">
        <ele>36.00</ele>
        <time>2005-07-04T14:00:00.000Z</time>
      </trkpt>
      <trkpt lat="52.16661" lon="7.58494">
        <ele>35.00</ele>
        <time>2005-07-04T13:59:53.000Z</time>
      </trkpt>
      <trkpt lat="52.16678" lon="7.58477">
        <ele>36.00</ele>
        <time>2005-07-04T13:59:49.000Z</time>
      </trkpt>
      <trkpt lat="52.16703" lon="7.58441">
        <ele>35.00</ele>
        <time>2005-07-04T13:59:43.000Z</time>
      </trkpt>
      <trkpt lat="52.16738" lon="7.58355">
        <ele>35.00</ele>
        <time>2005-07-04T13:59:31.000Z</time>
      </trkpt>
      <trkpt lat="52.16781" lon="7.58179">
        <ele>34.00</ele>
        <time>2005-07-04T13:59:10.000Z</time>
      </trkpt>
      <trkpt lat="52.16781" lon="7.58125">
        <ele>34.00</ele>
        <time>2005-07-04T13:59:03.000Z</time>
      </trkpt>
      <trkpt lat="52.16746" lon="7.57967">
        <ele>35.00</ele>
        <time>2005-07-04T13:58:41.000Z</time>
      </trkpt>
      <trkpt lat="52.16744" lon="7.57945">
        <ele>35.00</ele>
        <time>2005-07-04T13:58:37.000Z</time>
      </trkpt>
      <trkpt lat="52.16766" lon="7.57754">
        <ele>35.00</ele>
        <time>2005-07-04T13:58:12.000Z</time>
      </trkpt>
      <trkpt lat="52.16759" lon="7.57690">
        <ele>36.00</ele>
        <time>2005-07-04T13:58:05.000Z</time>
      </trkpt>
      <trkpt lat="52.16748" lon="7.57655">
        <ele>36.00</ele>
        <time>2005-07-04T13:58:01.000Z</time>
      </trkpt>
      <trkpt lat="52.16697" lon="7.57585">
        <ele>39.00</ele>
        <time>2005-07-04T13:57:50.000Z</time>
      </trkpt>
      <trkpt lat="52.16678" lon="7.57533">
        <ele>39.00</ele>
        <time>2005-07-04T13:57:44.000Z</time>
      </trkpt>
      <trkpt lat="52.16618" lon="7.57424">
        <ele>40.00</ele>
        <time>2005-07-04T13:57:27.000Z</time>
      </trkpt>
      <trkpt lat="52.16609" lon="7.57402">
        <ele>40.00</ele>
        <time>2005-07-04T13:57:23.000Z</time>
      </trkpt>
      <trkpt lat="52.16635" lon="7.57359">
        <ele>40.00</ele>
        <time>2005-07-04T13:57:15.000Z</time>
      </trkpt>
      <trkpt lat="52.16811" lon="7.57211">
        <ele>43.00</ele>
        <time>2005-07-04T13:56:37.000Z</time>
      </trkpt>
      <trkpt lat="52.16931" lon="7.57035">
        <ele>41.00</ele>
        <time>2005-07-04T13:55:58.000Z</time>
      </trkpt>
      <trkpt lat="52.16993" lon="7.56898">
        <ele>41.00</ele>
        <time>2005-07-04T13:55:36.000Z</time>
      </trkpt>
      <trkpt lat="52.17025" lon="7.56767">
        <ele>41.00</ele>
        <time>2005-07-04T13:55:19.000Z</time>
      </trkpt>
      <trkpt lat="52.17075" lon="7.56477">
        <ele>40.00</ele>
        <time>2005-07-04T13:54:39.000Z</time>
      </trkpt>
      <trkpt lat="52.17120" lon="7.56387">
        <ele>38.00</ele>
        <time>2005-07-04T13:54:18.000Z</time>
      </trkpt>
      <trkpt lat="52.17143" lon="7.56353">
        <ele>39.00</ele>
        <time>2005-07-04T13:54:04.000Z</time>
      </trkpt>
      <trkpt lat="52.17163" lon="7.56353">
        <ele>39.00</ele>
        <time>2005-07-04T13:50:22.000Z</time>
      </trkpt>
      <trkpt lat="52.17167" lon="7.56349">
        <ele>40.00</ele>
        <time>2005-07-04T13:49:59.000Z</time>
      </trkpt>
      <trkpt lat="52.17173" lon="7.56299">
        <ele>40.00</ele>
        <time>2005-07-04T13:49:47.000Z</time>
      </trkpt>
      <trkpt lat="52.17154" lon="7.56216">
        <ele>40.00</ele>
        <time>2005-07-04T13:49:34.000Z</time>
      </trkpt>
      <trkpt lat="52.17154" lon="7.56168">
        <ele>40.00</ele>
        <time>2005-07-04T13:49:28.000Z</time>
      </trkpt>
      <trkpt lat="52.17160" lon="7.56132">
        <ele>40.00</ele>
        <time>2005-07-04T13:49:23.000Z</time>
      </trkpt>
      <trkpt lat="52.17188" lon="7.56057">
        <ele>39.00</ele>
        <time>2005-07-04T13:49:12.000Z</time>
      </trkpt>
      <trkpt lat="52.17210" lon="7.55945">
        <ele>40.00</ele>
        <time>2005-07-04T13:48:57.000Z</time>
      </trkpt>
      <trkpt lat="52.17214" lon="7.55825">
        <ele>39.00</ele>
        <time>2005-07-04T13:48:41.000Z</time>
      </trkpt>
      <trkpt lat="52.17229" lon="7.55752">
        <ele>39.00</ele>
        <time>2005-07-04T13:48:28.000Z</time>
      </trkpt>
      <trkpt lat="52.17231" lon="7.55731">
        <ele>39.00</ele>
        <time>2005-07-04T13:48:24.000Z</time>
      </trkpt>
      <trkpt lat="52.17182" lon="7.55698">
        <ele>39.00</ele>
        <time>2005-07-04T13:48:13.000Z</time>
      </trkpt>
      <trkpt lat="52.17094" lon="7.55677">
        <ele>38.00</ele>
        <time>2005-07-04T13:47:51.000Z</time>
      </trkpt>
      <trkpt lat="52.17085" lon="7.55677">
        <ele>38.00</ele>
        <time>2005-07-04T13:47:47.000Z</time>
      </trkpt>
      <trkpt lat="52.17088" lon="7.55658">
        <ele>38.00</ele>
        <time>2005-07-04T13:47:43.000Z</time>
      </trkpt>
      <trkpt lat="52.17197" lon="7.55207">
        <ele>39.00</ele>
        <time>2005-07-04T13:46:43.000Z</time>
      </trkpt>
      <trkpt lat="52.17238" lon="7.55214">
        <ele>38.00</ele>
        <time>2005-07-04T13:46:29.000Z</time>
      </trkpt>
      <trkpt lat="52.17246" lon="7.55229">
        <ele>39.00</ele>
        <time>2005-07-04T13:46:22.000Z</time>
      </trkpt>
      <trkpt lat="52.17334" lon="7.55269">
        <ele>38.00</ele>
        <time>2005-07-04T13:46:02.000Z</time>
      </trkpt>
      <trkpt lat="52.17420" lon="7.55274">
        <ele>38.00</ele>
        <time>2005-07-04T13:45:43.000Z</time>
      </trkpt>
      <trkpt lat="52.17538" lon="7.55055">
        <ele>38.00</ele>
        <time>2005-07-04T13:45:06.000Z</time>
      </trkpt>
      <trkpt lat="52.17540" lon="7.55038">
        <ele>39.00</ele>
        <time>2005-07-04T13:45:04.000Z</time>
      </trkpt>
      <trkpt lat="52.17542" lon="7.54965">
        <ele>38.00</ele>
        <time>2005-07-04T13:44:55.000Z</time>
      </trkpt>
      <trkpt lat="52.17515" lon="7.54810">
        <ele>38.00</ele>
        <time>2005-07-04T13:44:35.000Z</time>
      </trkpt>
      <trkpt lat="52.17523" lon="7.54786">
        <ele>37.00</ele>
        <time>2005-07-04T13:44:28.000Z</time>
      </trkpt>
      <trkpt lat="52.17560" lon="7.54748">
        <ele>38.00</ele>
        <time>2005-07-04T13:44:12.000Z</time>
      </trkpt>
      <trkpt lat="52.17570" lon="7.54748">
        <ele>40.00</ele>
        <time>2005-07-04T13:44:08.000Z</time>
      </trkpt>
      <trkpt lat="52.17682" lon="7.54851">
        <ele>35.00</ele>
        <time>2005-07-04T13:43:32.000Z</time>
      </trkpt>
      <trkpt lat="52.17725" lon="7.54844">
        <ele>36.00</ele>
        <time>2005-07-04T13:43:24.000Z</time>
      </trkpt>
      <trkpt lat="52.17796" lon="7.54716">
        <ele>36.00</ele>
        <time>2005-07-04T13:43:06.000Z</time>
      </trkpt>
      <trkpt lat="52.17871" lon="7.54527">
        <ele>34.00</ele>
        <time>2005-07-04T13:42:39.000Z</time>
      </trkpt>
      <trkpt lat="52.17871" lon="7.54458">
        <ele>35.00</ele>
        <time>2005-07-04T13:42:32.000Z</time>
      </trkpt>
      <trkpt lat="52.17875" lon="7.54422">
        <ele>35.00</ele>
        <time>2005-07-04T13:42:28.000Z</time>
      </trkpt>
      <trkpt lat="52.17907" lon="7.54342">
        <ele>35.00</ele>
        <time>2005-07-04T13:42:18.000Z</time>
      </trkpt>
      <trkpt lat="52.17903" lon="7.54276">
        <ele>36.00</ele>
        <time>2005-07-04T13:42:10.000Z</time>
      </trkpt>
      <trkpt lat="52.17886" lon="7.54203">
        <ele>34.00</ele>
        <time>2005-07-04T13:41:59.000Z</time>
      </trkpt>
      <trkpt lat="52.17886" lon="7.54173">
        <ele>34.00</ele>
        <time>2005-07-04T13:41:55.000Z</time>
      </trkpt>
      <trkpt lat="52.17905" lon="7.54113">
        <ele>35.00</ele>
        <time>2005-07-04T13:41:44.000Z</time>
      </trkpt>
      <trkpt lat="52.17944" lon="7.54089">
        <ele>35.00</ele>
        <time>2005-07-04T13:41:33.000Z</time>
      </trkpt>
      <trkpt lat="52.17933" lon="7.54003">
        <ele>35.00</ele>
        <time>2005-07-04T13:41:20.000Z</time>
      </trkpt>
      <trkpt lat="52.17933" lon="7.53986">
        <ele>35.00</ele>
        <time>2005-07-04T13:41:16.000Z</time>
      </trkpt>
      <trkpt lat="52.17905" lon="7.53928">
        <ele>37.00</ele>
        <time>2005-07-04T13:40:25.000Z</time>
      </trkpt>
      <trkpt lat="52.17903" lon="7.53898">
        <ele>37.00</ele>
        <time>2005-07-04T13:40:20.000Z</time>
      </trkpt>
      <trkpt lat="52.17995" lon="7.53748">
        <ele>37.00</ele>
        <time>2005-07-04T13:39:54.000Z</time>
      </trkpt>
      <trkpt lat="52.18036" lon="7.53742">
        <ele>37.00</ele>
        <time>2005-07-04T13:39:44.000Z</time>
      </trkpt>
      <trkpt lat="52.18085" lon="7.53814">
        <ele>36.00</ele>
        <time>2005-07-04T13:39:29.000Z</time>
      </trkpt>
      <trkpt lat="52.18109" lon="7.53829">
        <ele>36.00</ele>
        <time>2005-07-04T13:39:22.000Z</time>
      </trkpt>
      <trkpt lat="52.18117" lon="7.53827">
        <ele>36.00</ele>
        <time>2005-07-04T13:39:20.000Z</time>
      </trkpt>
      <trkpt lat="52.18128" lon="7.53814">
        <ele>37.00</ele>
        <time>2005-07-04T13:39:15.000Z</time>
      </trkpt>
      <trkpt lat="52.18124" lon="7.53810">
        <ele>37.00</ele>
        <time>2005-07-04T13:37:48.000Z</time>
      </trkpt>
      <trkpt lat="52.18068" lon="7.53649">
        <ele>39.00</ele>
        <time>2005-07-04T13:37:20.000Z</time>
      </trkpt>
      <trkpt lat="52.18055" lon="7.53604">
        <ele>39.00</ele>
        <time>2005-07-04T13:37:13.000Z</time>
      </trkpt>
      <trkpt lat="52.18053" lon="7.53572">
        <ele>39.00</ele>
        <time>2005-07-04T13:37:06.000Z</time>
      </trkpt>
      <trkpt lat="52.18057" lon="7.53563">
        <ele>40.00</ele>
        <time>2005-07-04T13:36:43.000Z</time>
      </trkpt>
      <trkpt lat="52.18075" lon="7.53559">
        <ele>40.00</ele>
        <time>2005-07-04T13:36:35.000Z</time>
      </trkpt>
      <trkpt lat="52.18079" lon="7.53555">
        <ele>39.00</ele>
        <time>2005-07-04T13:36:10.000Z</time>
      </trkpt>
      <trkpt lat="52.18087" lon="7.53536">
        <ele>40.00</ele>
        <time>2005-07-04T13:35:59.000Z</time>
      </trkpt>
      <trkpt lat="52.18098" lon="7.53523">
        <ele>40.00</ele>
        <time>2005-07-04T13:35:54.000Z</time>
      </trkpt>
      <trkpt lat="52.18111" lon="7.53480">
        <ele>42.00</ele>
        <time>2005-07-04T13:35:46.000Z</time>
      </trkpt>
      <trkpt lat="52.18165" lon="7.53372">
        <ele>41.00</ele>
        <time>2005-07-04T13:35:26.000Z</time>
      </trkpt>
      <trkpt lat="52.18167" lon="7.53366">
        <ele>40.00</ele>
        <time>2005-07-04T13:35:25.000Z</time>
      </trkpt>
      <trkpt lat="52.18171" lon="7.53267">
        <ele>40.00</ele>
        <time>2005-07-04T13:35:10.000Z</time>
      </trkpt>
      <trkpt lat="52.18169" lon="7.53237">
        <ele>40.00</ele>
        <time>2005-07-04T13:26:59.000Z</time>
      </trkpt>
      <trkpt lat="52.18452" lon="7.53169">
        <ele>39.00</ele>
        <time>2005-07-04T13:26:04.000Z</time>
      </trkpt>
      <trkpt lat="52.18583" lon="7.53179">
        <ele>40.00</ele>
        <time>2005-07-04T13:25:41.000Z</time>
      </trkpt>
      <trkpt lat="52.18826" lon="7.53293">
        <ele>43.00</ele>
        <time>2005-07-04T13:24:57.000Z</time>
      </trkpt>
      <trkpt lat="52.18935" lon="7.53297">
        <ele>43.00</ele>
        <time>2005-07-04T13:24:37.000Z</time>
      </trkpt>
      <trkpt lat="52.19047" lon="7.53291">
        <ele>42.00</ele>
        <time>2005-07-04T13:24:16.000Z</time>
      </trkpt>
      <trkpt lat="52.19137" lon="7.53291">
        <ele>41.00</ele>
        <time>2005-07-04T13:23:56.000Z</time>
      </trkpt>
      <trkpt lat="52.19463" lon="7.53454">
        <ele>40.00</ele>
        <time>2005-07-04T13:22:57.000Z</time>
      </trkpt>
      <trkpt lat="52.19744" lon="7.53656">
        <ele>40.00</ele>
        <time>2005-07-04T13:21:55.000Z</time>
      </trkpt>
      <trkpt lat="52.19755" lon="7.53711">
        <ele>38.00</ele>
        <time>2005-07-04T13:21:39.000Z</time>
      </trkpt>
      <trkpt lat="52.19765" lon="7.54027">
        <ele>35.00</ele>
        <time>2005-07-04T13:20:54.000Z</time>
      </trkpt>
      <trkpt lat="52.19723" lon="7.54050">
        <ele>35.00</ele>
        <time>2005-07-04T13:20:39.000Z</time>
      </trkpt>
      <trkpt lat="52.19725" lon="7.54093">
        <ele>33.00</ele>
        <time>2005-07-04T13:20:30.000Z</time>
      </trkpt>
      <trkpt lat="52.19735" lon="7.54138">
        <ele>33.00</ele>
        <time>2005-07-04T13:05:23.000Z</time>
      </trkpt>
      <trkpt lat="52.19673" lon="7.54321">
        <ele>32.00</ele>
        <time>2005-07-04T12:52:24.000Z</time>
      </trkpt>
      <trkpt lat="52.19697" lon="7.54559">
        <ele>31.00</ele>
        <time>2005-07-04T12:51:48.000Z</time>
      </trkpt>
      <trkpt lat="52.19798" lon="7.54754">
        <ele>33.00</ele>
        <time>2005-07-04T12:51:06.000Z</time>
      </trkpt>
      <trkpt lat="52.19815" lon="7.54778">
        <ele>32.00</ele>
        <time>2005-07-04T12:50:12.000Z</time>
      </trkpt>
      <trkpt lat="52.19853" lon="7.54851">
        <ele>34.00</ele>
        <time>2005-07-04T12:49:51.000Z</time>
      </trkpt>
      <trkpt lat="52.19864" lon="7.54939">
        <ele>34.00</ele>
        <time>2005-07-04T12:49:46.000Z</time>
      </trkpt>
      <trkpt lat="52.20085" lon="7.55186">
        <ele>34.00</ele>
        <time>2005-07-04T12:48:53.000Z</time>
      </trkpt>
      <trkpt lat="52.20165" lon="7.55248">
        <ele>35.00</ele>
        <time>2005-07-04T12:48:35.000Z</time>
      </trkpt>
      <trkpt lat="52.20478" lon="7.55342">
        <ele>35.00</ele>
        <time>2005-07-04T12:47:35.000Z</time>
      </trkpt>
      <trkpt lat="52.20628" lon="7.55492">
        <ele>33.00</ele>
        <time>2005-07-04T12:47:01.000Z</time>
      </trkpt>
      <trkpt lat="52.20727" lon="7.55467">
        <ele>33.00</ele>
        <time>2005-07-04T12:46:41.000Z</time>
      </trkpt>
      <trkpt lat="52.20984" lon="7.55306">
        <ele>33.00</ele>
        <time>2005-07-04T12:45:51.000Z</time>
      </trkpt>
      <trkpt lat="52.21102" lon="7.55087">
        <ele>34.00</ele>
        <time>2005-07-04T12:45:18.000Z</time>
      </trkpt>
      <trkpt lat="52.21156" lon="7.54943">
        <ele>35.00</ele>
        <time>2005-07-04T12:44:59.000Z</time>
      </trkpt>
      <trkpt lat="52.21203" lon="7.54853">
        <ele>34.00</ele>
        <time>2005-07-04T12:44:46.000Z</time>
      </trkpt>
      <trkpt lat="52.21291" lon="7.54786">
        <ele>35.00</ele>
        <time>2005-07-04T12:44:32.000Z</time>
      </trkpt>
      <trkpt lat="52.21321" lon="7.54776">
        <ele>35.00</ele>
        <time>2005-07-04T12:44:28.000Z</time>
      </trkpt>
      <trkpt lat="52.21334" lon="7.54778">
        <ele>37.00</ele>
        <time>2005-07-04T12:44:26.000Z</time>
      </trkpt>
      <trkpt lat="52.21353" lon="7.54786">
        <ele>38.00</ele>
        <time>2005-07-04T12:44:23.000Z</time>
      </trkpt>
      <trkpt lat="52.21416" lon="7.54780">
        <ele>42.00</ele>
        <time>2005-07-04T12:44:11.000Z</time>
      </trkpt>
      <trkpt lat="52.21437" lon="7.54786">
        <ele>42.00</ele>
        <time>2005-07-04T12:44:06.000Z</time>
      </trkpt>
      <trkpt lat="52.21594" lon="7.55166">
        <ele>40.00</ele>
        <time>2005-07-04T12:43:10.000Z</time>
      </trkpt>
      <trkpt lat="52.21675" lon="7.55289">
        <ele>41.00</ele>
        <time>2005-07-04T12:42:49.000Z</time>
      </trkpt>
      <trkpt lat="52.21707" lon="7.55383">
        <ele>40.00</ele>
        <time>2005-07-04T12:42:31.000Z</time>
      </trkpt>
      <trkpt lat="52.21714" lon="7.55387">
        <ele>40.00</ele>
        <time>2005-07-04T12:42:26.000Z</time>
      </trkpt>
      <trkpt lat="52.22106" lon="7.54651">
        <ele>41.00</ele>
        <time>2005-07-04T12:40:22.000Z</time>
      </trkpt>
      <trkpt lat="52.22119" lon="7.54615">
        <ele>40.00</ele>
        <time>2005-07-04T12:40:08.000Z</time>
      </trkpt>
      <trkpt lat="52.22117" lon="7.54430">
        <ele>41.00</ele>
        <time>2005-07-04T12:39:26.000Z</time>
      </trkpt>
      <trkpt lat="52.22128" lon="7.53907">
        <ele>43.00</ele>
        <time>2005-07-04T12:32:42.000Z</time>
      </trkpt>
      <trkpt lat="52.22132" lon="7.53881">
        <ele>46.00</ele>
        <time>2005-07-04T12:31:02.000Z</time>
      </trkpt>
      <trkpt lat="52.22132" lon="7.53870">
        <ele>45.00</ele>
        <time>2005-07-04T12:27:42.000Z</time>
      </trkpt>
      <trkpt lat="52.22143" lon="7.53192">
        <ele>43.00</ele>
        <time>2005-07-04T12:25:51.000Z</time>
      </trkpt>
      <trkpt lat="52.22149" lon="7.53126">
        <ele>42.00</ele>
        <time>2005-07-04T12:25:40.000Z</time>
      </trkpt>
      <trkpt lat="52.22137" lon="7.53104">
        <ele>43.00</ele>
        <time>2005-07-04T12:25:35.000Z</time>
      </trkpt>
      <trkpt lat="52.22106" lon="7.52928">
        <ele>41.00</ele>
        <time>2005-07-04T12:25:03.000Z</time>
      </trkpt>
      <trkpt lat="52.22109" lon="7.52845">
        <ele>40.00</ele>
        <time>2005-07-04T12:24:46.000Z</time>
      </trkpt>
      <trkpt lat="52.22130" lon="7.52748">
        <ele>38.00</ele>
        <time>2005-07-04T12:24:25.000Z</time>
      </trkpt>
      <trkpt lat="52.22117" lon="7.52669">
        <ele>36.00</ele>
        <time>2005-07-04T12:24:10.000Z</time>
      </trkpt>
      <trkpt lat="52.22070" lon="7.52579">
        <ele>35.00</ele>
        <time>2005-07-04T12:23:49.000Z</time>
      </trkpt>
      <trkpt lat="52.22031" lon="7.52525">
        <ele>35.00</ele>
        <time>2005-07-04T12:23:34.000Z</time>
      </trkpt>
      <trkpt lat="52.22023" lon="7.52435">
        <ele>35.00</ele>
        <time>2005-07-04T12:23:13.000Z</time>
      </trkpt>
      <trkpt lat="52.22023" lon="7.52418">
        <ele>36.00</ele>
        <time>2005-07-04T12:23:08.000Z</time>
      </trkpt>
      <trkpt lat="52.22031" lon="7.52353">
        <ele>34.00</ele>
        <time>2005-07-04T12:08:38.000Z</time>
      </trkpt>
      <trkpt lat="52.22059" lon="7.52227">
        <ele>34.00</ele>
        <time>2005-07-04T12:08:22.000Z</time>
      </trkpt>
      <trkpt lat="52.22315" lon="7.51843">
        <ele>34.00</ele>
        <time>2005-07-04T12:07:21.000Z</time>
      </trkpt>
      <trkpt lat="52.22368" lon="7.51718">
        <ele>35.00</ele>
        <time>2005-07-04T12:07:05.000Z</time>
      </trkpt>
      <trkpt lat="52.22405" lon="7.51692">
        <ele>34.00</ele>
        <time>2005-07-04T12:06:58.000Z</time>
      </trkpt>
      <trkpt lat="52.22415" lon="7.51694">
        <ele>35.00</ele>
        <time>2005-07-04T12:06:56.000Z</time>
      </trkpt>
      <trkpt lat="52.22651" lon="7.51780">
        <ele>33.00</ele>
        <time>2005-07-04T12:06:15.000Z</time>
      </trkpt>
      <trkpt lat="52.22748" lon="7.51757">
        <ele>35.00</ele>
        <time>2005-07-04T12:05:57.000Z</time>
      </trkpt>
      <trkpt lat="52.22827" lon="7.51709">
        <ele>36.00</ele>
        <time>2005-07-04T12:05:41.000Z</time>
      </trkpt>
      <trkpt lat="52.22950" lon="7.51660">
        <ele>35.00</ele>
        <time>2005-07-04T12:05:07.000Z</time>
      </trkpt>
      <trkpt lat="52.22956" lon="7.51675">
        <ele>35.00</ele>
        <time>2005-07-04T12:00:21.000Z</time>
      </trkpt>
      <trkpt lat="52.22950" lon="7.51338">
        <ele>34.00</ele>
        <time>2005-07-04T11:59:34.000Z</time>
      </trkpt>
      <trkpt lat="52.22965" lon="7.51302">
        <ele>34.00</ele>
        <time>2005-07-04T11:59:29.000Z</time>
      </trkpt>
      <trkpt lat="52.23021" lon="7.51300">
        <ele>35.00</ele>
        <time>2005-07-04T11:59:20.000Z</time>
      </trkpt>
      <trkpt lat="52.23040" lon="7.51285">
        <ele>35.00</ele>
        <time>2005-07-04T11:59:16.000Z</time>
      </trkpt>
      <trkpt lat="52.23330" lon="7.50973">
        <ele>35.00</ele>
        <time>2005-07-04T11:58:07.000Z</time>
      </trkpt>
      <trkpt lat="52.23347" lon="7.50971">
        <ele>35.00</ele>
        <time>2005-07-04T11:58:01.000Z</time>
      </trkpt>
      <trkpt lat="52.23405" lon="7.51115">
        <ele>34.00</ele>
        <time>2005-07-04T11:57:38.000Z</time>
      </trkpt>
      <trkpt lat="52.23418" lon="7.51126">
        <ele>34.00</ele>
        <time>2005-07-04T11:57:34.000Z</time>
      </trkpt>
      <trkpt lat="52.23512" lon="7.51014">
        <ele>34.00</ele>
        <time>2005-07-04T11:57:08.000Z</time>
      </trkpt>
      <trkpt lat="52.23536" lon="7.51014">
        <ele>34.00</ele>
        <time>2005-07-04T11:57:03.000Z</time>
      </trkpt>
      <trkpt lat="52.23581" lon="7.51066">
        <ele>33.00</ele>
        <time>2005-07-04T11:56:51.000Z</time>
      </trkpt>
      <trkpt lat="52.23602" lon="7.51072">
        <ele>34.00</ele>
        <time>2005-07-04T11:56:45.000Z</time>
      </trkpt>
      <trkpt lat="52.23684" lon="7.50963">
        <ele>33.00</ele>
        <time>2005-07-04T11:56:25.000Z</time>
      </trkpt>
      <trkpt lat="52.23699" lon="7.50931">
        <ele>33.00</ele>
        <time>2005-07-04T11:56:20.000Z</time>
      </trkpt>
      <trkpt lat="52.23729" lon="7.50782">
        <ele>33.00</ele>
        <time>2005-07-04T11:56:02.000Z</time>
      </trkpt>
      <trkpt lat="52.23748" lon="7.50757">
        <ele>32.00</ele>
        <time>2005-07-04T11:55:57.000Z</time>
      </trkpt>
      <trkpt lat="52.23832" lon="7.50765">
        <ele>33.00</ele>
        <time>2005-07-04T11:55:43.000Z</time>
      </trkpt>
      <trkpt lat="52.23872" lon="7.50787">
        <ele>32.00</ele>
        <time>2005-07-04T11:55:36.000Z</time>
      </trkpt>
      <trkpt lat="52.23887" lon="7.50802">
        <ele>32.00</ele>
        <time>2005-07-04T11:55:33.000Z</time>
      </trkpt>
      <trkpt lat="52.23956" lon="7.50961">
        <ele>33.00</ele>
        <time>2005-07-04T11:55:14.000Z</time>
      </trkpt>
      <trkpt lat="52.23975" lon="7.51351">
        <ele>38.00</ele>
        <time>2005-07-04T11:54:35.000Z</time>
      </trkpt>
      <trkpt lat="52.23982" lon="7.51370">
        <ele>37.00</ele>
        <time>2005-07-04T11:54:31.000Z</time>
      </trkpt>
      <trkpt lat="52.24177" lon="7.51343">
        <ele>37.00</ele>
        <time>2005-07-04T11:53:57.000Z</time>
      </trkpt>
      <trkpt lat="52.24396" lon="7.51375">
        <ele>35.00</ele>
        <time>2005-07-04T11:53:18.000Z</time>
      </trkpt>
      <trkpt lat="52.24703" lon="7.51287">
        <ele>36.00</ele>
        <time>2005-07-04T11:52:27.000Z</time>
      </trkpt>
      <trkpt lat="52.24881" lon="7.51358">
        <ele>40.00</ele>
        <time>2005-07-04T11:51:56.000Z</time>
      </trkpt>
      <trkpt lat="52.24905" lon="7.51383">
        <ele>39.00</ele>
        <time>2005-07-04T11:51:50.000Z</time>
      </trkpt>
      <trkpt lat="52.24924" lon="7.51415">
        <ele>39.00</ele>
        <time>2005-07-04T11:51:42.000Z</time>
      </trkpt>
      <trkpt lat="52.24947" lon="7.51381">
        <ele>39.00</ele>
        <time>2005-07-04T11:51:34.000Z</time>
      </trkpt>
      <trkpt lat="52.24954" lon="7.51364">
        <ele>39.00</ele>
        <time>2005-07-04T11:51:31.000Z</time>
      </trkpt>
      <trkpt lat="52.25005" lon="7.51295">
        <ele>36.00</ele>
        <time>2005-07-04T11:51:17.000Z</time>
      </trkpt>
      <trkpt lat="52.25093" lon="7.51137">
        <ele>37.00</ele>
        <time>2005-07-04T11:50:55.000Z</time>
      </trkpt>
      <trkpt lat="52.25153" lon="7.51055">
        <ele>38.00</ele>
        <time>2005-07-04T11:50:41.000Z</time>
      </trkpt>
      <trkpt lat="52.25186" lon="7.50948">
        <ele>38.00</ele>
        <time>2005-07-04T11:50:27.000Z</time>
      </trkpt>
      <trkpt lat="52.25209" lon="7.50907">
        <ele>38.00</ele>
        <time>2005-07-04T11:50:21.000Z</time>
      </trkpt>
      <trkpt lat="52.25340" lon="7.50551">
        <ele>38.00</ele>
        <time>2005-07-04T11:49:27.000Z</time>
      </trkpt>
      <trkpt lat="52.25422" lon="7.50115">
        <ele>37.00</ele>
        <time>2005-07-04T11:48:33.000Z</time>
      </trkpt>
      <trkpt lat="52.25424" lon="7.49695">
        <ele>34.00</ele>
        <time>2005-07-04T11:47:45.000Z</time>
      </trkpt>
      <trkpt lat="52.25445" lon="7.49486">
        <ele>36.00</ele>
        <time>2005-07-04T11:47:24.000Z</time>
      </trkpt>
      <trkpt lat="52.25447" lon="7.49117">
        <ele>36.00</ele>
        <time>2005-07-04T11:46:46.000Z</time>
      </trkpt>
      <trkpt lat="52.25471" lon="7.49059">
        <ele>37.00</ele>
        <time>2005-07-04T11:46:39.000Z</time>
      </trkpt>
      <trkpt lat="52.25527" lon="7.48815">
        <ele>36.00</ele>
        <time>2005-07-04T11:46:10.000Z</time>
      </trkpt>
      <trkpt lat="52.25553" lon="7.48476">
        <ele>36.00</ele>
        <time>2005-07-04T11:45:29.000Z</time>
      </trkpt>
      <trkpt lat="52.25529" lon="7.48132">
        <ele>37.00</ele>
        <time>2005-07-04T11:44:43.000Z</time>
      </trkpt>
      <trkpt lat="52.25430" lon="7.48060">
        <ele>35.00</ele>
        <time>2005-07-04T11:44:17.000Z</time>
      </trkpt>
      <trkpt lat="52.25329" lon="7.47991">
        <ele>34.00</ele>
        <time>2005-07-04T11:43:54.000Z</time>
      </trkpt>
      <trkpt lat="52.25314" lon="7.47952">
        <ele>34.00</ele>
        <time>2005-07-04T11:43:48.000Z</time>
      </trkpt>
      <trkpt lat="52.25325" lon="7.47742">
        <ele>32.00</ele>
        <time>2005-07-04T11:43:25.000Z</time>
      </trkpt>
      <trkpt lat="52.25310" lon="7.47607">
        <ele>32.00</ele>
        <time>2005-07-04T11:43:10.000Z</time>
      </trkpt>
      <trkpt lat="52.25282" lon="7.47472">
        <ele>32.00</ele>
        <time>2005-07-04T11:42:54.000Z</time>
      </trkpt>
      <trkpt lat="52.25317" lon="7.47133">
        <ele>32.00</ele>
        <time>2005-07-04T11:42:16.000Z</time>
      </trkpt>
      <trkpt lat="52.25344" lon="7.46957">
        <ele>33.00</ele>
        <time>2005-07-04T11:41:55.000Z</time>
      </trkpt>
      <trkpt lat="52.25347" lon="7.46929">
        <ele>33.00</ele>
        <time>2005-07-04T11:41:51.000Z</time>
      </trkpt>
      <trkpt lat="52.25405" lon="7.46729">
        <ele>32.00</ele>
        <time>2005-07-04T11:41:26.000Z</time>
      </trkpt>
      <trkpt lat="52.25430" lon="7.46688">
        <ele>33.00</ele>
        <time>2005-07-04T11:41:20.000Z</time>
      </trkpt>
      <trkpt lat="52.25499" lon="7.46652">
        <ele>34.00</ele>
        <time>2005-07-04T11:41:07.000Z</time>
      </trkpt>
      <trkpt lat="52.25686" lon="7.46635">
        <ele>32.00</ele>
        <time>2005-07-04T11:40:35.000Z</time>
      </trkpt>
      <trkpt lat="52.25724" lon="7.46641">
        <ele>34.00</ele>
        <time>2005-07-04T11:40:29.000Z</time>
      </trkpt>
      <trkpt lat="52.25971" lon="7.46759">
        <ele>34.00</ele>
        <time>2005-07-04T11:39:46.000Z</time>
      </trkpt>
      <trkpt lat="52.26080" lon="7.46946">
        <ele>37.00</ele>
        <time>2005-07-04T11:39:19.000Z</time>
      </trkpt>
      <trkpt lat="52.26121" lon="7.46965">
        <ele>37.00</ele>
        <time>2005-07-04T11:39:04.000Z</time>
      </trkpt>
      <trkpt lat="52.26136" lon="7.46959">
        <ele>37.00</ele>
        <time>2005-07-04T11:38:58.000Z</time>
      </trkpt>
      <trkpt lat="52.26179" lon="7.46905">
        <ele>39.00</ele>
        <time>2005-07-04T11:38:44.000Z</time>
      </trkpt>
      <trkpt lat="52.26213" lon="7.46841">
        <ele>39.00</ele>
        <time>2005-07-04T11:38:33.000Z</time>
      </trkpt>
      <trkpt lat="52.26428" lon="7.46570">
        <ele>38.00</ele>
        <time>2005-07-04T11:37:31.000Z</time>
      </trkpt>
      <trkpt lat="52.26437" lon="7.46540">
        <ele>38.00</ele>
        <time>2005-07-04T11:37:26.000Z</time>
      </trkpt>
      <trkpt lat="52.26441" lon="7.46508">
        <ele>38.00</ele>
        <time>2005-07-04T11:37:22.000Z</time>
      </trkpt>
      <trkpt lat="52.26548" lon="7.46401">
        <ele>38.00</ele>
        <time>2005-07-04T11:36:58.000Z</time>
      </trkpt>
      <trkpt lat="52.26821" lon="7.46197">
        <ele>37.00</ele>
        <time>2005-07-04T11:35:56.000Z</time>
      </trkpt>
      <trkpt lat="52.26881" lon="7.46180">
        <ele>36.00</ele>
        <time>2005-07-04T11:35:41.000Z</time>
      </trkpt>
      <trkpt lat="52.26885" lon="7.46152">
        <ele>36.00</ele>
        <time>2005-07-04T11:35:36.000Z</time>
      </trkpt>
      <trkpt lat="52.26877" lon="7.45199">
        <ele>37.00</ele>
        <time>2005-07-04T11:33:11.000Z</time>
      </trkpt>
      <trkpt lat="52.26885" lon="7.45405">
        <ele>32.00</ele>
        <time>2005-07-04T11:32:38.000Z</time>
      </trkpt>
      <trkpt lat="52.26892" lon="7.45427">
        <ele>33.00</ele>
        <time>2005-07-04T11:32:34.000Z</time>
      </trkpt>
      <trkpt lat="52.26919" lon="7.45433">
        <ele>34.00</ele>
        <time>2005-07-04T11:32:28.000Z</time>
      </trkpt>
      <trkpt lat="52.27074" lon="7.45401">
        <ele>34.00</ele>
        <time>2005-07-04T11:31:59.000Z</time>
      </trkpt>
      <trkpt lat="52.27166" lon="7.45332">
        <ele>34.00</ele>
        <time>2005-07-04T11:31:40.000Z</time>
      </trkpt>
      <trkpt lat="52.27203" lon="7.45272">
        <ele>33.00</ele>
        <time>2005-07-04T11:31:30.000Z</time>
      </trkpt>
      <trkpt lat="52.27211" lon="7.45236">
        <ele>33.00</ele>
        <time>2005-07-04T11:31:23.000Z</time>
      </trkpt>
      <trkpt lat="52.27183" lon="7.45210">
        <ele>32.00</ele>
        <time>2005-07-04T11:31:17.000Z</time>
      </trkpt>
      <trkpt lat="52.27185" lon="7.45184">
        <ele>33.00</ele>
        <time>2005-07-04T11:31:13.000Z</time>
      </trkpt>
      <trkpt lat="52.27203" lon="7.45135">
        <ele>33.00</ele>
        <time>2005-07-04T11:31:06.000Z</time>
      </trkpt>
      <trkpt lat="52.27248" lon="7.45040">
        <ele>33.00</ele>
        <time>2005-07-04T11:30:50.000Z</time>
      </trkpt>
      <trkpt lat="52.27282" lon="7.45013">
        <ele>33.00</ele>
        <time>2005-07-04T11:30:42.000Z</time>
      </trkpt>
      <trkpt lat="52.27299" lon="7.44987">
        <ele>34.00</ele>
        <time>2005-07-04T11:30:37.000Z</time>
      </trkpt>
      <trkpt lat="52.27396" lon="7.44761">
        <ele>35.00</ele>
        <time>2005-07-04T11:30:04.000Z</time>
      </trkpt>
      <trkpt lat="52.27739" lon="7.44313">
        <ele>35.00</ele>
        <time>2005-07-04T11:28:40.000Z</time>
      </trkpt>
      <trkpt lat="52.27801" lon="7.44257">
        <ele>37.00</ele>
        <time>2005-07-04T11:28:25.000Z</time>
      </trkpt>
      <trkpt lat="52.28001" lon="7.43991">
        <ele>36.00</ele>
        <time>2005-07-04T11:27:08.000Z</time>
      </trkpt>
      <trkpt lat="52.28007" lon="7.43968">
        <ele>27.00</ele>
        <time>2005-07-04T10:53:20.000Z</time>
      </trkpt>
      <trkpt lat="52.28052" lon="7.43914">
        <ele>27.00</ele>
        <time>2005-07-04T10:53:01.000Z</time>
      </trkpt>
      <trkpt lat="52.28057" lon="7.43895">
        <ele>27.00</ele>
        <time>2005-07-04T10:52:55.000Z</time>
      </trkpt>
      <trkpt lat="52.28042" lon="7.43843">
        <ele>27.00</ele>
        <time>2005-07-04T10:52:42.000Z</time>
      </trkpt>
      <trkpt lat="52.28085" lon="7.43819">
        <ele>26.00</ele>
        <time>2005-07-04T10:52:01.000Z</time>
      </trkpt>
      <trkpt lat="52.28479" lon="7.43390">
        <ele>27.00</ele>
        <time>2005-07-04T10:50:16.000Z</time>
      </trkpt>
      <trkpt lat="52.29108" lon="7.43247">
        <ele>27.00</ele>
        <time>2005-07-04T10:48:18.000Z</time>
      </trkpt>
      <trkpt lat="52.29409" lon="7.43071">
        <ele>28.00</ele>
        <time>2005-07-04T10:47:07.000Z</time>
      </trkpt>
      <trkpt lat="52.29404" lon="7.43062">
        <ele>28.00</ele>
        <time>2005-07-04T10:46:54.000Z</time>
      </trkpt>
      <trkpt lat="52.29484" lon="7.42993">
        <ele>28.00</ele>
        <time>2005-07-04T10:46:32.000Z</time>
      </trkpt>
      <trkpt lat="52.29557" lon="7.42950">
        <ele>27.00</ele>
        <time>2005-07-04T10:46:13.000Z</time>
      </trkpt>
      <trkpt lat="52.30119" lon="7.42742">
        <ele>27.00</ele>
        <time>2005-07-04T10:44:21.000Z</time>
      </trkpt>
      <trkpt lat="52.30155" lon="7.42689">
        <ele>27.00</ele>
        <time>2005-07-04T10:44:07.000Z</time>
      </trkpt>
      <trkpt lat="52.30157" lon="7.42674">
        <ele>28.00</ele>
        <time>2005-07-04T10:43:18.000Z</time>
      </trkpt>
      <trkpt lat="52.30175" lon="7.42635">
        <ele>27.00</ele>
        <time>2005-07-04T10:42:48.000Z</time>
      </trkpt>
      <trkpt lat="52.30396" lon="7.42474">
        <ele>26.00</ele>
        <time>2005-07-04T10:41:56.000Z</time>
      </trkpt>
      <trkpt lat="52.30413" lon="7.42483">
        <ele>26.00</ele>
        <time>2005-07-04T10:41:48.000Z</time>
      </trkpt>
      <trkpt lat="52.30606" lon="7.42770">
        <ele>27.00</ele>
        <time>2005-07-04T10:41:10.000Z</time>
      </trkpt>
      <trkpt lat="52.30672" lon="7.42412">
        <ele>28.00</ele>
        <time>2005-07-04T10:40:53.000Z</time>
      </trkpt>
      <trkpt lat="52.30720" lon="7.42287">
        <ele>27.00</ele>
        <time>2005-07-04T10:40:23.000Z</time>
      </trkpt>
      <trkpt lat="52.30707" lon="7.42232">
        <ele>27.00</ele>
        <time>2005-07-04T10:40:09.000Z</time>
      </trkpt>
      <trkpt lat="52.30698" lon="7.42223">
        <ele>27.00</ele>
        <time>2005-07-04T10:40:06.000Z</time>
      </trkpt>
      <trkpt lat="52.30707" lon="7.42180">
        <ele>27.00</ele>
        <time>2005-07-04T10:39:59.000Z</time>
      </trkpt>
      <trkpt lat="52.30786" lon="7.41955">
        <ele>27.00</ele>
        <time>2005-07-04T10:39:20.000Z</time>
      </trkpt>
      <trkpt lat="52.30855" lon="7.41817">
        <ele>28.00</ele>
        <time>2005-07-04T10:38:55.000Z</time>
      </trkpt>
      <trkpt lat="52.30898" lon="7.41792">
        <ele>28.00</ele>
        <time>2005-07-04T10:38:45.000Z</time>
      </trkpt>
      <trkpt lat="52.30945" lon="7.41732">
        <ele>27.00</ele>
        <time>2005-07-04T10:38:30.000Z</time>
      </trkpt>
      <trkpt lat="52.31020" lon="7.41672">
        <ele>27.00</ele>
        <time>2005-07-04T10:38:27.000Z</time>
      </trkpt>
      <trkpt lat="52.31037" lon="7.41648">
        <ele>27.00</ele>
        <time>2005-07-04T10:38:23.000Z</time>
      </trkpt>
      <trkpt lat="52.31018" lon="7.41571">
        <ele>27.00</ele>
        <time>2005-07-04T10:38:11.000Z</time>
      </trkpt>
      <trkpt lat="52.30816" lon="7.41174">
        <ele>25.00</ele>
        <time>2005-07-04T10:37:00.000Z</time>
      </trkpt>
      <trkpt lat="52.30775" lon="7.41047">
        <ele>23.00</ele>
        <time>2005-07-04T10:36:38.000Z</time>
      </trkpt>
      <trkpt lat="52.30771" lon="7.41011">
        <ele>23.00</ele>
        <time>2005-07-04T10:36:33.000Z</time>
      </trkpt>
      <trkpt lat="52.30773" lon="7.40880">
        <ele>23.00</ele>
        <time>2005-07-04T10:36:16.000Z</time>
      </trkpt>
      <trkpt lat="52.30765" lon="7.40852">
        <ele>23.00</ele>
        <time>2005-07-04T10:36:11.000Z</time>
      </trkpt>
      <trkpt lat="52.30690" lon="7.40788">
        <ele>26.00</ele>
        <time>2005-07-04T10:35:52.000Z</time>
      </trkpt>
      <trkpt lat="52.30644" lon="7.40822">
        <ele>25.00</ele>
        <time>2005-07-04T10:35:35.000Z</time>
      </trkpt>
      <trkpt lat="52.30608" lon="7.40873">
        <ele>25.00</ele>
        <time>2005-07-04T10:35:20.000Z</time>
      </trkpt>
      <trkpt lat="52.30574" lon="7.40865">
        <ele>26.00</ele>
        <time>2005-07-04T10:35:06.000Z</time>
      </trkpt>
      <trkpt lat="52.30546" lon="7.40871">
        <ele>25.00</ele>
        <time>2005-07-04T09:58:04.000Z</time>
      </trkpt>
      <trkpt lat="52.30518" lon="7.40839">
        <ele>25.00</ele>
        <time>2005-07-04T09:57:53.000Z</time>
      </trkpt>
      <trkpt lat="52.30460" lon="7.40803">
        <ele>25.00</ele>
        <time>2005-07-04T09:57:38.000Z</time>
      </trkpt>
      <trkpt lat="52.30458" lon="7.40792">
        <ele>26.00</ele>
        <time>2005-07-04T09:57:36.000Z</time>
      </trkpt>
      <trkpt lat="52.30460" lon="7.40762">
        <ele>28.00</ele>
        <time>2005-07-04T09:57:32.000Z</time>
      </trkpt>
      <trkpt lat="52.30492" lon="7.40573">
        <ele>24.00</ele>
        <time>2005-07-04T09:57:11.000Z</time>
      </trkpt>
      <trkpt lat="52.30415" lon="7.40268">
        <ele>32.00</ele>
        <time>2005-07-04T09:56:37.000Z</time>
      </trkpt>
      <trkpt lat="52.30769" lon="7.38846">
        <ele>33.00</ele>
        <time>2005-07-04T09:53:58.000Z</time>
      </trkpt>
      <trkpt lat="52.30844" lon="7.38496">
        <ele>32.00</ele>
        <time>2005-07-04T09:53:16.000Z</time>
      </trkpt>
      <trkpt lat="52.30923" lon="7.38099">
        <ele>31.00</ele>
        <time>2005-07-04T09:52:29.000Z</time>
      </trkpt>
      <trkpt lat="52.30926" lon="7.38065">
        <ele>31.00</ele>
        <time>2005-07-04T09:52:25.000Z</time>
      </trkpt>
      <trkpt lat="52.30921" lon="7.37970">
        <ele>30.00</ele>
        <time>2005-07-04T09:52:13.000Z</time>
      </trkpt>
      <trkpt lat="52.30934" lon="7.37944">
        <ele>30.00</ele>
        <time>2005-07-04T09:52:07.000Z</time>
      </trkpt>
      <trkpt lat="52.31026" lon="7.37970">
        <ele>31.00</ele>
        <time>2005-07-04T09:51:48.000Z</time>
      </trkpt>
      <trkpt lat="52.31895" lon="7.37996">
        <ele>26.00</ele>
        <time>2005-07-04T09:49:09.000Z</time>
      </trkpt>
      <trkpt lat="52.31919" lon="7.37979">
        <ele>26.00</ele>
        <time>2005-07-04T09:49:03.000Z</time>
      </trkpt>
      <trkpt lat="52.31925" lon="7.37901">
        <ele>25.00</ele>
        <time>2005-07-04T09:48:54.000Z</time>
      </trkpt>
      <trkpt lat="52.31932" lon="7.37886">
        <ele>25.00</ele>
        <time>2005-07-04T09:48:52.000Z</time>
      </trkpt>
      <trkpt lat="52.31956" lon="7.37850">
        <ele>25.00</ele>
        <time>2005-07-04T09:48:46.000Z</time>
      </trkpt>
      <trkpt lat="52.31968" lon="7.37805">
        <ele>25.00</ele>
        <time>2005-07-04T09:48:40.000Z</time>
      </trkpt>
      <trkpt lat="52.31889" lon="7.37318">
        <ele>24.00</ele>
        <time>2005-07-04T09:47:39.000Z</time>
      </trkpt>
      <trkpt lat="52.31900" lon="7.37275">
        <ele>25.00</ele>
        <time>2005-07-04T09:47:33.000Z</time>
      </trkpt>
      <trkpt lat="52.31983" lon="7.37243">
        <ele>25.00</ele>
        <time>2005-07-04T09:47:18.000Z</time>
      </trkpt>
      <trkpt lat="52.32234" lon="7.37232">
        <ele>25.00</ele>
        <time>2005-07-04T09:46:33.000Z</time>
      </trkpt>
      <trkpt lat="52.32256" lon="7.37215">
        <ele>25.00</ele>
        <time>2005-07-04T09:46:28.000Z</time>
      </trkpt>
      <trkpt lat="52.32436" lon="7.36663">
        <ele>26.00</ele>
        <time>2005-07-04T09:45:17.000Z</time>
      </trkpt>
      <trkpt lat="52.32440" lon="7.36631">
        <ele>25.00</ele>
        <time>2005-07-04T09:45:13.000Z</time>
      </trkpt>
      <trkpt lat="52.32438" lon="7.36614">
        <ele>26.00</ele>
        <time>2005-07-04T09:45:11.000Z</time>
      </trkpt>
      <trkpt lat="52.32329" lon="7.36292">
        <ele>26.00</ele>
        <time>2005-07-04T09:44:30.000Z</time>
      </trkpt>
      <trkpt lat="52.32359" lon="7.36245">
        <ele>24.00</ele>
        <time>2005-07-04T09:44:20.000Z</time>
      </trkpt>
      <trkpt lat="52.32395" lon="7.36161">
        <ele>26.00</ele>
        <time>2005-07-04T09:44:08.000Z</time>
      </trkpt>
      <trkpt lat="52.32417" lon="7.36133">
        <ele>25.00</ele>
        <time>2005-07-04T09:44:02.000Z</time>
      </trkpt>
      <trkpt lat="52.32475" lon="7.36082">
        <ele>24.00</ele>
        <time>2005-07-04T09:43:48.000Z</time>
      </trkpt>
      <trkpt lat="52.32516" lon="7.35985">
        <ele>23.00</ele>
        <time>2005-07-04T09:43:34.000Z</time>
      </trkpt>
      <trkpt lat="52.32558" lon="7.35822">
        <ele>23.00</ele>
        <time>2005-07-04T09:43:14.000Z</time>
      </trkpt>
      <trkpt lat="52.32631" lon="7.35715">
        <ele>24.00</ele>
        <time>2005-07-04T09:42:54.000Z</time>
      </trkpt>
      <trkpt lat="52.32743" lon="7.35608">
        <ele>26.00</ele>
        <time>2005-07-04T09:42:30.000Z</time>
      </trkpt>
      <trkpt lat="52.32741" lon="7.35590">
        <ele>26.00</ele>
        <time>2005-07-04T09:42:27.000Z</time>
      </trkpt>
      <trkpt lat="52.32711" lon="7.35472">
        <ele>26.00</ele>
        <time>2005-07-04T09:42:11.000Z</time>
      </trkpt>
      <trkpt lat="52.32681" lon="7.35402">
        <ele>26.00</ele>
        <time>2005-07-04T09:42:01.000Z</time>
      </trkpt>
      <trkpt lat="52.32597" lon="7.35277">
        <ele>28.00</ele>
        <time>2005-07-04T09:41:40.000Z</time>
      </trkpt>
      <trkpt lat="52.32543" lon="7.35159">
        <ele>31.00</ele>
        <time>2005-07-04T09:41:21.000Z</time>
      </trkpt>
      <trkpt lat="52.32541" lon="7.35146">
        <ele>31.00</ele>
        <time>2005-07-04T09:41:19.000Z</time>
      </trkpt>
      <trkpt lat="52.32548" lon="7.34979">
        <ele>30.00</ele>
        <time>2005-07-04T09:40:53.000Z</time>
      </trkpt>
      <trkpt lat="52.32509" lon="7.34887">
        <ele>28.00</ele>
        <time>2005-07-04T09:40:31.000Z</time>
      </trkpt>
      <trkpt lat="52.32516" lon="7.34885">
        <ele>26.00</ele>
        <time>2005-07-04T09:33:35.000Z</time>
      </trkpt>
      <trkpt lat="52.32537" lon="7.34831">
        <ele>28.00</ele>
        <time>2005-07-04T09:33:22.000Z</time>
      </trkpt>
      <trkpt lat="52.32584" lon="7.34790">
        <ele>28.00</ele>
        <time>2005-07-04T09:33:08.000Z</time>
      </trkpt>
      <trkpt lat="52.32709" lon="7.34741">
        <ele>31.00</ele>
        <time>2005-07-04T09:32:40.000Z</time>
      </trkpt>
      <trkpt lat="52.32799" lon="7.34668">
        <ele>31.00</ele>
        <time>2005-07-04T09:32:14.000Z</time>
      </trkpt>
      <trkpt lat="52.32816" lon="7.34687">
        <ele>31.00</ele>
        <time>2005-07-04T09:30:23.000Z</time>
      </trkpt>
      <trkpt lat="52.32979" lon="7.34754">
        <ele>30.00</ele>
        <time>2005-07-04T09:29:49.000Z</time>
      </trkpt>
      <trkpt lat="52.33052" lon="7.34814">
        <ele>30.00</ele>
        <time>2005-07-04T09:29:35.000Z</time>
      </trkpt>
      <trkpt lat="52.33365" lon="7.34850">
        <ele>30.00</ele>
        <time>2005-07-04T09:28:36.000Z</time>
      </trkpt>
      <trkpt lat="52.33451" lon="7.34837">
        <ele>29.00</ele>
        <time>2005-07-04T09:28:18.000Z</time>
      </trkpt>
      <trkpt lat="52.33700" lon="7.34734">
        <ele>26.00</ele>
        <time>2005-07-04T09:27:14.000Z</time>
      </trkpt>
      <trkpt lat="52.34320" lon="7.34322">
        <ele>27.00</ele>
        <time>2005-07-04T09:25:11.000Z</time>
      </trkpt>
      <trkpt lat="52.35063" lon="7.34030">
        <ele>29.00</ele>
        <time>2005-07-04T09:22:56.000Z</time>
      </trkpt>
      <trkpt lat="52.35228" lon="7.33932">
        <ele>28.00</ele>
        <time>2005-07-04T09:22:19.000Z</time>
      </trkpt>
      <trkpt lat="52.35241" lon="7.33930">
        <ele>28.00</ele>
        <time>2005-07-04T09:22:16.000Z</time>
      </trkpt>
      <trkpt lat="52.35266" lon="7.33912">
        <ele>28.00</ele>
        <time>2005-07-04T09:22:10.000Z</time>
      </trkpt>
      <trkpt lat="52.35580" lon="7.33739">
        <ele>29.00</ele>
        <time>2005-07-04T09:21:02.000Z</time>
      </trkpt>
      <trkpt lat="52.35625" lon="7.33709">
        <ele>28.00</ele>
        <time>2005-07-04T09:20:51.000Z</time>
      </trkpt>
      <trkpt lat="52.35633" lon="7.33700">
        <ele>28.00</ele>
        <time>2005-07-04T09:20:49.000Z</time>
      </trkpt>
      <trkpt lat="52.35779" lon="7.33511">
        <ele>28.00</ele>
        <time>2005-07-04T09:20:08.000Z</time>
      </trkpt>
      <trkpt lat="52.35925" lon="7.33464">
        <ele>28.00</ele>
        <time>2005-07-04T09:19:29.000Z</time>
      </trkpt>
      <trkpt lat="52.36417" lon="7.33462">
        <ele>28.00</ele>
        <time>2005-07-04T09:17:54.000Z</time>
      </trkpt>
      <trkpt lat="52.36513" lon="7.33494">
        <ele>28.00</ele>
        <time>2005-07-04T09:17:40.000Z</time>
      </trkpt>
      <trkpt lat="52.36562" lon="7.33561">
        <ele>29.00</ele>
        <time>2005-07-04T09:17:30.000Z</time>
      </trkpt>
      <trkpt lat="52.36599" lon="7.33576">
        <ele>29.00</ele>
        <time>2005-07-04T09:17:22.000Z</time>
      </trkpt>
      <trkpt lat="52.37520" lon="7.33264">
        <ele>24.00</ele>
        <time>2005-07-04T09:14:12.000Z</time>
      </trkpt>
      <trkpt lat="52.37631" lon="7.33249">
        <ele>26.00</ele>
        <time>2005-07-04T09:13:52.000Z</time>
      </trkpt>
      <trkpt lat="52.37758" lon="7.33264">
        <ele>25.00</ele>
        <time>2005-07-04T09:13:30.000Z</time>
      </trkpt>
      <trkpt lat="52.38122" lon="7.33187">
        <ele>28.00</ele>
        <time>2005-07-04T09:12:25.000Z</time>
      </trkpt>
      <trkpt lat="52.38202" lon="7.33149">
        <ele>28.00</ele>
        <time>2005-07-04T09:12:10.000Z</time>
      </trkpt>
      <trkpt lat="52.38288" lon="7.33129">
        <ele>27.00</ele>
        <time>2005-07-04T09:11:56.000Z</time>
      </trkpt>
      <trkpt lat="52.38313" lon="7.33086">
        <ele>27.00</ele>
        <time>2005-07-04T09:11:50.000Z</time>
      </trkpt>
      <trkpt lat="52.38466" lon="7.32928">
        <ele>28.00</ele>
        <time>2005-07-04T09:11:21.000Z</time>
      </trkpt>
      <trkpt lat="52.38571" lon="7.32855">
        <ele>28.00</ele>
        <time>2005-07-04T09:11:03.000Z</time>
      </trkpt>
      <trkpt lat="52.39303" lon="7.32438">
        <ele>25.00</ele>
        <time>2005-07-04T09:08:49.000Z</time>
      </trkpt>
      <trkpt lat="52.39571" lon="7.32383">
        <ele>25.00</ele>
        <time>2005-07-04T09:08:03.000Z</time>
      </trkpt>
      <trkpt lat="52.39588" lon="7.32374">
        <ele>24.00</ele>
        <time>2005-07-04T09:08:00.000Z</time>
      </trkpt>
      <trkpt lat="52.39803" lon="7.32307">
        <ele>24.00</ele>
        <time>2005-07-04T09:07:19.000Z</time>
      </trkpt>
      <trkpt lat="52.39891" lon="7.32252">
        <ele>23.00</ele>
        <time>2005-07-04T09:07:01.000Z</time>
      </trkpt>
      <trkpt lat="52.40073" lon="7.32202">
        <ele>22.00</ele>
        <time>2005-07-04T09:06:23.000Z</time>
      </trkpt>
      <trkpt lat="52.40090" lon="7.32187">
        <ele>23.00</ele>
        <time>2005-07-04T09:06:18.000Z</time>
      </trkpt>
      <trkpt lat="52.40116" lon="7.32224">
        <ele>24.00</ele>
        <time>2005-07-04T08:40:48.000Z</time>
      </trkpt>
      <trkpt lat="52.40393" lon="7.33048">
        <ele>27.00</ele>
        <time>2005-07-04T08:38:54.000Z</time>
      </trkpt>
      <trkpt lat="52.40536" lon="7.33299">
        <ele>24.00</ele>
        <time>2005-07-04T08:38:17.000Z</time>
      </trkpt>
      <trkpt lat="52.40745" lon="7.33552">
        <ele>26.00</ele>
        <time>2005-07-04T08:37:35.000Z</time>
      </trkpt>
      <trkpt lat="52.40807" lon="7.33679">
        <ele>26.00</ele>
        <time>2005-07-04T08:37:18.000Z</time>
      </trkpt>
      <trkpt lat="52.40865" lon="7.33840">
        <ele>25.00</ele>
        <time>2005-07-04T08:36:58.000Z</time>
      </trkpt>
      <trkpt lat="52.40927" lon="7.34179">
        <ele>27.00</ele>
        <time>2005-07-04T08:36:18.000Z</time>
      </trkpt>
      <trkpt lat="52.40953" lon="7.34168">
        <ele>27.00</ele>
        <time>2005-07-04T08:36:11.000Z</time>
      </trkpt>
      <trkpt lat="52.41260" lon="7.34322">
        <ele>26.00</ele>
        <time>2005-07-04T08:35:17.000Z</time>
      </trkpt>
      <trkpt lat="52.41369" lon="7.34348">
        <ele>27.00</ele>
        <time>2005-07-04T08:34:57.000Z</time>
      </trkpt>
      <trkpt lat="52.41536" lon="7.34307">
        <ele>28.00</ele>
        <time>2005-07-04T08:34:25.000Z</time>
      </trkpt>
      <trkpt lat="52.41646" lon="7.34211">
        <ele>25.00</ele>
        <time>2005-07-04T08:34:01.000Z</time>
      </trkpt>
      <trkpt lat="52.41672" lon="7.34179">
        <ele>24.00</ele>
        <time>2005-07-04T08:33:55.000Z</time>
      </trkpt>
      <trkpt lat="52.41792" lon="7.34073">
        <ele>24.00</ele>
        <time>2005-07-04T08:33:28.000Z</time>
      </trkpt>
      <trkpt lat="52.41822" lon="7.34071">
        <ele>24.00</ele>
        <time>2005-07-04T08:33:22.000Z</time>
      </trkpt>
      <trkpt lat="52.41955" lon="7.34131">
        <ele>25.00</ele>
        <time>2005-07-04T08:32:55.000Z</time>
      </trkpt>
      <trkpt lat="52.42324" lon="7.34322">
        <ele>28.00</ele>
        <time>2005-07-04T08:31:44.000Z</time>
      </trkpt>
      <trkpt lat="52.42420" lon="7.34397">
        <ele>27.00</ele>
        <time>2005-07-04T08:31:22.000Z</time>
      </trkpt>
      <trkpt lat="52.42427" lon="7.34400">
        <ele>27.00</ele>
        <time>2005-07-04T08:31:20.000Z</time>
      </trkpt>
      <trkpt lat="52.42459" lon="7.34421">
        <ele>27.00</ele>
        <time>2005-07-04T08:31:14.000Z</time>
      </trkpt>
      <trkpt lat="52.42639" lon="7.34320">
        <ele>26.00</ele>
        <time>2005-07-04T08:30:37.000Z</time>
      </trkpt>
      <trkpt lat="52.42744" lon="7.34230">
        <ele>27.00</ele>
        <time>2005-07-04T08:30:15.000Z</time>
      </trkpt>
      <trkpt lat="52.42890" lon="7.34000">
        <ele>28.00</ele>
        <time>2005-07-04T08:29:39.000Z</time>
      </trkpt>
      <trkpt lat="52.42905" lon="7.33988">
        <ele>29.00</ele>
        <time>2005-07-04T08:29:35.000Z</time>
      </trkpt>
      <trkpt lat="52.42987" lon="7.33977">
        <ele>27.00</ele>
        <time>2005-07-04T08:29:18.000Z</time>
      </trkpt>
      <trkpt lat="52.43262" lon="7.33983">
        <ele>27.00</ele>
        <time>2005-07-04T08:28:23.000Z</time>
      </trkpt>
      <trkpt lat="52.43528" lon="7.33977">
        <ele>28.00</ele>
        <time>2005-07-04T08:27:32.000Z</time>
      </trkpt>
      <trkpt lat="52.43905" lon="7.33977">
        <ele>26.00</ele>
        <time>2005-07-04T08:26:27.000Z</time>
      </trkpt>
      <trkpt lat="52.44246" lon="7.33915">
        <ele>26.00</ele>
        <time>2005-07-04T08:25:32.000Z</time>
      </trkpt>
      <trkpt lat="52.44500" lon="7.33794">
        <ele>26.00</ele>
        <time>2005-07-04T08:24:51.000Z</time>
      </trkpt>
      <trkpt lat="52.44626" lon="7.33758">
        <ele>26.00</ele>
        <time>2005-07-04T08:24:30.000Z</time>
      </trkpt>
      <trkpt lat="52.44646" lon="7.33786">
        <ele>26.00</ele>
        <time>2005-07-04T08:24:24.000Z</time>
      </trkpt>
      <trkpt lat="52.44684" lon="7.33955">
        <ele>27.00</ele>
        <time>2005-07-04T08:24:05.000Z</time>
      </trkpt>
      <trkpt lat="52.44695" lon="7.33983">
        <ele>27.00</ele>
        <time>2005-07-04T08:24:01.000Z</time>
      </trkpt>
      <trkpt lat="52.44710" lon="7.33990">
        <ele>28.00</ele>
        <time>2005-07-04T08:23:57.000Z</time>
      </trkpt>
      <trkpt lat="52.44980" lon="7.33625">
        <ele>28.00</ele>
        <time>2005-07-04T08:22:47.000Z</time>
      </trkpt>
      <trkpt lat="52.45101" lon="7.33537">
        <ele>28.00</ele>
        <time>2005-07-04T08:22:22.000Z</time>
      </trkpt>
      <trkpt lat="52.45291" lon="7.33468">
        <ele>28.00</ele>
        <time>2005-07-04T08:21:46.000Z</time>
      </trkpt>
      <trkpt lat="52.45420" lon="7.33470">
        <ele>28.00</ele>
        <time>2005-07-04T08:21:20.000Z</time>
      </trkpt>
      <trkpt lat="52.45440" lon="7.33458">
        <ele>28.00</ele>
        <time>2005-07-04T08:21:16.000Z</time>
      </trkpt>
      <trkpt lat="52.45448" lon="7.33440">
        <ele>28.00</ele>
        <time>2005-07-04T08:21:13.000Z</time>
      </trkpt>
      <trkpt lat="52.45530" lon="7.33009">
        <ele>28.00</ele>
        <time>2005-07-04T08:20:07.000Z</time>
      </trkpt>
      <trkpt lat="52.45543" lon="7.32966">
        <ele>28.00</ele>
        <time>2005-07-04T08:19:49.000Z</time>
      </trkpt>
      <trkpt lat="52.45594" lon="7.32898">
        <ele>29.00</ele>
        <time>2005-07-04T08:19:19.000Z</time>
      </trkpt>
      <trkpt lat="52.45596" lon="7.32887">
        <ele>29.00</ele>
        <time>2005-07-04T08:19:11.000Z</time>
      </trkpt>
      <trkpt lat="52.45611" lon="7.32887">
        <ele>27.00</ele>
        <time>2005-07-04T18:17:04.000Z</time>
      </trkpt>
      <trkpt lat="52.45622" lon="7.32891">
        <ele>27.00</ele>
        <time>2005-07-04T18:17:01.000Z</time>
      </trkpt>
      <trkpt lat="52.45687" lon="7.32934">
        <ele>27.00</ele>
        <time>2005-07-04T18:16:45.000Z</time>
      </trkpt>
      <trkpt lat="52.45776" lon="7.32805">
        <ele>27.00</ele>
        <time>2005-07-04T18:16:17.000Z</time>
      </trkpt>
      <trkpt lat="52.45815" lon="7.32831">
        <ele>27.00</ele>
        <time>2005-07-04T18:15:58.000Z</time>
      </trkpt>
      <trkpt lat="52.45828" lon="7.32829">
        <ele>26.00</ele>
        <time>2005-07-04T18:15:45.000Z</time>
      </trkpt>
      <trkpt lat="52.45821" lon="7.32803">
        <ele>26.00</ele>
        <time>2005-07-04T18:15:43.000Z</time>
      </trkpt>
      <trkpt lat="52.45828" lon="7.32762">
        <ele>25.00</ele>
        <time>2005-07-04T18:15:33.000Z</time>
      </trkpt>
      <trkpt lat="52.45903" lon="7.32595">
        <ele>25.00</ele>
        <time>2005-07-04T18:15:02.000Z</time>
      </trkpt>
      <trkpt lat="52.45946" lon="7.32541">
        <ele>26.00</ele>
        <time>2005-07-04T18:14:48.000Z</time>
      </trkpt>
      <trkpt lat="52.46006" lon="7.32526">
        <ele>26.00</ele>
        <time>2005-07-04T18:14:30.000Z</time>
      </trkpt>
      <trkpt lat="52.46165" lon="7.32432">
        <ele>22.00</ele>
        <time>2005-07-04T18:13:52.000Z</time>
      </trkpt>
      <trkpt lat="52.46210" lon="7.32383">
        <ele>22.00</ele>
        <time>2005-07-04T18:13:41.000Z</time>
      </trkpt>
      <trkpt lat="52.46276" lon="7.32282">
        <ele>23.00</ele>
        <time>2005-07-04T18:13:30.000Z</time>
      </trkpt>
      <trkpt lat="52.46326" lon="7.32280">
        <ele>24.00</ele>
        <time>2005-07-04T18:13:16.000Z</time>
      </trkpt>
      <trkpt lat="52.46339" lon="7.32286">
        <ele>28.00</ele>
        <time>2005-07-04T18:13:11.000Z</time>
      </trkpt>
      <trkpt lat="52.46345" lon="7.32275">
        <ele>31.00</ele>
        <time>2005-07-04T18:13:07.000Z</time>
      </trkpt>
      <trkpt lat="52.46369" lon="7.32316">
        <ele>32.00</ele>
        <time>2005-07-04T18:12:59.000Z</time>
      </trkpt>
      <trkpt lat="52.46384" lon="7.32331">
        <ele>33.00</ele>
        <time>2005-07-04T18:12:55.000Z</time>
      </trkpt>
      <trkpt lat="52.46422" lon="7.32329">
        <ele>33.00</ele>
        <time>2005-07-04T18:12:43.000Z</time>
      </trkpt>
      <trkpt lat="52.46530" lon="7.32471">
        <ele>34.00</ele>
        <time>2005-07-04T18:12:12.000Z</time>
      </trkpt>
      <trkpt lat="52.46545" lon="7.32556">
        <ele>31.00</ele>
        <time>2005-07-04T18:11:57.000Z</time>
      </trkpt>
      <trkpt lat="52.46560" lon="7.32567">
        <ele>32.00</ele>
        <time>2005-07-04T18:11:53.000Z</time>
      </trkpt>
      <trkpt lat="52.46585" lon="7.32567">
        <ele>31.00</ele>
        <time>2005-07-04T18:11:47.000Z</time>
      </trkpt>
      <trkpt lat="52.46761" lon="7.32213">
        <ele>30.00</ele>
        <time>2005-07-04T18:10:49.000Z</time>
      </trkpt>
      <trkpt lat="52.46969" lon="7.31848">
        <ele>28.00</ele>
        <time>2005-07-04T18:09:48.000Z</time>
      </trkpt>
      <trkpt lat="52.46974" lon="7.31814">
        <ele>28.00</ele>
        <time>2005-07-04T18:09:43.000Z</time>
      </trkpt>
      <trkpt lat="52.46972" lon="7.31788">
        <ele>29.00</ele>
        <time>2005-07-04T18:09:39.000Z</time>
      </trkpt>
      <trkpt lat="52.46954" lon="7.31754">
        <ele>29.00</ele>
        <time>2005-07-04T18:09:32.000Z</time>
      </trkpt>
      <trkpt lat="52.46948" lon="7.31730">
        <ele>29.00</ele>
        <time>2005-07-04T18:09:28.000Z</time>
      </trkpt>
      <trkpt lat="52.47253" lon="7.31387">
        <ele>28.00</ele>
        <time>2005-07-04T18:08:06.000Z</time>
      </trkpt>
      <trkpt lat="52.47255" lon="7.31376">
        <ele>28.00</ele>
        <time>2005-07-04T18:08:01.000Z</time>
      </trkpt>
      <trkpt lat="52.47244" lon="7.31372">
        <ele>28.00</ele>
        <time>2005-07-04T18:07:54.000Z</time>
      </trkpt>
      <trkpt lat="52.47236" lon="7.31363">
        <ele>29.00</ele>
        <time>2005-07-04T18:07:02.000Z</time>
      </trkpt>
      <trkpt lat="52.47242" lon="7.31372">
        <ele>26.00</ele>
        <time>2005-07-04T18:04:31.000Z</time>
      </trkpt>
      <trkpt lat="52.47203" lon="7.31370">
        <ele>27.00</ele>
        <time>2005-07-04T18:04:19.000Z</time>
      </trkpt>
      <trkpt lat="52.47055" lon="7.31305">
        <ele>28.00</ele>
        <time>2005-07-04T18:03:46.000Z</time>
      </trkpt>
      <trkpt lat="52.46935" lon="7.31226">
        <ele>26.00</ele>
        <time>2005-07-04T18:03:08.000Z</time>
      </trkpt>
      <trkpt lat="52.46905" lon="7.31194">
        <ele>22.00</ele>
        <time>2005-07-04T18:02:48.000Z</time>
      </trkpt>
      <trkpt lat="52.46905" lon="7.31181">
        <ele>21.00</ele>
        <time>2005-07-04T18:02:44.000Z</time>
      </trkpt>
      <trkpt lat="52.46942" lon="7.31054">
        <ele>26.00</ele>
        <time>2005-07-04T18:02:20.000Z</time>
      </trkpt>
      <trkpt lat="52.46948" lon="7.31052">
        <ele>26.00</ele>
        <time>2005-07-04T18:01:58.000Z</time>
      </trkpt>
      <trkpt lat="52.47032" lon="7.30986">
        <ele>26.00</ele>
        <time>2005-07-04T18:01:14.000Z</time>
      </trkpt>
      <trkpt lat="52.47040" lon="7.30971">
        <ele>26.00</ele>
        <time>2005-07-04T18:01:11.000Z</time>
      </trkpt>
      <trkpt lat="52.47072" lon="7.30938">
        <ele>26.00</ele>
        <time>2005-07-04T18:01:02.000Z</time>
      </trkpt>
      <trkpt lat="52.47081" lon="7.30945">
        <ele>25.00</ele>
        <time>2005-07-04T18:00:56.000Z</time>
      </trkpt>
      <trkpt lat="52.47075" lon="7.30984">
        <ele>26.00</ele>
        <time>2005-07-04T18:00:41.000Z</time>
      </trkpt>
      <trkpt lat="52.47079" lon="7.30988">
        <ele>25.00</ele>
        <time>2005-07-04T18:00:08.000Z</time>
      </trkpt>
      <trkpt lat="52.47066" lon="7.31061">
        <ele>27.00</ele>
        <time>2005-07-04T17:55:01.000Z</time>
      </trkpt>
      <trkpt lat="52.47055" lon="7.31095">
        <ele>27.00</ele>
        <time>2005-07-04T17:54:56.000Z</time>
      </trkpt>
      <trkpt lat="52.47047" lon="7.31112">
        <ele>27.00</ele>
        <time>2005-07-04T17:54:53.000Z</time>
      </trkpt>
      <trkpt lat="52.46976" lon="7.31183">
        <ele>28.00</ele>
        <time>2005-07-04T17:54:35.000Z</time>
      </trkpt>
      <trkpt lat="52.46944" lon="7.31194">
        <ele>28.00</ele>
        <time>2005-07-04T17:54:24.000Z</time>
      </trkpt>
      <trkpt lat="52.46939" lon="7.31170">
        <ele>28.00</ele>
        <time>2005-07-04T17:54:13.000Z</time>
      </trkpt>
      <trkpt lat="52.46924" lon="7.31174">
        <ele>28.00</ele>
        <time>2005-07-04T17:54:06.000Z</time>
      </trkpt>
      <trkpt lat="52.46800" lon="7.31093">
        <ele>27.00</ele>
        <time>2005-07-04T17:53:29.000Z</time>
      </trkpt>
      <trkpt lat="52.46748" lon="7.31050">
        <ele>26.00</ele>
        <time>2005-07-04T17:53:15.000Z</time>
      </trkpt>
      <trkpt lat="52.46536" lon="7.30524">
        <ele>25.00</ele>
        <time>2005-07-04T17:51:55.000Z</time>
      </trkpt>
      <trkpt lat="52.46470" lon="7.30462">
        <ele>25.00</ele>
        <time>2005-07-04T17:51:37.000Z</time>
      </trkpt>
      <trkpt lat="52.46461" lon="7.30447">
        <ele>25.00</ele>
        <time>2005-07-04T17:51:32.000Z</time>
      </trkpt>
      <trkpt lat="52.46470" lon="7.30436">
        <ele>25.00</ele>
        <time>2005-07-04T17:51:28.000Z</time>
      </trkpt>
      <trkpt lat="52.46517" lon="7.30413">
        <ele>25.00</ele>
        <time>2005-07-04T17:51:13.000Z</time>
      </trkpt>
      <trkpt lat="52.46590" lon="7.30411">
        <ele>24.00</ele>
        <time>2005-07-04T17:50:58.000Z</time>
      </trkpt>
      <trkpt lat="52.46678" lon="7.30340">
        <ele>24.00</ele>
        <time>2005-07-04T17:50:39.000Z</time>
      </trkpt>
      <trkpt lat="52.46815" lon="7.30129">
        <ele>24.00</ele>
        <time>2005-07-04T17:50:00.000Z</time>
      </trkpt>
      <trkpt lat="52.46849" lon="7.30091">
        <ele>23.00</ele>
        <time>2005-07-04T17:49:44.000Z</time>
      </trkpt>
      <trkpt lat="52.46849" lon="7.30082">
        <ele>23.00</ele>
        <time>2005-07-04T17:48:42.000Z</time>
      </trkpt>
      <trkpt lat="52.46933" lon="7.29919">
        <ele>22.00</ele>
        <time>2005-07-04T17:48:01.000Z</time>
      </trkpt>
      <trkpt lat="52.47055" lon="7.29778">
        <ele>23.00</ele>
        <time>2005-07-04T17:47:33.000Z</time>
      </trkpt>
      <trkpt lat="52.47173" lon="7.29696">
        <ele>22.00</ele>
        <time>2005-07-04T17:47:05.000Z</time>
      </trkpt>
      <trkpt lat="52.47530" lon="7.29610">
        <ele>22.00</ele>
        <time>2005-07-04T17:45:48.000Z</time>
      </trkpt>
      <trkpt lat="52.47929" lon="7.29554">
        <ele>21.00</ele>
        <time>2005-07-04T17:44:37.000Z</time>
      </trkpt>
      <trkpt lat="52.47937" lon="7.29546">
        <ele>22.00</ele>
        <time>2005-07-04T17:44:34.000Z</time>
      </trkpt>
      <trkpt lat="52.48107" lon="7.29516">
        <ele>21.00</ele>
        <time>2005-07-04T17:44:01.000Z</time>
      </trkpt>
      <trkpt lat="52.48139" lon="7.29503">
        <ele>21.00</ele>
        <time>2005-07-04T17:43:54.000Z</time>
      </trkpt>
      <trkpt lat="52.48180" lon="7.29409">
        <ele>20.00</ele>
        <time>2005-07-04T17:43:38.000Z</time>
      </trkpt>
      <trkpt lat="52.48242" lon="7.29076">
        <ele>20.00</ele>
        <time>2005-07-04T17:42:53.000Z</time>
      </trkpt>
      <trkpt lat="52.48285" lon="7.28954">
        <ele>19.00</ele>
        <time>2005-07-04T17:42:29.000Z</time>
      </trkpt>
      <trkpt lat="52.48293" lon="7.28887">
        <ele>19.00</ele>
        <time>2005-07-04T17:42:18.000Z</time>
      </trkpt>
      <trkpt lat="52.48283" lon="7.28818">
        <ele>19.00</ele>
        <time>2005-07-04T17:42:07.000Z</time>
      </trkpt>
      <trkpt lat="52.48300" lon="7.28795">
        <ele>20.00</ele>
        <time>2005-07-04T17:41:59.000Z</time>
      </trkpt>
      <trkpt lat="52.48381" lon="7.28752">
        <ele>18.00</ele>
        <time>2005-07-04T17:41:41.000Z</time>
      </trkpt>
      <trkpt lat="52.48688" lon="7.28741">
        <ele>19.00</ele>
        <time>2005-07-04T17:40:53.000Z</time>
      </trkpt>
      <trkpt lat="52.49113" lon="7.28501">
        <ele>20.00</ele>
        <time>2005-07-04T17:39:19.000Z</time>
      </trkpt>
      <trkpt lat="52.49540" lon="7.28563">
        <ele>20.00</ele>
        <time>2005-07-04T17:37:46.000Z</time>
      </trkpt>
      <trkpt lat="52.49628" lon="7.28649">
        <ele>19.00</ele>
        <time>2005-07-04T17:37:09.000Z</time>
      </trkpt>
      <trkpt lat="52.49658" lon="7.28662">
        <ele>19.00</ele>
        <time>2005-07-04T17:37:02.000Z</time>
      </trkpt>
      <trkpt lat="52.49677" lon="7.28720">
        <ele>17.00</ele>
        <time>2005-07-04T17:36:51.000Z</time>
      </trkpt>
      <trkpt lat="52.49720" lon="7.28769">
        <ele>18.00</ele>
        <time>2005-07-04T17:36:42.000Z</time>
      </trkpt>
      <trkpt lat="52.49746" lon="7.28773">
        <ele>19.00</ele>
        <time>2005-07-04T17:36:37.000Z</time>
      </trkpt>
      <trkpt lat="52.49772" lon="7.28709">
        <ele>21.00</ele>
        <time>2005-07-04T17:36:27.000Z</time>
      </trkpt>
      <trkpt lat="52.49770" lon="7.28688">
        <ele>20.00</ele>
        <time>2005-07-04T17:36:24.000Z</time>
      </trkpt>
      <trkpt lat="52.49759" lon="7.28662">
        <ele>21.00</ele>
        <time>2005-07-04T17:36:20.000Z</time>
      </trkpt>
      <trkpt lat="52.49742" lon="7.28657">
        <ele>23.00</ele>
        <time>2005-07-04T17:36:16.000Z</time>
      </trkpt>
      <trkpt lat="52.49729" lon="7.28677">
        <ele>24.00</ele>
        <time>2005-07-04T17:36:12.000Z</time>
      </trkpt>
      <trkpt lat="52.49725" lon="7.28685">
        <ele>24.00</ele>
        <time>2005-07-04T17:36:10.000Z</time>
      </trkpt>
      <trkpt lat="52.49716" lon="7.28709">
        <ele>25.00</ele>
        <time>2005-07-04T17:35:29.000Z</time>
      </trkpt>
      <trkpt lat="52.49512" lon="7.29514">
        <ele>21.00</ele>
        <time>2005-07-04T17:33:17.000Z</time>
      </trkpt>
      <trkpt lat="52.49504" lon="7.29537">
        <ele>22.00</ele>
        <time>2005-07-04T17:33:12.000Z</time>
      </trkpt>
      <trkpt lat="52.49510" lon="7.29557">
        <ele>20.00</ele>
        <time>2005-07-04T17:32:24.000Z</time>
      </trkpt>
      <trkpt lat="52.49553" lon="7.29595">
        <ele>20.00</ele>
        <time>2005-07-04T17:31:34.000Z</time>
      </trkpt>
      <trkpt lat="52.50396" lon="7.30627">
        <ele>21.00</ele>
        <time>2005-07-04T17:28:02.000Z</time>
      </trkpt>
      <trkpt lat="52.50870" lon="7.31207">
        <ele>20.00</ele>
        <time>2005-07-04T17:26:10.000Z</time>
      </trkpt>
      <trkpt lat="52.50978" lon="7.31256">
        <ele>21.00</ele>
        <time>2005-07-04T17:25:50.000Z</time>
      </trkpt>
      <trkpt lat="52.51049" lon="7.31271">
        <ele>21.00</ele>
        <time>2005-07-04T17:25:37.000Z</time>
      </trkpt>
      <trkpt lat="52.51126" lon="7.31267">
        <ele>21.00</ele>
        <time>2005-07-04T17:25:21.000Z</time>
      </trkpt>
      <trkpt lat="52.51323" lon="7.31162">
        <ele>20.00</ele>
        <time>2005-07-04T17:24:37.000Z</time>
      </trkpt>
      <trkpt lat="52.51338" lon="7.31149">
        <ele>20.00</ele>
        <time>2005-07-04T17:24:31.000Z</time>
      </trkpt>
      <trkpt lat="52.51343" lon="7.31155">
        <ele>21.00</ele>
        <time>2005-07-04T17:24:29.000Z</time>
      </trkpt>
      <trkpt lat="52.51345" lon="7.31164">
        <ele>20.00</ele>
        <time>2005-07-04T17:24:23.000Z</time>
      </trkpt>
      <trkpt lat="52.51381" lon="7.31127">
        <ele>20.00</ele>
        <time>2005-07-04T17:23:44.000Z</time>
      </trkpt>
      <trkpt lat="52.51411" lon="7.31086">
        <ele>20.00</ele>
        <time>2005-07-04T17:23:35.000Z</time>
      </trkpt>
      <trkpt lat="52.51403" lon="7.31048">
        <ele>20.00</ele>
        <time>2005-07-04T17:23:23.000Z</time>
      </trkpt>
      <trkpt lat="52.51418" lon="7.31037">
        <ele>20.00</ele>
        <time>2005-07-04T17:23:16.000Z</time>
      </trkpt>
      <trkpt lat="52.51529" lon="7.30960">
        <ele>21.00</ele>
        <time>2005-07-04T17:22:51.000Z</time>
      </trkpt>
      <trkpt lat="52.51551" lon="7.30975">
        <ele>21.00</ele>
        <time>2005-07-04T17:22:45.000Z</time>
      </trkpt>
      <trkpt lat="52.51559" lon="7.31001">
        <ele>20.00</ele>
        <time>2005-07-04T17:22:41.000Z</time>
      </trkpt>
      <trkpt lat="52.51581" lon="7.31016">
        <ele>20.00</ele>
        <time>2005-07-04T17:22:35.000Z</time>
      </trkpt>
      <trkpt lat="52.52021" lon="7.30818">
        <ele>20.00</ele>
        <time>2005-07-04T17:21:02.000Z</time>
      </trkpt>
      <trkpt lat="52.52669" lon="7.30745">
        <ele>16.00</ele>
        <time>2005-07-04T16:53:30.000Z</time>
      </trkpt>
      <trkpt lat="52.52662" lon="7.30732">
        <ele>17.00</ele>
        <time>2005-07-04T16:51:15.000Z</time>
      </trkpt>
      <trkpt lat="52.52673" lon="7.30739">
        <ele>18.00</ele>
        <time>2005-07-04T16:50:19.000Z</time>
      </trkpt>
      <trkpt lat="52.52662" lon="7.30732">
        <ele>18.00</ele>
        <time>2005-07-04T16:49:16.000Z</time>
      </trkpt>
      <trkpt lat="52.52673" lon="7.30743">
        <ele>19.00</ele>
        <time>2005-07-04T16:40:02.000Z</time>
      </trkpt>
      <trkpt lat="52.52658" lon="7.30747">
        <ele>22.00</ele>
        <time>2005-07-04T16:36:42.000Z</time>
      </trkpt>
      <trkpt lat="52.52675" lon="7.30760">
        <ele>19.00</ele>
        <time>2005-07-04T16:32:15.000Z</time>
      </trkpt>
      <trkpt lat="52.52701" lon="7.30743">
        <ele>19.00</ele>
        <time>2005-07-04T16:31:53.000Z</time>
      </trkpt>
      <trkpt lat="52.52690" lon="7.30732">
        <ele>21.00</ele>
        <time>2005-07-04T16:31:44.000Z</time>
      </trkpt>
      <trkpt lat="52.52780" lon="7.30597">
        <ele>17.00</ele>
        <time>2005-07-04T16:31:13.000Z</time>
      </trkpt>
      <trkpt lat="52.52883" lon="7.30290">
        <ele>16.00</ele>
        <time>2005-07-04T16:30:42.000Z</time>
      </trkpt>
      <trkpt lat="52.52913" lon="7.30239">
        <ele>16.00</ele>
        <time>2005-07-04T16:30:31.000Z</time>
      </trkpt>
      <trkpt lat="52.52905" lon="7.30162">
        <ele>16.00</ele>
        <time>2005-07-04T16:30:20.000Z</time>
      </trkpt>
      <trkpt lat="52.52825" lon="7.29999">
        <ele>16.00</ele>
        <time>2005-07-04T16:29:46.000Z</time>
      </trkpt>
      <trkpt lat="52.52812" lon="7.29949">
        <ele>16.00</ele>
        <time>2005-07-04T16:29:39.000Z</time>
      </trkpt>
      <trkpt lat="52.52870" lon="7.29730">
        <ele>16.00</ele>
        <time>2005-07-04T16:29:13.000Z</time>
      </trkpt>
      <trkpt lat="52.52943" lon="7.29533">
        <ele>15.00</ele>
        <time>2005-07-04T16:28:48.000Z</time>
      </trkpt>
      <trkpt lat="52.53027" lon="7.29479">
        <ele>16.00</ele>
        <time>2005-07-04T16:28:32.000Z</time>
      </trkpt>
      <trkpt lat="52.53055" lon="7.29406">
        <ele>15.00</ele>
        <time>2005-07-04T16:28:22.000Z</time>
      </trkpt>
      <trkpt lat="52.53051" lon="7.29333">
        <ele>16.00</ele>
        <time>2005-07-04T16:28:14.000Z</time>
      </trkpt>
      <trkpt lat="52.53053" lon="7.29299">
        <ele>15.00</ele>
        <time>2005-07-04T16:28:10.000Z</time>
      </trkpt>
      <trkpt lat="52.53074" lon="7.29267">
        <ele>15.00</ele>
        <time>2005-07-04T16:28:04.000Z</time>
      </trkpt>
      <trkpt lat="52.53327" lon="7.29359">
        <ele>16.00</ele>
        <time>2005-07-04T16:27:18.000Z</time>
      </trkpt>
      <trkpt lat="52.53353" lon="7.29336">
        <ele>15.00</ele>
        <time>2005-07-04T16:27:12.000Z</time>
      </trkpt>
      <trkpt lat="52.53394" lon="7.29198">
        <ele>15.00</ele>
        <time>2005-07-04T16:26:57.000Z</time>
      </trkpt>
      <trkpt lat="52.53415" lon="7.28992">
        <ele>15.00</ele>
        <time>2005-07-04T16:26:37.000Z</time>
      </trkpt>
      <trkpt lat="52.53409" lon="7.28932">
        <ele>16.00</ele>
        <time>2005-07-04T16:26:31.000Z</time>
      </trkpt>
      <trkpt lat="52.53364" lon="7.28823">
        <ele>16.00</ele>
        <time>2005-07-04T16:26:19.000Z</time>
      </trkpt>
      <trkpt lat="52.53351" lon="7.28739">
        <ele>16.00</ele>
        <time>2005-07-04T16:26:09.000Z</time>
      </trkpt>
      <trkpt lat="52.53475" lon="7.28612">
        <ele>15.00</ele>
        <time>2005-07-04T16:25:40.000Z</time>
      </trkpt>
      <trkpt lat="52.53587" lon="7.28535">
        <ele>15.00</ele>
        <time>2005-07-04T16:25:18.000Z</time>
      </trkpt>
      <trkpt lat="52.53834" lon="7.28636">
        <ele>15.00</ele>
        <time>2005-07-04T16:24:33.000Z</time>
      </trkpt>
      <trkpt lat="52.53851" lon="7.28634">
        <ele>15.00</ele>
        <time>2005-07-04T16:24:29.000Z</time>
      </trkpt>
      <trkpt lat="52.53988" lon="7.27969">
        <ele>15.00</ele>
        <time>2005-07-04T16:23:13.000Z</time>
      </trkpt>
      <trkpt lat="52.54025" lon="7.27855">
        <ele>15.00</ele>
        <time>2005-07-04T16:22:57.000Z</time>
      </trkpt>
      <trkpt lat="52.54068" lon="7.27838">
        <ele>15.00</ele>
        <time>2005-07-04T16:22:44.000Z</time>
      </trkpt>
      <trkpt lat="52.54596" lon="7.27741">
        <ele>14.00</ele>
        <time>2005-07-04T16:21:14.000Z</time>
      </trkpt>
      <trkpt lat="52.54703" lon="7.27765">
        <ele>14.00</ele>
        <time>2005-07-04T16:20:56.000Z</time>
      </trkpt>
      <trkpt lat="52.54780" lon="7.27853">
        <ele>14.00</ele>
        <time>2005-07-04T16:20:40.000Z</time>
      </trkpt>
      <trkpt lat="52.54795" lon="7.27879">
        <ele>14.00</ele>
        <time>2005-07-04T16:20:36.000Z</time>
      </trkpt>
      <trkpt lat="52.54905" lon="7.28170">
        <ele>14.00</ele>
        <time>2005-07-04T16:20:00.000Z</time>
      </trkpt>
      <trkpt lat="52.55106" lon="7.28509">
        <ele>14.00</ele>
        <time>2005-07-04T16:19:12.000Z</time>
      </trkpt>
      <trkpt lat="52.55156" lon="7.28649">
        <ele>14.00</ele>
        <time>2005-07-04T16:18:54.000Z</time>
      </trkpt>
      <trkpt lat="52.55183" lon="7.28683">
        <ele>14.00</ele>
        <time>2005-07-04T16:18:47.000Z</time>
      </trkpt>
      <trkpt lat="52.55327" lon="7.28681">
        <ele>14.00</ele>
        <time>2005-07-04T16:18:23.000Z</time>
      </trkpt>
      <trkpt lat="52.55553" lon="7.28692">
        <ele>14.00</ele>
        <time>2005-07-04T16:17:43.000Z</time>
      </trkpt>
      <trkpt lat="52.55563" lon="7.28696">
        <ele>14.00</ele>
        <time>2005-07-04T16:17:41.000Z</time>
      </trkpt>
      <trkpt lat="52.55580" lon="7.28715">
        <ele>14.00</ele>
        <time>2005-07-04T16:17:37.000Z</time>
      </trkpt>
      <trkpt lat="52.55595" lon="7.28803">
        <ele>15.00</ele>
        <time>2005-07-04T16:17:26.000Z</time>
      </trkpt>
      <trkpt lat="52.55608" lon="7.28831">
        <ele>15.00</ele>
        <time>2005-07-04T16:17:21.000Z</time>
      </trkpt>
      <trkpt lat="52.55954" lon="7.28726">
        <ele>14.00</ele>
        <time>2005-07-04T16:16:16.000Z</time>
      </trkpt>
      <trkpt lat="52.55969" lon="7.28703">
        <ele>14.00</ele>
        <time>2005-07-04T16:16:12.000Z</time>
      </trkpt>
      <trkpt lat="52.55984" lon="7.28469">
        <ele>14.00</ele>
        <time>2005-07-04T16:15:55.000Z</time>
      </trkpt>
      <trkpt lat="52.55995" lon="7.28432">
        <ele>14.00</ele>
        <time>2005-07-04T16:15:51.000Z</time>
      </trkpt>
      <trkpt lat="52.56046" lon="7.28353">
        <ele>14.00</ele>
        <time>2005-07-04T16:15:36.000Z</time>
      </trkpt>
      <trkpt lat="52.56319" lon="7.28050">
        <ele>13.00</ele>
        <time>2005-07-04T16:14:32.000Z</time>
      </trkpt>
      <trkpt lat="52.56389" lon="7.27937">
        <ele>13.00</ele>
        <time>2005-07-04T16:14:15.000Z</time>
      </trkpt>
      <trkpt lat="52.56437" lon="7.27818">
        <ele>13.00</ele>
        <time>2005-07-04T16:13:59.000Z</time>
      </trkpt>
      <trkpt lat="52.56439" lon="7.27795">
        <ele>13.00</ele>
        <time>2005-07-04T16:13:56.000Z</time>
      </trkpt>
      <trkpt lat="52.56379" lon="7.27181">
        <ele>12.00</ele>
        <time>2005-07-04T16:12:49.000Z</time>
      </trkpt>
      <trkpt lat="52.56346" lon="7.27095">
        <ele>13.00</ele>
        <time>2005-07-04T16:12:36.000Z</time>
      </trkpt>
      <trkpt lat="52.56501" lon="7.26829">
        <ele>11.00</ele>
        <time>2005-07-04T16:11:48.000Z</time>
      </trkpt>
      <trkpt lat="52.56552" lon="7.26679">
        <ele>12.00</ele>
        <time>2005-07-04T16:11:12.000Z</time>
      </trkpt>
      <trkpt lat="52.56561" lon="7.26658">
        <ele>12.00</ele>
        <time>2005-07-04T16:10:11.000Z</time>
      </trkpt>
      <trkpt lat="52.56570" lon="7.26655">
        <ele>11.00</ele>
        <time>2005-07-04T16:10:07.000Z</time>
      </trkpt>
      <trkpt lat="52.56647" lon="7.26754">
        <ele>11.00</ele>
        <time>2005-07-04T16:09:48.000Z</time>
      </trkpt>
      <trkpt lat="52.56668" lon="7.26756">
        <ele>12.00</ele>
        <time>2005-07-04T16:09:43.000Z</time>
      </trkpt>
      <trkpt lat="52.56838" lon="7.26589">
        <ele>12.00</ele>
        <time>2005-07-04T16:09:04.000Z</time>
      </trkpt>
      <trkpt lat="52.56934" lon="7.26525">
        <ele>11.00</ele>
        <time>2005-07-04T16:08:41.000Z</time>
      </trkpt>
      <trkpt lat="52.56960" lon="7.26535">
        <ele>11.00</ele>
        <time>2005-07-04T16:08:36.000Z</time>
      </trkpt>
      <trkpt lat="52.56964" lon="7.26552">
        <ele>12.00</ele>
        <time>2005-07-04T16:08:34.000Z</time>
      </trkpt>
      <trkpt lat="52.56969" lon="7.26589">
        <ele>12.00</ele>
        <time>2005-07-04T16:08:30.000Z</time>
      </trkpt>
      <trkpt lat="52.56945" lon="7.26855">
        <ele>12.00</ele>
        <time>2005-07-04T16:07:56.000Z</time>
      </trkpt>
      <trkpt lat="52.56947" lon="7.27014">
        <ele>12.00</ele>
        <time>2005-07-04T16:07:35.000Z</time>
      </trkpt>
      <trkpt lat="52.57231" lon="7.28048">
        <ele>13.00</ele>
        <time>2005-07-04T16:05:23.000Z</time>
      </trkpt>
      <trkpt lat="52.57256" lon="7.28076">
        <ele>14.00</ele>
        <time>2005-07-04T16:05:16.000Z</time>
      </trkpt>
      <trkpt lat="52.57280" lon="7.28061">
        <ele>13.00</ele>
        <time>2005-07-04T16:05:11.000Z</time>
      </trkpt>
      <trkpt lat="52.57310" lon="7.28072">
        <ele>13.00</ele>
        <time>2005-07-04T16:05:04.000Z</time>
      </trkpt>
      <trkpt lat="52.57376" lon="7.28342">
        <ele>14.00</ele>
        <time>2005-07-04T16:04:30.000Z</time>
      </trkpt>
      <trkpt lat="52.57387" lon="7.28522">
        <ele>14.00</ele>
        <time>2005-07-04T16:04:10.000Z</time>
      </trkpt>
      <trkpt lat="52.57396" lon="7.28552">
        <ele>15.00</ele>
        <time>2005-07-04T16:04:06.000Z</time>
      </trkpt>
      <trkpt lat="52.57505" lon="7.29288">
        <ele>15.00</ele>
        <time>2005-07-04T16:02:42.000Z</time>
      </trkpt>
      <trkpt lat="52.57645" lon="7.29743">
        <ele>15.00</ele>
        <time>2005-07-04T16:01:37.000Z</time>
      </trkpt>
      <trkpt lat="52.57651" lon="7.29775">
        <ele>17.00</ele>
        <time>2005-07-04T15:52:26.000Z</time>
      </trkpt>
      <trkpt lat="52.57653" lon="7.29801">
        <ele>17.00</ele>
        <time>2005-07-04T15:52:14.000Z</time>
      </trkpt>
      <trkpt lat="52.57776" lon="7.30516">
        <ele>15.00</ele>
        <time>2005-07-04T15:50:49.000Z</time>
      </trkpt>
      <trkpt lat="52.57788" lon="7.30526">
        <ele>15.00</ele>
        <time>2005-07-04T15:50:45.000Z</time>
      </trkpt>
      <trkpt lat="52.57799" lon="7.30518">
        <ele>15.00</ele>
        <time>2005-07-04T15:50:43.000Z</time>
      </trkpt>
      <trkpt lat="52.58018" lon="7.30423">
        <ele>18.00</ele>
        <time>2005-07-04T15:50:05.000Z</time>
      </trkpt>
      <trkpt lat="52.58035" lon="7.30393">
        <ele>17.00</ele>
        <time>2005-07-04T15:49:58.000Z</time>
      </trkpt>
      <trkpt lat="52.58005" lon="7.30303">
        <ele>17.00</ele>
        <time>2005-07-04T15:49:46.000Z</time>
      </trkpt>
      <trkpt lat="52.58014" lon="7.29816">
        <ele>18.00</ele>
        <time>2005-07-04T15:48:56.000Z</time>
      </trkpt>
      <trkpt lat="52.58039" lon="7.29655">
        <ele>18.00</ele>
        <time>2005-07-04T15:48:38.000Z</time>
      </trkpt>
      <trkpt lat="52.58168" lon="7.29172">
        <ele>15.00</ele>
        <time>2005-07-04T15:47:38.000Z</time>
      </trkpt>
      <trkpt lat="52.58235" lon="7.29018">
        <ele>16.00</ele>
        <time>2005-07-04T15:47:19.000Z</time>
      </trkpt>
      <trkpt lat="52.58385" lon="7.28799">
        <ele>16.00</ele>
        <time>2005-07-04T15:46:46.000Z</time>
      </trkpt>
      <trkpt lat="52.58548" lon="7.28647">
        <ele>16.00</ele>
        <time>2005-07-04T15:46:15.000Z</time>
      </trkpt>
      <trkpt lat="52.58576" lon="7.28589">
        <ele>16.00</ele>
        <time>2005-07-04T15:46:07.000Z</time>
      </trkpt>
      <trkpt lat="52.58563" lon="7.28400">
        <ele>16.00</ele>
        <time>2005-07-04T15:45:45.000Z</time>
      </trkpt>
      <trkpt lat="52.58585" lon="7.28239">
        <ele>15.00</ele>
        <time>2005-07-04T15:45:25.000Z</time>
      </trkpt>
      <trkpt lat="52.58636" lon="7.28093">
        <ele>15.00</ele>
        <time>2005-07-04T15:45:07.000Z</time>
      </trkpt>
      <trkpt lat="52.58718" lon="7.27990">
        <ele>15.00</ele>
        <time>2005-07-04T15:44:50.000Z</time>
      </trkpt>
      <trkpt lat="52.58823" lon="7.27932">
        <ele>15.00</ele>
        <time>2005-07-04T15:44:31.000Z</time>
      </trkpt>
      <trkpt lat="52.58928" lon="7.27932">
        <ele>16.00</ele>
        <time>2005-07-04T15:44:13.000Z</time>
      </trkpt>
      <trkpt lat="52.59024" lon="7.27982">
        <ele>15.00</ele>
        <time>2005-07-04T15:43:54.000Z</time>
      </trkpt>
      <trkpt lat="52.59063" lon="7.27977">
        <ele>15.00</ele>
        <time>2005-07-04T15:43:47.000Z</time>
      </trkpt>
      <trkpt lat="52.59110" lon="7.27934">
        <ele>15.00</ele>
        <time>2005-07-04T15:43:37.000Z</time>
      </trkpt>
      <trkpt lat="52.59147" lon="7.27866">
        <ele>15.00</ele>
        <time>2005-07-04T15:43:27.000Z</time>
      </trkpt>
      <trkpt lat="52.59235" lon="7.27773">
        <ele>15.00</ele>
        <time>2005-07-04T15:43:09.000Z</time>
      </trkpt>
      <trkpt lat="52.59263" lon="7.27765">
        <ele>15.00</ele>
        <time>2005-07-04T15:43:04.000Z</time>
      </trkpt>
      <trkpt lat="52.59399" lon="7.27773">
        <ele>16.00</ele>
        <time>2005-07-04T15:36:19.000Z</time>
      </trkpt>
      <trkpt lat="52.59434" lon="7.27720">
        <ele>16.00</ele>
        <time>2005-07-04T15:35:33.000Z</time>
      </trkpt>
      <trkpt lat="52.59451" lon="7.27647">
        <ele>16.00</ele>
        <time>2005-07-04T15:35:20.000Z</time>
      </trkpt>
      <trkpt lat="52.59419" lon="7.27518">
        <ele>15.00</ele>
        <time>2005-07-04T15:34:58.000Z</time>
      </trkpt>
      <trkpt lat="52.59408" lon="7.27428">
        <ele>15.00</ele>
        <time>2005-07-04T15:34:37.000Z</time>
      </trkpt>
      <trkpt lat="52.59400" lon="7.27434">
        <ele>15.00</ele>
        <time>2005-07-04T15:34:12.000Z</time>
      </trkpt>
      <trkpt lat="52.59372" lon="7.27342">
        <ele>15.00</ele>
        <time>2005-07-04T15:33:12.000Z</time>
      </trkpt>
      <trkpt lat="52.59366" lon="7.27323">
        <ele>15.00</ele>
        <time>2005-07-04T15:33:08.000Z</time>
      </trkpt>
      <trkpt lat="52.58969" lon="7.27696">
        <ele>14.00</ele>
        <time>2005-07-04T15:31:22.000Z</time>
      </trkpt>
      <trkpt lat="52.58958" lon="7.27692">
        <ele>13.00</ele>
        <time>2005-07-04T15:31:17.000Z</time>
      </trkpt>
      <trkpt lat="52.58930" lon="7.27574">
        <ele>12.00</ele>
        <time>2005-07-04T15:30:58.000Z</time>
      </trkpt>
      <trkpt lat="52.58891" lon="7.27407">
        <ele>12.00</ele>
        <time>2005-07-04T15:30:37.000Z</time>
      </trkpt>
      <trkpt lat="52.58868" lon="7.27147">
        <ele>12.00</ele>
        <time>2005-07-04T15:30:07.000Z</time>
      </trkpt>
      <trkpt lat="52.58870" lon="7.27121">
        <ele>12.00</ele>
        <time>2005-07-04T15:30:04.000Z</time>
      </trkpt>
      <trkpt lat="52.58887" lon="7.27091">
        <ele>11.00</ele>
        <time>2005-07-04T15:29:59.000Z</time>
      </trkpt>
      <trkpt lat="52.58941" lon="7.27040">
        <ele>12.00</ele>
        <time>2005-07-04T15:29:47.000Z</time>
      </trkpt>
      <trkpt lat="52.58947" lon="7.27010">
        <ele>11.00</ele>
        <time>2005-07-04T15:29:43.000Z</time>
      </trkpt>
      <trkpt lat="52.58793" lon="7.26336">
        <ele>11.00</ele>
        <time>2005-07-04T15:28:24.000Z</time>
      </trkpt>
      <trkpt lat="52.58803" lon="7.26226">
        <ele>11.00</ele>
        <time>2005-07-04T15:28:11.000Z</time>
      </trkpt>
      <trkpt lat="52.58808" lon="7.26201">
        <ele>11.00</ele>
        <time>2005-07-04T15:28:08.000Z</time>
      </trkpt>
      <trkpt lat="52.59147" lon="7.25568">
        <ele>12.00</ele>
        <time>2005-07-04T15:26:32.000Z</time>
      </trkpt>
      <trkpt lat="52.59593" lon="7.24999">
        <ele>13.00</ele>
        <time>2005-07-04T15:24:54.000Z</time>
      </trkpt>
      <trkpt lat="52.59599" lon="7.24962">
        <ele>13.00</ele>
        <time>2005-07-04T15:24:49.000Z</time>
      </trkpt>
      <trkpt lat="52.59574" lon="7.24907">
        <ele>13.00</ele>
        <time>2005-07-04T15:24:37.000Z</time>
      </trkpt>
      <trkpt lat="52.59436" lon="7.24684">
        <ele>13.00</ele>
        <time>2005-07-04T15:23:31.000Z</time>
      </trkpt>
      <trkpt lat="52.59383" lon="7.24546">
        <ele>14.00</ele>
        <time>2005-07-04T15:23:12.000Z</time>
      </trkpt>
      <trkpt lat="52.59348" lon="7.24387">
        <ele>13.00</ele>
        <time>2005-07-04T15:22:53.000Z</time>
      </trkpt>
      <trkpt lat="52.59290" lon="7.23647">
        <ele>12.00</ele>
        <time>2005-07-04T15:21:32.000Z</time>
      </trkpt>
      <trkpt lat="52.59308" lon="7.23621">
        <ele>13.00</ele>
        <time>2005-07-04T15:21:25.000Z</time>
      </trkpt>
      <trkpt lat="52.59314" lon="7.23626">
        <ele>12.00</ele>
        <time>2005-07-04T15:21:21.000Z</time>
      </trkpt>
      <trkpt lat="52.59327" lon="7.23718">
        <ele>12.00</ele>
        <time>2005-07-04T15:21:10.000Z</time>
      </trkpt>
      <trkpt lat="52.59336" lon="7.23750">
        <ele>13.00</ele>
        <time>2005-07-04T15:21:06.000Z</time>
      </trkpt>
      <trkpt lat="52.59406" lon="7.23845">
        <ele>12.00</ele>
        <time>2005-07-04T15:20:47.000Z</time>
      </trkpt>
      <trkpt lat="52.59428" lon="7.23855">
        <ele>11.00</ele>
        <time>2005-07-04T15:20:43.000Z</time>
      </trkpt>
      <trkpt lat="52.59449" lon="7.23857">
        <ele>10.00</ele>
        <time>2005-07-04T15:20:39.000Z</time>
      </trkpt>
      <trkpt lat="52.59475" lon="7.23875">
        <ele>11.00</ele>
        <time>2005-07-04T15:20:34.000Z</time>
      </trkpt>
      <trkpt lat="52.59537" lon="7.23875">
        <ele>11.00</ele>
        <time>2005-07-04T15:20:23.000Z</time>
      </trkpt>
      <trkpt lat="52.59645" lon="7.23870">
        <ele>10.00</ele>
        <time>2005-07-04T15:20:04.000Z</time>
      </trkpt>
      <trkpt lat="52.59709" lon="7.23851">
        <ele>10.00</ele>
        <time>2005-07-04T15:19:53.000Z</time>
      </trkpt>
      <trkpt lat="52.59769" lon="7.23860">
        <ele>11.00</ele>
        <time>2005-07-04T15:19:42.000Z</time>
      </trkpt>
      <trkpt lat="52.60007" lon="7.23967">
        <ele>10.00</ele>
        <time>2005-07-04T15:18:57.000Z</time>
      </trkpt>
      <trkpt lat="52.60325" lon="7.23842">
        <ele>9.00</ele>
        <time>2005-07-04T15:17:59.000Z</time>
      </trkpt>
      <trkpt lat="52.60353" lon="7.23842">
        <ele>10.00</ele>
        <time>2005-07-04T15:17:54.000Z</time>
      </trkpt>
      <trkpt lat="52.60423" lon="7.23892">
        <ele>9.00</ele>
        <time>2005-07-04T15:17:40.000Z</time>
      </trkpt>
      <trkpt lat="52.60522" lon="7.23907">
        <ele>9.00</ele>
        <time>2005-07-04T15:17:23.000Z</time>
      </trkpt>
      <trkpt lat="52.60541" lon="7.23887">
        <ele>8.00</ele>
        <time>2005-07-04T15:17:18.000Z</time>
      </trkpt>
      <trkpt lat="52.60595" lon="7.23362">
        <ele>11.00</ele>
        <time>2005-07-04T15:16:23.000Z</time>
      </trkpt>
      <trkpt lat="52.60595" lon="7.23332">
        <ele>11.00</ele>
        <time>2005-07-04T15:16:19.000Z</time>
      </trkpt>
      <trkpt lat="52.60604" lon="7.23315">
        <ele>12.00</ele>
        <time>2005-07-04T15:16:15.000Z</time>
      </trkpt>
      <trkpt lat="52.60623" lon="7.23308">
        <ele>12.00</ele>
        <time>2005-07-04T15:16:07.000Z</time>
      </trkpt>
      <trkpt lat="52.60627" lon="7.23312">
        <ele>10.00</ele>
        <time>2005-07-04T15:11:53.000Z</time>
      </trkpt>
      <trkpt lat="52.60677" lon="7.23330">
        <ele>13.00</ele>
        <time>2005-07-04T15:08:01.000Z</time>
      </trkpt>
      <trkpt lat="52.60754" lon="7.23357">
        <ele>12.00</ele>
        <time>2005-07-04T15:07:45.000Z</time>
      </trkpt>
      <trkpt lat="52.60773" lon="7.23398">
        <ele>12.00</ele>
        <time>2005-07-04T15:07:35.000Z</time>
      </trkpt>
      <trkpt lat="52.60765" lon="7.23810">
        <ele>10.00</ele>
        <time>2005-07-04T15:06:38.000Z</time>
      </trkpt>
      <trkpt lat="52.60782" lon="7.23832">
        <ele>11.00</ele>
        <time>2005-07-04T15:06:33.000Z</time>
      </trkpt>
      <trkpt lat="52.60876" lon="7.23819">
        <ele>11.00</ele>
        <time>2005-07-04T15:06:14.000Z</time>
      </trkpt>
      <trkpt lat="52.61048" lon="7.23832">
        <ele>11.00</ele>
        <time>2005-07-04T15:05:38.000Z</time>
      </trkpt>
      <trkpt lat="52.61063" lon="7.23842">
        <ele>10.00</ele>
        <time>2005-07-04T15:05:34.000Z</time>
      </trkpt>
      <trkpt lat="52.61065" lon="7.24463">
        <ele>10.00</ele>
        <time>2005-07-04T15:04:19.000Z</time>
      </trkpt>
      <trkpt lat="52.61099" lon="7.24641">
        <ele>10.00</ele>
        <time>2005-07-04T15:03:56.000Z</time>
      </trkpt>
      <trkpt lat="52.61125" lon="7.24669">
        <ele>11.00</ele>
        <time>2005-07-04T15:03:49.000Z</time>
      </trkpt>
      <trkpt lat="52.61243" lon="7.24617">
        <ele>11.00</ele>
        <time>2005-07-04T15:03:24.000Z</time>
      </trkpt>
      <trkpt lat="52.61526" lon="7.24493">
        <ele>10.00</ele>
        <time>2005-07-04T15:02:26.000Z</time>
      </trkpt>
      <trkpt lat="52.61919" lon="7.24561">
        <ele>9.00</ele>
        <time>2005-07-04T15:01:10.000Z</time>
      </trkpt>
      <trkpt lat="52.62089" lon="7.24321">
        <ele>10.00</ele>
        <time>2005-07-04T15:00:28.000Z</time>
      </trkpt>
      <trkpt lat="52.62110" lon="7.24306">
        <ele>9.00</ele>
        <time>2005-07-04T15:00:23.000Z</time>
      </trkpt>
      <trkpt lat="52.62616" lon="7.24312">
        <ele>9.00</ele>
        <time>2005-07-04T14:58:41.000Z</time>
      </trkpt>
      <trkpt lat="52.62627" lon="7.24340">
        <ele>9.00</ele>
        <time>2005-07-04T14:58:35.000Z</time>
      </trkpt>
      <trkpt lat="52.62616" lon="7.24420">
        <ele>9.00</ele>
        <time>2005-07-04T14:58:25.000Z</time>
      </trkpt>
      <trkpt lat="52.62631" lon="7.24460">
        <ele>10.00</ele>
        <time>2005-07-04T14:58:18.000Z</time>
      </trkpt>
      <trkpt lat="52.62880" lon="7.24484">
        <ele>10.00</ele>
        <time>2005-07-04T14:57:28.000Z</time>
      </trkpt>
      <trkpt lat="52.63080" lon="7.24546">
        <ele>9.00</ele>
        <time>2005-07-04T14:56:44.000Z</time>
      </trkpt>
      <trkpt lat="52.63123" lon="7.24531">
        <ele>9.00</ele>
        <time>2005-07-04T14:56:30.000Z</time>
      </trkpt>
      <trkpt lat="52.63155" lon="7.24516">
        <ele>9.00</ele>
        <time>2005-07-04T14:53:11.000Z</time>
      </trkpt>
      <trkpt lat="52.63301" lon="7.24396">
        <ele>9.00</ele>
        <time>2005-07-04T14:52:38.000Z</time>
      </trkpt>
      <trkpt lat="52.63406" lon="7.24370">
        <ele>9.00</ele>
        <time>2005-07-04T14:52:18.000Z</time>
      </trkpt>
      <trkpt lat="52.63633" lon="7.24220">
        <ele>8.00</ele>
        <time>2005-07-04T14:51:32.000Z</time>
      </trkpt>
      <trkpt lat="52.63779" lon="7.24046">
        <ele>9.00</ele>
        <time>2005-07-04T14:50:58.000Z</time>
      </trkpt>
      <trkpt lat="52.63792" lon="7.24023">
        <ele>9.00</ele>
        <time>2005-07-04T14:50:54.000Z</time>
      </trkpt>
      <trkpt lat="52.63788" lon="7.23752">
        <ele>10.00</ele>
        <time>2005-07-04T14:50:20.000Z</time>
      </trkpt>
      <trkpt lat="52.63797" lon="7.23681">
        <ele>9.00</ele>
        <time>2005-07-04T14:50:11.000Z</time>
      </trkpt>
      <trkpt lat="52.63809" lon="7.23666">
        <ele>9.00</ele>
        <time>2005-07-04T14:50:07.000Z</time>
      </trkpt>
      <trkpt lat="52.63839" lon="7.23681">
        <ele>10.00</ele>
        <time>2005-07-04T14:50:00.000Z</time>
      </trkpt>
      <trkpt lat="52.63872" lon="7.23677">
        <ele>10.00</ele>
        <time>2005-07-04T14:49:50.000Z</time>
      </trkpt>
      <trkpt lat="52.63880" lon="7.23664">
        <ele>9.00</ele>
        <time>2005-07-04T14:49:45.000Z</time>
      </trkpt>
      <trkpt lat="52.63900" lon="7.23658">
        <ele>10.00</ele>
        <time>2005-07-04T14:49:41.000Z</time>
      </trkpt>
      <trkpt lat="52.63910" lon="7.23658">
        <ele>11.00</ele>
        <time>2005-07-04T14:49:39.000Z</time>
      </trkpt>
      <trkpt lat="52.64481" lon="7.24029">
        <ele>12.00</ele>
        <time>2005-07-04T14:47:40.000Z</time>
      </trkpt>
      <trkpt lat="52.64584" lon="7.24053">
        <ele>12.00</ele>
        <time>2005-07-04T14:47:21.000Z</time>
      </trkpt>
      <trkpt lat="52.64685" lon="7.24029">
        <ele>13.00</ele>
        <time>2005-07-04T14:47:02.000Z</time>
      </trkpt>
      <trkpt lat="52.65043" lon="7.23812">
        <ele>11.00</ele>
        <time>2005-07-04T14:45:51.000Z</time>
      </trkpt>
      <trkpt lat="52.65163" lon="7.23780">
        <ele>11.00</ele>
        <time>2005-07-04T14:45:29.000Z</time>
      </trkpt>
      <trkpt lat="52.65275" lon="7.23799">
        <ele>11.00</ele>
        <time>2005-07-04T14:45:08.000Z</time>
      </trkpt>
      <trkpt lat="52.65700" lon="7.24078">
        <ele>13.00</ele>
        <time>2005-07-04T14:36:50.000Z</time>
      </trkpt>
      <trkpt lat="52.65681" lon="7.24842">
        <ele>13.00</ele>
        <time>2005-07-04T14:35:18.000Z</time>
      </trkpt>
      <trkpt lat="52.65685" lon="7.24877">
        <ele>13.00</ele>
        <time>2005-07-04T14:35:13.000Z</time>
      </trkpt>
      <trkpt lat="52.65874" lon="7.25068">
        <ele>10.00</ele>
        <time>2005-07-04T14:34:24.000Z</time>
      </trkpt>
      <trkpt lat="52.65884" lon="7.25093">
        <ele>9.00</ele>
        <time>2005-07-04T14:34:20.000Z</time>
      </trkpt>
      <trkpt lat="52.65884" lon="7.25246">
        <ele>9.00</ele>
        <time>2005-07-04T14:34:02.000Z</time>
      </trkpt>
      <trkpt lat="52.65899" lon="7.25269">
        <ele>10.00</ele>
        <time>2005-07-04T14:33:57.000Z</time>
      </trkpt>
      <trkpt lat="52.66191" lon="7.25276">
        <ele>8.00</ele>
        <time>2005-07-04T14:33:02.000Z</time>
      </trkpt>
      <trkpt lat="52.66288" lon="7.25267">
        <ele>9.00</ele>
        <time>2005-07-04T14:32:46.000Z</time>
      </trkpt>
      <trkpt lat="52.66447" lon="7.25061">
        <ele>13.00</ele>
        <time>2005-07-04T14:32:12.000Z</time>
      </trkpt>
      <trkpt lat="52.66524" lon="7.24993">
        <ele>13.00</ele>
        <time>2005-07-04T14:31:54.000Z</time>
      </trkpt>
      <trkpt lat="52.66670" lon="7.25031">
        <ele>12.00</ele>
        <time>2005-07-04T14:31:21.000Z</time>
      </trkpt>
      <trkpt lat="52.66685" lon="7.25044">
        <ele>12.00</ele>
        <time>2005-07-04T14:31:17.000Z</time>
      </trkpt>
      <trkpt lat="52.66700" lon="7.25083">
        <ele>13.00</ele>
        <time>2005-07-04T14:31:11.000Z</time>
      </trkpt>
      <trkpt lat="52.66760" lon="7.25171">
        <ele>14.00</ele>
        <time>2005-07-04T14:30:56.000Z</time>
      </trkpt>
      <trkpt lat="52.66809" lon="7.25199">
        <ele>14.00</ele>
        <time>2005-07-04T14:30:46.000Z</time>
      </trkpt>
      <trkpt lat="52.66979" lon="7.25239">
        <ele>14.00</ele>
        <time>2005-07-04T14:30:07.000Z</time>
      </trkpt>
      <trkpt lat="52.67176" lon="7.25338">
        <ele>11.00</ele>
        <time>2005-07-04T14:29:24.000Z</time>
      </trkpt>
      <trkpt lat="52.67215" lon="7.25374">
        <ele>9.00</ele>
        <time>2005-07-04T14:29:13.000Z</time>
      </trkpt>
      <trkpt lat="52.67226" lon="7.25653">
        <ele>9.00</ele>
        <time>2005-07-04T14:28:41.000Z</time>
      </trkpt>
      <trkpt lat="52.67221" lon="7.25696">
        <ele>8.00</ele>
        <time>2005-07-04T14:28:35.000Z</time>
      </trkpt>
      <trkpt lat="52.67221" lon="7.25795">
        <ele>8.00</ele>
        <time>2005-07-04T14:28:24.000Z</time>
      </trkpt>
      <trkpt lat="52.67228" lon="7.25825">
        <ele>9.00</ele>
        <time>2005-07-04T14:28:20.000Z</time>
      </trkpt>
      <trkpt lat="52.67247" lon="7.25864">
        <ele>10.00</ele>
        <time>2005-07-04T14:28:13.000Z</time>
      </trkpt>
      <trkpt lat="52.67264" lon="7.25881">
        <ele>9.00</ele>
        <time>2005-07-04T14:28:09.000Z</time>
      </trkpt>
      <trkpt lat="52.67571" lon="7.26093">
        <ele>10.00</ele>
        <time>2005-07-04T14:26:58.000Z</time>
      </trkpt>
      <trkpt lat="52.67698" lon="7.26115">
        <ele>9.00</ele>
        <time>2005-07-04T14:26:35.000Z</time>
      </trkpt>
      <trkpt lat="52.67854" lon="7.26074">
        <ele>9.00</ele>
        <time>2005-07-04T14:26:07.000Z</time>
      </trkpt>
      <trkpt lat="52.68004" lon="7.26106">
        <ele>8.00</ele>
        <time>2005-07-04T14:25:34.000Z</time>
      </trkpt>
      <trkpt lat="52.68251" lon="7.26269">
        <ele>10.00</ele>
        <time>2005-07-04T14:24:46.000Z</time>
      </trkpt>
      <trkpt lat="52.68440" lon="7.26703">
        <ele>10.00</ele>
        <time>2005-07-04T14:23:48.000Z</time>
      </trkpt>
      <trkpt lat="52.68579" lon="7.26844">
        <ele>10.00</ele>
        <time>2005-07-04T14:23:16.000Z</time>
      </trkpt>
      <trkpt lat="52.68659" lon="7.26853">
        <ele>10.00</ele>
        <time>2005-07-04T14:23:01.000Z</time>
      </trkpt>
      <trkpt lat="52.68697" lon="7.26883">
        <ele>10.00</ele>
        <time>2005-07-04T14:22:53.000Z</time>
      </trkpt>
      <trkpt lat="52.68708" lon="7.26902">
        <ele>10.00</ele>
        <time>2005-07-04T14:22:50.000Z</time>
      </trkpt>
      <trkpt lat="52.68708" lon="7.26932">
        <ele>9.00</ele>
        <time>2005-07-04T14:22:46.000Z</time>
      </trkpt>
      <trkpt lat="52.68785" lon="7.27196">
        <ele>9.00</ele>
        <time>2005-07-04T14:22:09.000Z</time>
      </trkpt>
      <trkpt lat="52.68807" lon="7.27207">
        <ele>8.00</ele>
        <time>2005-07-04T14:22:04.000Z</time>
      </trkpt>
      <trkpt lat="52.68906" lon="7.27085">
        <ele>10.00</ele>
        <time>2005-07-04T14:21:41.000Z</time>
      </trkpt>
      <trkpt lat="52.68912" lon="7.27082">
        <ele>10.00</ele>
        <time>2005-07-04T14:21:39.000Z</time>
      </trkpt>
      <trkpt lat="52.69022" lon="7.27314">
        <ele>8.00</ele>
        <time>2005-07-04T14:21:04.000Z</time>
      </trkpt>
      <trkpt lat="52.69163" lon="7.27576">
        <ele>9.00</ele>
        <time>2005-07-04T14:20:24.000Z</time>
      </trkpt>
      <trkpt lat="52.69174" lon="7.27587">
        <ele>9.00</ele>
        <time>2005-07-04T14:20:16.000Z</time>
      </trkpt>
      <trkpt lat="52.69174" lon="7.27613">
        <ele>10.00</ele>
        <time>2005-07-04T14:20:07.000Z</time>
      </trkpt>
      <trkpt lat="52.69140" lon="7.27761">
        <ele>10.00</ele>
        <time>2005-07-04T14:19:49.000Z</time>
      </trkpt>
      <trkpt lat="52.69140" lon="7.27812">
        <ele>9.00</ele>
        <time>2005-07-04T14:19:43.000Z</time>
      </trkpt>
      <trkpt lat="52.69150" lon="7.27866">
        <ele>9.00</ele>
        <time>2005-07-04T14:19:36.000Z</time>
      </trkpt>
      <trkpt lat="52.69275" lon="7.28258">
        <ele>9.00</ele>
        <time>2005-07-04T14:18:46.000Z</time>
      </trkpt>
      <trkpt lat="52.69350" lon="7.28531">
        <ele>11.00</ele>
        <time>2005-07-04T14:18:11.000Z</time>
      </trkpt>
      <trkpt lat="52.69399" lon="7.28690">
        <ele>10.00</ele>
        <time>2005-07-04T14:17:41.000Z</time>
      </trkpt>
      <trkpt lat="52.69421" lon="7.28836">
        <ele>12.00</ele>
        <time>2005-07-04T14:03:28.000Z</time>
      </trkpt>
      <trkpt lat="52.69451" lon="7.28883">
        <ele>11.00</ele>
        <time>2005-07-04T14:02:52.000Z</time>
      </trkpt>
      <trkpt lat="52.69494" lon="7.28971">
        <ele>11.00</ele>
        <time>2005-07-04T14:02:35.000Z</time>
      </trkpt>
      <trkpt lat="52.69567" lon="7.29046">
        <ele>11.00</ele>
        <time>2005-07-04T14:02:16.000Z</time>
      </trkpt>
      <trkpt lat="52.69715" lon="7.29033">
        <ele>11.00</ele>
        <time>2005-07-04T14:01:39.000Z</time>
      </trkpt>
      <trkpt lat="52.69811" lon="7.28988">
        <ele>12.00</ele>
        <time>2005-07-04T14:01:20.000Z</time>
      </trkpt>
      <trkpt lat="52.69908" lon="7.28911">
        <ele>12.00</ele>
        <time>2005-07-04T14:01:00.000Z</time>
      </trkpt>
      <trkpt lat="52.69974" lon="7.28793">
        <ele>11.00</ele>
        <time>2005-07-04T14:00:40.000Z</time>
      </trkpt>
      <trkpt lat="52.70054" lon="7.28462">
        <ele>11.00</ele>
        <time>2005-07-04T13:59:59.000Z</time>
      </trkpt>
      <trkpt lat="52.70107" lon="7.28357">
        <ele>11.00</ele>
        <time>2005-07-04T13:59:41.000Z</time>
      </trkpt>
      <trkpt lat="52.70253" lon="7.28220">
        <ele>12.00</ele>
        <time>2005-07-04T13:59:02.000Z</time>
      </trkpt>
      <trkpt lat="52.70281" lon="7.28207">
        <ele>12.00</ele>
        <time>2005-07-04T13:58:51.000Z</time>
      </trkpt>
      <trkpt lat="52.70818" lon="7.28123">
        <ele>11.00</ele>
        <time>2005-07-04T13:57:02.000Z</time>
      </trkpt>
      <trkpt lat="52.70974" lon="7.28052">
        <ele>10.00</ele>
        <time>2005-07-04T13:56:31.000Z</time>
      </trkpt>
      <trkpt lat="52.71064" lon="7.27986">
        <ele>10.00</ele>
        <time>2005-07-04T13:56:12.000Z</time>
      </trkpt>
      <trkpt lat="52.71163" lon="7.27883">
        <ele>10.00</ele>
        <time>2005-07-04T13:55:50.000Z</time>
      </trkpt>
      <trkpt lat="52.71330" lon="7.27615">
        <ele>9.00</ele>
        <time>2005-07-04T13:55:06.000Z</time>
      </trkpt>
      <trkpt lat="52.71375" lon="7.27510">
        <ele>9.00</ele>
        <time>2005-07-04T13:54:48.000Z</time>
      </trkpt>
      <trkpt lat="52.71350" lon="7.27432">
        <ele>9.00</ele>
        <time>2005-07-04T13:54:28.000Z</time>
      </trkpt>
      <trkpt lat="52.71315" lon="7.27366">
        <ele>9.00</ele>
        <time>2005-07-04T13:54:12.000Z</time>
      </trkpt>
      <trkpt lat="52.71300" lon="7.27010">
        <ele>9.00</ele>
        <time>2005-07-04T13:53:27.000Z</time>
      </trkpt>
      <trkpt lat="52.71300" lon="7.26937">
        <ele>10.00</ele>
        <time>2005-07-04T13:53:06.000Z</time>
      </trkpt>
      <trkpt lat="52.71322" lon="7.26864">
        <ele>10.00</ele>
        <time>2005-07-04T13:52:48.000Z</time>
      </trkpt>
      <trkpt lat="52.71371" lon="7.26746">
        <ele>10.00</ele>
        <time>2005-07-04T13:52:07.000Z</time>
      </trkpt>
      <trkpt lat="52.71369" lon="7.26480">
        <ele>11.00</ele>
        <time>2005-07-04T13:51:19.000Z</time>
      </trkpt>
      <trkpt lat="52.71365" lon="7.26471">
        <ele>11.00</ele>
        <time>2005-07-04T13:51:17.000Z</time>
      </trkpt>
      <trkpt lat="52.71363" lon="7.26449">
        <ele>11.00</ele>
        <time>2005-07-04T13:51:13.000Z</time>
      </trkpt>
      <trkpt lat="52.71365" lon="7.26430">
        <ele>11.00</ele>
        <time>2005-07-04T13:51:09.000Z</time>
      </trkpt>
      <trkpt lat="52.71352" lon="7.26164">
        <ele>10.00</ele>
        <time>2005-07-04T13:50:27.000Z</time>
      </trkpt>
      <trkpt lat="52.71363" lon="7.25932">
        <ele>10.00</ele>
        <time>2005-07-04T13:49:49.000Z</time>
      </trkpt>
      <trkpt lat="52.71354" lon="7.25821">
        <ele>10.00</ele>
        <time>2005-07-04T13:49:31.000Z</time>
      </trkpt>
      <trkpt lat="52.71281" lon="7.25651">
        <ele>10.00</ele>
        <time>2005-07-04T13:49:00.000Z</time>
      </trkpt>
      <trkpt lat="52.71262" lon="7.25570">
        <ele>10.00</ele>
        <time>2005-07-04T13:48:45.000Z</time>
      </trkpt>
      <trkpt lat="52.71262" lon="7.25550">
        <ele>10.00</ele>
        <time>2005-07-04T13:48:42.000Z</time>
      </trkpt>
      <trkpt lat="52.71287" lon="7.25542">
        <ele>10.00</ele>
        <time>2005-07-04T13:48:35.000Z</time>
      </trkpt>
      <trkpt lat="52.71322" lon="7.25604">
        <ele>10.00</ele>
        <time>2005-07-04T13:48:24.000Z</time>
      </trkpt>
      <trkpt lat="52.71384" lon="7.25662">
        <ele>11.00</ele>
        <time>2005-07-04T13:48:08.000Z</time>
      </trkpt>
      <trkpt lat="52.71481" lon="7.25692">
        <ele>11.00</ele>
        <time>2005-07-04T13:47:46.000Z</time>
      </trkpt>
      <trkpt lat="52.71704" lon="7.25698">
        <ele>10.00</ele>
        <time>2005-07-04T13:46:58.000Z</time>
      </trkpt>
      <trkpt lat="52.71721" lon="7.25675">
        <ele>10.00</ele>
        <time>2005-07-04T13:46:52.000Z</time>
      </trkpt>
      <trkpt lat="52.71691" lon="7.25192">
        <ele>10.00</ele>
        <time>2005-07-04T13:45:55.000Z</time>
      </trkpt>
      <trkpt lat="52.71551" lon="7.24400">
        <ele>10.00</ele>
        <time>2005-07-04T13:44:16.000Z</time>
      </trkpt>
      <trkpt lat="52.71560" lon="7.24362">
        <ele>10.00</ele>
        <time>2005-07-04T13:44:10.000Z</time>
      </trkpt>
      <trkpt lat="52.71577" lon="7.24349">
        <ele>10.00</ele>
        <time>2005-07-04T13:44:06.000Z</time>
      </trkpt>
      <trkpt lat="52.71590" lon="7.24325">
        <ele>10.00</ele>
        <time>2005-07-04T13:44:02.000Z</time>
      </trkpt>
      <trkpt lat="52.71599" lon="7.24282">
        <ele>10.00</ele>
        <time>2005-07-04T13:43:56.000Z</time>
      </trkpt>
      <trkpt lat="52.71596" lon="7.24061">
        <ele>10.00</ele>
        <time>2005-07-04T13:41:14.000Z</time>
      </trkpt>
      <trkpt lat="52.71639" lon="7.24033">
        <ele>11.00</ele>
        <time>2005-07-04T13:41:01.000Z</time>
      </trkpt>
      <trkpt lat="52.71742" lon="7.23995">
        <ele>11.00</ele>
        <time>2005-07-04T13:40:41.000Z</time>
      </trkpt>
      <trkpt lat="52.71764" lon="7.23995">
        <ele>11.00</ele>
        <time>2005-07-04T13:40:36.000Z</time>
      </trkpt>
      <trkpt lat="52.71781" lon="7.24033">
        <ele>10.00</ele>
        <time>2005-07-04T13:40:27.000Z</time>
      </trkpt>
      <trkpt lat="52.71770" lon="7.24081">
        <ele>12.00</ele>
        <time>2005-07-04T13:40:19.000Z</time>
      </trkpt>
      <trkpt lat="52.71790" lon="7.24091">
        <ele>11.00</ele>
        <time>2005-07-04T13:40:11.000Z</time>
      </trkpt>
      <trkpt lat="52.71830" lon="7.24055">
        <ele>10.00</ele>
        <time>2005-07-04T13:39:58.000Z</time>
      </trkpt>
      <trkpt lat="52.71880" lon="7.24055">
        <ele>10.00</ele>
        <time>2005-07-04T13:39:43.000Z</time>
      </trkpt>
      <trkpt lat="52.71899" lon="7.24169">
        <ele>11.00</ele>
        <time>2005-07-04T13:39:26.000Z</time>
      </trkpt>
      <trkpt lat="52.71935" lon="7.24274">
        <ele>10.00</ele>
        <time>2005-07-04T13:39:09.000Z</time>
      </trkpt>
      <trkpt lat="52.71993" lon="7.24349">
        <ele>10.00</ele>
        <time>2005-07-04T13:38:54.000Z</time>
      </trkpt>
      <trkpt lat="52.72075" lon="7.24503">
        <ele>11.00</ele>
        <time>2005-07-04T13:38:29.000Z</time>
      </trkpt>
      <trkpt lat="52.72079" lon="7.24520">
        <ele>11.00</ele>
        <time>2005-07-04T13:38:27.000Z</time>
      </trkpt>
      <trkpt lat="52.72084" lon="7.24613">
        <ele>10.00</ele>
        <time>2005-07-04T13:38:15.000Z</time>
      </trkpt>
      <trkpt lat="52.72206" lon="7.24967">
        <ele>10.00</ele>
        <time>2005-07-04T13:37:20.000Z</time>
      </trkpt>
      <trkpt lat="52.72504" lon="7.25329">
        <ele>12.00</ele>
        <time>2005-07-04T13:36:05.000Z</time>
      </trkpt>
      <trkpt lat="52.72586" lon="7.25359">
        <ele>11.00</ele>
        <time>2005-07-04T13:35:46.000Z</time>
      </trkpt>
      <trkpt lat="52.72852" lon="7.25359">
        <ele>11.00</ele>
        <time>2005-07-04T13:34:50.000Z</time>
      </trkpt>
      <trkpt lat="52.73118" lon="7.25347">
        <ele>13.00</ele>
        <time>2005-07-04T13:33:54.000Z</time>
      </trkpt>
      <trkpt lat="52.73159" lon="7.25392">
        <ele>12.00</ele>
        <time>2005-07-04T13:33:44.000Z</time>
      </trkpt>
      <trkpt lat="52.73208" lon="7.25606">
        <ele>12.00</ele>
        <time>2005-07-04T13:33:18.000Z</time>
      </trkpt>
      <trkpt lat="52.73208" lon="7.25851">
        <ele>12.00</ele>
        <time>2005-07-04T13:32:50.000Z</time>
      </trkpt>
      <trkpt lat="52.73227" lon="7.25926">
        <ele>14.00</ele>
        <time>2005-07-04T13:32:40.000Z</time>
      </trkpt>
      <trkpt lat="52.73270" lon="7.25992">
        <ele>16.00</ele>
        <time>2005-07-04T13:32:24.000Z</time>
      </trkpt>
      <trkpt lat="52.73319" lon="7.25870">
        <ele>15.00</ele>
        <time>2005-07-04T13:31:57.000Z</time>
      </trkpt>
      <trkpt lat="52.73403" lon="7.25786">
        <ele>14.00</ele>
        <time>2005-07-04T13:31:35.000Z</time>
      </trkpt>
      <trkpt lat="52.73474" lon="7.25683">
        <ele>14.00</ele>
        <time>2005-07-04T13:31:16.000Z</time>
      </trkpt>
      <trkpt lat="52.73680" lon="7.25186">
        <ele>12.00</ele>
        <time>2005-07-04T13:30:07.000Z</time>
      </trkpt>
      <trkpt lat="52.73828" lon="7.24984">
        <ele>11.00</ele>
        <time>2005-07-04T13:29:30.000Z</time>
      </trkpt>
      <trkpt lat="52.73837" lon="7.24977">
        <ele>11.00</ele>
        <time>2005-07-04T13:29:28.000Z</time>
      </trkpt>
      <trkpt lat="52.73856" lon="7.24975">
        <ele>11.00</ele>
        <time>2005-07-04T13:29:24.000Z</time>
      </trkpt>
      <trkpt lat="52.73880" lon="7.24990">
        <ele>11.00</ele>
        <time>2005-07-04T13:29:19.000Z</time>
      </trkpt>
      <trkpt lat="52.73892" lon="7.25005">
        <ele>11.00</ele>
        <time>2005-07-04T13:29:16.000Z</time>
      </trkpt>
      <trkpt lat="52.73920" lon="7.25055">
        <ele>11.00</ele>
        <time>2005-07-04T13:29:07.000Z</time>
      </trkpt>
      <trkpt lat="52.73976" lon="7.25239">
        <ele>10.00</ele>
        <time>2005-07-04T13:28:40.000Z</time>
      </trkpt>
      <trkpt lat="52.73989" lon="7.25263">
        <ele>10.00</ele>
        <time>2005-07-04T13:27:18.000Z</time>
      </trkpt>
      <trkpt lat="52.74234" lon="7.25553">
        <ele>11.00</ele>
        <time>2005-07-04T13:26:14.000Z</time>
      </trkpt>
      <trkpt lat="52.74304" lon="7.25666">
        <ele>10.00</ele>
        <time>2005-07-04T13:25:53.000Z</time>
      </trkpt>
      <trkpt lat="52.74401" lon="7.25919">
        <ele>11.00</ele>
        <time>2005-07-04T13:25:17.000Z</time>
      </trkpt>
      <trkpt lat="52.74446" lon="7.25937">
        <ele>12.00</ele>
        <time>2005-07-04T13:25:06.000Z</time>
      </trkpt>
      <trkpt lat="52.74807" lon="7.25898">
        <ele>16.00</ele>
        <time>2005-07-04T13:23:46.000Z</time>
      </trkpt>
      <trkpt lat="52.74824" lon="7.25913">
        <ele>16.00</ele>
        <time>2005-07-04T13:23:41.000Z</time>
      </trkpt>
      <trkpt lat="52.74832" lon="7.26046">
        <ele>15.00</ele>
        <time>2005-07-04T13:23:18.000Z</time>
      </trkpt>
      <trkpt lat="52.74860" lon="7.26035">
        <ele>14.00</ele>
        <time>2005-07-04T13:23:08.000Z</time>
      </trkpt>
      <trkpt lat="52.74916" lon="7.26035">
        <ele>13.00</ele>
        <time>2005-07-04T13:22:53.000Z</time>
      </trkpt>
      <trkpt lat="52.75017" lon="7.26085">
        <ele>13.00</ele>
        <time>2005-07-04T13:22:29.000Z</time>
      </trkpt>
      <trkpt lat="52.75058" lon="7.26091">
        <ele>12.00</ele>
        <time>2005-07-04T13:18:48.000Z</time>
      </trkpt>
      <trkpt lat="52.75070" lon="7.26087">
        <ele>12.00</ele>
        <time>2005-07-04T13:18:34.000Z</time>
      </trkpt>
      <trkpt lat="52.75096" lon="7.26072">
        <ele>11.00</ele>
        <time>2005-07-04T13:18:24.000Z</time>
      </trkpt>
      <trkpt lat="52.75343" lon="7.26035">
        <ele>10.00</ele>
        <time>2005-07-04T13:17:33.000Z</time>
      </trkpt>
      <trkpt lat="52.75731" lon="7.25915">
        <ele>12.00</ele>
        <time>2005-07-04T13:16:06.000Z</time>
      </trkpt>
      <trkpt lat="52.75764" lon="7.25896">
        <ele>14.00</ele>
        <time>2005-07-04T13:15:51.000Z</time>
      </trkpt>
      <trkpt lat="52.75761" lon="7.25879">
        <ele>14.00</ele>
        <time>2005-07-04T13:15:03.000Z</time>
      </trkpt>
      <trkpt lat="52.75768" lon="7.25872">
        <ele>14.00</ele>
        <time>2005-07-04T13:14:27.000Z</time>
      </trkpt>
      <trkpt lat="52.75768" lon="7.25857">
        <ele>14.00</ele>
        <time>2005-07-04T13:14:10.000Z</time>
      </trkpt>
      <trkpt lat="52.75761" lon="7.25782">
        <ele>14.00</ele>
        <time>2005-07-04T13:13:54.000Z</time>
      </trkpt>
      <trkpt lat="52.75748" lon="7.25729">
        <ele>13.00</ele>
        <time>2005-07-04T13:13:39.000Z</time>
      </trkpt>
      <trkpt lat="52.75697" lon="7.25739">
        <ele>10.00</ele>
        <time>2005-07-04T13:13:22.000Z</time>
      </trkpt>
      <trkpt lat="52.75598" lon="7.25724">
        <ele>8.00</ele>
        <time>2005-07-04T13:13:00.000Z</time>
      </trkpt>
      <trkpt lat="52.75450" lon="7.25490">
        <ele>8.00</ele>
        <time>2005-07-04T13:12:20.000Z</time>
      </trkpt>
      <trkpt lat="52.75399" lon="7.25374">
        <ele>7.00</ele>
        <time>2005-07-04T13:12:04.000Z</time>
      </trkpt>
      <trkpt lat="52.75394" lon="7.25338">
        <ele>7.00</ele>
        <time>2005-07-04T13:12:00.000Z</time>
      </trkpt>
      <trkpt lat="52.75412" lon="7.25113">
        <ele>8.00</ele>
        <time>2005-07-04T13:11:34.000Z</time>
      </trkpt>
      <trkpt lat="52.75495" lon="7.25072">
        <ele>8.00</ele>
        <time>2005-07-04T13:11:15.000Z</time>
      </trkpt>
      <trkpt lat="52.75590" lon="7.24986">
        <ele>9.00</ele>
        <time>2005-07-04T13:10:55.000Z</time>
      </trkpt>
      <trkpt lat="52.75656" lon="7.24857">
        <ele>8.00</ele>
        <time>2005-07-04T13:10:35.000Z</time>
      </trkpt>
      <trkpt lat="52.75815" lon="7.23890">
        <ele>8.00</ele>
        <time>2005-07-04T13:08:50.000Z</time>
      </trkpt>
      <trkpt lat="52.75856" lon="7.23772">
        <ele>9.00</ele>
        <time>2005-07-04T13:08:32.000Z</time>
      </trkpt>
      <trkpt lat="52.75864" lon="7.23722">
        <ele>10.00</ele>
        <time>2005-07-04T13:08:25.000Z</time>
      </trkpt>
      <trkpt lat="52.75948" lon="7.23456">
        <ele>11.00</ele>
        <time>2005-07-04T13:07:32.000Z</time>
      </trkpt>
      <trkpt lat="52.75967" lon="7.23439">
        <ele>11.00</ele>
        <time>2005-07-04T13:07:20.000Z</time>
      </trkpt>
      <trkpt lat="52.76006" lon="7.23493">
        <ele>10.00</ele>
        <time>2005-07-04T13:07:01.000Z</time>
      </trkpt>
      <trkpt lat="52.76047" lon="7.23568">
        <ele>9.00</ele>
        <time>2005-07-04T13:06:45.000Z</time>
      </trkpt>
      <trkpt lat="52.76105" lon="7.23645">
        <ele>9.00</ele>
        <time>2005-07-04T13:06:29.000Z</time>
      </trkpt>
      <trkpt lat="52.76163" lon="7.23772">
        <ele>9.00</ele>
        <time>2005-07-04T13:06:08.000Z</time>
      </trkpt>
      <trkpt lat="52.76201" lon="7.23913">
        <ele>8.00</ele>
        <time>2005-07-04T13:05:46.000Z</time>
      </trkpt>
      <trkpt lat="52.76203" lon="7.23928">
        <ele>8.00</ele>
        <time>2005-07-04T13:05:44.000Z</time>
      </trkpt>
      <trkpt lat="52.76283" lon="7.24284">
        <ele>7.00</ele>
        <time>2005-07-04T13:04:55.000Z</time>
      </trkpt>
      <trkpt lat="52.76279" lon="7.24467">
        <ele>8.00</ele>
        <time>2005-07-04T13:04:30.000Z</time>
      </trkpt>
      <trkpt lat="52.76272" lon="7.24495">
        <ele>8.00</ele>
        <time>2005-07-04T13:04:26.000Z</time>
      </trkpt>
      <trkpt lat="52.76184" lon="7.24651">
        <ele>9.00</ele>
        <time>2005-07-04T13:04:02.000Z</time>
      </trkpt>
      <trkpt lat="52.76188" lon="7.24819">
        <ele>8.00</ele>
        <time>2005-07-04T13:03:42.000Z</time>
      </trkpt>
      <trkpt lat="52.76197" lon="7.24851">
        <ele>9.00</ele>
        <time>2005-07-04T13:03:37.000Z</time>
      </trkpt>
      <trkpt lat="52.76212" lon="7.24872">
        <ele>9.00</ele>
        <time>2005-07-04T13:03:32.000Z</time>
      </trkpt>
      <trkpt lat="52.76289" lon="7.24926">
        <ele>8.00</ele>
        <time>2005-07-04T13:03:06.000Z</time>
      </trkpt>
      <trkpt lat="52.76298" lon="7.24930">
        <ele>6.00</ele>
        <time>2005-07-04T13:00:16.000Z</time>
      </trkpt>
      <trkpt lat="52.76313" lon="7.24941">
        <ele>6.00</ele>
        <time>2005-07-04T12:59:57.000Z</time>
      </trkpt>
      <trkpt lat="52.76377" lon="7.24982">
        <ele>6.00</ele>
        <time>2005-07-04T12:59:19.000Z</time>
      </trkpt>
      <trkpt lat="52.76922" lon="7.25338">
        <ele>7.00</ele>
        <time>2005-07-04T12:57:22.000Z</time>
      </trkpt>
      <trkpt lat="52.77750" lon="7.25405">
        <ele>7.00</ele>
        <time>2005-07-04T12:54:45.000Z</time>
      </trkpt>
      <trkpt lat="52.77873" lon="7.25400">
        <ele>7.00</ele>
        <time>2005-07-04T12:54:22.000Z</time>
      </trkpt>
      <trkpt lat="52.78077" lon="7.25400">
        <ele>7.00</ele>
        <time>2005-07-04T12:53:41.000Z</time>
      </trkpt>
      <trkpt lat="52.78186" lon="7.25396">
        <ele>8.00</ele>
        <time>2005-07-04T12:53:20.000Z</time>
      </trkpt>
      <trkpt lat="52.78218" lon="7.25370">
        <ele>8.00</ele>
        <time>2005-07-04T12:53:13.000Z</time>
      </trkpt>
      <trkpt lat="52.78235" lon="7.25321">
        <ele>7.00</ele>
        <time>2005-07-04T12:53:06.000Z</time>
      </trkpt>
      <trkpt lat="52.78308" lon="7.25190">
        <ele>7.00</ele>
        <time>2005-07-04T12:52:45.000Z</time>
      </trkpt>
      <trkpt lat="52.78368" lon="7.25111">
        <ele>7.00</ele>
        <time>2005-07-04T12:52:28.000Z</time>
      </trkpt>
      <trkpt lat="52.78778" lon="7.24744">
        <ele>10.00</ele>
        <time>2005-07-04T12:50:41.000Z</time>
      </trkpt>
      <trkpt lat="52.78802" lon="7.24733">
        <ele>10.00</ele>
        <time>2005-07-04T12:48:52.000Z</time>
      </trkpt>
      <trkpt lat="52.78823" lon="7.24720">
        <ele>10.00</ele>
        <time>2005-07-04T12:48:30.000Z</time>
      </trkpt>
      <trkpt lat="52.78836" lon="7.24716">
        <ele>10.00</ele>
        <time>2005-07-04T12:48:10.000Z</time>
      </trkpt>
      <trkpt lat="52.78849" lon="7.24705">
        <ele>9.00</ele>
        <time>2005-07-04T12:47:41.000Z</time>
      </trkpt>
      <trkpt lat="52.78995" lon="7.24679">
        <ele>12.00</ele>
        <time>2005-07-04T12:47:11.000Z</time>
      </trkpt>
      <trkpt lat="52.79008" lon="7.24681">
        <ele>12.00</ele>
        <time>2005-07-04T12:47:07.000Z</time>
      </trkpt>
      <trkpt lat="52.79004" lon="7.24677">
        <ele>12.00</ele>
        <time>2005-07-04T11:53:39.000Z</time>
      </trkpt>
      <trkpt lat="52.79368" lon="7.24737">
        <ele>9.00</ele>
        <time>2005-07-04T11:52:03.000Z</time>
      </trkpt>
      <trkpt lat="52.79386" lon="7.24750">
        <ele>8.00</ele>
        <time>2005-07-04T11:51:59.000Z</time>
      </trkpt>
      <trkpt lat="52.79493" lon="7.24945">
        <ele>10.00</ele>
        <time>2005-07-04T11:51:29.000Z</time>
      </trkpt>
      <trkpt lat="52.79525" lon="7.24956">
        <ele>11.00</ele>
        <time>2005-07-04T11:51:22.000Z</time>
      </trkpt>
      <trkpt lat="52.79802" lon="7.24495">
        <ele>11.00</ele>
        <time>2005-07-04T11:50:10.000Z</time>
      </trkpt>
      <trkpt lat="52.79825" lon="7.24488">
        <ele>10.00</ele>
        <time>2005-07-04T11:50:04.000Z</time>
      </trkpt>
      <trkpt lat="52.79866" lon="7.24538">
        <ele>11.00</ele>
        <time>2005-07-04T11:49:53.000Z</time>
      </trkpt>
      <trkpt lat="52.79894" lon="7.24542">
        <ele>10.00</ele>
        <time>2005-07-04T11:49:47.000Z</time>
      </trkpt>
      <trkpt lat="52.79969" lon="7.24497">
        <ele>9.00</ele>
        <time>2005-07-04T11:49:31.000Z</time>
      </trkpt>
      <trkpt lat="52.80006" lon="7.24505">
        <ele>9.00</ele>
        <time>2005-07-04T11:49:24.000Z</time>
      </trkpt>
      <trkpt lat="52.80074" lon="7.24540">
        <ele>10.00</ele>
        <time>2005-07-04T11:49:09.000Z</time>
      </trkpt>
      <trkpt lat="52.80304" lon="7.22971">
        <ele>10.00</ele>
        <time>2005-07-04T11:39:58.000Z</time>
      </trkpt>
      <trkpt lat="52.80315" lon="7.22881">
        <ele>6.00</ele>
        <time>2005-07-04T11:17:24.000Z</time>
      </trkpt>
      <trkpt lat="52.80328" lon="7.22892">
        <ele>6.00</ele>
        <time>2005-07-04T11:16:53.000Z</time>
      </trkpt>
      <trkpt lat="52.80645" lon="7.22999">
        <ele>6.00</ele>
        <time>2005-07-04T11:15:42.000Z</time>
      </trkpt>
      <trkpt lat="52.80782" lon="7.23029">
        <ele>6.00</ele>
        <time>2005-07-04T11:15:17.000Z</time>
      </trkpt>
      <trkpt lat="52.80868" lon="7.23078">
        <ele>6.00</ele>
        <time>2005-07-04T11:15:00.000Z</time>
      </trkpt>
      <trkpt lat="52.81461" lon="7.23750">
        <ele>7.00</ele>
        <time>2005-07-04T11:12:44.000Z</time>
      </trkpt>
      <trkpt lat="52.81913" lon="7.24827">
        <ele>7.00</ele>
        <time>2005-07-04T11:10:14.000Z</time>
      </trkpt>
      <trkpt lat="52.81928" lon="7.24838">
        <ele>6.00</ele>
        <time>2005-07-04T11:10:10.000Z</time>
      </trkpt>
      <trkpt lat="52.81980" lon="7.24806">
        <ele>6.00</ele>
        <time>2005-07-04T11:09:59.000Z</time>
      </trkpt>
      <trkpt lat="52.82021" lon="7.24819">
        <ele>6.00</ele>
        <time>2005-07-04T11:09:50.000Z</time>
      </trkpt>
      <trkpt lat="52.82104" lon="7.24958">
        <ele>6.00</ele>
        <time>2005-07-04T11:09:27.000Z</time>
      </trkpt>
      <trkpt lat="52.82342" lon="7.25211">
        <ele>5.00</ele>
        <time>2005-07-04T11:08:36.000Z</time>
      </trkpt>
      <trkpt lat="52.82448" lon="7.25398">
        <ele>5.00</ele>
        <time>2005-07-04T11:08:08.000Z</time>
      </trkpt>
      <trkpt lat="52.82467" lon="7.25456">
        <ele>5.00</ele>
        <time>2005-07-04T11:07:59.000Z</time>
      </trkpt>
      <trkpt lat="52.82514" lon="7.25480">
        <ele>5.00</ele>
        <time>2005-07-04T11:07:49.000Z</time>
      </trkpt>
      <trkpt lat="52.82583" lon="7.25488">
        <ele>5.00</ele>
        <time>2005-07-04T11:07:36.000Z</time>
      </trkpt>
      <trkpt lat="52.83387" lon="7.25458">
        <ele>8.00</ele>
        <time>2005-07-04T11:05:11.000Z</time>
      </trkpt>
      <trkpt lat="52.83394" lon="7.25477">
        <ele>8.00</ele>
        <time>2005-07-04T11:05:05.000Z</time>
      </trkpt>
      <trkpt lat="52.83334" lon="7.25550">
        <ele>6.00</ele>
        <time>2005-07-04T11:04:50.000Z</time>
      </trkpt>
      <trkpt lat="52.83312" lon="7.25602">
        <ele>6.00</ele>
        <time>2005-07-04T11:04:42.000Z</time>
      </trkpt>
      <trkpt lat="52.83308" lon="7.25623">
        <ele>7.00</ele>
        <time>2005-07-04T11:04:39.000Z</time>
      </trkpt>
      <trkpt lat="52.83306" lon="7.25666">
        <ele>6.00</ele>
        <time>2005-07-04T11:04:33.000Z</time>
      </trkpt>
      <trkpt lat="52.83342" lon="7.25791">
        <ele>6.00</ele>
        <time>2005-07-04T11:04:04.000Z</time>
      </trkpt>
      <trkpt lat="52.83370" lon="7.25819">
        <ele>6.00</ele>
        <time>2005-07-04T11:03:53.000Z</time>
      </trkpt>
      <trkpt lat="52.83424" lon="7.25851">
        <ele>6.00</ele>
        <time>2005-07-04T11:03:40.000Z</time>
      </trkpt>
      <trkpt lat="52.83531" lon="7.25969">
        <ele>6.00</ele>
        <time>2005-07-04T11:03:18.000Z</time>
      </trkpt>
      <trkpt lat="52.83583" lon="7.26057">
        <ele>6.00</ele>
        <time>2005-07-04T11:03:05.000Z</time>
      </trkpt>
      <trkpt lat="52.83669" lon="7.26259">
        <ele>6.00</ele>
        <time>2005-07-04T11:02:39.000Z</time>
      </trkpt>
      <trkpt lat="52.83733" lon="7.26482">
        <ele>6.00</ele>
        <time>2005-07-04T11:02:06.000Z</time>
      </trkpt>
      <trkpt lat="52.83737" lon="7.26488">
        <ele>6.00</ele>
        <time>2005-07-04T11:00:15.000Z</time>
      </trkpt>
      <trkpt lat="52.83746" lon="7.26542">
        <ele>7.00</ele>
        <time>2005-07-04T10:59:53.000Z</time>
      </trkpt>
      <trkpt lat="52.83741" lon="7.26552">
        <ele>7.00</ele>
        <time>2005-07-04T10:59:08.000Z</time>
      </trkpt>
      <trkpt lat="52.83690" lon="7.26574">
        <ele>8.00</ele>
        <time>2005-07-04T10:58:49.000Z</time>
      </trkpt>
      <trkpt lat="52.83600" lon="7.26604">
        <ele>6.00</ele>
        <time>2005-07-04T10:58:27.000Z</time>
      </trkpt>
      <trkpt lat="52.83407" lon="7.26606">
        <ele>6.00</ele>
        <time>2005-07-04T10:57:51.000Z</time>
      </trkpt>
      <trkpt lat="52.83387" lon="7.26613">
        <ele>6.00</ele>
        <time>2005-07-04T10:57:47.000Z</time>
      </trkpt>
      <trkpt lat="52.83201" lon="7.26831">
        <ele>5.00</ele>
        <time>2005-07-04T10:57:01.000Z</time>
      </trkpt>
      <trkpt lat="52.83196" lon="7.26883">
        <ele>5.00</ele>
        <time>2005-07-04T10:56:50.000Z</time>
      </trkpt>
      <trkpt lat="52.83207" lon="7.26982">
        <ele>6.00</ele>
        <time>2005-07-04T10:56:35.000Z</time>
      </trkpt>
      <trkpt lat="52.83211" lon="7.26995">
        <ele>6.00</ele>
        <time>2005-07-04T10:56:33.000Z</time>
      </trkpt>
      <trkpt lat="52.83257" lon="7.27072">
        <ele>5.00</ele>
        <time>2005-07-04T10:56:18.000Z</time>
      </trkpt>
      <trkpt lat="52.83257" lon="7.27155">
        <ele>5.00</ele>
        <time>2005-07-04T10:56:08.000Z</time>
      </trkpt>
      <trkpt lat="52.83235" lon="7.27394">
        <ele>6.00</ele>
        <time>2005-07-04T10:55:36.000Z</time>
      </trkpt>
      <trkpt lat="52.83235" lon="7.27570">
        <ele>7.00</ele>
        <time>2005-07-04T10:55:09.000Z</time>
      </trkpt>
      <trkpt lat="52.83319" lon="7.27645">
        <ele>10.00</ele>
        <time>2005-07-04T10:54:34.000Z</time>
      </trkpt>
      <trkpt lat="52.83289" lon="7.27750">
        <ele>12.00</ele>
        <time>2005-07-04T10:54:10.000Z</time>
      </trkpt>
      <trkpt lat="52.83284" lon="7.27756">
        <ele>11.00</ele>
        <time>2005-07-04T10:53:01.000Z</time>
      </trkpt>
      <trkpt lat="52.83265" lon="7.27795">
        <ele>12.00</ele>
        <time>2005-07-04T10:52:31.000Z</time>
      </trkpt>
      <trkpt lat="52.83267" lon="7.27803">
        <ele>11.00</ele>
        <time>2005-07-04T10:52:13.000Z</time>
      </trkpt>
      <trkpt lat="52.83224" lon="7.27902">
        <ele>9.00</ele>
        <time>2005-07-04T10:51:42.000Z</time>
      </trkpt>
      <trkpt lat="52.83216" lon="7.27915">
        <ele>8.00</ele>
        <time>2005-07-04T10:51:39.000Z</time>
      </trkpt>
      <trkpt lat="52.83211" lon="7.27919">
        <ele>8.00</ele>
        <time>2005-07-04T10:51:38.000Z</time>
      </trkpt>
      <trkpt lat="52.83207" lon="7.27960">
        <ele>7.00</ele>
        <time>2005-07-04T10:51:31.000Z</time>
      </trkpt>
      <trkpt lat="52.83278" lon="7.28074">
        <ele>6.00</ele>
        <time>2005-07-04T10:51:11.000Z</time>
      </trkpt>
      <trkpt lat="52.83293" lon="7.28091">
        <ele>6.00</ele>
        <time>2005-07-04T10:51:07.000Z</time>
      </trkpt>
      <trkpt lat="52.83480" lon="7.28027">
        <ele>6.00</ele>
        <time>2005-07-04T10:50:26.000Z</time>
      </trkpt>
      <trkpt lat="52.83486" lon="7.28031">
        <ele>5.00</ele>
        <time>2005-07-04T10:41:23.000Z</time>
      </trkpt>
      <trkpt lat="52.83299" lon="7.28093">
        <ele>5.00</ele>
        <time>2005-07-04T10:40:24.000Z</time>
      </trkpt>
      <trkpt lat="52.83308" lon="7.28087">
        <ele>6.00</ele>
        <time>2005-07-04T10:39:56.000Z</time>
      </trkpt>
      <trkpt lat="52.83486" lon="7.28029">
        <ele>4.00</ele>
        <time>2005-07-04T10:38:50.000Z</time>
      </trkpt>
      <trkpt lat="52.83499" lon="7.28035">
        <ele>6.00</ele>
        <time>2005-07-04T10:35:42.000Z</time>
      </trkpt>
      <trkpt lat="52.84113" lon="7.29123">
        <ele>5.00</ele>
        <time>2005-07-04T10:32:38.000Z</time>
      </trkpt>
      <trkpt lat="52.84602" lon="7.29994">
        <ele>4.00</ele>
        <time>2005-07-04T10:30:18.000Z</time>
      </trkpt>
      <trkpt lat="52.84829" lon="7.30617">
        <ele>4.00</ele>
        <time>2005-07-04T10:28:54.000Z</time>
      </trkpt>
      <trkpt lat="52.84980" lon="7.30745">
        <ele>3.00</ele>
        <time>2005-07-04T10:28:21.000Z</time>
      </trkpt>
      <trkpt lat="52.85121" lon="7.30775">
        <ele>3.00</ele>
        <time>2005-07-04T10:27:57.000Z</time>
      </trkpt>
      <trkpt lat="52.85254" lon="7.30754">
        <ele>3.00</ele>
        <time>2005-07-04T10:27:34.000Z</time>
      </trkpt>
      <trkpt lat="52.85374" lon="7.30662">
        <ele>4.00</ele>
        <time>2005-07-04T10:27:11.000Z</time>
      </trkpt>
      <trkpt lat="52.85583" lon="7.30417">
        <ele>3.00</ele>
        <time>2005-07-04T10:26:23.000Z</time>
      </trkpt>
      <trkpt lat="52.85606" lon="7.30413">
        <ele>3.00</ele>
        <time>2005-07-04T10:26:18.000Z</time>
      </trkpt>
      <trkpt lat="52.86091" lon="7.31213">
        <ele>5.00</ele>
        <time>2005-07-04T10:24:01.000Z</time>
      </trkpt>
      <trkpt lat="52.86076" lon="7.31280">
        <ele>5.00</ele>
        <time>2005-07-04T10:23:51.000Z</time>
      </trkpt>
      <trkpt lat="52.86074" lon="7.31395">
        <ele>7.00</ele>
        <time>2005-07-04T10:23:37.000Z</time>
      </trkpt>
      <trkpt lat="52.86083" lon="7.31419">
        <ele>7.00</ele>
        <time>2005-07-04T10:23:33.000Z</time>
      </trkpt>
      <trkpt lat="52.86110" lon="7.31430">
        <ele>7.00</ele>
        <time>2005-07-04T10:23:27.000Z</time>
      </trkpt>
      <trkpt lat="52.86170" lon="7.31430">
        <ele>8.00</ele>
        <time>2005-07-04T10:23:12.000Z</time>
      </trkpt>
      <trkpt lat="52.86177" lon="7.31434">
        <ele>8.00</ele>
        <time>2005-07-04T10:23:08.000Z</time>
      </trkpt>
      <trkpt lat="52.86181" lon="7.31486">
        <ele>8.00</ele>
        <time>2005-07-04T10:22:58.000Z</time>
      </trkpt>
      <trkpt lat="52.86168" lon="7.31563">
        <ele>7.00</ele>
        <time>2005-07-04T10:22:46.000Z</time>
      </trkpt>
      <trkpt lat="52.86173" lon="7.31590">
        <ele>7.00</ele>
        <time>2005-07-04T10:22:38.000Z</time>
      </trkpt>
      <trkpt lat="52.86355" lon="7.31531">
        <ele>7.00</ele>
        <time>2005-07-04T10:20:47.000Z</time>
      </trkpt>
      <trkpt lat="52.86417" lon="7.31556">
        <ele>6.00</ele>
        <time>2005-07-04T10:20:30.000Z</time>
      </trkpt>
      <trkpt lat="52.86591" lon="7.31574">
        <ele>6.00</ele>
        <time>2005-07-04T10:19:44.000Z</time>
      </trkpt>
      <trkpt lat="52.86634" lon="7.31586">
        <ele>5.00</ele>
        <time>2005-07-04T10:19:30.000Z</time>
      </trkpt>
      <trkpt lat="52.86651" lon="7.31593">
        <ele>6.00</ele>
        <time>2005-07-04T10:08:08.000Z</time>
      </trkpt>
      <trkpt lat="52.86731" lon="7.31679">
        <ele>5.00</ele>
        <time>2005-07-04T10:07:51.000Z</time>
      </trkpt>
      <trkpt lat="52.86756" lon="7.31696">
        <ele>5.00</ele>
        <time>2005-07-04T10:07:46.000Z</time>
      </trkpt>
      <trkpt lat="52.86842" lon="7.31726">
        <ele>8.00</ele>
        <time>2005-07-04T10:07:32.000Z</time>
      </trkpt>
      <trkpt lat="52.87121" lon="7.31692">
        <ele>7.00</ele>
        <time>2005-07-04T10:06:04.000Z</time>
      </trkpt>
      <trkpt lat="52.87250" lon="7.31762">
        <ele>7.00</ele>
        <time>2005-07-04T10:05:41.000Z</time>
      </trkpt>
      <trkpt lat="52.87280" lon="7.31771">
        <ele>6.00</ele>
        <time>2005-07-04T10:05:36.000Z</time>
      </trkpt>
      <trkpt lat="52.87600" lon="7.31692">
        <ele>7.00</ele>
        <time>2005-07-04T10:04:40.000Z</time>
      </trkpt>
      <trkpt lat="52.87818" lon="7.31574">
        <ele>8.00</ele>
        <time>2005-07-04T10:03:56.000Z</time>
      </trkpt>
      <trkpt lat="52.88445" lon="7.31483">
        <ele>9.00</ele>
        <time>2005-07-04T10:01:53.000Z</time>
      </trkpt>
      <trkpt lat="52.88466" lon="7.31486">
        <ele>10.00</ele>
        <time>2005-07-04T10:01:48.000Z</time>
      </trkpt>
      <trkpt lat="52.88651" lon="7.31443">
        <ele>5.00</ele>
        <time>2005-07-04T10:01:06.000Z</time>
      </trkpt>
      <trkpt lat="52.89376" lon="7.31359">
        <ele>6.00</ele>
        <time>2005-07-04T09:59:03.000Z</time>
      </trkpt>
      <trkpt lat="52.89486" lon="7.31365">
        <ele>8.00</ele>
        <time>2005-07-04T09:58:44.000Z</time>
      </trkpt>
      <trkpt lat="52.89612" lon="7.31301">
        <ele>7.00</ele>
        <time>2005-07-04T09:58:14.000Z</time>
      </trkpt>
      <trkpt lat="52.89765" lon="7.31277">
        <ele>5.00</ele>
        <time>2005-07-04T09:57:47.000Z</time>
      </trkpt>
      <trkpt lat="52.89827" lon="7.31305">
        <ele>6.00</ele>
        <time>2005-07-04T09:57:35.000Z</time>
      </trkpt>
      <trkpt lat="52.89981" lon="7.31258">
        <ele>5.00</ele>
        <time>2005-07-04T09:57:05.000Z</time>
      </trkpt>
      <trkpt lat="52.90200" lon="7.31224">
        <ele>4.00</ele>
        <time>2005-07-04T09:56:22.000Z</time>
      </trkpt>
      <trkpt lat="52.90239" lon="7.31232">
        <ele>4.00</ele>
        <time>2005-07-04T09:56:13.000Z</time>
      </trkpt>
      <trkpt lat="52.90241" lon="7.31260">
        <ele>4.00</ele>
        <time>2005-07-04T09:56:09.000Z</time>
      </trkpt>
      <trkpt lat="52.90254" lon="7.31267">
        <ele>4.00</ele>
        <time>2005-07-04T09:56:05.000Z</time>
      </trkpt>
      <trkpt lat="52.90396" lon="7.31200">
        <ele>4.00</ele>
        <time>2005-07-04T09:55:20.000Z</time>
      </trkpt>
      <trkpt lat="52.90477" lon="7.31211">
        <ele>3.00</ele>
        <time>2005-07-04T09:55:01.000Z</time>
      </trkpt>
      <trkpt lat="52.90707" lon="7.31380">
        <ele>2.00</ele>
        <time>2005-07-04T09:54:14.000Z</time>
      </trkpt>
      <trkpt lat="52.90790" lon="7.31406">
        <ele>2.00</ele>
        <time>2005-07-04T09:53:57.000Z</time>
      </trkpt>
      <trkpt lat="52.90803" lon="7.31385">
        <ele>1.00</ele>
        <time>2005-07-04T09:53:51.000Z</time>
      </trkpt>
      <trkpt lat="52.90814" lon="7.31344">
        <ele>1.00</ele>
        <time>2005-07-04T09:53:46.000Z</time>
      </trkpt>
      <trkpt lat="52.90833" lon="7.31325">
        <ele>0.00</ele>
        <time>2005-07-04T09:53:42.000Z</time>
      </trkpt>
      <trkpt lat="52.90844" lon="7.31325">
        <ele>0.00</ele>
        <time>2005-07-04T09:53:40.000Z</time>
      </trkpt>
      <trkpt lat="52.90990" lon="7.31376">
        <ele>1.00</ele>
        <time>2005-07-04T09:53:13.000Z</time>
      </trkpt>
      <trkpt lat="52.91084" lon="7.31370">
        <ele>1.00</ele>
        <time>2005-07-04T09:52:57.000Z</time>
      </trkpt>
      <trkpt lat="52.91179" lon="7.31310">
        <ele>0.00</ele>
        <time>2005-07-04T09:52:40.000Z</time>
      </trkpt>
      <trkpt lat="52.91286" lon="7.31114">
        <ele>0.00</ele>
        <time>2005-07-04T09:52:15.000Z</time>
      </trkpt>
      <trkpt lat="52.91327" lon="7.30938">
        <ele>0.00</ele>
        <time>2005-07-04T09:51:56.000Z</time>
      </trkpt>
      <trkpt lat="52.91368" lon="7.30488">
        <ele>0.00</ele>
        <time>2005-07-04T09:51:12.000Z</time>
      </trkpt>
      <trkpt lat="52.91410" lon="7.30297">
        <ele>0.00</ele>
        <time>2005-07-04T09:50:52.000Z</time>
      </trkpt>
      <trkpt lat="52.91468" lon="7.30168">
        <ele>0.00</ele>
        <time>2005-07-04T09:50:36.000Z</time>
      </trkpt>
      <trkpt lat="52.91574" lon="7.30080">
        <ele>1.00</ele>
        <time>2005-07-04T09:50:17.000Z</time>
      </trkpt>
      <trkpt lat="52.91677" lon="7.30046">
        <ele>2.00</ele>
        <time>2005-07-04T09:49:59.000Z</time>
      </trkpt>
      <trkpt lat="52.91812" lon="7.30072">
        <ele>1.00</ele>
        <time>2005-07-04T09:49:36.000Z</time>
      </trkpt>
      <trkpt lat="52.92267" lon="7.30256">
        <ele>2.00</ele>
        <time>2005-07-04T09:48:14.000Z</time>
      </trkpt>
      <trkpt lat="52.92367" lon="7.30248">
        <ele>2.00</ele>
        <time>2005-07-04T09:47:54.000Z</time>
      </trkpt>
      <trkpt lat="52.92436" lon="7.30213">
        <ele>2.00</ele>
        <time>2005-07-04T09:47:40.000Z</time>
      </trkpt>
      <trkpt lat="52.92498" lon="7.30273">
        <ele>2.00</ele>
        <time>2005-07-04T09:47:23.000Z</time>
      </trkpt>
      <trkpt lat="52.92511" lon="7.30344">
        <ele>3.00</ele>
        <time>2005-07-04T09:47:13.000Z</time>
      </trkpt>
      <trkpt lat="52.92533" lon="7.30368">
        <ele>3.00</ele>
        <time>2005-07-04T09:47:07.000Z</time>
      </trkpt>
      <trkpt lat="52.92550" lon="7.30342">
        <ele>3.00</ele>
        <time>2005-07-04T09:47:01.000Z</time>
      </trkpt>
      <trkpt lat="52.92543" lon="7.30280">
        <ele>4.00</ele>
        <time>2005-07-04T09:46:55.000Z</time>
      </trkpt>
      <trkpt lat="52.92473" lon="7.30102">
        <ele>8.00</ele>
        <time>2005-07-04T09:46:24.000Z</time>
      </trkpt>
      <trkpt lat="52.92425" lon="7.30003">
        <ele>6.00</ele>
        <time>2005-07-04T09:46:04.000Z</time>
      </trkpt>
      <trkpt lat="52.92413" lon="7.29943">
        <ele>5.00</ele>
        <time>2005-07-04T09:45:55.000Z</time>
      </trkpt>
      <trkpt lat="52.92443" lon="7.29842">
        <ele>4.00</ele>
        <time>2005-07-04T09:45:38.000Z</time>
      </trkpt>
      <trkpt lat="52.92475" lon="7.29801">
        <ele>3.00</ele>
        <time>2005-07-04T09:45:29.000Z</time>
      </trkpt>
      <trkpt lat="52.92546" lon="7.29760">
        <ele>3.00</ele>
        <time>2005-07-04T09:45:07.000Z</time>
      </trkpt>
      <trkpt lat="52.92610" lon="7.29660">
        <ele>3.00</ele>
        <time>2005-07-04T09:44:48.000Z</time>
      </trkpt>
      <trkpt lat="52.92666" lon="7.29702">
        <ele>3.00</ele>
        <time>2005-07-04T09:44:33.000Z</time>
      </trkpt>
      <trkpt lat="52.92674" lon="7.29696">
        <ele>3.00</ele>
        <time>2005-07-04T09:44:31.000Z</time>
      </trkpt>
      <trkpt lat="52.92902" lon="7.29370">
        <ele>2.00</ele>
        <time>2005-07-04T09:43:30.000Z</time>
      </trkpt>
      <trkpt lat="52.92902" lon="7.29273">
        <ele>3.00</ele>
        <time>2005-07-04T09:43:09.000Z</time>
      </trkpt>
      <trkpt lat="52.92906" lon="7.29239">
        <ele>2.00</ele>
        <time>2005-07-04T09:32:11.000Z</time>
      </trkpt>
      <trkpt lat="52.92915" lon="7.29057">
        <ele>1.00</ele>
        <time>2005-07-04T09:26:04.000Z</time>
      </trkpt>
      <trkpt lat="52.92893" lon="7.29007">
        <ele>0.00</ele>
        <time>2005-07-04T09:25:49.000Z</time>
      </trkpt>
      <trkpt lat="52.92887" lon="7.28960">
        <time>2005-07-04T17:37:58.665Z</time>
      </trkpt>
      <trkpt lat="52.92990" lon="7.28857">
        <time>2005-07-04T17:37:58.665Z</time>
      </trkpt>
      <trkpt lat="52.93091" lon="7.28776">
        <time>2005-07-04T17:37:58.665Z</time>
      </trkpt>
      <trkpt lat="52.93123" lon="7.28801">
        <ele>0.00</ele>
        <time>2005-07-04T09:24:44.000Z</time>
      </trkpt>
      <trkpt lat="52.93134" lon="7.28954">
        <ele>0.00</ele>
        <time>2005-07-04T09:24:25.000Z</time>
      </trkpt>
      <trkpt lat="52.93144" lon="7.29016">
        <ele>0.00</ele>
        <time>2005-07-04T09:24:15.000Z</time>
      </trkpt>
      <trkpt lat="52.93155" lon="7.29029">
        <time>2005-07-04T17:37:58.665Z</time>
      </trkpt>
      <trkpt lat="52.93228" lon="7.28969">
        <ele>0.00</ele>
        <time>2005-07-04T09:23:54.000Z</time>
      </trkpt>
      <trkpt lat="52.93307" lon="7.28939">
        <ele>0.00</ele>
        <time>2005-07-04T09:23:36.000Z</time>
      </trkpt>
      <trkpt lat="52.93410" lon="7.28932">
        <ele>0.00</ele>
        <time>2005-07-04T09:23:18.000Z</time>
      </trkpt>
      <trkpt lat="52.93528" lon="7.28975">
        <ele>0.00</ele>
        <time>2005-07-04T09:22:57.000Z</time>
      </trkpt>
      <trkpt lat="52.93872" lon="7.29235">
        <ele>0.00</ele>
        <time>2005-07-04T09:21:49.000Z</time>
      </trkpt>
      <trkpt lat="52.94005" lon="7.29278">
        <ele>0.00</ele>
        <time>2005-07-04T09:21:25.000Z</time>
      </trkpt>
      <trkpt lat="52.94093" lon="7.29271">
        <ele>0.00</ele>
        <time>2005-07-04T09:21:09.000Z</time>
      </trkpt>
      <trkpt lat="52.94194" lon="7.29228">
        <ele>0.00</ele>
        <time>2005-07-04T09:20:49.000Z</time>
      </trkpt>
      <trkpt lat="52.94449" lon="7.29029">
        <ele>0.00</ele>
        <time>2005-07-04T09:19:54.000Z</time>
      </trkpt>
      <trkpt lat="52.94543" lon="7.28988">
        <ele>0.00</ele>
        <time>2005-07-04T09:18:25.000Z</time>
      </trkpt>
      <trkpt lat="52.94563" lon="7.28979">
        <ele>0.00</ele>
        <time>2005-07-04T09:17:45.000Z</time>
      </trkpt>
      <trkpt lat="52.94597" lon="7.28971">
        <ele>0.00</ele>
        <time>2005-07-04T09:17:02.000Z</time>
      </trkpt>
      <trkpt lat="52.94706" lon="7.28962">
        <ele>1.00</ele>
        <time>2005-07-04T09:16:43.000Z</time>
      </trkpt>
      <trkpt lat="52.94809" lon="7.28984">
        <ele>0.00</ele>
        <time>2005-07-04T09:16:25.000Z</time>
      </trkpt>
      <trkpt lat="52.94887" lon="7.29020">
        <ele>0.00</ele>
        <time>2005-07-04T09:16:11.000Z</time>
      </trkpt>
      <trkpt lat="52.95045" lon="7.29172">
        <ele>0.00</ele>
        <time>2005-07-04T09:15:29.000Z</time>
      </trkpt>
      <trkpt lat="52.95155" lon="7.29226">
        <ele>0.00</ele>
        <time>2005-07-04T09:15:09.000Z</time>
      </trkpt>
      <trkpt lat="52.95399" lon="7.29267">
        <ele>1.00</ele>
        <time>2005-07-04T09:14:27.000Z</time>
      </trkpt>
      <trkpt lat="52.95526" lon="7.29318">
        <ele>0.00</ele>
        <time>2005-07-04T09:14:04.000Z</time>
      </trkpt>
      <trkpt lat="52.95623" lon="7.29391">
        <ele>1.00</ele>
        <time>2005-07-04T09:13:45.000Z</time>
      </trkpt>
      <trkpt lat="52.95659" lon="7.29441">
        <ele>0.00</ele>
        <time>2005-07-04T09:13:36.000Z</time>
      </trkpt>
      <trkpt lat="52.95841" lon="7.29773">
        <ele>1.00</ele>
        <time>2005-07-04T09:06:02.000Z</time>
      </trkpt>
      <trkpt lat="52.95878" lon="7.29818">
        <ele>2.00</ele>
        <time>2005-07-04T09:01:18.000Z</time>
      </trkpt>
      <trkpt lat="52.96095" lon="7.29958">
        <ele>3.00</ele>
        <time>2005-07-04T09:00:31.000Z</time>
      </trkpt>
      <trkpt lat="52.96485" lon="7.30097">
        <ele>2.00</ele>
        <time>2005-07-04T08:59:06.000Z</time>
      </trkpt>
      <trkpt lat="52.96597" lon="7.30114">
        <ele>3.00</ele>
        <time>2005-07-04T08:58:43.000Z</time>
      </trkpt>
      <trkpt lat="52.96798" lon="7.30093">
        <ele>3.00</ele>
        <time>2005-07-04T08:58:03.000Z</time>
      </trkpt>
      <trkpt lat="52.96901" lon="7.30042">
        <ele>3.00</ele>
        <time>2005-07-04T08:57:42.000Z</time>
      </trkpt>
      <trkpt lat="52.97206" lon="7.29803">
        <ele>1.00</ele>
        <time>2005-07-04T08:56:35.000Z</time>
      </trkpt>
      <trkpt lat="52.97326" lon="7.29754">
        <ele>1.00</ele>
        <time>2005-07-04T08:56:11.000Z</time>
      </trkpt>
      <trkpt lat="52.97434" lon="7.29745">
        <ele>1.00</ele>
        <time>2005-07-04T08:55:50.000Z</time>
      </trkpt>
      <trkpt lat="52.97642" lon="7.29801">
        <ele>1.00</ele>
        <time>2005-07-04T08:55:06.000Z</time>
      </trkpt>
      <trkpt lat="52.97747" lon="7.29857">
        <ele>2.00</ele>
        <time>2005-07-04T08:54:42.000Z</time>
      </trkpt>
      <trkpt lat="52.98009" lon="7.30134">
        <ele>1.00</ele>
        <time>2005-07-04T08:53:37.000Z</time>
      </trkpt>
      <trkpt lat="52.98084" lon="7.30245">
        <ele>1.00</ele>
        <time>2005-07-04T08:53:14.000Z</time>
      </trkpt>
      <trkpt lat="52.98105" lon="7.30260">
        <ele>2.00</ele>
        <time>2005-07-04T17:01:13.000Z</time>
      </trkpt>
      <trkpt lat="52.98142" lon="7.30406">
        <ele>3.00</ele>
        <time>2005-07-04T17:00:55.000Z</time>
      </trkpt>
      <trkpt lat="52.98640" lon="7.31696">
        <ele>3.00</ele>
        <time>2005-07-04T16:58:02.000Z</time>
      </trkpt>
      <trkpt lat="52.98721" lon="7.31861">
        <ele>3.00</ele>
        <time>2005-07-04T16:57:40.000Z</time>
      </trkpt>
      <trkpt lat="52.98807" lon="7.31941">
        <ele>3.00</ele>
        <time>2005-07-04T16:57:23.000Z</time>
      </trkpt>
      <trkpt lat="52.98929" lon="7.31973">
        <ele>2.00</ele>
        <time>2005-07-04T16:57:02.000Z</time>
      </trkpt>
      <trkpt lat="52.98976" lon="7.31960">
        <ele>2.00</ele>
        <time>2005-07-04T16:56:54.000Z</time>
      </trkpt>
      <trkpt lat="52.99403" lon="7.31486">
        <ele>3.00</ele>
        <time>2005-07-04T16:55:31.000Z</time>
      </trkpt>
      <trkpt lat="52.99515" lon="7.31331">
        <ele>1.00</ele>
        <time>2005-07-04T16:55:07.000Z</time>
      </trkpt>
      <trkpt lat="52.99586" lon="7.31258">
        <ele>2.00</ele>
        <time>2005-07-04T16:54:54.000Z</time>
      </trkpt>
      <trkpt lat="52.99695" lon="7.31220">
        <ele>2.00</ele>
        <time>2005-07-04T16:54:36.000Z</time>
      </trkpt>
      <trkpt lat="52.99785" lon="7.31215">
        <ele>2.00</ele>
        <time>2005-07-04T16:54:20.000Z</time>
      </trkpt>
      <trkpt lat="52.99880" lon="7.31303">
        <ele>0.00</ele>
        <time>2005-07-04T16:54:00.000Z</time>
      </trkpt>
      <trkpt lat="52.99972" lon="7.31353">
        <ele>0.00</ele>
        <time>2005-07-04T16:53:43.000Z</time>
      </trkpt>
      <trkpt lat="53.00058" lon="7.31426">
        <ele>0.00</ele>
        <time>2005-07-04T16:53:26.000Z</time>
      </trkpt>
      <trkpt lat="53.00219" lon="7.31642">
        <ele>1.00</ele>
        <time>2005-07-04T16:52:47.000Z</time>
      </trkpt>
      <trkpt lat="53.00747" lon="7.32511">
        <ele>2.00</ele>
        <time>2005-07-04T16:49:09.000Z</time>
      </trkpt>
      <trkpt lat="53.00837" lon="7.32608">
        <ele>2.00</ele>
        <time>2005-07-04T16:48:51.000Z</time>
      </trkpt>
      <trkpt lat="53.00963" lon="7.32651">
        <ele>2.00</ele>
        <time>2005-07-04T16:48:29.000Z</time>
      </trkpt>
      <trkpt lat="53.00993" lon="7.32644">
        <ele>2.00</ele>
        <time>2005-07-04T16:48:24.000Z</time>
      </trkpt>
      <trkpt lat="53.01363" lon="7.32432">
        <ele>1.00</ele>
        <time>2005-07-04T16:47:28.000Z</time>
      </trkpt>
      <trkpt lat="53.01599" lon="7.32234">
        <ele>0.00</ele>
        <time>2005-07-04T16:46:50.000Z</time>
      </trkpt>
      <trkpt lat="53.02240" lon="7.32046">
        <ele>0.00</ele>
        <time>2005-07-04T16:45:15.000Z</time>
      </trkpt>
      <trkpt lat="53.02335" lon="7.31971">
        <ele>0.00</ele>
        <time>2005-07-04T16:44:59.000Z</time>
      </trkpt>
      <trkpt lat="53.02399" lon="7.31878">
        <ele>0.00</ele>
        <time>2005-07-04T16:44:45.000Z</time>
      </trkpt>
      <trkpt lat="53.02523" lon="7.31642">
        <ele>0.00</ele>
        <time>2005-07-04T16:44:14.000Z</time>
      </trkpt>
      <trkpt lat="53.02605" lon="7.31563">
        <ele>0.00</ele>
        <time>2005-07-04T16:43:58.000Z</time>
      </trkpt>
      <trkpt lat="53.03128" lon="7.31335">
        <ele>1.00</ele>
        <time>2005-07-04T16:42:16.000Z</time>
      </trkpt>
      <trkpt lat="53.03159" lon="7.31353">
        <ele>2.00</ele>
        <time>2005-07-04T16:42:09.000Z</time>
      </trkpt>
      <trkpt lat="53.03165" lon="7.31471">
        <ele>2.00</ele>
        <time>2005-07-04T16:41:53.000Z</time>
      </trkpt>
      <trkpt lat="53.03159" lon="7.31520">
        <ele>3.00</ele>
        <time>2005-07-04T16:41:46.000Z</time>
      </trkpt>
      <trkpt lat="53.03060" lon="7.31681">
        <ele>6.00</ele>
        <time>2005-07-04T16:41:20.000Z</time>
      </trkpt>
      <trkpt lat="53.03064" lon="7.31786">
        <ele>8.00</ele>
        <time>2005-07-04T16:41:02.000Z</time>
      </trkpt>
      <trkpt lat="53.03062" lon="7.31795">
        <ele>8.00</ele>
        <time>2005-07-04T16:40:30.000Z</time>
      </trkpt>
      <trkpt lat="53.03064" lon="7.31848">
        <ele>6.00</ele>
        <time>2005-07-04T16:40:15.000Z</time>
      </trkpt>
      <trkpt lat="53.03060" lon="7.31880">
        <ele>6.00</ele>
        <time>2005-07-04T16:40:10.000Z</time>
      </trkpt>
      <trkpt lat="53.02953" lon="7.31968">
        <ele>3.00</ele>
        <time>2005-07-04T16:39:38.000Z</time>
      </trkpt>
      <trkpt lat="53.02942" lon="7.31889">
        <ele>2.00</ele>
        <time>2005-07-04T16:39:24.000Z</time>
      </trkpt>
      <trkpt lat="53.03000" lon="7.31848">
        <ele>1.00</ele>
        <time>2005-07-04T16:39:08.000Z</time>
      </trkpt>
      <trkpt lat="53.03060" lon="7.31822">
        <ele>1.00</ele>
        <time>2005-07-04T16:38:53.000Z</time>
      </trkpt>
      <trkpt lat="53.03150" lon="7.31818">
        <ele>1.00</ele>
        <time>2005-07-04T16:38:34.000Z</time>
      </trkpt>
      <trkpt lat="53.03712" lon="7.31872">
        <ele>2.00</ele>
        <time>2005-07-04T16:36:52.000Z</time>
      </trkpt>
      <trkpt lat="53.03991" lon="7.31941">
        <ele>2.00</ele>
        <time>2005-07-04T16:36:02.000Z</time>
      </trkpt>
      <trkpt lat="53.04094" lon="7.31938">
        <ele>1.00</ele>
        <time>2005-07-04T16:35:45.000Z</time>
      </trkpt>
      <trkpt lat="53.04178" lon="7.31951">
        <ele>3.00</ele>
        <time>2005-07-04T16:35:32.000Z</time>
      </trkpt>
      <trkpt lat="53.04255" lon="7.31973">
        <ele>0.00</ele>
        <time>2005-07-04T16:35:14.000Z</time>
      </trkpt>
      <trkpt lat="53.04399" lon="7.31979">
        <time>2005-07-04T17:37:58.675Z</time>
      </trkpt>
      <trkpt lat="53.04536" lon="7.31956">
        <time>2005-07-04T17:37:58.675Z</time>
      </trkpt>
      <trkpt lat="53.05053" lon="7.31732">
        <ele>2.00</ele>
        <time>2005-07-04T16:32:58.000Z</time>
      </trkpt>
      <trkpt lat="53.05073" lon="7.31737">
        <ele>3.00</ele>
        <time>2005-07-04T16:32:53.000Z</time>
      </trkpt>
      <trkpt lat="53.05100" lon="7.31885">
        <ele>0.00</ele>
        <time>2005-07-04T16:32:31.000Z</time>
      </trkpt>
      <trkpt lat="53.05122" lon="7.31932">
        <time>2005-07-04T17:37:58.675Z</time>
      </trkpt>
      <trkpt lat="53.04965" lon="7.32486">
        <time>2005-07-04T17:37:58.675Z</time>
      </trkpt>
      <trkpt lat="53.04927" lon="7.32681">
        <time>2005-07-04T17:37:58.675Z</time>
      </trkpt>
      <trkpt lat="53.04929" lon="7.32711">
        <time>2005-07-04T17:37:58.675Z</time>
      </trkpt>
      <trkpt lat="53.04944" lon="7.32717">
        <ele>0.00</ele>
        <time>2005-07-04T16:30:38.000Z</time>
      </trkpt>
      <trkpt lat="53.04950" lon="7.32741">
        <time>2005-07-04T17:37:58.675Z</time>
      </trkpt>
      <trkpt lat="53.04950" lon="7.32812">
        <ele>0.00</ele>
        <time>2005-07-04T16:30:24.000Z</time>
      </trkpt>
      <trkpt lat="53.04961" lon="7.32835">
        <ele>0.00</ele>
        <time>2005-07-04T16:30:20.000Z</time>
      </trkpt>
      <trkpt lat="53.05017" lon="7.32859">
        <ele>0.00</ele>
        <time>2005-07-04T16:30:08.000Z</time>
      </trkpt>
      <trkpt lat="53.05036" lon="7.32887">
        <ele>0.00</ele>
        <time>2005-07-04T16:30:02.000Z</time>
      </trkpt>
      <trkpt lat="53.05012" lon="7.33061">
        <ele>0.00</ele>
        <time>2005-07-04T16:29:41.000Z</time>
      </trkpt>
      <trkpt lat="53.05019" lon="7.33082">
        <ele>0.00</ele>
        <time>2005-07-04T16:29:37.000Z</time>
      </trkpt>
      <trkpt lat="53.05060" lon="7.33095">
        <ele>0.00</ele>
        <time>2005-07-04T16:29:29.000Z</time>
      </trkpt>
      <trkpt lat="53.05186" lon="7.33099">
        <ele>1.00</ele>
        <time>2005-07-04T16:29:04.000Z</time>
      </trkpt>
      <trkpt lat="53.05203" lon="7.33097">
        <ele>1.00</ele>
        <time>2005-07-04T16:29:00.000Z</time>
      </trkpt>
      <trkpt lat="53.05216" lon="7.33119">
        <ele>1.00</ele>
        <time>2005-07-04T16:28:56.000Z</time>
      </trkpt>
      <trkpt lat="53.05255" lon="7.33297">
        <ele>0.00</ele>
        <time>2005-07-04T16:28:29.000Z</time>
      </trkpt>
      <trkpt lat="53.05261" lon="7.33380">
        <ele>0.00</ele>
        <time>2005-07-04T16:28:14.000Z</time>
      </trkpt>
      <trkpt lat="53.05251" lon="7.33496">
        <ele>0.00</ele>
        <time>2005-07-04T16:27:56.000Z</time>
      </trkpt>
      <trkpt lat="53.05272" lon="7.33629">
        <ele>0.00</ele>
        <time>2005-07-04T16:27:35.000Z</time>
      </trkpt>
      <trkpt lat="53.05272" lon="7.33659">
        <ele>0.00</ele>
        <time>2005-07-04T16:26:11.000Z</time>
      </trkpt>
      <trkpt lat="53.05306" lon="7.33837">
        <ele>0.00</ele>
        <time>2005-07-04T16:25:38.000Z</time>
      </trkpt>
      <trkpt lat="53.05324" lon="7.33893">
        <time>2005-07-04T17:37:58.675Z</time>
      </trkpt>
      <trkpt lat="53.05405" lon="7.34013">
        <ele>0.00</ele>
        <time>2005-07-04T16:25:00.000Z</time>
      </trkpt>
      <trkpt lat="53.05755" lon="7.34764">
        <time>2005-07-04T17:37:58.675Z</time>
      </trkpt>
      <trkpt lat="53.05766" lon="7.34775">
        <time>2005-07-04T17:37:58.675Z</time>
      </trkpt>
      <trkpt lat="53.05927" lon="7.34747">
        <time>2005-07-04T17:37:58.675Z</time>
      </trkpt>
      <trkpt lat="53.06639" lon="7.35872">
        <ele>0.00</ele>
        <time>2005-07-04T16:19:09.000Z</time>
      </trkpt>
      <trkpt lat="53.06828" lon="7.36183">
        <ele>0.00</ele>
        <time>2005-07-04T16:18:20.000Z</time>
      </trkpt>
      <trkpt lat="53.06836" lon="7.36221">
        <ele>0.00</ele>
        <time>2005-07-04T16:18:15.000Z</time>
      </trkpt>
      <trkpt lat="53.06839" lon="7.36305">
        <ele>0.00</ele>
        <time>2005-07-04T16:18:05.000Z</time>
      </trkpt>
      <trkpt lat="53.06851" lon="7.36318">
        <ele>0.00</ele>
        <time>2005-07-04T16:18:02.000Z</time>
      </trkpt>
      <trkpt lat="53.06935" lon="7.36365">
        <time>2005-07-04T17:37:58.675Z</time>
      </trkpt>
      <trkpt lat="53.07259" lon="7.36833">
        <ele>0.00</ele>
        <time>2005-07-04T16:16:28.000Z</time>
      </trkpt>
      <trkpt lat="53.07255" lon="7.36942">
        <time>2005-07-04T17:37:58.675Z</time>
      </trkpt>
      <trkpt lat="53.07242" lon="7.36966">
        <time>2005-07-04T17:37:58.675Z</time>
      </trkpt>
      <trkpt lat="53.07167" lon="7.37007">
        <time>2005-07-04T17:37:58.675Z</time>
      </trkpt>
      <trkpt lat="53.07150" lon="7.37043">
        <time>2005-07-04T17:37:58.675Z</time>
      </trkpt>
      <trkpt lat="53.07124" lon="7.37247">
        <time>2005-07-04T17:37:58.675Z</time>
      </trkpt>
      <trkpt lat="53.07158" lon="7.37260">
        <time>2005-07-04T17:37:58.675Z</time>
      </trkpt>
      <trkpt lat="53.07238" lon="7.37251">
        <time>2005-07-04T17:37:58.675Z</time>
      </trkpt>
      <trkpt lat="53.07332" lon="7.37202">
        <time>2005-07-04T17:37:58.675Z</time>
      </trkpt>
      <trkpt lat="53.07422" lon="7.37211">
        <ele>0.00</ele>
        <time>2005-07-04T16:14:01.000Z</time>
      </trkpt>
      <trkpt lat="53.07446" lon="7.37180">
        <ele>0.00</ele>
        <time>2005-07-04T16:13:54.000Z</time>
      </trkpt>
      <trkpt lat="53.07472" lon="7.37183">
        <time>2005-07-04T17:37:58.675Z</time>
      </trkpt>
      <trkpt lat="53.07508" lon="7.37221">
        <time>2005-07-04T17:37:58.675Z</time>
      </trkpt>
      <trkpt lat="53.07525" lon="7.37262">
        <ele>0.00</ele>
        <time>2005-07-04T16:13:35.000Z</time>
      </trkpt>
      <trkpt lat="53.07534" lon="7.37348">
        <ele>0.00</ele>
        <time>2005-07-04T16:13:24.000Z</time>
      </trkpt>
      <trkpt lat="53.07540" lon="7.37376">
        <ele>0.00</ele>
        <time>2005-07-04T16:13:20.000Z</time>
      </trkpt>
      <trkpt lat="53.07570" lon="7.37464">
        <ele>0.00</ele>
        <time>2005-07-04T16:13:07.000Z</time>
      </trkpt>
      <trkpt lat="53.07568" lon="7.37479">
        <ele>0.00</ele>
        <time>2005-07-04T16:13:05.000Z</time>
      </trkpt>
      <trkpt lat="53.07504" lon="7.37713">
        <ele>0.00</ele>
        <time>2005-07-04T16:12:20.000Z</time>
      </trkpt>
      <trkpt lat="53.07456" lon="7.37771">
        <ele>0.00</ele>
        <time>2005-07-04T16:12:04.000Z</time>
      </trkpt>
      <trkpt lat="53.07439" lon="7.37816">
        <ele>0.00</ele>
        <time>2005-07-04T16:11:57.000Z</time>
      </trkpt>
      <trkpt lat="53.07444" lon="7.37891">
        <ele>0.00</ele>
        <time>2005-07-04T16:11:47.000Z</time>
      </trkpt>
      <trkpt lat="53.07441" lon="7.37919">
        <ele>0.00</ele>
        <time>2005-07-04T16:11:43.000Z</time>
      </trkpt>
      <trkpt lat="53.07392" lon="7.38052">
        <ele>0.00</ele>
        <time>2005-07-04T16:11:15.000Z</time>
      </trkpt>
      <trkpt lat="53.07375" lon="7.38082">
        <ele>1.00</ele>
        <time>2005-07-04T16:10:52.000Z</time>
      </trkpt>
      <trkpt lat="53.07364" lon="7.38118">
        <ele>0.00</ele>
        <time>2005-07-04T16:10:36.000Z</time>
      </trkpt>
      <trkpt lat="53.07358" lon="7.38120">
        <ele>0.00</ele>
        <time>2005-07-04T16:10:33.000Z</time>
      </trkpt>
      <trkpt lat="53.07351" lon="7.38133">
        <time>2005-07-04T17:37:58.675Z</time>
      </trkpt>
      <trkpt lat="53.07341" lon="7.38176">
        <time>2005-07-04T17:37:58.675Z</time>
      </trkpt>
      <trkpt lat="53.07409" lon="7.38350">
        <time>2005-07-04T17:37:58.675Z</time>
      </trkpt>
      <trkpt lat="53.07437" lon="7.38406">
        <time>2005-07-04T17:37:58.675Z</time>
      </trkpt>
      <trkpt lat="53.07459" lon="7.38427">
        <time>2005-07-04T17:37:58.675Z</time>
      </trkpt>
      <trkpt lat="53.07465" lon="7.38449">
        <time>2005-07-04T17:37:58.695Z</time>
      </trkpt>
      <trkpt lat="53.07761" lon="7.39084">
        <time>2005-07-04T17:37:58.695Z</time>
      </trkpt>
      <trkpt lat="53.07765" lon="7.39118">
        <time>2005-07-04T17:37:58.695Z</time>
      </trkpt>
      <trkpt lat="53.07802" lon="7.39232">
        <time>2005-07-04T17:37:58.695Z</time>
      </trkpt>
      <trkpt lat="53.07849" lon="7.39311">
        <time>2005-07-04T17:37:58.695Z</time>
      </trkpt>
      <trkpt lat="53.08592" lon="7.38869">
        <time>2005-07-04T17:37:58.695Z</time>
      </trkpt>
      <trkpt lat="53.08692" lon="7.38816">
        <time>2005-07-04T17:37:58.695Z</time>
      </trkpt>
      <trkpt lat="53.08765" lon="7.38820">
        <time>2005-07-04T17:37:58.695Z</time>
      </trkpt>
      <trkpt lat="53.08765" lon="7.38828">
        <time>2005-07-04T17:37:58.695Z</time>
      </trkpt>
      <trkpt lat="53.08772" lon="7.38846">
        <time>2005-07-04T17:37:58.695Z</time>
      </trkpt>
      <trkpt lat="53.08813" lon="7.38852">
        <time>2005-07-04T17:37:58.695Z</time>
      </trkpt>
      <trkpt lat="53.08879" lon="7.38751">
        <time>2005-07-04T17:37:58.695Z</time>
      </trkpt>
      <trkpt lat="53.08935" lon="7.38725">
        <time>2005-07-04T17:37:58.695Z</time>
      </trkpt>
      <trkpt lat="53.08963" lon="7.38740">
        <time>2005-07-04T17:37:58.695Z</time>
      </trkpt>
      <trkpt lat="53.08959" lon="7.38779">
        <time>2005-07-04T17:37:58.695Z</time>
      </trkpt>
      <trkpt lat="53.09235" lon="7.39210">
        <ele>0.00</ele>
        <time>2005-07-04T15:46:25.000Z</time>
      </trkpt>
      <trkpt lat="53.09280" lon="7.39464">
        <time>2005-07-04T17:37:58.695Z</time>
      </trkpt>
      <trkpt lat="53.09287" lon="7.39479">
        <time>2005-07-04T17:37:58.695Z</time>
      </trkpt>
      <trkpt lat="53.09313" lon="7.39524">
        <ele>0.00</ele>
        <time>2005-07-04T15:45:45.000Z</time>
      </trkpt>
      <trkpt lat="53.09336" lon="7.39526">
        <ele>0.00</ele>
        <time>2005-07-04T15:45:36.000Z</time>
      </trkpt>
      <trkpt lat="53.09351" lon="7.39487">
        <ele>1.00</ele>
        <time>2005-07-04T15:45:23.000Z</time>
      </trkpt>
      <trkpt lat="53.09493" lon="7.39071">
        <ele>1.00</ele>
        <time>2005-07-04T15:44:24.000Z</time>
      </trkpt>
      <trkpt lat="53.09641" lon="7.38764">
        <ele>0.00</ele>
        <time>2005-07-04T15:43:43.000Z</time>
      </trkpt>
      <trkpt lat="53.09662" lon="7.38687">
        <ele>0.00</ele>
        <time>2005-07-04T15:43:34.000Z</time>
      </trkpt>
      <trkpt lat="53.09662" lon="7.38652">
        <ele>0.00</ele>
        <time>2005-07-04T15:43:30.000Z</time>
      </trkpt>
      <trkpt lat="53.09643" lon="7.38549">
        <time>2005-07-04T17:37:58.695Z</time>
      </trkpt>
      <trkpt lat="53.09622" lon="7.38487">
        <time>2005-07-04T17:37:58.695Z</time>
      </trkpt>
      <trkpt lat="53.09602" lon="7.38399">
        <time>2005-07-04T17:37:58.695Z</time>
      </trkpt>
      <trkpt lat="53.09587" lon="7.38367">
        <time>2005-07-04T17:37:58.695Z</time>
      </trkpt>
      <trkpt lat="53.09587" lon="7.38268">
        <time>2005-07-04T17:37:58.695Z</time>
      </trkpt>
      <trkpt lat="53.09639" lon="7.38037">
        <time>2005-07-04T17:37:58.695Z</time>
      </trkpt>
      <trkpt lat="53.09660" lon="7.37977">
        <time>2005-07-04T17:37:58.695Z</time>
      </trkpt>
      <trkpt lat="53.10076" lon="7.37191">
        <time>2005-07-04T17:37:58.695Z</time>
      </trkpt>
      <trkpt lat="53.10079" lon="7.37163">
        <time>2005-07-04T17:37:58.695Z</time>
      </trkpt>
      <trkpt lat="53.10072" lon="7.37157">
        <time>2005-07-04T17:37:58.695Z</time>
      </trkpt>
      <trkpt lat="53.10068" lon="7.37069">
        <time>2005-07-04T17:37:58.695Z</time>
      </trkpt>
      <trkpt lat="53.10072" lon="7.37039">
        <time>2005-07-04T17:37:58.695Z</time>
      </trkpt>
      <trkpt lat="53.10147" lon="7.36923">
        <time>2005-07-04T17:37:58.695Z</time>
      </trkpt>
      <trkpt lat="53.10177" lon="7.36897">
        <ele>0.00</ele>
        <time>2005-07-04T15:39:25.000Z</time>
      </trkpt>
      <trkpt lat="53.10203" lon="7.36861">
        <ele>0.00</ele>
        <time>2005-07-04T15:39:18.000Z</time>
      </trkpt>
      <trkpt lat="53.10207" lon="7.36844">
        <time>2005-07-04T17:37:58.695Z</time>
      </trkpt>
      <trkpt lat="53.10210" lon="7.36738">
        <time>2005-07-04T17:37:58.695Z</time>
      </trkpt>
      <trkpt lat="53.10220" lon="7.36708">
        <time>2005-07-04T17:37:58.705Z</time>
      </trkpt>
      <trkpt lat="53.10242" lon="7.36708">
        <time>2005-07-04T17:37:58.705Z</time>
      </trkpt>
      <trkpt lat="53.10255" lon="7.36595">
        <time>2005-07-04T17:37:58.705Z</time>
      </trkpt>
      <trkpt lat="53.10240" lon="7.36477">
        <ele>1.00</ele>
        <time>2005-07-04T15:37:52.000Z</time>
      </trkpt>
      <trkpt lat="53.10242" lon="7.36468">
        <ele>3.00</ele>
        <time>2005-07-04T15:37:39.000Z</time>
      </trkpt>
      <trkpt lat="53.10237" lon="7.36440">
        <ele>3.00</ele>
        <time>2005-07-04T15:37:18.000Z</time>
      </trkpt>
      <trkpt lat="53.10233" lon="7.36425">
        <ele>3.00</ele>
        <time>2005-07-04T15:36:11.000Z</time>
      </trkpt>
      <trkpt lat="53.10229" lon="7.36365">
        <ele>0.00</ele>
        <time>2005-07-04T15:22:35.000Z</time>
      </trkpt>
      <trkpt lat="53.10289" lon="7.36350">
        <ele>0.00</ele>
        <time>2005-07-04T15:22:17.000Z</time>
      </trkpt>
      <trkpt lat="53.10304" lon="7.36341">
        <ele>1.00</ele>
        <time>2005-07-04T15:22:12.000Z</time>
      </trkpt>
      <trkpt lat="53.10310" lon="7.36290">
        <ele>1.00</ele>
        <time>2005-07-04T15:22:04.000Z</time>
      </trkpt>
      <trkpt lat="53.10355" lon="7.36172">
        <ele>0.00</ele>
        <time>2005-07-04T15:21:44.000Z</time>
      </trkpt>
      <trkpt lat="53.10381" lon="7.36086">
        <ele>0.00</ele>
        <time>2005-07-04T15:21:25.000Z</time>
      </trkpt>
      <trkpt lat="53.10313" lon="7.35814">
        <time>2005-07-04T17:37:58.705Z</time>
      </trkpt>
      <trkpt lat="53.10207" lon="7.35367">
        <time>2005-07-04T17:37:58.705Z</time>
      </trkpt>
      <trkpt lat="53.10205" lon="7.35288">
        <ele>2.00</ele>
        <time>2005-07-04T15:18:36.000Z</time>
      </trkpt>
      <trkpt lat="53.10351" lon="7.35211">
        <ele>4.00</ele>
        <time>2005-07-04T15:17:42.000Z</time>
      </trkpt>
      <trkpt lat="53.10381" lon="7.35200">
        <ele>4.00</ele>
        <time>2005-07-04T15:16:49.000Z</time>
      </trkpt>
      <trkpt lat="53.10385" lon="7.35193">
        <ele>3.00</ele>
        <time>2005-07-04T15:16:26.000Z</time>
      </trkpt>
      <trkpt lat="53.10418" lon="7.35172">
        <ele>3.00</ele>
        <time>2005-07-04T15:14:04.000Z</time>
      </trkpt>
      <trkpt lat="53.10534" lon="7.35106">
        <ele>0.00</ele>
        <time>2005-07-04T15:13:28.000Z</time>
      </trkpt>
      <trkpt lat="53.10536" lon="7.35121">
        <ele>0.00</ele>
        <time>2005-07-04T15:12:38.000Z</time>
      </trkpt>
      <trkpt lat="53.10544" lon="7.35198">
        <time>2005-07-04T17:37:58.705Z</time>
      </trkpt>
      <trkpt lat="53.10538" lon="7.35758">
        <time>2005-07-04T17:37:58.705Z</time>
      </trkpt>
      <trkpt lat="53.10549" lon="7.35826">
        <time>2005-07-04T17:37:58.705Z</time>
      </trkpt>
      <trkpt lat="53.10570" lon="7.35889">
        <time>2005-07-04T17:37:58.705Z</time>
      </trkpt>
      <trkpt lat="53.10611" lon="7.36028">
        <time>2005-07-04T17:37:58.705Z</time>
      </trkpt>
      <trkpt lat="53.10622" lon="7.36054">
        <time>2005-07-04T17:37:58.705Z</time>
      </trkpt>
      <trkpt lat="53.10632" lon="7.36060">
        <time>2005-07-04T17:37:58.705Z</time>
      </trkpt>
      <trkpt lat="53.10667" lon="7.36058">
        <time>2005-07-04T17:37:58.705Z</time>
      </trkpt>
      <trkpt lat="53.10735" lon="7.36075">
        <time>2005-07-04T17:37:58.705Z</time>
      </trkpt>
      <trkpt lat="53.10752" lon="7.36075">
        <time>2005-07-04T17:37:58.705Z</time>
      </trkpt>
      <trkpt lat="53.10802" lon="7.36056">
        <time>2005-07-04T17:37:58.705Z</time>
      </trkpt>
      <trkpt lat="53.10810" lon="7.36060">
        <time>2005-07-04T17:37:58.705Z</time>
      </trkpt>
      <trkpt lat="53.10905" lon="7.36157">
        <time>2005-07-04T17:37:58.705Z</time>
      </trkpt>
      <trkpt lat="53.10948" lon="7.36170">
        <time>2005-07-04T17:37:58.705Z</time>
      </trkpt>
      <trkpt lat="53.10961" lon="7.36168">
        <time>2005-07-04T17:37:58.705Z</time>
      </trkpt>
      <trkpt lat="53.11141" lon="7.36013">
        <time>2005-07-04T17:37:58.705Z</time>
      </trkpt>
      <trkpt lat="53.11184" lon="7.35996">
        <time>2005-07-04T17:37:58.705Z</time>
      </trkpt>
      <trkpt lat="53.11212" lon="7.36000">
        <time>2005-07-04T17:37:58.705Z</time>
      </trkpt>
      <trkpt lat="53.11338" lon="7.36095">
        <time>2005-07-04T17:37:58.705Z</time>
      </trkpt>
      <trkpt lat="53.11420" lon="7.36223">
        <time>2005-07-04T17:37:58.705Z</time>
      </trkpt>
      <trkpt lat="53.11430" lon="7.36260">
        <time>2005-07-04T17:37:58.705Z</time>
      </trkpt>
      <trkpt lat="53.11430" lon="7.36286">
        <time>2005-07-04T17:37:58.705Z</time>
      </trkpt>
      <trkpt lat="53.11445" lon="7.36348">
        <time>2005-07-04T17:37:58.705Z</time>
      </trkpt>
      <trkpt lat="53.11435" lon="7.36363">
        <time>2005-07-04T17:37:58.705Z</time>
      </trkpt>
      <trkpt lat="53.11413" lon="7.36378">
        <time>2005-07-04T17:37:58.705Z</time>
      </trkpt>
      <trkpt lat="53.11405" lon="7.36399">
        <time>2005-07-04T17:37:58.705Z</time>
      </trkpt>
      <trkpt lat="53.11413" lon="7.36590">
        <time>2005-07-04T17:37:58.705Z</time>
      </trkpt>
      <trkpt lat="53.11458" lon="7.36966">
        <time>2005-07-04T17:37:58.705Z</time>
      </trkpt>
      <trkpt lat="53.11476" lon="7.37005">
        <time>2005-07-04T17:37:58.705Z</time>
      </trkpt>
      <trkpt lat="53.11682" lon="7.37135">
        <time>2005-07-04T17:37:58.705Z</time>
      </trkpt>
      <trkpt lat="53.12053" lon="7.37202">
        <time>2005-07-04T17:37:58.705Z</time>
      </trkpt>
      <trkpt lat="53.12175" lon="7.37195">
        <time>2005-07-04T17:37:58.705Z</time>
      </trkpt>
      <trkpt lat="53.12493" lon="7.37065">
        <time>2005-07-04T17:37:58.705Z</time>
      </trkpt>
      <trkpt lat="53.12596" lon="7.36981">
        <time>2005-07-04T17:37:58.705Z</time>
      </trkpt>
      <trkpt lat="53.12885" lon="7.36535">
        <time>2005-07-04T17:37:58.705Z</time>
      </trkpt>
      <trkpt lat="53.13031" lon="7.36354">
        <time>2005-07-04T17:37:58.705Z</time>
      </trkpt>
      <trkpt lat="53.13115" lon="7.36281">
        <time>2005-07-04T17:37:58.705Z</time>
      </trkpt>
      <trkpt lat="53.13239" lon="7.36262">
        <time>2005-07-04T17:37:58.705Z</time>
      </trkpt>
      <trkpt lat="53.13321" lon="7.36269">
        <time>2005-07-04T17:37:58.705Z</time>
      </trkpt>
      <trkpt lat="53.13329" lon="7.36277">
        <time>2005-07-04T17:37:58.705Z</time>
      </trkpt>
      <trkpt lat="53.13351" lon="7.36284">
        <time>2005-07-04T17:37:58.705Z</time>
      </trkpt>
      <trkpt lat="53.13381" lon="7.36275">
        <time>2005-07-04T17:37:58.705Z</time>
      </trkpt>
      <trkpt lat="53.13450" lon="7.36290">
        <time>2005-07-04T17:37:58.705Z</time>
      </trkpt>
      <trkpt lat="53.13812" lon="7.36582">
        <time>2005-07-04T17:37:58.705Z</time>
      </trkpt>
      <trkpt lat="53.14072" lon="7.36865">
        <time>2005-07-04T17:37:58.705Z</time>
      </trkpt>
      <trkpt lat="53.14359" lon="7.36947">
        <time>2005-07-04T17:37:58.705Z</time>
      </trkpt>
      <trkpt lat="53.15346" lon="7.37129">
        <time>2005-07-04T17:37:58.705Z</time>
      </trkpt>
      <trkpt lat="53.15673" lon="7.37217">
        <time>2005-07-04T17:37:58.705Z</time>
      </trkpt>
      <trkpt lat="53.15778" lon="7.37202">
        <time>2005-07-04T17:37:58.705Z</time>
      </trkpt>
      <trkpt lat="53.16048" lon="7.37088">
        <time>2005-07-04T17:37:58.705Z</time>
      </trkpt>
      <trkpt lat="53.16059" lon="7.37092">
        <time>2005-07-04T17:37:58.705Z</time>
      </trkpt>
      <trkpt lat="53.16113" lon="7.37101">
        <time>2005-07-04T17:37:58.705Z</time>
      </trkpt>
      <trkpt lat="53.16123" lon="7.37172">
        <time>2005-07-04T17:37:58.715Z</time>
      </trkpt>
      <trkpt lat="53.16183" lon="7.37588">
        <time>2005-07-04T17:37:58.715Z</time>
      </trkpt>
      <trkpt lat="53.16185" lon="7.37616">
        <time>2005-07-04T17:37:58.715Z</time>
      </trkpt>
      <trkpt lat="53.16170" lon="7.37627">
        <time>2005-07-04T17:37:58.715Z</time>
      </trkpt>
      <trkpt lat="53.16128" lon="7.37640">
        <time>2005-07-04T17:37:58.715Z</time>
      </trkpt>
      <trkpt lat="53.16121" lon="7.37646">
        <time>2005-07-04T17:37:58.715Z</time>
      </trkpt>
      <trkpt lat="53.16177" lon="7.37640">
        <time>2005-07-04T17:37:58.715Z</time>
      </trkpt>
      <trkpt lat="53.16211" lon="7.37627">
        <time>2005-07-04T17:37:58.715Z</time>
      </trkpt>
      <trkpt lat="53.16258" lon="7.37584">
        <time>2005-07-04T17:37:58.715Z</time>
      </trkpt>
      <trkpt lat="53.16683" lon="7.37393">
        <time>2005-07-04T17:37:58.715Z</time>
      </trkpt>
      <trkpt lat="53.16956" lon="7.37429">
        <time>2005-07-04T17:37:58.715Z</time>
      </trkpt>
      <trkpt lat="53.17039" lon="7.37479">
        <time>2005-07-04T17:37:58.715Z</time>
      </trkpt>
      <trkpt lat="53.17192" lon="7.37702">
        <time>2005-07-04T17:37:58.715Z</time>
      </trkpt>
      <trkpt lat="53.17256" lon="7.37826">
        <time>2005-07-04T17:37:58.715Z</time>
      </trkpt>
      <trkpt lat="53.17529" lon="7.38515">
        <time>2005-07-04T17:37:58.715Z</time>
      </trkpt>
      <trkpt lat="53.17829" lon="7.39069">
        <time>2005-07-04T17:37:58.715Z</time>
      </trkpt>
      <trkpt lat="53.17921" lon="7.39187">
        <time>2005-07-04T17:37:58.715Z</time>
      </trkpt>
      <trkpt lat="53.18190" lon="7.39423">
        <time>2005-07-04T17:37:58.715Z</time>
      </trkpt>
      <trkpt lat="53.18273" lon="7.39577">
        <time>2005-07-04T17:37:58.715Z</time>
      </trkpt>
      <trkpt lat="53.18323" lon="7.39764">
        <time>2005-07-04T17:37:58.715Z</time>
      </trkpt>
      <trkpt lat="53.18359" lon="7.40590">
        <time>2005-07-04T17:37:58.715Z</time>
      </trkpt>
      <trkpt lat="53.18402" lon="7.40794">
        <time>2005-07-04T17:37:58.715Z</time>
      </trkpt>
      <trkpt lat="53.18469" lon="7.40963">
        <time>2005-07-04T17:37:58.715Z</time>
      </trkpt>
      <trkpt lat="53.18576" lon="7.41105">
        <time>2005-07-04T17:37:58.715Z</time>
      </trkpt>
      <trkpt lat="53.18709" lon="7.41197">
        <time>2005-07-04T17:37:58.715Z</time>
      </trkpt>
      <trkpt lat="53.18829" lon="7.41240">
        <time>2005-07-04T17:37:58.715Z</time>
      </trkpt>
      <trkpt lat="53.18932" lon="7.41217">
        <time>2005-07-04T17:37:58.715Z</time>
      </trkpt>
      <trkpt lat="53.19035" lon="7.41129">
        <time>2005-07-04T17:37:58.715Z</time>
      </trkpt>
      <trkpt lat="53.19157" lon="7.41075">
        <time>2005-07-04T17:37:58.715Z</time>
      </trkpt>
      <trkpt lat="53.19353" lon="7.41039">
        <time>2005-07-04T17:37:58.715Z</time>
      </trkpt>
      <trkpt lat="53.19458" lon="7.41049">
        <time>2005-07-04T17:37:58.715Z</time>
      </trkpt>
      <trkpt lat="53.19889" lon="7.41380">
        <time>2005-07-04T17:37:58.715Z</time>
      </trkpt>
      <trkpt lat="53.20318" lon="7.41515">
        <time>2005-07-04T17:37:58.715Z</time>
      </trkpt>
      <trkpt lat="53.20548" lon="7.41710">
        <time>2005-07-04T17:37:58.715Z</time>
      </trkpt>
      <trkpt lat="53.20616" lon="7.41802">
        <time>2005-07-04T17:37:58.715Z</time>
      </trkpt>
      <trkpt lat="53.20625" lon="7.41828">
        <time>2005-07-04T17:37:58.715Z</time>
      </trkpt>
      <trkpt lat="53.20644" lon="7.41968">
        <time>2005-07-04T17:37:58.715Z</time>
      </trkpt>
      <trkpt lat="53.20647" lon="7.42038">
        <time>2005-07-04T17:37:58.715Z</time>
      </trkpt>
      <trkpt lat="53.20642" lon="7.42066">
        <time>2005-07-04T17:37:58.715Z</time>
      </trkpt>
      <trkpt lat="53.20634" lon="7.42069">
        <time>2005-07-04T17:37:58.715Z</time>
      </trkpt>
      <trkpt lat="53.20623" lon="7.42088">
        <time>2005-07-04T17:37:58.715Z</time>
      </trkpt>
      <trkpt lat="53.20634" lon="7.42298">
        <time>2005-07-04T17:37:58.715Z</time>
      </trkpt>
      <trkpt lat="53.20724" lon="7.42873">
        <time>2005-07-04T17:37:58.715Z</time>
      </trkpt>
      <trkpt lat="53.20788" lon="7.43075">
        <time>2005-07-04T17:37:58.715Z</time>
      </trkpt>
      <trkpt lat="53.20880" lon="7.43208">
        <time>2005-07-04T17:37:58.715Z</time>
      </trkpt>
      <trkpt lat="53.20981" lon="7.43300">
        <time>2005-07-04T17:37:58.715Z</time>
      </trkpt>
      <trkpt lat="53.21084" lon="7.43358">
        <time>2005-07-04T17:37:58.715Z</time>
      </trkpt>
      <trkpt lat="53.21144" lon="7.43446">
        <time>2005-07-04T17:37:58.715Z</time>
      </trkpt>
      <trkpt lat="53.21174" lon="7.43577">
        <time>2005-07-04T17:37:58.715Z</time>
      </trkpt>
      <trkpt lat="53.21207" lon="7.43950">
        <time>2005-07-04T17:37:58.715Z</time>
      </trkpt>
      <trkpt lat="53.21198" lon="7.44075">
        <time>2005-07-04T17:37:58.715Z</time>
      </trkpt>
      <trkpt lat="53.21131" lon="7.44176">
        <time>2005-07-04T17:37:58.715Z</time>
      </trkpt>
      <trkpt lat="53.21151" lon="7.44470">
        <time>2005-07-04T17:37:58.715Z</time>
      </trkpt>
      <trkpt lat="53.21127" lon="7.44573">
        <time>2005-07-04T17:37:58.715Z</time>
      </trkpt>
      <trkpt lat="53.21127" lon="7.44596">
        <time>2005-07-04T17:37:58.715Z</time>
      </trkpt>
      <trkpt lat="53.21134" lon="7.44624">
        <time>2005-07-04T17:37:58.715Z</time>
      </trkpt>
      <trkpt lat="53.21151" lon="7.44768">
        <time>2005-07-04T17:37:58.715Z</time>
      </trkpt>
      <trkpt lat="53.21157" lon="7.45167">
        <time>2005-07-04T17:37:58.715Z</time>
      </trkpt>
      <trkpt lat="53.21043" lon="7.46000">
        <time>2005-07-04T17:37:58.715Z</time>
      </trkpt>
      <trkpt lat="53.21061" lon="7.46500">
        <time>2005-07-04T17:37:58.715Z</time>
      </trkpt>
      <trkpt lat="53.21069" lon="7.46508">
        <time>2005-07-04T17:37:58.715Z</time>
      </trkpt>
      <trkpt lat="53.21089" lon="7.46510">
        <time>2005-07-04T17:37:58.715Z</time>
      </trkpt>
      <trkpt lat="53.21228" lon="7.46497">
        <time>2005-07-04T17:37:58.715Z</time>
      </trkpt>
      <trkpt lat="53.21262" lon="7.46487">
        <time>2005-07-04T17:37:58.725Z</time>
      </trkpt>
      <trkpt lat="53.21267" lon="7.46367">
        <time>2005-07-04T17:37:58.725Z</time>
      </trkpt>
      <trkpt lat="53.21269" lon="7.46351">
        <time>2005-07-04T17:37:58.725Z</time>
      </trkpt>
      <trkpt lat="53.21284" lon="7.46347">
        <time>2005-07-04T17:37:58.725Z</time>
      </trkpt>
      <trkpt lat="53.21378" lon="7.46397">
        <time>2005-07-04T17:37:58.725Z</time>
      </trkpt>
      <trkpt lat="53.21387" lon="7.46407">
        <time>2005-07-04T17:37:58.725Z</time>
      </trkpt>
      <trkpt lat="53.21398" lon="7.46416">
        <time>2005-07-04T17:37:58.725Z</time>
      </trkpt>
      <trkpt lat="53.21417" lon="7.46388">
        <time>2005-07-04T17:37:58.725Z</time>
      </trkpt>
      <trkpt lat="53.21430" lon="7.46394">
        <time>2005-07-04T17:37:58.725Z</time>
      </trkpt>
      <trkpt lat="53.21870" lon="7.46407">
        <time>2005-07-04T17:37:58.725Z</time>
      </trkpt>
      <trkpt lat="53.21955" lon="7.46375">
        <time>2005-07-04T17:37:58.725Z</time>
      </trkpt>
      <trkpt lat="53.21977" lon="7.46345">
        <time>2005-07-04T17:37:58.725Z</time>
      </trkpt>
      <trkpt lat="53.22110" lon="7.46055">
        <time>2005-07-04T17:37:58.725Z</time>
      </trkpt>
      <trkpt lat="53.22136" lon="7.46040">
        <time>2005-07-04T17:37:58.725Z</time>
      </trkpt>
      <trkpt lat="53.22370" lon="7.46214">
        <time>2005-07-04T17:37:58.725Z</time>
      </trkpt>
      <trkpt lat="53.22515" lon="7.46336">
        <time>2005-07-04T17:37:58.725Z</time>
      </trkpt>
      <trkpt lat="53.22597" lon="7.46369">
        <time>2005-07-04T17:37:58.725Z</time>
      </trkpt>
      <trkpt lat="53.22621" lon="7.46354">
        <time>2005-07-04T17:37:58.725Z</time>
      </trkpt>
      <trkpt lat="53.22666" lon="7.46339">
        <time>2005-07-04T17:37:58.725Z</time>
      </trkpt>
      <trkpt lat="53.22700" lon="7.46311">
        <time>2005-07-04T17:37:58.725Z</time>
      </trkpt>
      <trkpt lat="53.22726" lon="7.46268">
        <time>2005-07-04T17:37:58.725Z</time>
      </trkpt>
      <trkpt lat="53.22758" lon="7.46173">
        <time>2005-07-04T17:37:58.725Z</time>
      </trkpt>
      <trkpt lat="53.22773" lon="7.46075">
        <time>2005-07-04T17:37:58.725Z</time>
      </trkpt>
      <trkpt lat="53.22769" lon="7.46053">
        <time>2005-07-04T17:37:58.725Z</time>
      </trkpt>
      <trkpt lat="53.22749" lon="7.46017">
        <time>2005-07-04T17:37:58.725Z</time>
      </trkpt>
      <trkpt lat="53.22683" lon="7.45929">
        <time>2005-07-04T17:37:58.725Z</time>
      </trkpt>
      <trkpt lat="53.22672" lon="7.45886">
        <time>2005-07-04T17:37:58.725Z</time>
      </trkpt>
      <trkpt lat="53.22672" lon="7.45873">
        <time>2005-07-04T17:37:58.725Z</time>
      </trkpt>
      <trkpt lat="53.22679" lon="7.45830">
        <time>2005-07-04T17:37:58.725Z</time>
      </trkpt>
      <trkpt lat="53.22713" lon="7.45736">
        <time>2005-07-04T17:37:58.725Z</time>
      </trkpt>
      <trkpt lat="53.22713" lon="7.45688">
        <time>2005-07-04T17:37:58.725Z</time>
      </trkpt>
      <trkpt lat="53.22700" lon="7.45628">
        <time>2005-07-04T17:37:58.725Z</time>
      </trkpt>
      <trkpt lat="53.22565" lon="7.45461">
        <time>2005-07-04T17:37:58.725Z</time>
      </trkpt>
      <trkpt lat="53.22552" lon="7.45414">
        <time>2005-07-04T17:37:58.725Z</time>
      </trkpt>
      <trkpt lat="53.22554" lon="7.45375">
        <time>2005-07-04T17:37:58.725Z</time>
      </trkpt>
      <trkpt lat="53.22563" lon="7.45349">
        <time>2005-07-04T17:37:58.725Z</time>
      </trkpt>
      <trkpt lat="53.22623" lon="7.45212">
        <time>2005-07-04T17:37:58.725Z</time>
      </trkpt>
      <trkpt lat="53.22631" lon="7.45199">
        <time>2005-07-04T17:37:58.725Z</time>
      </trkpt>
      <trkpt lat="53.22655" lon="7.45137">
        <time>2005-07-04T17:37:58.725Z</time>
      </trkpt>
      <trkpt lat="53.22659" lon="7.45096">
        <time>2005-07-04T17:37:58.725Z</time>
      </trkpt>
      <trkpt lat="53.22653" lon="7.45083">
        <time>2005-07-04T17:37:58.725Z</time>
      </trkpt>
      <trkpt lat="53.22623" lon="7.45060">
        <time>2005-07-04T17:37:58.725Z</time>
      </trkpt>
      <trkpt lat="53.22428" lon="7.44828">
        <ele>0.00</ele>
        <time>2005-07-04T13:38:57.000Z</time>
      </trkpt>
      <trkpt lat="53.22393" lon="7.44729">
        <time>2005-07-04T17:37:58.725Z</time>
      </trkpt>
      <trkpt lat="53.22395" lon="7.44708">
        <time>2005-07-04T17:37:58.725Z</time>
      </trkpt>
      <trkpt lat="53.22421" lon="7.44684">
        <time>2005-07-04T17:37:58.725Z</time>
      </trkpt>
      <trkpt lat="53.22395" lon="7.44607">
        <time>2005-07-04T17:37:58.725Z</time>
      </trkpt>
      <trkpt lat="53.22380" lon="7.44465">
        <time>2005-07-04T17:37:58.725Z</time>
      </trkpt>
      <trkpt lat="53.22363" lon="7.44380">
        <time>2005-07-04T17:37:58.725Z</time>
      </trkpt>
      <trkpt lat="53.22309" lon="7.44204">
        <time>2005-07-04T17:37:58.725Z</time>
      </trkpt>
      <trkpt lat="53.22241" lon="7.44096">
        <time>2005-07-04T17:37:58.725Z</time>
      </trkpt>
      <trkpt lat="53.22078" lon="7.44004">
        <time>2005-07-04T17:37:58.725Z</time>
      </trkpt>
      <trkpt lat="53.22022" lon="7.43918">
        <time>2005-07-04T17:37:58.725Z</time>
      </trkpt>
      <trkpt lat="53.21996" lon="7.43744">
        <time>2005-07-04T17:37:58.725Z</time>
      </trkpt>
      <trkpt lat="53.21951" lon="7.43637">
        <time>2005-07-04T17:37:58.725Z</time>
      </trkpt>
      <trkpt lat="53.21932" lon="7.43637">
        <time>2005-07-04T17:37:58.725Z</time>
      </trkpt>
      <trkpt lat="53.21850" lon="7.43609">
        <time>2005-07-04T17:37:58.725Z</time>
      </trkpt>
      <trkpt lat="53.21764" lon="7.43523">
        <time>2005-07-04T17:37:58.725Z</time>
      </trkpt>
      <trkpt lat="53.21709" lon="7.43416">
        <ele>0.00</ele>
        <time>2005-07-04T13:33:45.000Z</time>
      </trkpt>
      <trkpt lat="53.21698" lon="7.43388">
        <ele>0.00</ele>
        <time>2005-07-04T13:33:39.000Z</time>
      </trkpt>
      <trkpt lat="53.21698" lon="7.43360">
        <ele>0.00</ele>
        <time>2005-07-04T13:33:30.000Z</time>
      </trkpt>
      <trkpt lat="53.21698" lon="7.43384">
        <ele>0.00</ele>
        <time>2005-07-04T13:33:14.000Z</time>
      </trkpt>
      <trkpt lat="53.21707" lon="7.43410">
        <ele>0.00</ele>
        <time>2005-07-04T13:33:02.000Z</time>
      </trkpt>
      <trkpt lat="53.21724" lon="7.43446">
        <ele>0.00</ele>
        <time>2005-07-04T13:32:49.000Z</time>
      </trkpt>
      <trkpt lat="53.21696" lon="7.43384">
        <ele>0.00</ele>
        <time>2005-07-04T13:32:18.000Z</time>
      </trkpt>
      <trkpt lat="53.21692" lon="7.43371">
        <ele>0.00</ele>
        <time>2005-07-04T13:32:13.000Z</time>
      </trkpt>
      <trkpt lat="53.21694" lon="7.43356">
        <ele>0.00</ele>
        <time>2005-07-04T13:32:07.000Z</time>
      </trkpt>
      <trkpt lat="53.21679" lon="7.43238">
        <ele>1.00</ele>
        <time>2005-07-04T13:31:51.000Z</time>
      </trkpt>
      <trkpt lat="53.21687" lon="7.43096">
        <ele>3.00</ele>
        <time>2005-07-04T13:31:37.000Z</time>
      </trkpt>
      <trkpt lat="53.21713" lon="7.43036">
        <ele>4.00</ele>
        <time>2005-07-04T13:31:30.000Z</time>
      </trkpt>
      <trkpt lat="53.21784" lon="7.42721">
        <ele>10.00</ele>
        <time>2005-07-04T13:30:53.000Z</time>
      </trkpt>
      <trkpt lat="53.21852" lon="7.42307">
        <ele>7.00</ele>
        <time>2005-07-04T13:29:51.000Z</time>
      </trkpt>
      <trkpt lat="53.21848" lon="7.42182">
        <ele>5.00</ele>
        <time>2005-07-04T13:29:32.000Z</time>
      </trkpt>
      <trkpt lat="53.21818" lon="7.42034">
        <ele>3.00</ele>
        <time>2005-07-04T13:29:10.000Z</time>
      </trkpt>
      <trkpt lat="53.21764" lon="7.41929">
        <ele>2.00</ele>
        <time>2005-07-04T13:28:49.000Z</time>
      </trkpt>
      <trkpt lat="53.21758" lon="7.41908">
        <ele>1.00</ele>
        <time>2005-07-04T13:28:45.000Z</time>
      </trkpt>
      <trkpt lat="53.21764" lon="7.41893">
        <ele>0.00</ele>
        <time>2005-07-04T13:28:42.000Z</time>
      </trkpt>
      <trkpt lat="53.21915" lon="7.41755">
        <time>2005-07-04T17:37:58.735Z</time>
      </trkpt>
      <trkpt lat="53.21994" lon="7.41886">
        <ele>0.00</ele>
        <time>2005-07-04T13:27:24.000Z</time>
      </trkpt>
      <trkpt lat="53.22031" lon="7.41899">
        <time>2005-07-04T17:37:58.735Z</time>
      </trkpt>
      <trkpt lat="53.22046" lon="7.41880">
        <time>2005-07-04T17:37:58.735Z</time>
      </trkpt>
      <trkpt lat="53.22061" lon="7.41875">
        <time>2005-07-04T17:37:58.735Z</time>
      </trkpt>
      <trkpt lat="53.22299" lon="7.41697">
        <time>2005-07-04T17:37:58.735Z</time>
      </trkpt>
      <trkpt lat="53.22307" lon="7.41684">
        <time>2005-07-04T17:37:58.735Z</time>
      </trkpt>
      <trkpt lat="53.22481" lon="7.41534">
        <time>2005-07-04T17:37:58.735Z</time>
      </trkpt>
      <trkpt lat="53.22492" lon="7.41515">
        <ele>0.00</ele>
        <time>2005-07-04T13:25:40.000Z</time>
      </trkpt>
      <trkpt lat="53.22520" lon="7.41485">
        <time>2005-07-04T17:37:58.735Z</time>
      </trkpt>
      <trkpt lat="53.22580" lon="7.41371">
        <time>2005-07-04T17:37:58.735Z</time>
      </trkpt>
      <trkpt lat="53.22642" lon="7.41202">
        <time>2005-07-04T17:37:58.735Z</time>
      </trkpt>
      <trkpt lat="53.22711" lon="7.40875">
        <time>2005-07-04T17:37:58.735Z</time>
      </trkpt>
      <trkpt lat="53.22709" lon="7.40865">
        <time>2005-07-04T17:37:58.735Z</time>
      </trkpt>
      <trkpt lat="53.22700" lon="7.40858">
        <time>2005-07-04T17:37:58.735Z</time>
      </trkpt>
      <trkpt lat="53.22711" lon="7.40830">
        <time>2005-07-04T17:37:58.735Z</time>
      </trkpt>
      <trkpt lat="53.22779" lon="7.40489">
        <time>2005-07-04T17:37:58.735Z</time>
      </trkpt>
      <trkpt lat="53.22792" lon="7.40446">
        <time>2005-07-04T17:37:58.735Z</time>
      </trkpt>
      <trkpt lat="53.22794" lon="7.40436">
        <time>2005-07-04T17:37:58.735Z</time>
      </trkpt>
      <trkpt lat="53.22848" lon="7.40262">
        <time>2005-07-04T17:37:58.735Z</time>
      </trkpt>
      <trkpt lat="53.23018" lon="7.39938">
        <time>2005-07-04T17:37:58.735Z</time>
      </trkpt>
      <trkpt lat="53.23239" lon="7.39648">
        <time>2005-07-04T17:37:58.735Z</time>
      </trkpt>
      <trkpt lat="53.23245" lon="7.39646">
        <time>2005-07-04T17:37:58.735Z</time>
      </trkpt>
      <trkpt lat="53.23269" lon="7.39708">
        <time>2005-07-04T17:37:58.735Z</time>
      </trkpt>
      <trkpt lat="53.23307" lon="7.39691">
        <time>2005-07-04T17:37:58.735Z</time>
      </trkpt>
      <trkpt lat="53.23331" lon="7.39657">
        <time>2005-07-04T17:37:58.735Z</time>
      </trkpt>
      <trkpt lat="53.23571" lon="7.39457">
        <time>2005-07-04T17:37:58.735Z</time>
      </trkpt>
      <trkpt lat="53.24069" lon="7.39251">
        <time>2005-07-04T17:37:58.735Z</time>
      </trkpt>
      <trkpt lat="53.24217" lon="7.39243">
        <time>2005-07-04T17:37:58.735Z</time>
      </trkpt>
      <trkpt lat="53.24464" lon="7.39290">
        <time>2005-07-04T17:37:58.735Z</time>
      </trkpt>
      <trkpt lat="53.24505" lon="7.39283">
        <time>2005-07-04T17:37:58.735Z</time>
      </trkpt>
      <trkpt lat="53.25133" lon="7.39195">
        <time>2005-07-04T17:37:58.735Z</time>
      </trkpt>
      <trkpt lat="53.25665" lon="7.38981">
        <time>2005-07-04T17:37:58.735Z</time>
      </trkpt>
      <trkpt lat="53.25678" lon="7.38970">
        <time>2005-07-04T17:37:58.735Z</time>
      </trkpt>
      <trkpt lat="53.26142" lon="7.38839">
        <time>2005-07-04T17:37:58.735Z</time>
      </trkpt>
      <trkpt lat="53.26253" lon="7.38869">
        <time>2005-07-04T17:37:58.735Z</time>
      </trkpt>
      <trkpt lat="53.26367" lon="7.38972">
        <time>2005-07-04T17:37:58.735Z</time>
      </trkpt>
      <trkpt lat="53.26401" lon="7.39017">
        <time>2005-07-04T17:37:58.735Z</time>
      </trkpt>
      <trkpt lat="53.26513" lon="7.39118">
        <time>2005-07-04T17:37:58.735Z</time>
      </trkpt>
      <trkpt lat="53.26517" lon="7.39105">
        <time>2005-07-04T17:37:58.735Z</time>
      </trkpt>
      <trkpt lat="53.26631" lon="7.39152">
        <time>2005-07-04T17:37:58.735Z</time>
      </trkpt>
      <trkpt lat="53.26665" lon="7.39127">
        <time>2005-07-04T17:37:58.735Z</time>
      </trkpt>
      <trkpt lat="53.26743" lon="7.39022">
        <time>2005-07-04T17:37:58.735Z</time>
      </trkpt>
      <trkpt lat="53.26826" lon="7.38966">
        <time>2005-07-04T17:37:58.735Z</time>
      </trkpt>
      <trkpt lat="53.26839" lon="7.38966">
        <time>2005-07-04T17:37:58.735Z</time>
      </trkpt>
      <trkpt lat="53.26886" lon="7.38959">
        <time>2005-07-04T17:37:58.735Z</time>
      </trkpt>
      <trkpt lat="53.27219" lon="7.39088">
        <time>2005-07-04T17:37:58.735Z</time>
      </trkpt>
      <trkpt lat="53.27363" lon="7.39105">
        <time>2005-07-04T17:37:58.735Z</time>
      </trkpt>
      <trkpt lat="53.27449" lon="7.39097">
        <time>2005-07-04T17:37:58.735Z</time>
      </trkpt>
      <trkpt lat="53.27455" lon="7.39092">
        <time>2005-07-04T17:37:58.735Z</time>
      </trkpt>
      <trkpt lat="53.27470" lon="7.39092">
        <time>2005-07-04T17:37:58.735Z</time>
      </trkpt>
      <trkpt lat="53.27983" lon="7.38889">
        <time>2005-07-04T17:37:58.735Z</time>
      </trkpt>
      <trkpt lat="53.28000" lon="7.38878">
        <time>2005-07-04T17:37:58.735Z</time>
      </trkpt>
      <trkpt lat="53.28112" lon="7.38835">
        <time>2005-07-04T17:37:58.735Z</time>
      </trkpt>
      <trkpt lat="53.28258" lon="7.38730">
        <time>2005-07-04T17:37:58.735Z</time>
      </trkpt>
      <trkpt lat="53.28365" lon="7.38614">
        <time>2005-07-04T17:37:58.735Z</time>
      </trkpt>
      <trkpt lat="53.28436" lon="7.38511">
        <time>2005-07-04T17:37:58.735Z</time>
      </trkpt>
      <trkpt lat="53.28564" lon="7.38232">
        <time>2005-07-04T17:37:58.735Z</time>
      </trkpt>
      <trkpt lat="53.28781" lon="7.37414">
        <time>2005-07-04T17:37:58.735Z</time>
      </trkpt>
      <trkpt lat="53.28781" lon="7.37406">
        <time>2005-07-04T17:37:58.735Z</time>
      </trkpt>
      <trkpt lat="53.28788" lon="7.37395">
        <time>2005-07-04T17:37:58.735Z</time>
      </trkpt>
      <trkpt lat="53.29054" lon="7.36402">
        <time>2005-07-04T17:37:58.735Z</time>
      </trkpt>
      <trkpt lat="53.29627" lon="7.35324">
        <time>2005-07-04T17:37:58.745Z</time>
      </trkpt>
      <trkpt lat="53.29657" lon="7.35299">
        <time>2005-07-04T17:37:58.745Z</time>
      </trkpt>
      <trkpt lat="53.29661" lon="7.35284">
        <time>2005-07-04T17:37:58.745Z</time>
      </trkpt>
      <trkpt lat="53.29665" lon="7.35279">
        <time>2005-07-04T17:37:58.745Z</time>
      </trkpt>
      <trkpt lat="53.29710" lon="7.35185">
        <time>2005-07-04T17:37:58.745Z</time>
      </trkpt>
      <trkpt lat="53.29914" lon="7.34848">
        <time>2005-07-04T17:37:58.745Z</time>
      </trkpt>
      <trkpt lat="53.30270" lon="7.34423">
        <time>2005-07-04T17:37:58.745Z</time>
      </trkpt>
      <trkpt lat="53.30354" lon="7.34357">
        <time>2005-07-04T17:37:58.745Z</time>
      </trkpt>
      <trkpt lat="53.30363" lon="7.34344">
        <time>2005-07-04T17:37:58.745Z</time>
      </trkpt>
      <trkpt lat="53.30371" lon="7.34344">
        <time>2005-07-04T17:37:58.745Z</time>
      </trkpt>
      <trkpt lat="53.30882" lon="7.33981">
        <time>2005-07-04T17:37:58.745Z</time>
      </trkpt>
      <trkpt lat="53.31382" lon="7.33511">
        <time>2005-07-04T17:37:58.745Z</time>
      </trkpt>
      <trkpt lat="53.31459" lon="7.33380">
        <time>2005-07-04T17:37:58.745Z</time>
      </trkpt>
      <trkpt lat="53.31489" lon="7.33232">
        <time>2005-07-04T17:37:58.745Z</time>
      </trkpt>
      <trkpt lat="53.31465" lon="7.32792">
        <time>2005-07-04T17:37:58.745Z</time>
      </trkpt>
      <trkpt lat="53.31290" lon="7.31737">
        <time>2005-07-04T17:37:58.745Z</time>
      </trkpt>
      <trkpt lat="53.31281" lon="7.31494">
        <time>2005-07-04T17:37:58.745Z</time>
      </trkpt>
      <trkpt lat="53.31393" lon="7.29951">
        <time>2005-07-04T17:37:58.745Z</time>
      </trkpt>
      <trkpt lat="53.31425" lon="7.29690">
        <time>2005-07-04T17:37:58.745Z</time>
      </trkpt>
      <trkpt lat="53.31433" lon="7.29660">
        <time>2005-07-04T17:37:58.745Z</time>
      </trkpt>
      <trkpt lat="53.31438" lon="7.29653">
        <time>2005-07-04T17:37:58.745Z</time>
      </trkpt>
      <trkpt lat="53.31450" lon="7.29623">
        <time>2005-07-04T17:37:58.745Z</time>
      </trkpt>
      <trkpt lat="53.31584" lon="7.29211">
        <time>2005-07-04T17:37:58.745Z</time>
      </trkpt>
      <trkpt lat="53.31607" lon="7.29031">
        <time>2005-07-04T17:37:58.745Z</time>
      </trkpt>
      <trkpt lat="53.31607" lon="7.28846">
        <time>2005-07-04T17:37:58.745Z</time>
      </trkpt>
      <trkpt lat="53.31609" lon="7.28838">
        <time>2005-07-04T17:37:58.745Z</time>
      </trkpt>
      <trkpt lat="53.31616" lon="7.28381">
        <time>2005-07-04T17:37:58.745Z</time>
      </trkpt>
      <trkpt lat="53.31609" lon="7.28357">
        <time>2005-07-04T17:37:58.745Z</time>
      </trkpt>
      <trkpt lat="53.31575" lon="7.28318">
        <time>2005-07-04T17:37:58.745Z</time>
      </trkpt>
      <trkpt lat="53.31546" lon="7.28277">
        <time>2005-07-04T17:37:58.745Z</time>
      </trkpt>
      <trkpt lat="53.31590" lon="7.28076">
        <ele>0.00</ele>
        <time>2005-07-04T12:19:07.000Z</time>
      </trkpt>
      <trkpt lat="53.31609" lon="7.28065">
        <ele>0.00</ele>
        <time>2005-07-04T12:18:53.000Z</time>
      </trkpt>
      <trkpt lat="53.31618" lon="7.28065">
        <ele>0.00</ele>
        <time>2005-07-04T12:18:38.000Z</time>
      </trkpt>
      <trkpt lat="53.31663" lon="7.28085">
        <time>2005-07-04T17:37:58.745Z</time>
      </trkpt>
      <trkpt lat="53.31676" lon="7.28087">
        <time>2005-07-04T17:37:58.745Z</time>
      </trkpt>
      <trkpt lat="53.31682" lon="7.28085">
        <time>2005-07-04T17:37:58.745Z</time>
      </trkpt>
      <trkpt lat="53.31691" lon="7.28089">
        <time>2005-07-04T17:37:58.745Z</time>
      </trkpt>
      <trkpt lat="53.31687" lon="7.28106">
        <time>2005-07-04T17:37:58.745Z</time>
      </trkpt>
      <trkpt lat="53.31689" lon="7.28115">
        <time>2005-07-04T17:37:58.745Z</time>
      </trkpt>
      <trkpt lat="53.31689" lon="7.28132">
        <time>2005-07-04T17:37:58.745Z</time>
      </trkpt>
      <trkpt lat="53.31687" lon="7.28140">
        <time>2005-07-04T17:37:58.745Z</time>
      </trkpt>
      <trkpt lat="53.31697" lon="7.28196">
        <time>2005-07-04T17:37:58.745Z</time>
      </trkpt>
      <trkpt lat="53.31770" lon="7.28263">
        <time>2005-07-04T17:37:58.745Z</time>
      </trkpt>
      <trkpt lat="53.31817" lon="7.28263">
        <time>2005-07-04T17:37:58.745Z</time>
      </trkpt>
      <trkpt lat="53.31895" lon="7.28091">
        <time>2005-07-04T17:37:58.745Z</time>
      </trkpt>
      <trkpt lat="53.32195" lon="7.27235">
        <time>2005-07-04T17:37:58.745Z</time>
      </trkpt>
      <trkpt lat="53.32298" lon="7.27012">
        <time>2005-07-04T17:37:58.745Z</time>
      </trkpt>
      <trkpt lat="53.32399" lon="7.26872">
        <time>2005-07-04T17:37:58.745Z</time>
      </trkpt>
      <trkpt lat="53.32468" lon="7.26840">
        <time>2005-07-04T17:37:58.745Z</time>
      </trkpt>
      <trkpt lat="53.33060" lon="7.27065">
        <time>2005-07-04T17:37:58.745Z</time>
      </trkpt>
      <trkpt lat="53.33071" lon="7.27063">
        <time>2005-07-04T17:37:58.745Z</time>
      </trkpt>
      <trkpt lat="53.33079" lon="7.27080">
        <time>2005-07-04T17:37:58.745Z</time>
      </trkpt>
      <trkpt lat="53.33081" lon="7.27091">
        <time>2005-07-04T17:37:58.745Z</time>
      </trkpt>
      <trkpt lat="53.33103" lon="7.27119">
        <ele>0.00</ele>
        <time>2005-07-04T12:01:49.000Z</time>
      </trkpt>
      <trkpt lat="53.33116" lon="7.27145">
        <ele>0.00</ele>
        <time>2005-07-04T12:01:45.000Z</time>
      </trkpt>
      <trkpt lat="53.33128" lon="7.27207">
        <ele>4.00</ele>
        <time>2005-07-04T12:01:36.000Z</time>
      </trkpt>
      <trkpt lat="53.33152" lon="7.27243">
        <ele>3.00</ele>
        <time>2005-07-04T12:01:20.000Z</time>
      </trkpt>
      <trkpt lat="53.33339" lon="7.27329">
        <ele>0.00</ele>
        <time>2005-07-04T12:00:36.000Z</time>
      </trkpt>
      <trkpt lat="53.33352" lon="7.27357">
        <time>2005-07-04T17:37:58.745Z</time>
      </trkpt>
      <trkpt lat="53.33332" lon="7.27443">
        <time>2005-07-04T17:37:58.745Z</time>
      </trkpt>
      <trkpt lat="53.33337" lon="7.27477">
        <time>2005-07-04T17:37:58.745Z</time>
      </trkpt>
      <trkpt lat="53.33360" lon="7.27492">
        <time>2005-07-04T17:37:58.745Z</time>
      </trkpt>
      <trkpt lat="53.33437" lon="7.27580">
        <time>2005-07-04T17:37:58.745Z</time>
      </trkpt>
      <trkpt lat="53.33467" lon="7.27578">
        <time>2005-07-04T17:37:58.745Z</time>
      </trkpt>
      <trkpt lat="53.33508" lon="7.27582">
        <time>2005-07-04T17:37:58.745Z</time>
      </trkpt>
      <trkpt lat="53.33536" lon="7.27597">
        <time>2005-07-04T17:37:58.745Z</time>
      </trkpt>
      <trkpt lat="53.33536" lon="7.27615">
        <time>2005-07-04T17:37:58.745Z</time>
      </trkpt>
      <trkpt lat="53.33487" lon="7.27904">
        <time>2005-07-04T17:37:58.745Z</time>
      </trkpt>
      <trkpt lat="53.33498" lon="7.27915">
        <time>2005-07-04T17:37:58.745Z</time>
      </trkpt>
      <trkpt lat="53.33884" lon="7.27990">
        <ele>2.00</ele>
        <time>2005-07-04T11:57:09.000Z</time>
      </trkpt>
      <trkpt lat="53.33912" lon="7.28022">
        <ele>0.00</ele>
        <time>2005-07-04T11:56:56.000Z</time>
      </trkpt>
      <trkpt lat="53.33933" lon="7.28003">
        <ele>0.00</ele>
        <time>2005-07-04T11:56:48.000Z</time>
      </trkpt>
      <trkpt lat="53.33927" lon="7.27975">
        <ele>0.00</ele>
        <time>2005-07-04T11:56:44.000Z</time>
      </trkpt>
      <trkpt lat="53.33918" lon="7.27967">
        <ele>0.00</ele>
        <time>2005-07-04T11:56:42.000Z</time>
      </trkpt>
      <trkpt lat="53.33903" lon="7.27934">
        <ele>0.00</ele>
        <time>2005-07-04T11:56:36.000Z</time>
      </trkpt>
      <trkpt lat="53.33899" lon="7.27831">
        <time>2005-07-04T17:37:58.755Z</time>
      </trkpt>
      <trkpt lat="53.33946" lon="7.27479">
        <time>2005-07-04T17:37:58.755Z</time>
      </trkpt>
      <trkpt lat="53.33946" lon="7.27471">
        <ele>0.00</ele>
        <time>2005-07-04T11:55:33.000Z</time>
      </trkpt>
      <trkpt lat="53.33976" lon="7.27226">
        <time>2005-07-04T17:37:58.755Z</time>
      </trkpt>
      <trkpt lat="53.34023" lon="7.27136">
        <ele>0.00</ele>
        <time>2005-07-04T11:54:33.000Z</time>
      </trkpt>
      <trkpt lat="53.34006" lon="7.26988">
        <time>2005-07-04T17:37:58.755Z</time>
      </trkpt>
      <trkpt lat="53.34051" lon="7.26638">
        <time>2005-07-04T17:37:58.755Z</time>
      </trkpt>
      <trkpt lat="53.34079" lon="7.26510">
        <ele>0.00</ele>
        <time>2005-07-04T11:53:14.000Z</time>
      </trkpt>
      <trkpt lat="53.34094" lon="7.26497">
        <ele>0.00</ele>
        <time>2005-07-04T11:53:02.000Z</time>
      </trkpt>
      <trkpt lat="53.34081" lon="7.26398">
        <time>2005-07-04T17:37:58.755Z</time>
      </trkpt>
      <trkpt lat="53.34116" lon="7.26164">
        <time>2005-07-04T17:37:58.755Z</time>
      </trkpt>
      <trkpt lat="53.34231" lon="7.25696">
        <time>2005-07-04T17:37:58.755Z</time>
      </trkpt>
      <trkpt lat="53.34281" lon="7.25548">
        <time>2005-07-04T17:37:58.755Z</time>
      </trkpt>
      <trkpt lat="53.34289" lon="7.25531">
        <time>2005-07-04T17:37:58.755Z</time>
      </trkpt>
      <trkpt lat="53.34334" lon="7.25426">
        <time>2005-07-04T17:37:58.755Z</time>
      </trkpt>
      <trkpt lat="53.34354" lon="7.25400">
        <time>2005-07-04T17:37:58.755Z</time>
      </trkpt>
      <trkpt lat="53.34362" lon="7.25392">
        <ele>0.00</ele>
        <time>2005-07-04T11:48:18.000Z</time>
      </trkpt>
      <trkpt lat="53.34390" lon="7.25364">
        <ele>0.00</ele>
        <time>2005-07-04T11:47:51.000Z</time>
      </trkpt>
      <trkpt lat="53.34407" lon="7.25334">
        <ele>0.00</ele>
        <time>2005-07-04T11:47:43.000Z</time>
      </trkpt>
      <trkpt lat="53.34405" lon="7.25317">
        <time>2005-07-04T17:37:58.755Z</time>
      </trkpt>
      <trkpt lat="53.34407" lon="7.25299">
        <time>2005-07-04T17:37:58.755Z</time>
      </trkpt>
      <trkpt lat="53.34405" lon="7.25280">
        <time>2005-07-04T17:37:58.755Z</time>
      </trkpt>
      <trkpt lat="53.34409" lon="7.25241">
        <time>2005-07-04T17:37:58.755Z</time>
      </trkpt>
      <trkpt lat="53.34667" lon="7.24626">
        <time>2005-07-04T17:37:58.755Z</time>
      </trkpt>
      <trkpt lat="53.34682" lon="7.24600">
        <time>2005-07-04T17:37:58.755Z</time>
      </trkpt>
      <trkpt lat="53.34742" lon="7.24533">
        <ele>0.00</ele>
        <time>2005-07-04T11:46:04.000Z</time>
      </trkpt>
      <trkpt lat="53.34746" lon="7.24450">
        <time>2005-07-04T17:37:58.755Z</time>
      </trkpt>
      <trkpt lat="53.34755" lon="7.24400">
        <time>2005-07-04T17:37:58.755Z</time>
      </trkpt>
      <trkpt lat="53.34817" lon="7.24257">
        <time>2005-07-04T17:37:58.755Z</time>
      </trkpt>
      <trkpt lat="53.34824" lon="7.24226">
        <time>2005-07-04T17:37:58.755Z</time>
      </trkpt>
      <trkpt lat="53.35053" lon="7.23675">
        <time>2005-07-04T17:37:58.755Z</time>
      </trkpt>
      <trkpt lat="53.35100" lon="7.23621">
        <ele>0.00</ele>
        <time>2005-07-04T11:44:11.000Z</time>
      </trkpt>
      <trkpt lat="53.35113" lon="7.23619">
        <ele>0.00</ele>
        <time>2005-07-04T11:44:07.000Z</time>
      </trkpt>
      <trkpt lat="53.35699" lon="7.24995">
        <ele>0.00</ele>
        <time>2005-07-04T11:41:31.000Z</time>
      </trkpt>
      <trkpt lat="53.35718" lon="7.25010">
        <ele>0.00</ele>
        <time>2005-07-04T11:41:26.000Z</time>
      </trkpt>
      <trkpt lat="53.35957" lon="7.24707">
        <ele>0.00</ele>
        <time>2005-07-04T11:40:42.000Z</time>
      </trkpt>
      <trkpt lat="53.35974" lon="7.24664">
        <ele>0.00</ele>
        <time>2005-07-04T11:40:37.000Z</time>
      </trkpt>
      <trkpt lat="53.35939" lon="7.23988">
        <ele>0.00</ele>
        <time>2005-07-04T11:39:25.000Z</time>
      </trkpt>
      <trkpt lat="53.35942" lon="7.23978">
        <ele>0.00</ele>
        <time>2005-07-04T11:39:23.000Z</time>
      </trkpt>
      <trkpt lat="53.35942" lon="7.23945">
        <ele>2.00</ele>
        <time>2005-07-04T11:39:16.000Z</time>
      </trkpt>
      <trkpt lat="53.35969" lon="7.23945">
        <ele>0.00</ele>
        <time>2005-07-04T11:39:03.000Z</time>
      </trkpt>
      <trkpt lat="53.35989" lon="7.23952">
        <time>2005-07-04T17:37:58.755Z</time>
      </trkpt>
      <trkpt lat="53.35993" lon="7.23958">
        <time>2005-07-04T17:37:58.755Z</time>
      </trkpt>
      <trkpt lat="53.36019" lon="7.23793">
        <ele>0.00</ele>
        <time>2005-07-04T11:37:35.000Z</time>
      </trkpt>
      <trkpt lat="53.36040" lon="7.23639">
        <ele>0.00</ele>
        <time>2005-07-04T11:37:18.000Z</time>
      </trkpt>
      <trkpt lat="53.36062" lon="7.23619">
        <ele>0.00</ele>
        <time>2005-07-04T11:37:12.000Z</time>
      </trkpt>
      <trkpt lat="53.36072" lon="7.23621">
        <time>2005-07-04T17:37:58.755Z</time>
      </trkpt>
      <trkpt lat="53.36096" lon="7.23608">
        <time>2005-07-04T17:37:58.755Z</time>
      </trkpt>
      <trkpt lat="53.36135" lon="7.23636">
        <ele>0.00</ele>
        <time>2005-07-04T11:36:57.000Z</time>
      </trkpt>
      <trkpt lat="53.36308" lon="7.23825">
        <ele>2.00</ele>
        <time>2005-07-04T11:36:25.000Z</time>
      </trkpt>
      <trkpt lat="53.36478" lon="7.23325">
        <ele>0.00</ele>
        <time>2005-07-04T11:34:54.000Z</time>
      </trkpt>
      <trkpt lat="53.36476" lon="7.23300">
        <ele>0.00</ele>
        <time>2005-07-04T11:34:35.000Z</time>
      </trkpt>
      <trkpt lat="53.36354" lon="7.23151">
        <ele>0.00</ele>
        <time>2005-07-04T11:34:09.000Z</time>
      </trkpt>
      <trkpt lat="53.36330" lon="7.23074">
        <ele>0.00</ele>
        <time>2005-07-04T11:34:00.000Z</time>
      </trkpt>
      <trkpt lat="53.36225" lon="7.22982">
        <ele>0.00</ele>
        <time>2005-07-04T11:33:40.000Z</time>
      </trkpt>
      <trkpt lat="53.36208" lon="7.22937">
        <ele>0.00</ele>
        <time>2005-07-04T11:33:34.000Z</time>
      </trkpt>
      <trkpt lat="53.36259" lon="7.22804">
        <ele>1.00</ele>
        <time>2005-07-04T11:33:17.000Z</time>
      </trkpt>
      <trkpt lat="53.36263" lon="7.22765">
        <ele>3.00</ele>
        <time>2005-07-04T11:33:11.000Z</time>
      </trkpt>
      <trkpt lat="53.36263" lon="7.22673">
        <ele>3.00</ele>
        <time>2005-07-04T11:32:56.000Z</time>
      </trkpt>
      <trkpt lat="53.36272" lon="7.22613">
        <ele>0.00</ele>
        <time>2005-07-04T11:32:46.000Z</time>
      </trkpt>
      <trkpt lat="53.36287" lon="7.22572">
        <ele>0.00</ele>
        <time>2005-07-04T11:32:40.000Z</time>
      </trkpt>
      <trkpt lat="53.36291" lon="7.22555">
        <ele>0.00</ele>
        <time>2005-07-04T11:32:37.000Z</time>
      </trkpt>
      <trkpt lat="53.36313" lon="7.22548">
        <ele>0.00</ele>
        <time>2005-07-04T11:32:32.000Z</time>
      </trkpt>
      <trkpt lat="53.36358" lon="7.22591">
        <ele>0.00</ele>
        <time>2005-07-04T11:32:23.000Z</time>
      </trkpt>
      <trkpt lat="53.36392" lon="7.22606">
        <ele>0.00</ele>
        <time>2005-07-04T11:32:17.000Z</time>
      </trkpt>
      <trkpt lat="53.36514" lon="7.22613">
        <ele>0.00</ele>
        <time>2005-07-04T11:31:57.000Z</time>
      </trkpt>
      <trkpt lat="53.36566" lon="7.22604">
        <ele>0.00</ele>
        <time>2005-07-04T11:31:48.000Z</time>
      </trkpt>
      <trkpt lat="53.36583" lon="7.22572">
        <ele>0.00</ele>
        <time>2005-07-04T11:31:42.000Z</time>
      </trkpt>
      <trkpt lat="53.36532" lon="7.22278">
        <ele>1.00</ele>
        <time>2005-07-04T11:31:08.000Z</time>
      </trkpt>
      <trkpt lat="53.36527" lon="7.22216">
        <ele>1.00</ele>
        <time>2005-07-04T11:31:01.000Z</time>
      </trkpt>
      <trkpt lat="53.36484" lon="7.22018">
        <ele>1.00</ele>
        <time>2005-07-04T11:30:34.000Z</time>
      </trkpt>
      <trkpt lat="53.36529" lon="7.21969">
        <ele>0.00</ele>
        <time>2005-07-04T11:30:18.000Z</time>
      </trkpt>
      <trkpt lat="53.36581" lon="7.21950">
        <ele>0.00</ele>
        <time>2005-07-04T11:30:02.000Z</time>
      </trkpt>
      <trkpt lat="53.36639" lon="7.21958">
        <ele>0.00</ele>
        <time>2005-07-04T11:29:47.000Z</time>
      </trkpt>
      <trkpt lat="53.36667" lon="7.21943">
        <ele>2.00</ele>
        <time>2005-07-04T11:29:40.000Z</time>
      </trkpt>
      <trkpt lat="53.36675" lon="7.21946">
        <ele>3.00</ele>
        <time>2005-07-04T11:29:36.000Z</time>
      </trkpt>
      <trkpt lat="53.36688" lon="7.21943">
        <ele>3.00</ele>
        <time>2005-07-04T11:29:09.000Z</time>
      </trkpt>
      <trkpt lat="53.36699" lon="7.21941">
        <ele>2.00</ele>
        <time>2005-07-04T11:29:01.000Z</time>
      </trkpt>
      <trkpt lat="53.36703" lon="7.21935">
        <ele>3.00</ele>
        <time>2005-07-04T11:28:53.000Z</time>
      </trkpt>
      <trkpt lat="53.36708" lon="7.21913">
        <ele>3.00</ele>
        <time>2005-07-04T11:27:26.000Z</time>
      </trkpt>
      <trkpt lat="53.36705" lon="7.21879">
        <ele>3.00</ele>
        <time>2005-07-04T11:27:10.000Z</time>
      </trkpt>
      <trkpt lat="53.36678" lon="7.21729">
        <ele>2.00</ele>
        <time>2005-07-04T11:26:50.000Z</time>
      </trkpt>
      <trkpt lat="53.36678" lon="7.21705">
        <ele>2.00</ele>
        <time>2005-07-04T11:26:47.000Z</time>
      </trkpt>
      <trkpt lat="53.36684" lon="7.21654">
        <ele>2.00</ele>
        <time>2005-07-04T11:21:06.000Z</time>
      </trkpt>
      <trkpt lat="53.36738" lon="7.21673">
        <ele>5.00</ele>
        <time>2005-07-04T11:20:50.000Z</time>
      </trkpt>
      <trkpt lat="53.36798" lon="7.21658">
        <ele>5.00</ele>
        <time>2005-07-04T11:20:36.000Z</time>
      </trkpt>
      <trkpt lat="53.36821" lon="7.21664">
        <ele>5.00</ele>
        <time>2005-07-04T11:20:32.000Z</time>
      </trkpt>
      <trkpt lat="53.36984" lon="7.21587">
        <ele>5.00</ele>
        <time>2005-07-04T11:20:01.000Z</time>
      </trkpt>
      <trkpt lat="53.37066" lon="7.21506">
        <ele>4.00</ele>
        <time>2005-07-04T11:19:45.000Z</time>
      </trkpt>
      <trkpt lat="53.37109" lon="7.21448">
        <ele>4.00</ele>
        <time>2005-07-04T11:19:28.000Z</time>
      </trkpt>
      <trkpt lat="53.37143" lon="7.21416">
        <ele>3.00</ele>
        <time>2005-07-04T11:18:57.000Z</time>
      </trkpt>
      <trkpt lat="53.37147" lon="7.21409">
        <ele>3.00</ele>
        <time>2005-07-04T11:18:52.000Z</time>
      </trkpt>
      <trkpt lat="53.37246" lon="7.21287">
        <ele>4.00</ele>
        <time>2005-07-04T11:18:28.000Z</time>
      </trkpt>
      <trkpt lat="53.37298" lon="7.21152">
        <ele>7.00</ele>
        <time>2005-07-04T11:18:11.000Z</time>
      </trkpt>
      <trkpt lat="53.37356" lon="7.20976">
        <ele>6.00</ele>
        <time>2005-07-04T11:17:48.000Z</time>
      </trkpt>
      <trkpt lat="53.37362" lon="7.20737">
        <ele>5.00</ele>
        <time>2005-07-04T11:16:21.000Z</time>
      </trkpt>
      <trkpt lat="53.37368" lon="7.20733">
        <ele>5.00</ele>
        <time>2005-07-04T11:15:30.000Z</time>
      </trkpt>
      <trkpt lat="53.37371" lon="7.20675">
        <ele>7.00</ele>
        <time>2005-07-04T11:15:12.000Z</time>
      </trkpt>
      <trkpt lat="53.37364" lon="7.20626">
        <ele>6.00</ele>
        <time>2005-07-04T11:15:04.000Z</time>
      </trkpt>
      <trkpt lat="53.37336" lon="7.20514">
        <ele>5.00</ele>
        <time>2005-07-04T11:14:53.000Z</time>
      </trkpt>
      <trkpt lat="53.37330" lon="7.20501">
        <ele>6.00</ele>
        <time>2005-07-04T11:14:51.000Z</time>
      </trkpt>
      <trkpt lat="53.37283" lon="7.20203">
        <ele>7.00</ele>
        <time>2005-07-04T11:14:26.000Z</time>
      </trkpt>
      <trkpt lat="53.37180" lon="7.20087">
        <ele>4.00</ele>
        <time>2005-07-04T11:13:52.000Z</time>
      </trkpt>
      <trkpt lat="53.37162" lon="7.20077">
        <ele>4.00</ele>
        <time>2005-07-04T11:13:38.000Z</time>
      </trkpt>
      <trkpt lat="53.36920" lon="7.20081">
        <ele>5.00</ele>
        <time>2005-07-04T11:12:39.000Z</time>
      </trkpt>
      <trkpt lat="53.36916" lon="7.20072">
        <ele>6.00</ele>
        <time>2005-07-04T11:12:12.000Z</time>
      </trkpt>
      <trkpt lat="53.36903" lon="7.19907">
        <ele>6.00</ele>
        <time>2005-07-04T11:11:47.000Z</time>
      </trkpt>
      <trkpt lat="53.36888" lon="7.19843">
        <ele>6.00</ele>
        <time>2005-07-04T11:10:59.000Z</time>
      </trkpt>
      <trkpt lat="53.36886" lon="7.19823">
        <ele>6.00</ele>
        <time>2005-07-04T11:10:50.000Z</time>
      </trkpt>
      <trkpt lat="53.36877" lon="7.19783">
        <ele>6.00</ele>
        <time>2005-07-04T11:10:38.000Z</time>
      </trkpt>
      <trkpt lat="53.36886" lon="7.19768">
        <ele>5.00</ele>
        <time>2005-07-04T11:10:13.000Z</time>
      </trkpt>
      <trkpt lat="53.36869" lon="7.19705">
        <ele>6.00</ele>
        <time>2005-07-04T11:10:02.000Z</time>
      </trkpt>
      <trkpt lat="53.36869" lon="7.19677">
        <ele>6.00</ele>
        <time>2005-07-04T11:09:57.000Z</time>
      </trkpt>
      <trkpt lat="53.36879" lon="7.19673">
        <ele>6.00</ele>
        <time>2005-07-04T11:09:53.000Z</time>
      </trkpt>
      <trkpt lat="53.36890" lon="7.19665">
        <ele>5.00</ele>
        <time>2005-07-04T11:09:49.000Z</time>
      </trkpt>
      <trkpt lat="53.36892" lon="7.19630">
        <ele>5.00</ele>
        <time>2005-07-04T11:09:43.000Z</time>
      </trkpt>
      <trkpt lat="53.36894" lon="7.19620">
        <ele>6.00</ele>
        <time>2005-07-04T11:09:39.000Z</time>
      </trkpt>
      <trkpt lat="53.36890" lon="7.19611">
        <ele>7.00</ele>
        <time>2005-07-04T11:06:02.000Z</time>
      </trkpt>
    </trkseg>
  </trk>
</gpx>
